GFSGL_sfc_wetblb_000.txt.gz
Wetbulb
70.19 69.79 69.32 68.91 68.79 68.62 68.20 69.06 69.33 69.59 69.40 68.94 69.16 69.00 68.67 68.56 68.58 68.05 67.77 67.01 66.60 66.76 67.37 67.91 68.25 70.36 68.72 69.38 71.21 72.53 72.04 71.47 67.01 67.77 69.35 72.17 75.17 74.26 74.72 75.62 75.76 76.27 75.44
69.13 68.90 68.58 68.94 69.05 68.35 68.09 68.52 69.09 68.63 69.40 69.05 69.11 69.24 68.76 68.56 68.62 68.11 67.00 66.71 66.02 65.25 65.70 66.60 66.96 68.22 68.76 70.69 69.91 70.63 70.59 71.17 69.54 68.92 69.39 70.27 73.05 75.40 74.94 76.73 75.96 75.00 75.64
68.39 68.08 68.22 68.16 68.30 68.01 68.00 68.16 68.43 68.82 68.72 68.91 69.03 68.29 67.89 68.13 67.89 67.72 67.36 66.08 65.50 64.94 64.90 63.76 63.31 64.90 65.27 67.55 70.13 69.24 68.58 70.39 70.37 69.69 68.12 69.60 70.09 71.78 72.92 75.38 76.06 76.13 74.79
67.61 67.22 67.66 68.24 68.24 67.90 68.12 68.45 68.39 69.00 68.73 68.97 69.24 68.73 68.49 68.30 67.73 67.43 66.36 65.60 64.97 64.30 63.45 61.69 60.86 62.54 65.07 66.76 66.97 69.83 70.10 69.17 70.00 69.03 68.31 67.80 69.07 72.17 72.28 71.23 72.42 73.26 72.99
67.54 67.52 67.58 68.53 68.75 68.35 68.66 68.97 68.93 68.60 68.10 68.63 68.05 68.09 67.79 67.21 66.74 66.73 65.34 65.13 64.14 63.45 62.81 60.02 60.34 61.29 61.44 62.05 63.01 67.75 67.66 69.08 67.84 68.40 66.92 67.10 68.44 69.36 69.37 70.69 70.60 72.34 73.77
68.36 67.52 68.22 68.62 69.05 69.20 68.57 68.66 68.34 67.81 67.60 67.86 67.33 66.87 67.16 66.46 60.59 61.31 62.48 64.47 63.71 63.12 61.69 59.69 59.73 60.58 59.84 60.71 60.67 60.12 64.58 66.85 68.86 67.90 66.60 66.70 69.26 69.47 69.67 70.58 70.15 70.00 68.66
68.50 68.17 68.17 69.02 68.70 68.85 67.80 67.89 67.54 67.57 67.53 66.71 66.58 66.63 66.69 66.94 60.89 60.41 60.98 64.27 63.34 62.28 62.47 61.47 58.86 59.53 59.75 59.37 59.52 59.64 59.90 63.23 65.29 70.30 67.96 68.30 69.67 70.25 71.32 70.67 71.67 71.72 70.42
68.33 68.11 68.33 68.53 68.31 68.46 67.54 66.96 67.22 67.36 66.82 66.18 65.96 66.33 66.14 65.76 59.48 59.54 60.32 64.41 64.60 63.30 62.65 62.57 60.39 58.83 59.27 58.45 57.25 57.67 59.52 61.47 67.94 66.95 70.21 70.00 71.29 72.19 72.39 72.45 73.78 73.46 74.14
67.19 67.66 67.89 68.41 68.12 68.02 67.17 67.24 67.30 66.63 65.55 64.99 65.79 65.97 65.78 65.75 57.47 57.97 60.01 64.27 64.96 63.77 63.82 63.01 62.00 60.20 58.45 57.37 55.92 56.18 57.52 62.11 63.90 63.14 64.22 64.83 64.12 64.06 68.53 71.60 70.42 69.44 67.48
67.01 67.32 67.49 68.25 68.24 67.38 67.49 67.14 67.15 66.53 65.13 64.81 64.95 65.89 63.32 65.37 59.03 56.42 59.23 64.63 64.14 65.33 63.57 65.01 59.53 58.77 55.32 54.44 55.15 55.85 56.38 58.59 65.18 66.93 67.93 65.19 64.68 67.61 63.26 71.56 71.31 69.90 69.02
67.72 67.14 67.42 68.71 69.34 68.97 67.78 67.51 66.55 66.26 65.86 65.65 65.37 65.75 65.59 63.55 64.58 56.11 54.41 63.44 65.27 63.82 63.70 61.20 63.22 55.35 52.54 51.63 52.86 57.88 56.30 57.70 63.59 65.56 67.23 69.07 69.59 69.93 70.59 69.91 71.77 70.13 68.61
68.52 67.87 68.66 69.04 68.71 66.43 68.49 66.87 65.97 65.86 65.03 64.99 64.93 64.08 63.20 65.09 57.70 55.50 52.85 52.64 57.18 60.81 61.44 62.78 62.80 52.37 49.65 50.92 55.09 55.15 55.67 57.98 64.35 64.68 64.64 64.37 66.65 68.91 69.54 70.76 71.89 71.36 72.45
69.40 68.05 66.94 65.71 67.39 68.24 67.57 66.80 64.16 64.06 62.33 60.48 61.11 61.13 61.66 63.03 63.44 55.20 53.48 52.34 53.63 55.86 60.30 59.11 53.32 50.80 50.23 55.41 55.94 55.75 57.15 58.22 56.96 56.66 59.19 61.04 64.66 69.15 68.83 69.66 72.14 72.46 72.54
67.09 66.20 66.34 66.98 66.81 67.46 66.31 64.81 63.46 61.77 61.31 61.60 60.71 60.96 61.12 61.88 62.38 60.89 60.19 61.30 56.10 55.42 57.43 60.22 57.57 56.04 54.46 57.02 58.70 59.16 59.73 57.90 57.36 56.56 56.39 57.86 59.21 60.80 63.90 67.01 67.50 68.09 69.44
65.83 65.49 66.06 65.67 65.49 65.45 66.55 62.52 63.02 57.30 57.43 58.53 61.17 60.99 60.21 59.70 58.11 45.84 46.50 54.66 57.09 55.96 52.90 60.83 57.92 56.50 52.79 55.80 57.40 58.94 59.04 59.28 57.18 56.80 55.94 55.95 56.92 58.14 57.66 60.24 63.81 66.85 65.32
65.30 64.52 64.09 63.49 63.33 62.59 63.56 60.14 46.36 46.70 44.42 42.94 42.51 48.58 57.84 46.22 42.30 40.81 41.28 41.10 41.87 46.19 58.63 55.60 53.51 52.56 48.91 49.36 49.28 52.75 55.72 57.20 59.01 58.62 56.92 56.36 55.79 56.42 57.98 57.66 58.92 60.67 59.07
64.88 63.98 63.23 60.25 61.66 63.68 63.95 60.62 52.46 49.09 44.74 42.65 42.57 42.51 41.30 41.06 40.89 40.43 41.63 41.59 44.87 50.14 56.47 54.45 53.59 52.88 49.10 46.88 49.63 49.37 50.04 52.30 56.10 55.87 58.08 59.08 57.18 56.96 56.40 57.68 58.04 58.73 57.62
63.85 54.08 61.99 63.20 64.04 63.59 62.33 60.78 58.00 55.22 55.00 56.86 46.31 47.37 43.29 41.97 41.48 41.30 42.06 45.00 56.31 53.92 53.80 52.70 51.61 53.08 51.75 50.03 49.22 49.59 50.02 50.54 53.65 55.32 55.74 56.46 57.04 58.53 57.80 56.10 56.20 55.48 56.10
62.64 63.62 64.06 61.31 58.94 56.51 55.21 52.72 52.79 54.00 54.93 56.00 58.15 51.00 49.98 44.21 42.28 43.93 45.35 55.22 53.75 52.66 52.57 51.05 50.33 49.08 47.93 48.36 49.81 51.49 51.37 50.37 50.11 51.92 54.82 55.48 55.35 56.72 58.47 59.14 58.51 53.96 54.39
59.51 56.71 57.28 59.55 56.86 53.62 53.37 51.98 52.40 52.01 53.50 54.69 54.83 53.16 54.01 53.11 52.51 52.28 51.72 51.90 51.01 49.05 47.74 47.57 47.39 47.92 48.12 48.04 48.63 48.80 49.76 48.79 50.01 50.30 50.13 52.37 52.95 55.50 55.47 58.11 59.77 58.48 58.76
59.00 59.17 55.86 57.32 54.48 54.32 53.28 53.16 53.61 52.73 52.60 53.17 50.67 46.98 41.44 50.20 48.50 47.99 48.07 48.15 45.96 45.59 46.14 46.68 40.44 39.55 39.72 40.17 41.69 44.95 46.70 45.89 48.06 49.26 50.33 51.41 51.10 50.45 54.11 56.50 56.40 57.65 58.44
58.58 57.83 58.55 57.80 56.65 55.93 55.57 54.59 53.30 50.85 51.10 52.49 50.11 47.59 42.13 49.18 47.62 46.86 46.70 46.24 45.32 45.55 47.16 46.47 44.52 42.13 39.68 39.44 37.98 38.27 41.45 43.89 43.87 47.89 50.59 51.18 50.51 49.97 51.76 53.04 56.30 56.07 55.22
57.29 56.52 56.33 56.84 55.95 50.01 52.95 53.73 53.58 52.78 50.03 52.52 51.76 50.19 48.91 50.00 47.64 44.54 43.79 45.73 46.97 46.59 48.06 47.25 45.61 44.68 43.33 44.10 43.10 39.83 38.50 40.46 43.12 46.00 47.57 49.25 49.89 50.03 50.11 48.23 50.09 52.94 53.51
53.72 55.63 55.85 55.16 54.53 54.35 53.63 53.47 51.13 46.73 50.64 49.81 49.57 49.78 50.29 50.50 49.01 45.03 46.08 49.24 48.32 46.82 46.18 44.98 44.05 43.12 42.88 42.49 41.93 40.82 37.78 36.31 42.28 44.65 46.23 46.13 45.59 46.36 48.90 49.76 50.51 49.59 47.67
54.65 55.30 54.43 53.49 51.24 51.93 50.10 51.19 50.44 49.73 49.44 49.09 49.21 49.26 49.48 48.79 47.40 47.16 46.97 46.42 45.25 44.65 43.40 43.35 43.17 42.56 41.62 40.24 39.13 37.84 30.58 28.59 36.54 32.37 45.28 44.92 44.17 44.80 45.08 45.38 47.21 47.61 47.58
54.24 53.78 52.49 51.77 50.36 50.13 49.38 48.81 48.53 48.29 47.32 47.06 46.72 46.44 46.14 45.89 45.73 45.75 45.61 44.61 44.31 43.64 42.78 42.62 42.22 41.37 40.99 39.33 35.78 30.13 29.00 28.90 34.25 30.16 39.24 44.70 43.84 42.48 43.75 44.31 44.24 43.73 44.27

GFSGL_sfc_wetblb_003.txt.gz
Wetbulb
71.26 71.14 70.03 69.54 69.64 69.99 69.21 69.21 69.86 70.48 70.43 69.82 69.46 69.03 69.26 69.27 69.70 70.03 69.15 68.67 67.53 68.25 68.18 67.68 67.58 68.73 65.23 66.25 68.70 69.24 69.13 69.99 67.27 66.72 67.46 69.58 69.80 73.02 71.08 74.76 75.63 76.12 74.54
70.68 70.56 69.55 69.78 69.68 69.04 69.03 69.00 69.73 69.31 70.02 69.59 69.35 69.29 68.92 68.94 70.00 68.62 67.81 67.74 67.13 65.90 65.85 65.52 64.46 64.24 65.38 65.41 66.06 68.32 68.66 68.99 68.03 65.88 67.62 68.69 71.52 73.71 73.66 74.89 74.18 74.27 74.98
70.05 69.66 69.46 69.37 69.35 69.54 69.40 69.26 69.18 68.87 69.04 69.10 69.45 68.88 68.61 68.70 68.39 68.51 68.41 67.21 66.59 66.00 65.47 64.59 63.56 63.14 61.54 60.33 60.47 67.34 68.28 68.75 68.03 67.58 67.16 69.51 70.26 71.62 73.12 74.50 74.87 74.60 74.97
68.62 68.17 68.90 69.22 69.80 69.47 69.84 69.42 69.48 69.60 69.20 69.03 69.77 69.31 68.49 68.28 68.32 68.22 67.76 67.25 66.26 65.78 65.44 64.18 63.44 62.19 60.68 58.85 59.04 60.15 62.57 66.23 67.29 67.07 68.32 68.27 68.95 70.84 71.89 69.07 70.44 72.86 72.53
68.64 68.29 68.58 69.53 70.19 70.22 69.69 69.60 69.44 69.25 68.69 69.00 69.36 68.61 67.86 67.99 66.35 67.67 67.63 66.37 65.88 65.15 65.09 64.83 63.89 62.31 60.88 59.75 59.08 58.70 58.74 58.95 59.55 67.38 66.91 67.85 67.43 67.79 67.57 69.69 68.61 72.78 73.29
69.13 68.52 69.12 69.33 69.62 69.62 69.65 69.31 69.30 68.85 68.91 69.33 67.85 68.27 68.64 66.14 62.12 61.80 63.61 65.01 65.76 64.85 63.87 64.21 64.70 62.60 61.18 60.69 59.61 59.77 59.56 58.40 58.10 58.27 66.86 66.87 68.29 68.44 68.15 67.60 69.69 69.89 69.33
69.33 69.40 69.03 69.31 69.29 69.54 68.91 68.68 68.36 68.77 69.93 69.31 67.66 67.41 67.77 68.66 60.59 62.43 63.07 64.13 64.56 65.24 64.80 64.27 63.13 63.00 62.32 60.64 58.15 58.69 59.26 59.78 60.33 60.98 59.33 65.12 67.59 69.19 69.45 69.81 71.18 70.59 70.49
69.35 69.13 69.22 69.28 69.02 69.38 69.12 68.68 69.13 69.12 69.49 68.59 68.00 68.21 67.88 66.92 59.51 60.48 62.01 64.30 64.65 65.83 65.90 65.79 64.94 63.06 62.78 59.85 57.67 56.46 57.23 58.85 60.27 62.06 64.87 64.33 67.63 71.20 71.33 69.41 71.77 71.43 73.35
68.64 69.03 69.22 69.04 68.96 69.11 68.32 68.83 69.29 69.21 68.03 67.41 68.02 67.15 68.38 68.01 58.12 58.28 61.69 64.26 65.34 65.70 65.82 66.04 65.58 63.00 60.36 57.82 56.93 55.95 57.27 58.10 59.98 59.49 59.57 60.29 63.43 64.29 67.50 71.76 68.18 70.59 69.25
69.15 68.83 69.39 69.31 69.07 68.66 69.37 69.48 69.34 69.09 66.73 65.78 65.76 66.92 63.62 67.65 61.77 56.55 59.46 63.31 65.49 64.04 65.19 65.45 60.75 60.48 56.04 54.69 56.34 57.02 56.08 57.04 57.26 58.63 62.16 62.06 63.43 67.44 63.00 69.67 71.60 67.54 68.88
69.26 69.12 70.02 69.76 70.76 70.20 69.98 65.51 67.68 67.82 67.57 66.82 65.37 66.98 66.87 64.81 62.34 56.84 55.27 63.30 62.76 62.61 62.71 62.84 61.91 55.23 51.92 50.93 52.04 57.22 56.98 56.66 57.92 60.93 62.57 66.47 68.90 69.55 70.07 70.44 70.88 70.55 68.23
71.33 69.86 70.38 71.49 68.56 66.81 70.01 68.82 68.46 67.88 66.69 65.20 64.15 63.60 59.80 63.06 59.70 57.68 54.89 53.91 58.12 59.70 59.98 60.72 62.80 51.93 49.23 51.11 54.31 55.24 55.09 56.79 57.62 57.96 64.54 65.90 67.70 68.43 69.29 70.83 71.14 71.55 71.43
71.46 71.35 70.55 70.05 67.99 67.67 68.92 69.16 66.01 67.00 66.23 59.53 60.90 60.65 61.86 61.04 63.06 55.84 54.54 53.03 53.11 58.49 61.22 57.54 53.03 50.79 51.66 55.26 55.08 55.06 56.94 58.06 56.18 55.50 55.76 56.70 59.41 67.33 71.75 71.20 71.37 72.33 72.18
71.15 69.70 69.56 69.75 68.49 68.82 68.09 66.28 64.24 63.26 60.97 61.35 60.78 61.13 59.33 61.81 60.33 59.76 59.86 60.38 58.62 57.99 59.61 60.21 58.24 55.06 51.95 53.13 55.03 56.40 57.10 57.04 57.74 55.76 55.15 56.92 58.76 58.23 63.37 66.21 67.65 68.77 69.49
68.47 67.60 66.94 66.18 66.84 66.29 67.54 62.67 62.74 58.50 56.13 59.58 59.81 60.30 59.38 59.59 55.74 46.01 46.66 54.80 56.17 55.42 51.71 62.63 58.78 55.65 52.13 51.88 52.10 54.14 55.04 54.53 55.19 57.56 56.36 55.74 56.06 57.40 57.93 60.32 65.19 67.94 68.03
66.53 65.86 64.87 64.36 63.90 63.18 62.33 60.51 46.02 46.29 43.40 42.15 42.34 48.05 55.38 45.77 42.48 41.20 42.24 41.91 41.91 44.02 55.83 58.05 56.76 55.13 51.16 49.48 51.33 51.29 52.45 52.95 55.66 55.50 56.24 57.38 56.02 55.32 55.50 56.44 58.73 60.28 58.07
65.78 64.81 63.50 61.58 62.16 62.75 63.65 63.50 60.64 52.22 45.43 43.31 42.73 43.30 43.02 42.10 41.62 41.28 42.39 44.14 44.14 47.30 57.54 56.70 55.15 53.90 52.05 51.41 51.40 51.61 51.17 52.30 53.78 56.36 56.48 56.10 57.32 57.14 55.08 54.62 55.20 55.36 55.80
64.93 55.21 62.21 62.49 62.92 63.95 62.66 61.30 61.41 59.59 57.86 55.32 46.42 47.75 44.88 43.67 42.43 42.43 42.68 47.21 55.67 54.46 55.85 53.92 52.40 51.44 50.22 48.67 49.10 50.66 51.03 52.37 51.95 50.92 54.70 55.44 57.32 56.96 57.42 54.75 54.76 54.47 55.22
63.35 64.16 64.25 62.87 62.14 59.83 60.48 58.63 58.17 54.48 54.74 54.05 55.40 48.34 47.89 44.06 43.88 43.00 46.00 55.29 52.63 51.87 52.08 51.52 50.60 49.56 48.80 49.59 49.51 49.95 50.40 49.82 50.75 51.73 52.83 52.74 53.39 56.75 56.78 57.86 56.56 52.43 54.09
62.47 57.88 59.82 61.72 60.01 59.49 58.09 56.49 54.50 54.59 54.42 53.85 53.19 51.87 53.59 52.68 51.20 51.67 51.55 50.87 49.66 49.46 48.42 46.19 44.26 42.81 41.82 42.16 42.98 46.61 47.33 47.54 49.63 50.71 51.29 51.71 52.33 53.07 54.70 57.95 58.33 57.68 57.64
61.76 61.44 56.68 60.05 58.32 57.61 57.42 54.11 55.16 56.04 55.41 54.45 49.16 47.53 41.55 48.97 48.98 49.11 49.00 49.62 47.88 47.66 48.67 48.98 46.42 41.98 40.91 40.19 39.72 40.66 43.54 45.97 45.54 47.91 50.92 51.19 50.57 48.01 51.22 52.83 56.78 57.01 55.15
62.14 60.71 60.03 58.97 56.82 57.12 57.07 56.52 55.02 54.45 53.85 53.43 49.64 47.13 43.15 48.53 47.73 48.12 49.18 50.30 49.87 49.45 50.77 49.53 48.42 46.58 46.48 43.78 42.69 41.43 40.71 42.50 45.71 47.16 48.35 49.37 49.77 51.38 50.45 49.89 51.66 54.18 53.14
57.39 56.71 55.66 55.26 55.54 50.60 54.23 54.69 55.77 54.07 53.93 52.83 52.27 50.77 49.96 48.12 47.86 48.32 49.36 51.25 51.71 50.04 49.11 48.15 46.60 46.12 46.24 45.12 44.28 41.75 39.98 40.36 44.43 46.39 46.76 46.87 47.00 47.93 50.54 51.02 50.29 49.50 49.86
52.74 52.24 52.87 53.39 55.17 53.39 54.31 53.65 53.67 47.06 50.67 51.45 51.13 51.42 51.11 50.81 49.30 48.60 50.06 50.85 49.31 47.61 46.87 46.24 45.33 43.90 43.60 43.27 42.50 40.85 38.37 37.09 42.28 43.09 45.27 45.95 45.17 45.62 46.60 47.75 49.09 48.79 49.09
57.10 55.66 53.54 53.22 52.68 52.03 53.28 51.09 51.65 51.17 50.68 51.45 50.90 50.54 50.37 49.96 49.36 48.98 48.15 47.67 46.68 46.59 44.89 44.98 44.80 44.01 42.30 40.66 39.11 37.87 32.19 29.18 36.80 32.23 42.61 46.65 45.61 45.60 45.61 45.31 45.27 45.32 46.52
54.59 54.40 52.95 52.56 51.64 51.45 50.51 50.57 50.48 50.38 49.47 49.02 49.15 49.09 48.70 47.88 47.44 47.76 47.52 47.03 46.93 45.17 44.62 44.73 44.13 43.37 42.24 40.19 36.50 31.19 29.57 29.44 33.99 30.31 36.29 46.00 44.76 43.96 44.46 45.32 45.45 45.14 45.40

GFSGL_sfc_wetblb_006.txt.gz
Wetbulb
72.61 73.33 73.44 71.79 71.84 72.59 71.78 71.62 72.07 73.13 73.00 72.01 71.29 70.44 69.76 69.22 70.11 69.35 69.43 68.20 66.55 67.84 67.54 66.50 66.46 65.68 63.32 62.75 62.25 61.65 60.60 60.22 60.03 62.60 65.72 68.02 68.81 68.50 70.05 72.05 72.44 72.12 72.50
72.18 73.25 72.55 72.23 72.24 72.37 71.77 71.62 72.55 72.02 72.44 71.62 71.00 70.18 68.88 68.94 69.08 68.04 67.63 67.77 67.02 66.27 66.41 65.95 65.56 63.69 63.22 62.06 60.37 59.55 59.25 59.51 59.40 60.86 64.08 66.27 67.37 68.36 68.23 69.10 70.80 71.42 71.20
71.68 70.07 71.69 71.88 71.58 71.78 71.87 72.11 71.98 71.70 70.93 70.95 70.63 69.57 68.65 68.71 68.84 68.33 68.14 67.38 67.31 66.92 66.37 65.18 64.96 63.96 61.88 61.23 60.26 59.08 58.72 58.54 58.30 58.62 62.18 65.69 66.88 67.97 68.28 69.84 69.28 69.55 70.48
69.49 69.91 70.86 71.16 71.45 71.27 72.20 72.41 71.79 71.35 70.95 70.66 70.50 69.96 68.94 68.83 68.59 67.90 67.65 67.03 66.00 66.25 66.45 65.25 64.61 63.48 62.26 60.73 59.62 58.78 57.99 56.60 57.46 57.30 58.54 62.28 65.37 66.73 67.63 66.45 67.86 70.22 70.07
70.06 70.48 71.22 72.10 71.90 72.01 71.84 71.76 71.39 71.27 70.78 71.15 70.10 69.70 69.40 68.75 67.02 68.12 67.59 66.77 66.47 65.65 66.07 64.92 64.34 64.47 63.20 62.14 60.19 59.35 57.71 55.76 56.22 56.06 56.62 58.64 60.98 64.56 64.87 65.59 66.51 68.17 69.52
67.63 69.67 71.58 71.64 71.19 70.83 71.48 71.79 71.19 71.26 71.07 70.88 69.42 69.09 68.86 67.46 63.22 64.93 65.58 66.63 66.14 65.04 64.00 64.40 64.27 63.83 63.41 62.47 61.61 61.06 59.26 56.76 55.48 55.66 56.28 55.48 57.24 62.17 65.87 65.74 65.36 66.09 65.40
70.10 70.54 70.92 71.18 70.72 71.16 71.08 70.96 71.09 71.45 70.96 70.16 69.40 68.60 68.31 68.07 61.77 61.97 64.10 64.92 64.61 64.34 64.48 64.27 62.84 63.70 62.80 62.19 61.69 60.70 60.14 58.97 58.95 57.53 56.80 57.22 57.58 59.94 64.18 65.49 65.25 65.00 65.33
70.33 70.32 70.54 70.71 70.35 71.09 70.75 70.54 71.31 71.02 70.46 69.27 68.38 68.75 68.16 67.03 60.28 59.70 61.84 64.22 64.49 64.42 64.73 64.02 62.78 62.69 63.09 62.08 60.54 59.56 59.19 57.78 58.34 59.01 58.57 58.78 59.73 61.63 62.26 66.09 66.29 65.73 68.00
69.46 69.95 70.35 70.51 70.19 70.35 70.17 70.33 70.73 69.71 69.30 68.81 68.67 67.97 66.74 67.25 59.63 57.59 59.40 63.83 63.41 63.33 64.91 64.04 63.55 62.12 60.71 58.15 58.48 58.08 56.41 57.01 59.19 58.58 58.23 58.35 58.75 59.67 61.02 64.19 64.80 63.83 64.26
69.02 70.06 70.82 70.86 70.81 70.15 70.18 69.87 69.23 71.14 68.52 66.54 66.45 67.58 65.24 67.93 57.78 57.26 59.70 59.48 59.96 61.39 63.60 63.92 59.85 58.78 55.22 53.17 55.72 56.78 55.92 56.61 56.69 57.73 57.50 59.67 58.87 58.79 59.68 60.98 63.84 64.12 63.19
70.66 71.03 71.17 71.41 71.67 71.57 71.85 71.06 69.71 67.38 66.55 66.84 67.05 66.85 66.88 65.64 63.29 58.25 56.58 60.17 60.50 61.28 60.03 60.44 62.76 54.53 51.03 50.97 51.72 57.56 54.95 55.41 57.45 57.39 56.82 57.94 62.58 61.05 60.33 61.82 65.50 67.52 64.40
72.71 71.89 72.04 72.27 69.48 67.55 70.99 70.08 67.42 68.70 66.33 65.90 65.85 63.58 62.95 63.52 57.67 57.23 56.62 55.55 57.67 59.40 59.56 60.89 61.39 49.93 48.79 50.17 53.29 53.32 53.88 55.68 56.36 56.58 55.88 55.72 56.64 63.03 63.33 66.57 66.52 67.65 69.13
74.56 73.51 73.06 73.44 71.63 71.91 69.89 68.02 67.78 66.09 65.36 66.48 63.72 61.04 59.88 62.09 63.74 57.33 54.79 53.44 54.52 56.28 60.68 58.00 52.34 49.64 50.19 52.24 51.96 52.91 54.66 55.39 54.89 55.15 55.39 55.88 56.52 58.93 65.07 67.59 68.14 67.69 68.02
72.90 73.15 73.09 71.63 71.86 70.70 68.26 68.96 63.63 66.00 64.14 63.17 60.46 62.83 62.25 62.66 58.37 55.05 56.53 58.20 57.02 58.15 56.29 57.30 56.99 53.99 51.66 52.47 53.32 54.26 54.43 54.41 55.29 55.17 55.31 57.08 57.90 56.82 57.78 60.98 66.44 66.96 66.10
71.41 71.70 71.22 69.20 68.52 67.39 58.58 56.96 62.66 53.63 53.41 59.35 57.40 58.41 56.48 57.73 51.89 45.61 46.05 51.59 53.09 51.06 46.89 57.21 59.92 55.99 52.30 51.36 51.86 53.15 53.14 53.57 53.10 55.31 55.74 55.92 56.80 55.74 55.82 57.50 59.31 62.98 64.90
68.94 67.95 67.09 66.57 61.45 66.13 60.60 56.50 45.64 45.23 43.07 42.08 43.07 48.94 51.43 45.90 43.11 42.21 42.09 42.20 42.65 43.77 52.65 56.58 53.87 53.18 51.27 49.91 50.34 51.01 52.31 52.68 51.97 52.71 54.86 54.23 56.60 56.06 55.01 55.98 56.76 56.04 55.49
67.65 66.97 65.65 61.65 64.51 64.20 64.14 62.84 59.96 51.26 45.97 44.36 44.00 44.20 44.44 43.77 42.84 41.95 42.93 43.44 46.23 47.85 55.04 52.76 51.71 51.36 50.37 49.23 48.78 49.63 49.23 50.81 53.19 52.28 52.54 52.96 53.65 56.86 55.81 55.03 55.26 54.92 54.35
66.07 56.22 63.78 63.85 63.98 63.68 62.41 61.43 60.78 60.30 57.95 56.88 46.14 46.46 44.55 44.58 43.84 43.15 43.52 47.43 54.77 52.91 52.68 50.78 49.58 48.98 47.91 48.08 48.14 48.02 48.45 49.04 50.04 51.99 51.87 51.60 52.53 53.72 56.72 55.91 55.29 54.68 54.31
63.72 63.06 63.84 63.13 61.55 59.88 60.38 59.25 58.34 57.31 56.56 55.89 55.81 48.27 47.76 44.54 44.64 44.86 46.40 53.12 51.65 50.04 49.27 46.85 45.57 43.37 42.38 42.38 42.70 43.10 46.13 45.21 46.05 49.41 50.33 50.01 50.00 50.46 51.66 56.54 56.90 53.50 53.81
62.62 57.40 59.11 62.80 59.81 59.73 58.38 57.28 56.43 55.37 54.39 54.41 52.66 50.26 50.03 50.52 50.54 50.75 50.87 50.20 49.53 48.81 46.76 44.43 42.91 41.23 40.77 40.57 40.07 40.82 41.84 45.29 45.55 46.04 48.59 49.59 50.36 49.51 50.17 52.62 54.71 53.93 55.32
59.89 60.50 56.22 60.90 58.78 57.42 56.52 55.38 55.10 55.00 54.23 52.99 50.76 48.23 42.02 50.09 48.71 49.06 49.05 49.47 49.27 49.47 49.85 49.26 48.23 46.65 44.44 43.87 42.14 41.13 41.53 42.68 44.88 46.08 46.33 46.77 47.07 49.84 50.36 49.95 51.07 52.18 50.46
58.42 58.88 58.85 59.17 56.97 57.53 56.82 56.96 55.33 54.14 53.48 51.87 50.62 48.59 43.30 49.50 48.26 48.06 49.21 50.08 50.42 51.57 50.58 49.76 48.05 47.15 46.02 44.32 41.60 40.37 40.09 41.32 43.42 43.96 44.99 45.08 45.50 46.92 48.30 50.30 49.22 48.86 48.86
58.77 58.64 57.32 53.72 53.26 51.09 53.67 54.49 54.42 53.90 53.43 52.72 51.93 49.86 48.84 48.72 48.45 47.32 48.33 50.06 51.13 49.06 48.53 47.25 45.99 44.75 44.75 43.27 41.76 39.11 37.90 37.52 39.87 41.65 40.87 44.28 44.45 45.15 44.87 46.89 47.00 47.43 47.64
56.21 54.93 54.22 54.07 53.91 53.58 53.36 53.38 52.57 49.08 50.07 51.14 51.11 50.16 49.80 49.99 49.14 48.30 48.48 49.40 48.72 47.41 47.01 46.48 44.46 42.07 41.55 40.89 39.65 38.27 35.57 33.69 37.60 37.39 40.26 45.30 43.23 43.73 44.74 44.24 44.22 44.68 46.27
55.37 55.21 54.80 54.16 53.59 52.65 52.28 51.50 51.60 51.35 50.40 50.04 49.78 49.22 49.09 48.61 48.00 47.77 47.56 47.16 46.69 46.54 45.43 45.10 45.04 42.57 40.26 38.38 36.87 35.39 31.63 29.56 35.00 31.99 38.45 44.01 44.62 43.10 44.14 44.03 44.49 44.32 44.38
54.67 53.98 53.70 53.11 52.24 51.76 50.69 50.27 50.30 50.50 49.77 49.37 48.92 48.37 47.96 47.19 46.71 46.25 46.17 45.84 45.79 44.85 44.70 44.87 44.06 43.32 41.37 38.12 35.02 31.27 29.60 29.34 31.92 30.88 34.62 44.27 41.60 42.40 42.17 43.42 43.64 43.19 44.29

GFSGL_sfc_wetblb_009.txt.gz
Wetbulb
68.59 68.08 67.69 67.80 66.80 66.35 65.38 64.78 64.99 65.50 66.22 65.71 65.64 65.09 64.74 64.75 64.91 64.40 63.56 63.76 63.18 62.57 62.65 61.96 61.50 60.58 58.94 58.63 57.79 56.50 55.61 55.23 54.25 55.69 57.85 60.16 63.31 64.65 66.64 69.90 69.65 69.34 69.27
68.45 68.24 66.66 64.37 64.84 65.69 64.93 64.82 65.09 64.90 65.49 65.25 65.06 64.96 64.78 64.39 64.23 63.57 62.50 63.45 62.46 61.77 61.78 61.10 61.41 61.76 58.75 57.95 56.81 55.80 55.05 55.27 55.63 53.04 55.77 57.61 59.78 62.75 65.49 66.77 67.76 69.68 70.75
67.75 67.93 65.88 65.29 64.42 64.32 64.94 64.89 64.95 64.73 64.33 64.17 64.88 64.30 64.00 63.85 63.79 63.83 63.38 63.08 62.36 62.17 62.33 61.36 60.48 59.84 58.08 57.81 57.35 56.13 55.53 56.66 55.39 54.50 54.46 57.01 59.09 60.71 62.74 65.77 66.79 67.17 69.05
68.02 67.68 65.92 65.70 64.95 65.32 65.38 65.38 65.37 65.10 64.68 65.09 65.18 64.57 64.21 64.27 64.24 64.38 64.00 62.24 62.81 61.90 62.70 62.00 60.79 60.14 58.84 58.18 57.23 56.23 55.99 54.58 54.08 53.52 54.42 55.26 57.09 59.10 60.50 61.53 63.71 66.41 66.88
67.11 66.22 65.75 65.86 65.56 65.83 65.69 66.05 65.60 65.10 65.56 65.01 64.64 64.30 64.26 64.91 65.41 61.75 63.12 64.05 63.42 61.56 62.06 61.72 61.43 61.82 63.71 60.71 58.64 57.97 55.93 56.53 54.18 53.58 53.20 54.71 55.23 55.62 56.43 58.67 60.58 64.38 66.23
66.04 65.84 66.86 66.82 66.07 65.75 65.60 65.71 64.98 64.64 65.02 65.09 63.88 63.23 63.41 65.13 62.44 62.95 62.39 60.35 61.28 60.34 59.85 60.28 60.65 63.08 61.56 62.42 62.33 62.38 61.14 57.16 54.45 54.16 54.43 54.20 55.18 56.20 57.40 56.99 58.70 61.02 61.49
65.19 65.67 66.20 66.58 65.78 65.61 65.91 66.10 65.79 65.41 64.26 62.84 63.87 63.58 62.74 63.23 62.20 61.78 62.86 59.98 59.51 59.67 59.73 59.69 59.96 62.20 61.72 59.70 60.24 61.18 61.21 61.07 60.30 57.77 55.49 55.74 56.06 57.03 57.31 56.73 57.39 59.17 62.18
64.57 64.97 65.85 65.37 65.44 65.69 65.37 65.23 65.14 64.02 63.12 63.27 63.19 62.83 63.14 63.29 60.54 60.00 60.82 58.95 59.87 60.48 60.39 60.11 59.69 59.51 59.38 58.86 57.33 56.06 56.59 57.35 57.85 57.84 57.55 57.17 57.68 58.16 57.95 57.87 57.93 58.66 63.06
64.47 65.14 65.94 65.83 65.01 65.28 65.39 65.04 64.73 64.35 63.58 63.93 63.41 62.49 62.34 61.36 58.00 57.64 58.46 57.93 58.22 57.60 59.23 59.78 59.72 58.14 57.37 55.87 54.23 53.73 55.03 56.51 58.13 58.03 57.62 57.75 58.22 58.35 58.65 57.78 57.14 57.84 58.34
65.19 65.61 66.33 65.84 65.53 65.27 65.41 65.61 64.73 64.13 63.29 62.82 60.58 62.45 60.78 59.19 57.81 57.33 57.24 56.67 54.13 56.37 58.16 58.72 58.66 55.68 53.40 52.87 52.82 53.96 55.21 54.52 54.75 56.04 56.33 57.20 58.18 58.52 59.62 59.13 57.26 58.60 59.35
65.29 66.20 66.64 66.41 66.19 66.04 66.02 65.30 64.48 63.71 59.36 59.38 60.70 61.58 61.03 59.93 58.02 56.37 55.44 55.62 57.24 56.82 55.38 56.10 55.72 52.13 50.17 50.47 51.07 54.10 53.23 54.15 55.06 55.16 55.88 56.59 57.53 58.00 59.19 58.84 58.59 57.92 60.21
65.98 66.23 66.82 66.81 67.53 67.41 65.99 65.77 64.33 62.46 61.16 60.62 59.59 59.89 58.90 59.37 56.11 54.71 55.06 54.20 56.76 53.00 53.10 55.01 53.09 49.22 49.36 49.81 50.97 51.96 52.99 54.33 54.89 54.77 55.03 55.08 55.85 56.72 57.12 59.42 58.57 58.85 61.54
67.16 66.51 67.06 67.50 67.49 64.32 64.46 63.99 62.35 61.47 61.44 60.69 59.02 58.19 56.89 57.45 56.23 54.59 52.82 53.01 54.14 52.69 53.89 53.19 50.54 48.44 49.08 50.27 51.90 52.82 53.25 53.44 53.58 53.54 53.72 54.55 55.65 57.78 58.06 62.31 60.67 59.52 62.64
61.42 66.27 65.96 66.68 64.92 64.79 63.18 61.75 60.72 59.78 58.24 58.07 56.78 55.68 55.70 55.19 50.17 49.51 51.04 51.10 52.86 51.54 50.53 48.78 53.61 51.60 50.81 50.86 51.35 52.77 53.29 52.79 52.65 51.99 52.82 54.69 55.91 57.34 56.66 57.38 59.55 63.56 63.15
58.56 60.46 64.73 65.03 63.13 57.54 54.26 54.24 57.96 48.62 50.37 54.21 52.26 52.13 51.51 49.58 47.35 44.40 45.71 48.13 47.76 47.36 45.07 50.79 52.70 49.06 47.57 47.45 49.29 51.41 51.39 51.30 51.47 51.78 52.42 52.58 53.46 55.97 56.15 56.96 56.29 56.27 57.74
58.63 62.77 62.81 61.81 60.17 57.80 53.28 49.05 45.23 45.55 42.75 42.54 43.26 48.49 46.76 45.83 43.17 42.26 42.01 41.44 41.74 43.00 47.45 48.63 47.41 46.43 46.07 47.59 47.56 48.26 49.04 49.55 49.91 51.68 51.57 51.31 51.68 53.50 56.21 55.97 55.93 55.19 54.59
62.84 60.60 60.60 57.39 58.51 58.39 54.32 51.20 48.19 46.96 44.96 43.38 43.24 43.82 44.92 44.53 43.26 42.32 42.76 42.08 44.99 47.91 47.61 46.37 45.32 45.09 45.29 44.99 44.29 45.89 45.17 46.12 47.60 50.43 50.83 50.05 50.28 52.45 54.27 55.61 55.35 54.66 54.05
60.36 56.14 57.42 57.63 58.40 58.01 57.88 57.62 55.95 51.87 50.03 48.83 44.16 45.28 44.15 43.48 42.75 42.25 44.31 47.68 48.57 46.91 44.19 42.23 40.55 40.77 41.74 41.27 41.72 41.47 43.45 44.91 45.29 45.44 49.05 49.14 50.32 50.10 51.78 54.09 54.27 54.57 54.15
59.54 58.78 58.49 56.67 56.33 56.21 55.36 53.90 53.60 53.07 52.17 52.16 49.01 46.84 46.03 44.41 43.53 44.10 45.53 46.96 45.12 43.30 41.35 39.34 39.37 37.67 38.91 39.72 39.85 40.85 41.40 42.53 44.74 45.17 45.65 45.78 47.12 49.95 49.94 52.55 51.62 49.68 51.47
56.13 56.35 56.75 56.15 56.68 55.13 53.79 52.65 51.94 51.03 50.38 49.82 48.05 47.61 46.28 46.80 46.02 46.83 47.39 46.42 46.00 44.57 42.15 39.93 38.02 37.32 37.19 37.24 37.64 40.10 40.70 40.95 42.88 42.92 43.64 44.30 44.50 48.13 48.86 49.27 49.50 49.01 49.32
57.70 56.25 56.97 54.68 53.77 52.72 51.64 50.47 50.52 50.58 50.20 48.53 47.32 44.23 42.30 45.52 44.33 44.49 45.11 44.98 44.44 45.65 44.44 43.27 41.61 38.90 38.34 37.70 35.71 35.41 36.19 38.95 39.32 39.61 39.92 41.46 42.78 43.40 46.77 47.44 47.76 47.99 47.60
56.68 55.23 55.57 55.91 53.32 52.66 53.13 51.97 51.52 49.11 48.86 47.39 44.37 43.19 43.51 44.69 44.08 43.72 46.49 47.53 47.24 46.79 45.47 41.81 40.54 39.15 37.09 34.58 33.19 32.82 33.73 35.00 36.15 36.65 37.64 39.23 40.92 41.88 42.21 44.53 44.96 46.34 46.74
56.78 54.90 51.31 49.88 50.44 50.08 50.45 51.38 49.32 50.97 49.71 48.61 47.10 44.60 44.49 44.41 43.52 42.81 43.59 44.60 45.58 41.51 40.71 39.54 38.23 36.39 35.77 34.00 32.45 32.48 31.35 30.77 31.97 35.11 34.58 37.66 39.62 40.17 41.24 40.60 41.18 42.65 44.14
51.48 51.02 49.82 49.04 49.58 49.76 50.23 46.78 45.85 47.27 47.21 45.81 46.79 46.01 45.25 45.15 44.24 43.83 43.65 43.31 40.66 40.14 39.93 37.91 36.28 34.53 33.03 31.85 31.25 30.62 28.65 28.33 30.85 31.56 33.21 36.46 38.47 39.04 40.30 40.30 40.29 41.01 41.36
51.55 50.72 50.80 50.53 48.78 47.14 46.90 45.04 45.61 46.16 45.18 45.07 44.66 43.75 44.21 44.53 44.01 43.85 42.94 40.25 39.78 38.74 38.56 38.23 35.82 34.84 33.18 31.94 29.74 28.61 28.95 29.27 31.13 31.66 33.28 37.14 38.00 37.97 38.08 38.88 39.13 39.46 40.06
52.13 52.13 50.76 48.45 46.98 46.59 44.63 44.24 43.98 44.52 43.90 43.71 43.43 42.51 42.17 41.33 40.72 40.37 39.69 39.44 38.53 38.04 38.52 37.85 37.21 35.16 33.76 31.87 30.66 30.36 29.15 29.04 29.99 30.60 33.28 37.09 35.02 36.03 36.30 37.14 38.15 38.70 39.20

GFSGL_sfc_wetblb_012.txt.gz
Wetbulb
66.31 65.27 64.70 64.88 64.79 64.27 63.72 63.31 63.37 63.15 63.86 64.39 64.43 64.12 63.37 63.15 63.59 63.14 62.60 62.41 61.77 61.15 61.80 61.17 60.62 60.15 58.05 58.03 57.17 55.55 54.29 54.08 51.74 52.96 53.58 55.50 55.68 56.31 58.17 60.58 63.13 66.22 68.21
67.04 66.03 65.48 65.89 65.62 64.27 63.81 63.52 63.41 63.33 64.05 63.90 63.83 63.59 63.61 63.68 62.80 62.20 61.93 62.26 61.38 61.10 61.31 60.70 60.52 61.43 58.22 57.59 56.53 55.37 54.55 54.17 54.12 54.39 55.31 54.67 54.74 56.15 57.45 58.55 60.78 64.15 67.03
67.15 66.07 65.20 64.44 63.40 63.55 63.57 63.43 63.06 63.13 63.15 63.11 62.61 62.17 62.65 62.67 62.19 62.15 62.00 62.18 61.61 61.68 61.50 60.06 59.97 59.53 58.29 57.23 56.51 55.95 55.31 55.91 54.74 55.55 54.94 55.27 55.34 55.82 56.11 57.65 58.91 60.68 65.09
67.53 66.12 65.36 63.28 62.90 63.00 63.92 63.39 63.15 62.98 62.56 62.52 62.43 63.18 63.46 62.98 62.69 62.74 62.74 61.95 61.62 62.59 60.91 60.41 60.37 59.66 58.92 57.81 56.97 56.93 56.05 54.42 55.39 55.37 54.91 55.26 54.57 55.38 55.94 55.35 55.71 58.17 59.19
66.75 66.73 65.64 64.61 64.05 63.11 63.73 64.46 63.57 63.35 63.35 62.97 63.26 63.19 63.37 63.24 64.25 62.91 61.77 61.49 60.99 60.66 60.28 60.82 60.68 61.30 62.71 60.68 58.76 57.69 55.79 55.59 56.59 56.55 55.20 55.08 54.21 54.18 54.04 55.97 55.93 56.72 57.39
65.72 65.95 66.02 64.62 64.48 64.01 64.46 64.34 63.74 63.65 62.91 63.23 63.29 63.08 61.69 63.28 62.87 62.19 61.14 58.98 59.21 59.51 58.92 59.23 59.50 62.10 62.11 62.67 62.43 62.03 60.36 56.75 56.39 55.91 55.76 54.45 54.94 55.26 55.95 55.47 55.85 54.78 53.18
65.98 66.03 65.22 64.94 64.58 64.69 64.67 63.89 63.61 62.84 62.39 62.83 62.96 62.07 62.20 61.51 61.09 60.90 62.53 59.63 58.12 57.70 57.90 58.24 58.84 60.68 61.57 59.64 59.86 60.42 59.66 60.14 60.07 57.35 55.43 55.34 54.57 55.60 56.40 55.69 55.58 55.39 54.75
64.69 64.62 65.35 65.46 64.69 64.91 64.66 63.94 64.14 63.61 63.50 62.57 61.56 62.37 61.43 61.76 60.33 59.48 60.99 58.30 57.78 57.58 58.18 58.26 57.80 58.04 58.06 57.71 55.54 54.23 54.33 54.90 55.47 56.38 56.32 56.34 56.63 56.65 56.58 56.56 56.27 56.43 56.90
64.05 64.03 64.82 65.13 64.57 64.04 63.88 63.59 63.74 63.03 62.18 61.61 61.86 61.88 60.30 60.89 58.01 57.77 58.17 56.82 56.15 55.53 55.69 57.38 57.43 56.71 57.32 56.73 53.58 52.61 52.38 53.69 57.34 57.62 57.10 56.89 57.18 57.68 57.98 57.05 55.51 54.92 53.41
63.72 64.50 64.91 65.13 64.58 64.06 64.14 63.96 63.51 63.21 63.20 62.00 60.80 60.87 60.34 60.28 57.41 55.91 56.14 55.97 53.16 53.84 55.87 56.25 56.79 54.86 53.70 53.02 51.35 50.97 52.48 54.00 53.31 53.91 54.82 55.80 56.95 56.98 57.99 57.56 57.68 54.88 54.03
64.21 64.37 64.37 64.89 64.63 64.79 64.67 63.95 63.98 62.12 59.82 60.60 60.81 61.03 61.17 59.97 59.09 54.84 53.84 54.54 54.99 54.99 53.81 52.82 52.84 52.24 50.45 50.00 50.50 49.57 52.18 52.93 53.89 54.57 54.58 55.18 55.72 56.09 56.41 58.27 58.30 58.26 55.31
64.22 65.31 65.32 65.30 65.78 65.63 64.14 63.85 61.99 60.78 60.38 59.28 59.40 57.87 59.17 57.53 54.90 53.74 53.75 51.91 53.89 51.98 51.56 51.92 50.21 49.37 48.86 49.63 50.03 51.85 52.51 53.38 53.53 53.24 53.24 53.45 54.03 54.35 55.45 57.69 58.91 58.98 58.88
59.95 58.92 59.39 61.06 61.41 64.34 64.32 62.71 61.19 60.16 59.04 58.23 57.49 57.87 56.07 55.13 51.69 50.65 50.77 51.30 52.80 50.39 50.78 49.89 49.91 47.86 48.02 48.75 51.05 52.08 52.89 52.60 52.18 51.21 51.10 51.89 53.50 54.75 55.69 57.79 59.03 59.25 58.53
60.26 60.41 59.37 60.34 59.07 60.08 62.55 61.70 60.62 59.50 58.52 57.64 56.75 54.87 53.84 50.55 48.91 48.53 49.80 49.03 50.87 50.30 48.84 47.07 50.83 50.81 50.11 49.39 48.62 50.45 51.84 51.59 50.23 50.69 51.29 52.42 53.20 54.07 54.57 57.21 56.17 58.06 57.09
59.28 59.05 58.91 59.10 61.89 58.60 55.97 54.80 55.53 49.54 51.72 53.58 52.16 52.06 52.61 48.89 48.08 45.13 44.55 46.66 46.52 45.09 46.15 49.26 48.11 46.70 45.02 44.88 45.28 48.98 49.93 48.08 46.91 48.73 50.36 50.12 50.95 51.88 53.53 56.07 56.51 55.87 55.01
58.71 58.49 58.17 60.29 59.28 55.56 51.16 47.92 44.72 44.16 42.97 42.48 45.33 46.92 45.96 45.97 43.58 42.57 41.23 40.98 40.61 41.79 46.26 45.47 44.61 44.08 43.54 42.49 41.69 44.69 45.18 44.51 44.83 46.77 48.85 49.64 49.76 50.38 52.11 54.27 54.91 55.19 54.46
57.51 57.36 60.07 57.80 57.75 54.46 50.87 50.09 48.45 48.23 44.98 42.72 42.06 43.57 43.91 43.40 42.13 41.16 40.91 41.36 42.87 45.12 44.40 42.51 41.08 39.97 39.27 38.60 39.02 41.28 41.95 44.08 44.79 45.27 48.13 47.42 48.20 50.13 51.00 51.98 52.02 52.52 53.71
59.59 56.27 56.72 55.76 56.67 53.58 51.70 50.83 49.26 48.19 47.49 46.93 44.49 44.40 43.00 42.76 42.32 42.06 43.62 44.65 43.35 41.89 40.37 38.52 37.17 36.20 36.17 36.43 37.10 38.20 40.79 41.96 43.54 43.21 44.27 44.01 44.94 48.89 49.03 48.95 50.08 50.07 51.37
58.14 57.39 56.96 56.57 56.43 54.91 54.08 54.02 52.31 50.95 49.75 47.49 46.14 45.05 44.83 43.61 42.61 42.74 43.80 45.91 43.05 39.60 38.26 36.88 37.00 36.77 35.53 35.35 35.59 37.05 39.07 38.71 40.92 40.49 41.11 41.60 42.36 45.67 47.50 48.20 48.51 47.63 48.88
57.33 56.88 56.01 54.87 54.11 52.87 52.33 52.00 51.33 50.41 48.90 47.02 46.08 46.18 47.70 45.32 44.34 44.25 44.48 44.21 43.04 41.11 40.28 39.31 38.28 37.32 36.21 35.84 34.16 33.91 35.96 37.21 37.26 37.63 38.19 39.36 40.82 41.50 43.80 46.20 47.20 47.09 47.72
57.63 56.35 56.54 54.80 53.07 51.94 51.03 50.47 49.61 49.00 48.70 46.55 46.10 45.18 43.86 44.41 43.34 42.86 43.05 42.78 42.81 43.05 40.90 39.44 39.09 37.23 35.69 32.38 31.13 32.11 33.84 34.83 34.75 34.96 36.24 37.92 39.45 39.93 41.11 42.27 45.01 46.89 47.02
56.38 55.78 55.00 54.28 53.16 51.39 50.68 50.21 50.42 49.00 48.51 46.48 43.09 43.15 41.58 43.48 42.89 42.62 43.15 46.61 46.61 42.90 39.36 37.43 35.64 33.47 31.57 30.31 30.68 31.27 30.87 31.16 31.86 33.30 34.30 36.88 38.37 38.95 39.93 40.47 41.28 43.04 44.22
55.23 54.02 54.15 53.21 52.13 51.21 50.76 51.66 51.69 48.57 48.32 47.44 45.34 44.79 43.34 42.94 42.40 42.23 42.74 43.69 40.90 38.30 37.09 35.80 33.95 31.71 31.23 30.36 30.07 29.48 28.47 28.41 29.25 31.54 32.38 36.33 36.84 37.25 38.61 39.06 39.93 40.19 40.90
51.61 50.86 49.71 48.34 47.71 47.07 47.82 48.67 48.12 45.63 48.01 48.31 46.20 44.00 43.50 43.27 42.64 42.27 42.17 40.50 38.65 37.48 35.94 34.15 32.57 30.67 29.34 28.58 28.25 27.25 27.12 28.00 29.58 29.87 33.04 35.59 36.05 36.19 37.41 36.97 38.69 39.32 39.67
48.93 49.10 48.17 47.53 47.33 46.57 45.58 43.76 44.58 44.33 43.69 44.60 45.19 44.34 43.68 43.55 42.82 42.55 41.48 38.11 36.82 36.66 35.11 33.69 32.02 31.51 29.92 28.71 27.60 27.37 28.68 29.28 30.61 32.29 33.97 34.51 35.34 35.55 35.73 35.88 36.66 38.01 38.51
49.14 49.89 50.45 50.29 49.73 48.31 46.87 43.65 42.22 42.88 42.26 41.98 41.60 41.87 43.88 43.03 42.07 41.18 38.67 37.10 36.49 36.00 35.30 33.79 32.82 32.00 31.18 30.00 28.78 29.59 28.96 29.05 30.59 31.01 33.92 33.42 33.44 34.04 34.68 35.09 36.47 36.44 36.99

GFSGL_sfc_wetblb_015.txt.gz
Wetbulb
66.26 63.58 62.31 62.07 62.92 63.25 63.00 62.47 62.85 62.22 62.34 62.41 62.78 62.78 62.82 62.49 62.23 61.69 61.41 61.68 60.96 60.30 60.26 60.50 60.29 59.81 58.57 57.37 56.60 55.12 53.46 52.96 50.89 51.32 52.97 54.14 54.06 54.80 56.14 56.64 58.11 58.60 60.52
66.42 64.35 62.89 63.22 63.18 63.23 63.03 62.73 62.50 62.14 62.37 63.09 63.54 63.09 62.85 62.62 62.52 61.73 61.07 61.40 61.10 60.42 60.67 60.33 60.57 61.07 58.84 57.14 56.32 55.24 54.40 53.44 52.66 51.33 53.20 54.97 53.70 55.68 55.98 55.45 56.56 58.82 59.16
66.33 64.31 63.53 63.86 64.26 63.79 63.65 63.16 62.73 62.26 62.32 63.49 62.57 62.28 61.88 61.93 61.66 61.47 61.09 60.81 60.76 60.69 60.83 59.97 59.72 58.85 57.88 57.51 56.86 56.08 55.52 56.02 54.13 54.68 55.31 57.49 56.82 55.92 55.11 55.68 55.86 56.65 58.48
66.19 64.75 63.67 64.07 64.90 64.76 64.42 63.84 62.79 62.28 62.04 61.96 61.66 61.63 61.56 61.95 62.14 61.81 61.66 61.32 61.07 61.06 60.72 60.21 59.70 58.99 58.54 57.98 57.10 56.92 56.78 55.22 54.19 54.91 56.12 55.65 55.71 56.18 55.01 54.01 53.73 55.78 55.64
65.93 64.87 63.93 64.77 65.48 64.66 64.71 64.08 63.36 63.00 63.03 62.29 61.92 62.04 62.37 62.95 63.35 61.87 61.77 61.45 59.88 59.86 59.89 59.84 59.67 60.92 62.92 61.00 58.41 57.64 56.38 55.62 54.97 56.06 55.30 55.16 54.85 54.28 52.96 54.64 53.74 54.60 55.85
66.58 64.93 65.24 65.12 64.35 63.02 63.15 63.82 63.50 62.46 62.97 62.52 62.13 62.18 62.08 63.23 62.12 62.40 63.02 58.58 58.71 58.42 57.99 58.23 58.28 61.16 60.75 62.38 63.06 62.82 59.77 55.80 55.18 55.32 55.94 54.67 54.36 54.42 54.45 53.63 53.27 53.56 52.45
66.44 65.68 65.57 65.63 65.74 64.55 63.94 63.61 62.83 63.03 62.79 62.70 62.38 62.37 62.00 61.61 60.69 60.74 62.80 59.96 58.72 57.41 56.46 56.50 57.46 59.77 60.40 58.72 59.81 60.30 60.20 60.69 60.58 56.58 54.36 54.30 53.80 54.66 54.12 53.33 53.80 53.73 53.37
64.84 65.68 66.12 65.43 64.74 64.55 64.30 63.73 63.20 63.41 62.57 62.66 62.38 61.78 61.58 62.03 59.38 59.29 61.16 59.84 57.83 56.81 56.62 56.82 55.69 55.63 56.70 57.14 55.98 53.95 53.58 53.70 53.95 54.68 54.68 55.11 55.19 55.64 54.70 55.21 55.13 54.95 55.67
64.72 65.03 65.81 65.84 64.29 64.18 63.17 63.60 63.09 63.29 62.58 62.84 61.38 60.57 61.06 61.45 58.34 57.34 57.73 57.58 56.27 55.07 54.60 54.93 55.79 55.43 56.55 58.05 53.04 51.86 51.25 51.86 55.91 57.00 56.91 56.53 56.73 57.34 57.47 56.50 54.44 53.59 52.57
65.06 64.48 65.30 65.45 64.99 64.00 63.57 63.30 63.41 62.92 62.86 62.12 60.92 60.86 60.78 61.83 58.39 55.98 55.98 55.71 53.87 53.42 54.23 54.61 55.51 54.45 54.16 52.92 50.01 48.69 50.94 51.12 52.68 53.42 53.71 54.74 55.65 56.09 57.81 56.60 55.30 52.91 52.87
63.88 64.01 64.07 63.83 63.37 63.55 63.42 63.74 63.49 62.03 60.39 60.36 60.31 61.07 61.64 60.80 59.52 55.02 54.02 54.73 54.03 54.06 53.02 51.73 52.18 52.89 50.47 50.06 50.63 48.38 49.11 51.01 52.79 53.45 53.36 53.16 53.97 54.48 54.99 55.83 56.46 55.24 53.79
63.84 63.03 61.77 63.38 65.07 64.14 63.46 60.97 58.81 60.05 61.28 59.90 59.69 59.76 59.21 58.79 54.76 53.38 52.73 53.39 54.72 52.23 51.19 50.58 50.31 49.72 48.30 49.11 49.62 51.29 51.88 52.85 52.66 52.16 51.12 51.30 52.00 52.65 54.02 55.15 56.46 57.50 59.42
60.26 59.44 59.89 60.37 62.51 62.19 61.45 57.76 57.38 58.14 60.68 59.42 58.37 56.52 55.80 54.90 51.58 49.99 49.86 50.99 52.32 50.04 49.91 49.61 49.56 47.62 47.53 48.73 50.13 51.15 51.29 51.05 50.51 48.02 49.54 50.80 51.94 52.51 53.72 55.19 56.32 57.61 58.99
60.14 59.45 59.07 58.85 58.52 59.14 59.97 59.43 59.65 60.30 59.34 58.23 57.07 56.12 54.15 51.22 49.56 48.47 48.97 48.31 50.28 49.20 47.86 46.19 49.89 49.79 49.04 48.66 46.43 46.48 49.78 49.86 47.25 45.71 47.82 50.15 50.96 51.50 51.89 54.50 54.22 55.12 56.26
58.20 58.35 58.07 59.64 59.95 59.28 52.01 50.96 56.30 52.22 53.26 57.00 55.70 54.27 52.60 49.92 48.99 46.14 45.09 46.32 45.58 44.41 46.07 47.68 46.42 44.71 44.44 42.97 41.82 43.98 47.46 44.60 42.95 44.25 45.83 47.39 48.04 49.60 51.03 52.93 53.62 53.68 54.24
56.51 56.48 56.22 57.04 57.66 56.86 52.84 48.89 45.64 44.66 42.88 43.17 45.70 48.43 45.91 45.82 43.88 42.26 41.10 40.74 39.72 40.43 45.77 44.89 43.52 42.24 39.89 38.84 38.27 38.97 41.47 43.78 44.05 43.45 43.96 46.00 45.08 46.89 49.32 51.09 52.37 51.85 52.93
55.31 55.39 55.12 56.20 56.54 55.60 51.95 48.96 47.37 46.36 42.63 40.92 41.31 42.66 43.85 43.52 42.06 41.52 40.31 40.52 40.99 43.62 45.35 41.31 39.48 38.01 37.23 36.78 36.31 36.57 37.59 39.92 42.37 42.97 42.09 42.25 43.05 44.41 48.06 48.96 49.94 50.48 51.56
56.16 53.94 56.66 57.06 55.98 53.60 51.34 51.06 49.42 47.62 46.17 45.68 42.51 43.41 42.34 42.14 41.79 42.18 42.12 43.32 42.99 41.94 41.87 39.79 35.68 34.69 34.44 34.13 34.68 34.75 36.07 37.07 37.86 38.48 39.12 39.87 40.67 41.91 45.42 46.58 48.18 48.53 49.27
57.10 56.48 55.74 55.40 55.96 53.55 52.43 50.46 49.20 48.04 46.94 45.84 45.44 44.74 44.37 42.63 42.19 42.23 42.77 43.19 41.07 38.64 38.70 36.03 35.53 34.62 34.18 34.01 33.40 33.62 35.26 35.63 36.46 35.68 36.98 37.91 38.82 39.87 41.26 44.40 46.32 47.17 48.04
55.23 55.29 55.26 54.71 53.97 53.25 53.23 51.91 50.03 48.73 47.26 45.95 46.02 46.20 44.64 45.05 44.16 43.23 42.86 42.53 40.44 38.89 37.79 37.08 36.28 35.61 34.90 32.45 31.05 31.38 33.86 33.55 33.52 33.83 35.11 35.90 38.13 38.91 39.46 40.83 43.56 45.15 46.72
54.67 54.52 55.41 54.22 52.55 52.05 52.09 51.58 50.84 49.81 48.19 47.03 46.51 45.25 43.95 44.25 42.92 42.05 42.02 41.68 42.14 40.97 39.30 38.39 37.23 35.94 30.77 29.70 30.87 31.53 31.66 31.72 31.93 32.73 33.92 35.36 36.91 37.18 38.91 39.83 40.86 42.74 44.10
54.93 53.95 53.64 52.58 52.21 52.58 51.84 51.43 49.90 49.91 48.67 46.56 44.49 44.04 41.74 43.39 42.11 41.83 41.97 42.89 45.51 43.19 40.01 36.00 33.30 30.76 29.30 29.82 30.06 29.83 29.64 29.56 30.52 31.45 33.04 35.10 35.78 36.66 37.78 38.83 39.10 39.99 40.75
53.71 53.15 52.73 52.18 52.72 51.81 50.54 49.53 49.13 49.20 49.87 48.54 46.60 45.80 44.86 42.58 41.78 41.37 41.70 41.98 39.03 36.90 35.34 33.72 32.06 30.03 29.16 29.03 28.78 28.65 28.56 28.30 28.50 30.07 31.95 34.39 34.93 35.08 36.01 36.14 37.56 38.33 38.55
52.21 52.41 52.38 51.98 52.95 50.71 49.51 49.11 47.70 48.21 47.88 45.89 44.78 45.41 45.25 43.24 41.88 41.54 41.93 39.82 37.25 35.89 34.47 32.67 31.07 29.45 28.04 27.70 27.56 26.73 26.82 27.81 28.98 30.18 32.39 33.56 33.98 34.84 35.34 35.19 35.92 36.71 37.30
49.99 50.02 49.69 50.88 49.67 46.82 45.86 44.43 44.02 44.39 46.44 46.04 44.68 43.80 43.55 42.94 42.06 41.62 41.16 37.34 36.67 34.86 33.62 31.88 30.04 29.29 28.26 27.05 26.60 26.99 28.68 29.08 31.08 32.55 32.50 33.13 33.82 34.27 34.40 34.64 35.30 35.79 36.27
48.00 48.69 47.98 49.00 48.27 47.29 44.96 45.36 44.66 43.48 42.80 43.69 44.18 43.24 43.48 43.42 42.41 41.62 40.09 36.08 35.65 34.48 33.36 31.88 30.83 30.28 29.70 28.80 28.16 29.39 28.67 29.21 31.45 31.41 32.09 32.52 32.77 32.97 33.61 34.29 35.12 34.59 34.86

GFSGL_sfc_wetblb_018.txt.gz
Wetbulb
68.52 66.95 65.11 63.06 62.48 62.84 63.20 64.21 63.66 63.77 64.12 64.81 64.92 64.76 64.43 64.47 64.92 64.25 64.09 64.16 63.74 63.62 63.56 62.89 63.10 63.23 62.36 61.66 60.47 59.43 58.20 56.87 54.52 57.26 56.55 58.66 58.79 59.82 60.11 60.24 60.17 59.90 60.16
68.67 66.93 64.86 63.62 63.35 63.55 63.61 64.05 64.08 64.12 64.30 64.74 64.41 64.67 64.87 64.98 64.81 64.14 64.08 64.29 63.57 63.14 63.70 63.02 62.95 63.22 62.75 62.37 60.74 60.47 59.44 58.34 56.53 56.37 58.96 57.87 58.71 60.49 60.08 59.04 59.13 59.79 60.01
68.79 66.62 64.69 63.29 63.26 63.87 64.38 64.20 63.46 63.46 63.68 64.25 64.58 64.58 64.72 64.61 64.45 64.39 63.88 63.70 63.31 63.01 63.23 62.94 62.97 62.48 62.07 61.74 60.82 60.38 60.17 59.72 58.01 56.81 57.13 59.47 59.66 60.54 59.44 59.89 59.70 59.85 59.74
68.24 66.96 64.87 63.28 63.80 64.14 64.50 64.34 63.77 63.66 63.48 63.57 64.47 64.54 63.79 63.90 63.72 64.12 64.28 63.76 63.52 63.44 63.57 62.99 62.84 62.33 61.93 62.15 61.18 60.61 60.59 59.50 58.95 57.09 57.04 57.57 58.17 60.18 59.11 57.42 56.90 58.80 58.24
67.82 66.50 65.07 64.72 65.26 65.39 65.65 65.72 65.20 63.48 63.55 63.66 63.90 63.70 63.72 63.22 63.86 64.58 64.61 64.10 63.94 63.46 63.11 62.96 62.63 62.43 62.63 62.48 62.11 62.11 60.31 59.61 58.92 57.30 57.10 57.34 56.81 58.11 57.39 58.29 56.79 57.11 57.84
67.55 66.02 64.87 65.16 64.86 64.68 63.82 63.01 63.46 64.65 63.61 63.37 63.46 63.66 63.42 63.92 62.50 62.62 64.63 63.90 63.48 62.18 61.86 62.39 61.55 61.45 61.68 61.78 62.35 62.46 62.21 60.53 59.27 58.28 57.39 56.51 57.31 58.13 58.00 56.85 55.85 54.54 53.33
67.17 65.09 64.71 64.13 63.34 63.72 63.34 62.92 63.42 63.94 63.68 63.50 63.70 63.79 64.16 64.14 60.88 60.82 62.86 64.65 62.69 61.87 61.67 61.00 60.24 60.96 61.25 60.74 60.11 60.06 60.61 60.57 61.24 60.50 57.05 57.47 57.18 57.76 57.90 56.38 55.75 55.03 54.34
66.34 64.84 64.12 62.62 63.06 63.78 63.43 62.79 63.59 64.38 63.63 63.12 63.44 63.81 64.07 64.67 59.98 59.15 60.83 63.79 63.19 62.07 60.53 59.95 59.72 58.97 59.08 59.32 59.01 58.94 58.03 57.58 57.51 56.72 56.69 56.81 57.46 58.21 57.86 57.01 54.86 55.00 55.58
65.49 64.84 64.18 63.26 63.44 64.05 64.48 64.17 64.44 64.13 64.12 63.53 63.91 64.27 63.64 64.19 58.50 58.23 60.13 62.10 61.09 60.24 58.92 58.00 58.07 59.16 57.07 57.12 57.90 56.27 55.41 55.38 56.13 56.19 56.51 56.25 56.11 56.18 57.25 56.25 55.04 53.51 51.76
65.71 65.60 65.71 64.80 64.25 65.15 64.83 64.55 65.17 64.76 64.50 64.23 62.27 62.63 61.08 62.99 58.50 57.31 59.20 60.80 58.89 57.50 57.67 58.56 56.06 55.98 53.68 52.74 54.66 53.60 52.82 54.05 53.95 54.32 54.97 55.68 55.85 56.50 56.48 57.16 55.63 52.76 52.02
66.09 66.40 66.18 66.31 65.91 65.35 64.49 64.62 64.36 63.48 63.17 61.76 61.53 61.51 62.01 61.65 62.16 56.91 56.01 58.03 57.92 57.36 57.10 56.07 56.08 53.17 51.12 50.19 50.54 53.74 52.77 53.54 53.41 53.39 53.31 53.41 53.85 54.74 55.88 56.87 56.83 54.23 52.25
65.46 64.95 64.77 64.65 65.17 64.94 64.49 63.82 63.30 62.07 61.32 61.26 61.38 61.37 61.91 61.85 56.99 56.69 52.09 54.02 56.25 57.68 56.39 55.08 54.74 49.82 48.91 49.29 51.01 50.78 51.38 52.06 52.77 51.92 50.58 50.58 51.60 52.48 54.11 54.75 55.35 55.11 56.61
63.44 63.41 64.36 64.85 64.90 64.81 63.95 61.78 59.99 59.13 59.15 60.50 61.19 61.29 61.88 59.20 55.93 50.77 49.78 50.90 51.59 53.99 54.15 52.49 49.49 47.28 47.46 49.23 49.69 50.24 50.47 51.58 50.62 48.62 47.98 48.97 51.01 52.39 53.30 53.59 55.28 55.51 55.99
61.76 61.44 62.03 62.56 61.97 62.16 61.54 59.90 58.99 59.29 60.13 60.42 61.06 60.10 59.06 56.77 54.22 52.86 52.97 52.46 51.61 52.48 50.13 50.80 51.26 50.58 48.96 49.18 48.27 48.21 50.20 49.74 48.60 47.19 47.21 48.46 50.22 50.81 49.97 52.80 52.07 53.04 53.22
61.36 61.04 60.18 59.89 59.37 55.14 51.09 52.54 58.94 54.69 57.01 60.54 59.94 59.76 57.17 54.36 53.29 49.68 49.26 50.46 50.73 48.36 49.65 51.11 50.92 49.49 48.11 46.65 45.88 46.03 46.28 47.24 46.22 46.40 45.97 46.16 47.00 47.67 47.94 51.17 52.22 51.55 51.71
58.91 59.08 58.60 59.74 59.26 56.29 53.45 49.65 44.54 43.36 43.31 43.01 44.76 51.91 50.89 47.86 44.30 43.10 42.11 41.52 40.87 41.81 49.55 50.05 48.59 46.67 45.37 43.93 43.08 43.13 44.36 43.84 43.78 44.19 44.97 44.48 44.87 45.22 45.84 49.18 50.93 50.77 50.66
58.32 58.24 58.12 57.44 58.33 55.18 55.08 52.67 50.51 47.07 41.95 40.85 41.57 42.78 44.14 43.44 42.04 40.71 39.85 40.03 39.82 42.84 49.20 47.15 45.75 44.01 42.80 42.07 41.11 41.08 41.48 42.28 42.65 42.78 42.82 42.69 42.98 43.57 44.76 46.84 48.54 49.79 50.17
58.52 52.38 56.73 57.47 58.20 55.71 55.08 53.01 51.64 50.99 50.00 48.41 43.46 43.70 41.29 41.36 41.24 40.35 40.40 43.69 46.86 45.77 46.02 44.55 42.26 41.00 40.68 40.46 39.73 39.51 40.59 41.36 41.45 41.10 41.53 41.71 42.34 42.21 43.19 44.82 46.02 46.62 48.40
59.21 59.47 58.64 58.23 57.79 54.90 54.18 52.65 51.42 50.68 49.84 48.83 48.92 46.34 44.64 41.26 40.72 41.00 42.08 48.53 47.00 44.39 42.56 41.69 41.39 41.24 40.89 40.21 38.43 38.15 39.84 40.03 39.92 39.86 40.57 40.87 41.64 41.91 42.74 44.12 44.39 44.86 47.18
58.89 56.29 56.41 57.29 55.26 54.35 53.36 52.24 51.21 50.56 49.62 49.35 49.40 49.83 48.53 47.46 48.18 47.78 47.12 46.45 45.33 43.71 42.87 42.61 41.84 41.76 40.92 38.02 37.20 38.13 39.77 39.24 39.16 39.41 39.86 40.33 41.47 41.96 42.25 42.75 44.00 44.58 45.65
57.68 57.10 56.17 56.38 55.77 54.74 54.00 52.94 52.46 51.66 50.64 50.21 50.46 49.10 45.17 49.35 47.67 47.02 46.65 46.61 46.24 45.28 44.33 43.75 42.57 41.89 38.05 37.22 38.59 38.95 38.43 38.78 38.56 38.66 39.54 40.40 41.05 41.25 42.43 43.04 43.55 44.25 44.54
57.34 56.85 56.46 56.02 54.47 54.11 54.37 54.35 53.53 53.06 52.29 51.01 50.30 48.69 41.48 49.03 47.55 46.99 46.73 47.12 47.81 47.98 46.42 44.03 41.92 38.60 37.38 38.05 37.96 38.00 38.04 37.87 38.14 38.07 38.95 40.22 41.00 41.81 42.07 42.25 42.46 42.97 43.36
57.24 55.87 55.57 55.19 55.08 53.34 53.76 52.96 51.77 52.87 52.48 51.54 50.31 49.43 47.40 48.00 47.02 46.87 46.77 47.22 46.77 43.94 42.20 40.49 38.82 37.26 36.55 37.10 37.00 37.05 37.68 37.62 36.95 37.00 38.13 39.60 40.69 40.91 41.60 41.65 41.62 41.85 42.17
55.57 55.33 54.68 54.36 54.20 54.08 53.69 53.05 52.74 49.40 52.39 51.73 50.57 49.63 48.77 48.03 46.92 46.35 46.65 46.63 43.63 42.18 40.78 39.29 38.41 37.17 35.85 36.30 36.51 36.29 36.21 36.85 37.37 37.96 38.46 39.61 40.65 40.67 41.38 41.39 41.36 41.17 41.25
54.37 54.62 54.72 54.53 54.19 54.41 53.12 51.20 51.43 51.45 51.51 50.97 49.97 49.27 48.77 48.18 47.09 46.29 46.63 45.58 42.82 41.36 39.76 38.92 37.54 36.31 35.11 35.04 34.96 35.50 33.61 29.34 35.48 34.00 39.67 40.39 40.89 41.08 41.08 40.93 40.72 40.95 40.75
50.25 51.43 51.94 51.80 51.63 51.28 50.25 49.73 47.96 48.61 48.90 48.90 49.11 48.47 48.13 47.93 47.37 46.67 46.02 44.54 42.44 40.84 39.99 38.83 37.53 35.99 35.47 35.28 35.23 32.76 29.43 29.32 35.31 31.62 39.91 40.60 40.54 40.92 41.05 40.68 40.50 40.25 40.18

GFSGL_sfc_wetblb_021.txt.gz
Wetbulb
74.96 75.49 75.34 73.95 72.76 68.21 69.73 66.56 66.95 68.40 68.95 70.00 69.52 69.51 69.71 69.71 69.85 69.61 69.34 68.88 68.39 68.71 68.59 68.27 68.37 68.86 67.15 67.03 67.04 66.14 64.79 63.62 60.64 61.90 63.60 64.62 64.51 64.80 65.56 66.55 66.05 65.43 64.48
74.95 75.01 73.60 71.67 67.16 70.02 68.59 68.26 67.67 67.41 68.13 68.28 68.70 69.20 69.38 69.61 69.67 69.17 68.53 67.76 67.88 67.54 67.48 68.08 67.83 67.35 67.97 69.21 67.88 67.09 65.72 65.63 62.76 61.22 64.04 63.97 64.67 65.68 65.54 65.35 64.93 64.79 64.61
74.61 73.32 72.16 67.06 69.12 67.87 66.98 67.42 66.66 67.15 66.70 66.93 67.75 68.39 68.37 69.08 68.80 69.22 68.71 68.12 67.69 67.13 67.79 67.73 67.67 67.82 67.23 67.87 67.47 66.08 65.28 65.34 64.19 61.20 61.51 63.47 63.94 64.24 63.49 64.48 64.47 64.71 64.52
73.98 72.85 70.81 68.43 69.25 68.62 67.92 66.27 64.70 65.77 65.41 66.21 66.91 67.49 68.32 68.78 68.76 68.26 68.09 68.05 68.13 67.92 68.17 68.35 68.11 67.13 66.94 67.37 67.08 66.70 66.22 65.12 64.61 60.59 60.82 61.61 62.39 63.86 62.96 61.20 61.06 62.89 62.43
73.84 72.54 71.20 68.95 69.81 69.19 68.85 67.43 64.24 64.88 65.47 66.77 66.18 66.86 67.78 67.95 67.63 68.00 67.89 68.23 68.71 68.18 68.51 68.44 67.91 67.20 65.48 64.75 64.81 65.27 65.46 63.90 62.64 61.72 61.12 61.32 61.09 60.90 60.38 61.38 60.16 61.28 62.50
73.05 72.06 71.01 68.98 69.51 69.07 68.44 68.02 66.83 64.62 65.79 66.69 66.03 65.94 67.08 67.16 63.35 63.02 66.57 68.39 68.89 68.08 67.38 67.98 68.05 65.16 64.49 62.88 62.41 62.82 63.47 63.62 62.92 62.32 60.95 60.36 59.99 61.03 61.27 60.43 59.70 58.21 56.88
72.79 71.85 69.41 69.36 69.26 68.68 67.86 67.61 67.46 66.84 66.93 66.47 66.54 66.89 67.57 67.54 62.05 61.76 63.82 68.18 68.69 68.33 67.92 67.67 66.75 65.53 63.43 64.20 62.29 60.98 61.01 61.17 61.66 62.25 59.96 60.03 60.40 61.18 60.82 58.84 58.32 57.82 57.56
72.07 70.62 69.78 69.35 68.95 68.98 67.97 67.22 67.86 68.05 66.35 66.83 67.30 68.14 67.92 68.36 61.17 60.26 62.19 67.40 67.77 68.25 68.27 67.84 66.55 65.47 64.16 62.46 62.40 62.30 62.90 62.95 63.08 61.86 61.62 60.84 60.94 60.67 59.77 58.49 57.01 57.42 59.47
71.30 70.10 69.89 69.43 68.83 68.01 67.11 66.92 68.16 68.05 67.27 67.13 67.88 68.17 68.11 68.66 58.63 58.62 60.20 64.20 63.40 63.80 66.34 65.58 63.97 63.30 60.18 57.14 60.70 61.03 61.33 61.37 59.98 56.75 56.51 56.27 56.45 56.70 57.23 56.05 54.77 56.82 56.13
71.36 70.51 70.17 69.53 68.78 67.45 67.38 67.47 68.38 68.13 67.68 67.37 67.25 67.95 65.37 68.06 58.09 56.77 59.72 61.39 61.18 61.74 62.14 61.32 57.80 60.25 55.21 54.58 59.88 60.29 58.98 59.51 59.09 58.73 59.17 58.80 58.70 59.35 58.09 58.54 57.22 55.49 56.44
71.88 70.91 69.78 69.17 68.28 68.30 68.08 68.16 68.06 67.63 67.38 67.48 67.25 67.84 66.64 66.38 62.63 55.52 55.50 60.31 60.61 59.92 60.52 61.68 61.93 54.27 52.09 51.37 51.81 59.24 57.71 55.90 56.53 57.17 57.43 57.75 58.33 59.11 59.42 60.02 59.63 58.07 56.50
69.99 69.62 68.89 69.02 68.02 67.92 68.08 68.11 68.31 67.82 67.55 67.48 66.44 63.58 66.46 67.29 57.93 55.42 54.45 54.97 59.96 61.88 62.59 62.45 60.53 51.25 49.94 50.34 52.15 51.83 51.42 51.92 56.24 56.06 55.65 55.40 55.81 56.26 57.22 57.53 57.60 58.00 59.15
70.39 69.06 67.75 67.71 68.18 67.93 67.49 68.02 67.35 67.80 67.35 66.52 62.77 63.21 64.18 64.22 63.16 52.83 51.62 52.02 53.96 60.43 61.61 56.80 51.17 48.21 48.75 50.67 50.44 50.08 49.67 55.41 54.66 53.76 53.74 53.83 54.31 55.16 56.03 55.95 57.20 58.79 59.12
68.73 68.44 68.24 68.14 67.59 68.03 67.30 67.26 66.30 65.52 65.12 63.22 62.97 62.84 62.81 61.68 61.87 58.85 57.73 57.71 53.45 56.07 53.13 57.19 54.47 53.55 49.90 50.90 52.90 53.73 54.60 53.84 52.14 51.58 51.67 52.52 53.61 53.37 52.49 53.52 54.12 54.68 54.66
67.94 67.86 67.34 66.18 65.42 62.02 58.31 58.67 62.98 63.25 59.05 62.95 63.23 62.72 61.48 62.28 61.60 55.67 56.07 59.42 59.77 54.92 55.36 57.88 57.01 56.53 56.42 56.26 54.93 53.86 53.25 52.39 50.84 50.57 50.49 50.57 50.59 50.57 50.52 52.41 53.95 54.55 53.08
65.87 65.40 64.94 64.47 62.59 60.53 58.42 55.77 44.28 44.18 43.60 44.84 46.09 57.04 58.79 48.54 44.54 44.37 43.71 42.98 43.17 43.80 54.52 56.11 56.22 56.28 55.33 53.79 52.52 51.58 51.71 49.59 49.81 49.27 49.60 49.28 48.65 48.68 48.99 50.99 52.77 51.14 52.47
64.06 63.28 63.01 62.35 61.78 59.52 58.74 59.03 57.09 48.41 42.59 41.27 41.50 42.87 45.03 44.36 41.78 40.61 40.56 39.83 40.08 43.47 54.71 55.25 55.44 54.55 53.37 51.88 50.17 49.24 48.70 48.98 49.04 48.54 48.35 48.46 48.40 48.27 48.57 49.80 51.66 48.40 52.29
62.75 54.78 62.48 62.48 62.51 60.64 59.72 60.93 60.07 57.87 55.92 53.65 43.82 45.78 41.06 40.92 40.45 40.53 41.08 44.20 51.60 50.96 55.52 54.68 53.21 51.38 50.24 50.24 49.05 47.70 46.98 47.61 47.82 47.65 47.71 47.96 48.09 47.70 48.03 48.60 50.99 50.27 50.81
63.43 62.92 62.15 61.95 62.63 60.65 61.30 60.05 59.52 58.57 57.09 55.28 53.44 48.27 45.64 40.51 40.74 41.92 42.60 54.03 53.00 52.85 52.68 51.62 50.82 49.94 50.26 50.01 48.01 46.46 45.74 46.62 45.92 46.94 47.16 47.31 47.60 47.43 47.29 48.10 50.65 47.97 48.39
63.39 59.11 60.77 63.40 61.09 61.33 60.48 59.60 58.51 57.75 56.53 56.13 56.15 56.08 54.52 51.62 53.43 53.52 53.92 53.61 52.98 52.58 51.20 49.92 49.79 50.44 50.34 48.04 46.31 45.42 46.78 47.42 47.16 46.77 46.67 47.15 47.46 47.43 46.97 47.22 49.65 48.92 49.27
64.27 62.98 59.05 62.49 62.20 61.54 60.83 59.80 59.11 58.14 57.39 57.19 57.49 55.84 48.82 55.16 53.78 53.11 52.50 52.33 52.32 51.80 51.04 50.99 50.81 50.60 48.63 47.04 46.72 47.58 47.74 47.71 46.71 46.11 46.23 46.63 47.12 46.41 47.41 47.57 48.11 49.23 47.90
62.81 62.55 62.21 62.12 61.75 60.69 60.38 60.22 59.44 58.93 58.22 57.58 57.05 54.23 43.14 53.94 54.63 53.34 52.90 52.62 53.01 53.28 53.40 52.51 51.08 48.94 47.08 46.43 47.06 47.67 47.14 46.20 46.07 45.48 45.74 46.30 46.90 46.85 47.08 47.10 47.11 48.25 49.59
63.02 62.31 61.84 61.55 61.39 57.16 59.08 60.11 59.36 58.19 57.29 55.87 56.53 56.00 53.96 54.71 53.99 52.98 52.49 53.13 53.15 52.52 52.22 50.17 48.86 47.06 46.02 45.77 47.10 47.24 46.27 45.04 44.74 45.18 44.90 45.70 46.36 45.98 46.67 46.43 46.52 46.66 47.34
61.97 62.03 61.53 61.03 60.06 59.71 59.95 59.37 58.90 53.39 55.54 54.92 56.75 56.38 56.20 56.12 55.02 53.04 52.52 52.70 51.88 51.27 49.99 48.75 48.13 45.97 43.93 44.02 46.35 46.92 46.76 45.98 45.56 45.72 45.15 45.40 46.09 45.73 46.34 46.27 46.34 46.47 46.78
60.96 60.76 60.40 60.08 59.54 59.21 58.98 59.01 58.05 56.64 55.24 57.02 56.05 55.97 56.35 56.10 55.33 53.83 52.60 52.40 51.70 50.27 48.81 47.76 46.98 44.71 42.26 42.08 42.77 42.78 37.17 29.47 38.82 34.34 45.66 46.02 46.00 46.29 45.93 45.89 45.92 46.11 46.42
57.81 58.89 59.70 59.99 59.40 59.13 58.99 58.37 57.63 57.70 57.39 55.97 55.99 55.92 55.92 55.46 55.12 54.57 52.92 52.25 51.19 50.10 48.77 47.29 46.11 43.60 41.88 42.28 41.66 36.23 29.80 29.45 37.99 31.00 43.33 46.57 46.06 45.44 45.46 45.05 45.02 45.00 45.58

GFSGL_sfc_wetblb_024.txt.gz
Wetbulb
78.15 78.42 78.65 77.21 77.36 76.99 76.75 76.39 75.11 73.51 72.65 72.06 72.30 71.81 71.60 70.99 71.48 71.50 71.04 69.72 69.47 69.71 69.71 69.20 69.08 70.31 68.16 67.40 67.58 67.26 66.43 65.63 62.48 63.86 65.19 67.30 67.96 68.15 68.10 68.37 68.32 68.02 67.51
77.99 78.93 77.51 77.94 77.41 76.44 75.52 74.11 73.62 72.13 71.87 71.10 70.55 70.50 70.39 71.07 71.62 70.87 69.85 69.12 68.96 68.69 68.66 69.01 68.71 68.23 69.08 69.48 67.17 67.96 66.80 67.37 64.33 64.60 66.38 65.28 67.82 68.01 67.77 67.61 66.96 67.01 66.82
76.80 76.80 77.22 76.93 76.31 74.91 74.34 73.45 71.40 70.92 71.02 68.49 69.90 69.58 69.87 70.56 70.89 71.15 70.25 69.19 68.85 68.90 69.06 68.80 68.70 68.60 68.32 67.89 67.76 66.39 66.20 66.80 66.17 64.33 63.51 64.86 65.31 65.95 66.64 67.22 66.64 67.79 65.89
76.41 76.44 77.57 76.64 75.96 75.33 74.86 72.16 70.58 70.99 70.45 69.56 68.18 69.92 70.65 70.84 70.48 70.01 70.14 69.78 69.47 69.27 69.65 69.65 69.38 68.74 68.22 68.18 67.69 67.50 67.18 65.90 66.27 63.91 63.45 63.39 63.55 64.78 65.09 63.13 62.69 64.27 63.67
76.24 76.10 76.67 77.67 75.49 74.68 75.73 73.43 72.48 71.56 70.33 69.66 68.69 69.09 69.97 69.65 69.04 70.12 70.17 69.15 69.25 69.58 69.58 69.61 69.85 69.14 67.39 66.62 66.43 67.32 67.73 65.08 63.75 62.68 61.64 62.47 62.06 63.58 63.73 63.48 61.68 62.78 64.20
76.17 76.14 76.96 75.97 74.01 75.22 74.50 73.37 71.74 71.60 70.85 70.26 69.52 69.50 69.71 68.70 64.14 64.44 68.38 69.02 69.17 69.54 69.12 69.57 69.93 67.87 66.21 63.89 63.39 63.46 63.89 63.99 63.40 61.76 61.42 62.54 63.22 62.95 63.05 61.90 61.11 59.80 58.82
76.62 76.69 76.35 75.76 74.21 73.69 73.71 72.32 72.23 69.93 69.24 70.58 69.81 69.50 69.31 69.77 61.86 62.43 64.40 68.71 68.90 69.61 69.65 70.04 68.57 67.04 66.76 67.63 64.51 62.62 62.09 61.42 61.52 63.36 62.04 62.54 62.14 63.09 63.05 61.45 60.53 59.91 59.10
76.35 76.22 76.00 75.20 73.73 73.50 73.23 72.08 71.14 69.12 69.77 69.43 69.79 70.06 70.07 69.42 61.64 60.84 63.37 68.10 69.10 69.08 66.16 65.46 65.11 65.00 67.76 66.57 65.24 65.31 65.03 65.40 65.51 64.65 64.47 63.89 63.49 63.49 61.95 60.64 60.20 59.15 60.06
75.38 75.53 75.22 74.26 73.51 72.58 72.27 71.91 70.95 69.80 69.01 69.38 69.54 69.68 69.97 70.15 59.83 59.26 62.41 67.85 67.30 64.73 64.55 64.71 64.76 64.15 62.84 59.91 63.87 63.50 64.01 64.17 62.75 59.18 58.14 57.41 57.20 57.69 58.31 59.17 57.80 56.62 56.93
74.95 75.11 75.03 74.55 73.72 72.75 71.57 71.99 71.31 70.31 68.48 68.69 69.10 70.75 66.41 70.34 57.41 57.01 62.43 67.34 65.75 64.21 63.60 63.67 60.12 59.36 59.32 56.35 61.95 62.74 61.76 62.64 63.10 62.56 61.70 60.59 59.55 61.48 59.17 60.47 58.53 57.47 58.08
75.51 75.28 74.78 74.52 73.20 72.48 71.93 71.54 70.55 69.84 69.07 69.21 69.44 69.48 69.89 69.28 68.39 55.52 56.69 65.77 64.54 65.10 63.16 61.86 63.13 57.70 53.52 52.61 53.32 61.95 60.75 59.40 59.69 60.18 60.01 59.52 60.61 61.31 61.11 62.05 62.25 59.64 57.12
75.43 74.56 73.86 73.23 71.86 70.77 70.38 69.28 69.33 68.34 67.50 68.22 69.24 69.39 69.73 70.76 61.37 54.66 54.03 55.35 61.44 63.58 63.71 66.14 64.32 53.33 51.10 51.35 53.55 53.26 52.24 52.00 58.39 58.95 57.89 57.92 58.56 58.79 59.42 59.35 60.32 60.26 59.48
74.39 73.46 71.91 70.76 70.80 70.61 69.19 68.85 67.21 68.07 67.41 67.61 68.60 67.87 67.94 67.22 64.78 54.14 52.20 53.27 55.08 63.39 63.93 53.86 51.68 50.52 49.34 51.20 52.04 51.34 50.47 57.14 58.60 56.74 56.46 57.18 57.63 57.80 58.67 59.72 60.62 62.83 62.80
72.26 71.09 70.21 69.44 68.29 69.12 68.82 68.69 67.93 67.27 66.49 66.64 67.67 66.20 64.83 64.40 62.67 63.03 61.66 56.12 55.87 58.80 54.92 60.45 56.86 54.60 53.56 52.86 55.32 54.21 57.74 58.51 56.45 55.58 55.93 56.33 56.74 56.30 55.37 55.28 53.45 54.66 56.99
70.78 70.36 68.51 67.96 67.00 64.22 60.34 58.95 65.03 60.93 59.83 67.29 65.37 65.23 63.76 63.71 64.00 56.60 57.05 64.05 63.94 58.75 60.75 62.14 60.34 59.82 59.33 59.13 59.31 59.04 58.17 57.09 55.60 55.57 54.69 54.58 54.32 53.74 52.65 53.23 53.02 55.57 56.30
69.92 69.23 68.38 68.49 68.24 68.11 65.58 60.71 44.65 45.49 44.45 46.02 47.44 59.59 54.70 49.64 45.42 44.97 45.67 43.57 44.23 45.49 56.67 59.04 59.27 59.43 58.68 58.57 57.82 56.85 56.11 53.80 55.02 54.17 53.54 53.11 52.11 51.38 51.09 51.82 53.98 54.33 54.90
69.58 68.77 67.42 66.15 67.06 66.11 65.30 64.19 62.05 52.24 43.36 41.77 41.95 43.55 45.05 44.36 42.18 42.05 40.74 40.83 41.93 44.77 57.09 58.59 58.52 58.47 57.75 57.86 56.31 54.87 53.83 54.18 54.20 53.16 52.56 52.02 51.24 50.78 50.32 51.22 52.73 54.31 54.84
66.52 57.46 66.01 65.84 64.99 64.86 64.31 64.17 64.20 62.38 60.79 57.54 45.33 48.42 41.45 41.18 40.72 40.48 40.37 43.27 54.36 52.10 57.26 57.43 57.48 57.70 56.91 55.43 54.55 53.67 53.25 52.70 52.47 51.83 51.42 51.03 50.50 49.97 49.82 50.10 52.06 53.62 53.30
65.86 64.93 65.08 64.65 64.64 63.17 64.80 65.18 64.39 63.36 62.02 59.71 55.38 50.04 45.11 40.92 40.80 41.78 42.60 56.42 56.05 55.84 56.66 55.96 56.46 55.99 55.37 54.87 53.49 52.63 51.64 50.94 49.48 50.21 50.44 49.98 50.04 49.89 49.81 49.90 50.84 49.18 49.53
65.53 60.59 62.36 64.72 64.47 64.96 64.88 63.67 62.83 62.58 61.76 60.48 59.70 59.54 57.17 52.95 55.40 56.47 57.59 58.09 56.07 54.93 56.37 54.66 55.94 55.71 54.92 53.63 51.87 50.57 49.77 50.42 50.62 49.94 49.75 49.72 49.73 49.92 49.35 49.46 49.69 51.14 53.61
65.59 64.91 61.07 64.23 63.52 63.42 63.39 62.99 62.57 62.06 61.46 61.20 60.78 59.55 50.86 57.69 57.57 57.02 56.75 56.77 56.28 56.72 56.19 54.70 55.72 54.44 53.74 51.28 49.62 49.66 50.14 50.60 50.75 49.54 49.19 49.24 49.52 48.98 49.78 49.92 49.74 50.20 52.07
65.41 64.47 63.88 63.88 63.89 63.53 63.35 63.36 62.60 61.93 61.50 60.73 60.32 56.56 46.29 57.16 58.24 57.52 57.06 56.74 57.72 57.25 56.78 55.65 54.38 54.04 51.42 49.53 49.06 50.00 51.19 50.20 50.00 48.94 48.75 48.73 49.35 49.21 49.38 49.47 49.47 49.57 50.05
65.22 64.90 64.54 65.10 64.13 59.39 62.43 62.62 62.11 61.57 60.94 60.69 59.62 58.79 56.62 56.64 57.69 57.31 56.68 56.77 56.71 56.71 56.48 54.96 53.71 51.64 51.13 48.59 49.99 51.37 49.82 49.27 48.59 48.77 48.11 48.32 48.95 48.50 49.38 48.99 48.93 48.82 49.11
65.19 64.68 64.05 63.79 63.09 62.62 62.21 61.90 61.84 55.76 60.17 59.20 59.31 58.62 57.34 56.70 57.05 57.52 57.00 56.43 55.85 55.31 54.55 53.34 52.23 49.55 48.50 47.37 49.09 49.77 50.62 48.91 48.54 49.02 48.40 48.47 48.80 48.17 49.03 48.83 48.71 48.80 49.17
63.84 63.07 62.36 62.22 61.94 61.49 61.73 61.36 61.23 60.84 59.74 59.20 58.33 57.51 57.75 56.63 56.28 57.07 56.58 56.16 55.51 54.40 53.23 52.42 50.86 49.05 47.67 46.39 46.83 46.83 36.11 30.94 42.23 34.48 47.97 49.10 48.92 49.32 48.42 48.33 48.31 48.39 48.83
62.38 62.91 61.99 61.75 61.42 61.66 61.11 60.86 60.80 59.93 59.34 57.35 57.94 57.68 57.30 56.90 56.84 56.83 56.42 56.00 55.31 54.35 53.28 52.24 50.53 48.48 46.90 46.33 45.81 35.59 30.26 30.21 39.21 30.95 42.64 48.77 48.48 48.17 47.77 47.71 47.65 47.49 47.78

GFSGL_sfc_wetblb_027.txt.gz
Wetbulb
80.28 80.18 80.01 79.89 79.71 80.10 79.30 79.57 79.36 79.05 77.17 75.39 75.05 74.41 73.86 71.94 72.88 72.72 72.72 71.44 70.82 71.22 70.33 70.19 70.43 71.37 67.74 67.44 68.81 69.17 68.27 66.43 62.36 64.90 66.35 68.66 70.55 70.57 69.82 70.23 69.09 69.46 67.95
79.40 80.42 79.90 80.38 79.90 79.24 79.36 79.65 79.63 78.36 77.19 75.57 74.95 74.05 73.09 72.73 72.61 71.90 70.70 70.29 69.65 69.57 70.07 70.47 69.13 68.02 70.85 71.31 67.97 70.09 67.41 68.99 64.63 65.93 66.74 65.87 68.62 70.30 69.67 70.27 68.49 67.04 67.73
78.76 78.83 79.90 79.99 79.59 79.09 79.50 79.71 79.32 77.60 75.98 74.33 74.48 73.64 72.23 71.75 72.01 72.10 71.48 71.18 70.57 69.51 69.41 69.03 68.77 69.18 70.43 69.00 69.00 68.10 66.09 67.87 67.68 64.90 64.21 65.54 66.83 67.26 66.94 69.11 67.60 67.49 67.85
77.01 77.90 79.22 79.73 79.79 79.36 79.96 79.26 78.47 76.83 75.18 73.97 73.75 73.59 72.09 71.96 71.31 71.19 70.89 70.57 70.08 69.69 69.76 70.35 69.43 69.19 70.06 70.81 69.75 70.43 69.54 66.83 66.80 64.32 64.47 64.63 65.46 67.66 66.33 65.54 63.64 65.01 64.60
78.30 78.34 79.33 80.53 80.58 80.56 79.40 78.95 77.37 76.53 73.96 73.94 73.59 71.00 71.17 69.80 70.42 71.47 71.27 70.27 70.44 69.49 70.15 69.85 70.90 70.22 67.76 66.91 67.31 68.57 69.87 66.01 63.92 62.89 62.85 63.03 62.20 64.61 63.44 63.98 62.72 63.84 64.83
78.87 78.83 80.10 80.60 80.16 79.37 78.72 78.81 76.82 74.85 73.91 73.28 72.10 69.92 70.08 70.14 65.45 65.30 69.69 69.53 71.04 70.52 70.07 70.90 70.63 68.18 67.86 65.23 64.46 64.25 64.38 65.40 65.29 62.45 62.22 61.54 63.83 63.59 63.63 62.28 61.75 60.18 58.20
79.98 79.51 80.36 80.47 79.62 78.11 77.55 77.27 75.53 74.53 73.51 72.40 71.55 71.12 70.70 71.53 62.10 62.92 65.27 70.11 70.33 71.01 70.24 70.76 68.75 68.64 66.39 65.97 64.73 64.06 63.22 62.48 62.21 64.65 63.44 63.81 64.02 65.04 65.09 63.97 63.18 61.39 59.57
79.14 79.75 80.35 79.55 78.21 76.84 76.48 76.71 76.34 74.55 72.84 71.50 71.53 71.77 71.27 71.43 60.92 60.86 64.11 69.76 70.51 71.03 70.93 70.41 69.30 67.54 66.38 65.00 64.28 63.94 64.14 65.09 66.96 65.21 65.93 65.20 66.15 65.56 63.42 62.26 62.44 61.62 61.44
78.33 79.18 79.02 78.40 77.77 76.60 74.26 75.01 75.55 74.45 71.99 71.66 71.51 71.66 71.02 70.99 60.27 59.71 63.18 68.68 68.67 70.05 70.53 68.13 67.79 66.18 63.14 61.53 61.62 60.88 62.23 64.76 64.48 61.37 60.52 59.15 58.68 58.81 59.33 60.04 58.11 57.54 56.64
77.97 78.45 78.72 78.37 76.77 75.48 74.79 74.79 74.97 73.94 72.19 70.47 70.03 71.38 66.91 70.15 60.48 58.20 62.59 71.32 69.96 68.19 70.19 68.79 61.48 64.64 58.75 57.95 62.81 63.20 61.96 63.87 64.47 64.94 63.98 61.91 60.09 61.49 59.09 61.27 60.55 57.72 58.45
77.38 77.35 77.50 76.50 76.23 76.21 75.04 75.23 72.69 70.85 69.73 70.16 69.02 68.85 69.53 69.15 69.84 56.23 56.49 70.57 69.14 69.22 67.55 66.22 64.96 57.87 55.37 54.37 56.11 63.61 62.02 60.60 62.55 62.03 60.87 61.02 62.14 62.23 61.06 62.89 63.18 60.99 58.03
77.67 76.16 76.09 76.38 75.22 74.27 73.73 72.57 71.81 70.01 70.22 69.82 68.70 68.59 71.30 72.73 63.06 56.01 55.18 56.81 62.25 66.60 66.58 64.49 64.14 56.17 53.73 52.57 54.66 57.01 53.95 53.52 59.16 58.96 59.10 59.60 58.70 58.87 60.00 61.08 63.09 62.25 60.85
76.92 76.33 75.99 75.66 74.22 73.60 71.10 69.87 68.91 69.62 69.05 68.80 68.00 69.89 70.31 71.26 69.35 54.76 53.23 54.35 56.09 62.43 63.89 57.66 53.02 51.80 51.21 52.27 52.77 54.10 52.08 57.64 58.51 58.43 58.41 57.66 57.94 58.82 62.11 60.66 62.46 63.54 63.16
75.40 74.29 72.95 71.77 71.28 71.71 69.88 69.45 69.36 68.35 68.09 68.30 67.66 68.15 68.74 69.57 68.00 65.55 62.85 59.77 55.95 59.15 56.59 60.53 58.38 57.01 56.00 54.52 58.30 55.68 57.89 59.14 59.04 57.56 56.14 57.16 57.47 56.87 56.20 56.20 54.62 54.42 54.15
72.85 72.09 70.91 70.96 71.09 68.19 62.19 61.96 68.80 66.18 62.18 68.81 67.45 66.81 65.75 65.52 65.04 56.51 57.47 61.45 61.43 59.46 62.79 64.52 62.15 61.31 60.76 60.64 60.41 60.78 58.56 59.27 58.21 57.55 56.25 55.62 54.97 54.79 53.95 54.06 53.06 53.68 53.49
71.26 70.52 68.93 68.78 68.15 68.45 66.33 61.37 45.07 46.38 44.85 45.83 48.43 60.68 60.76 51.29 45.43 43.67 43.20 44.34 46.54 47.41 60.78 61.56 60.73 60.81 60.00 60.61 59.40 57.79 59.04 57.94 57.15 56.72 55.63 54.72 53.43 52.94 52.01 51.90 52.76 52.94 53.60
71.14 70.21 69.92 68.57 69.37 68.57 67.68 65.99 62.99 53.18 44.20 42.50 42.80 43.80 47.74 46.90 43.30 42.71 41.73 42.24 43.07 46.92 58.29 59.45 59.55 60.10 60.20 59.04 57.89 57.87 56.81 56.77 57.35 55.13 54.50 53.63 52.69 51.99 51.01 50.94 51.30 52.19 53.92
70.18 61.01 68.72 67.99 67.81 67.15 66.63 66.17 65.18 63.07 61.86 59.40 46.76 49.41 42.11 41.97 41.82 41.60 41.35 44.39 55.52 52.64 58.18 58.14 58.26 60.09 59.07 58.16 57.45 56.68 56.25 55.75 55.10 54.48 53.36 52.74 52.13 51.04 50.32 50.57 50.69 51.22 52.50
66.74 66.98 67.41 66.34 65.94 64.43 65.48 65.16 64.90 64.31 63.57 61.18 56.17 51.25 46.23 42.04 42.12 42.59 42.82 56.17 57.84 57.55 57.72 57.65 57.63 57.26 57.00 56.91 56.27 55.62 55.09 53.80 51.78 51.08 51.64 51.64 51.08 50.73 50.47 50.73 50.72 47.26 49.09
66.79 62.36 63.36 65.83 64.78 64.72 65.02 64.63 63.92 63.62 63.24 61.67 59.94 59.39 56.79 52.46 55.12 56.09 56.83 58.82 57.35 56.64 56.06 55.84 55.86 55.95 55.58 55.65 54.89 53.65 52.39 51.56 51.94 51.53 51.16 50.84 50.81 50.63 50.15 50.09 50.38 49.99 50.74
66.45 64.70 62.35 65.57 65.01 65.05 64.70 63.92 62.97 62.49 61.89 61.23 61.12 59.73 52.71 58.03 58.68 58.70 58.69 57.61 57.21 57.49 57.19 55.95 55.59 56.13 55.68 54.70 52.62 51.00 50.78 50.98 51.38 50.55 50.05 50.30 50.48 50.04 50.40 50.54 50.46 50.35 50.39
65.66 64.62 64.60 64.54 64.09 63.75 64.02 64.30 64.05 62.21 62.08 60.79 57.38 56.45 48.48 58.11 59.37 58.78 58.46 58.60 58.46 58.11 57.10 57.08 55.62 55.36 54.78 52.07 50.78 50.20 50.72 50.19 50.65 50.03 49.67 49.97 50.17 50.63 49.89 50.25 50.09 49.96 50.25
65.20 65.18 63.90 64.11 61.32 59.38 63.12 63.36 62.82 62.69 61.87 61.25 58.60 57.87 58.73 57.78 58.76 58.47 57.95 58.91 58.83 58.18 58.24 56.87 55.94 54.43 53.71 51.54 50.24 51.62 50.29 50.28 49.84 49.93 49.44 49.58 49.95 50.21 50.13 49.99 49.80 49.43 49.57
62.93 63.32 63.16 62.83 61.83 62.62 63.33 62.44 63.04 55.90 60.22 60.43 60.04 59.75 59.11 58.26 58.84 58.88 58.18 58.08 58.01 58.15 57.63 56.30 54.46 53.06 51.60 50.22 49.92 50.44 50.52 50.51 49.42 49.99 49.48 49.89 50.02 49.60 50.17 49.85 49.41 49.57 49.41
63.55 61.78 62.25 61.68 61.68 61.73 61.42 61.59 60.77 60.94 60.12 60.39 60.30 59.25 59.40 59.58 57.92 58.36 58.29 57.51 57.42 57.09 56.00 55.50 54.12 52.11 50.55 49.55 49.54 49.73 38.58 33.19 43.94 35.14 47.60 50.26 50.25 50.69 49.63 49.32 49.14 49.32 49.18
62.14 61.39 60.97 60.79 60.93 61.61 60.52 60.82 60.68 59.69 59.14 60.53 58.75 59.52 59.49 58.43 57.84 57.64 58.02 57.11 56.97 56.73 56.08 55.23 53.91 51.98 50.26 49.33 48.52 37.01 30.79 32.17 40.21 31.65 42.61 48.20 49.99 49.71 47.53 48.89 48.75 48.52 48.68

GFSGL_sfc_wetblb_030.txt.gz
Wetbulb
79.11 79.13 79.02 78.90 79.40 78.48 77.85 77.43 77.60 77.47 76.79 74.84 74.23 73.85 73.73 73.42 73.23 72.35 71.75 71.49 70.64 70.41 69.64 69.54 68.47 69.99 68.21 68.11 68.80 67.93 66.97 65.56 62.58 63.72 65.86 66.56 67.99 67.83 68.06 68.81 68.91 67.02 67.03
78.84 78.80 79.04 79.34 79.12 78.55 77.24 78.36 78.63 76.92 76.78 74.68 74.37 73.79 73.17 72.75 72.64 71.98 70.40 69.76 70.31 69.87 69.78 70.07 69.39 68.99 69.41 69.83 68.55 68.04 67.14 67.26 64.57 62.95 64.90 65.77 65.98 67.88 68.70 67.78 67.89 66.63 66.15
78.33 78.39 78.69 78.71 78.39 78.16 78.15 77.03 78.12 77.67 76.88 74.92 74.23 73.31 72.91 72.19 72.07 71.68 71.07 70.38 70.23 68.11 70.04 69.43 69.09 69.12 68.79 67.86 68.28 67.70 67.10 66.57 65.96 64.09 63.81 65.53 64.86 66.05 65.45 66.47 66.30 66.71 66.81
77.67 77.69 77.74 78.22 78.31 78.04 78.22 78.01 78.03 78.32 76.87 74.65 73.80 73.31 72.76 72.01 72.01 71.40 71.36 70.77 69.99 69.67 70.01 69.69 69.47 69.25 68.83 68.35 67.91 66.20 66.26 65.84 64.95 63.68 62.97 62.95 64.23 65.38 64.71 62.73 61.96 63.89 63.47
76.17 76.67 77.58 78.83 78.62 78.69 78.20 78.26 78.12 78.11 77.01 75.39 73.73 73.08 72.21 70.92 71.59 70.97 71.18 70.33 69.54 69.28 69.47 69.81 69.71 70.03 68.64 67.08 67.78 67.63 65.55 64.30 62.71 62.20 60.49 60.53 60.86 60.81 59.80 61.20 60.92 62.06 62.60
75.09 76.08 77.12 78.02 78.67 78.57 78.50 78.24 77.82 77.50 76.40 74.93 72.99 71.97 71.31 70.16 66.10 66.10 70.04 69.91 69.77 69.10 68.54 69.94 70.28 68.96 66.62 65.18 64.98 64.42 64.80 63.26 62.02 61.20 61.08 59.93 60.30 61.86 62.21 61.33 60.60 59.23 57.25
75.84 76.08 76.85 78.10 78.42 78.48 78.53 78.06 77.37 76.76 75.70 73.64 72.45 71.51 70.11 70.30 63.62 63.68 66.56 69.83 69.18 68.84 69.39 69.49 69.42 68.66 67.76 66.81 64.29 63.83 63.82 63.46 63.30 63.18 60.02 59.85 60.95 62.22 62.65 61.12 60.54 59.86 58.56
76.83 76.83 77.79 78.44 78.47 78.59 78.13 77.52 77.25 76.43 74.29 72.30 71.71 70.87 70.16 71.15 61.43 61.72 64.61 67.62 68.01 69.74 68.70 69.86 69.24 69.37 67.84 66.92 65.42 65.13 64.95 65.29 64.25 63.27 62.39 62.00 62.89 63.22 62.78 61.12 59.37 58.26 58.78
76.39 78.51 78.59 78.88 78.47 78.11 77.15 76.86 76.28 75.41 72.94 71.68 71.19 70.67 70.52 70.97 60.70 59.55 62.40 66.48 66.09 67.32 68.74 69.96 69.56 69.29 66.14 61.75 64.89 64.16 64.14 63.50 63.23 61.68 61.90 61.70 60.42 59.55 59.53 59.25 57.04 56.00 55.25
77.74 78.33 79.50 79.36 78.53 77.43 77.03 76.46 76.94 76.06 72.97 71.06 69.96 70.45 67.76 69.92 59.13 57.90 61.27 66.27 65.33 66.94 69.37 68.99 62.75 66.52 60.11 58.83 63.41 63.81 62.09 62.56 63.89 63.79 63.81 62.42 60.43 60.41 59.81 59.40 58.73 56.24 56.01
78.91 79.29 79.34 79.01 78.41 78.17 76.48 75.71 74.95 74.24 73.59 71.49 69.83 69.47 70.54 68.82 68.72 56.61 56.37 67.22 68.36 68.10 67.38 67.85 68.73 58.68 56.29 55.89 56.79 63.35 62.09 60.33 61.30 61.45 60.81 59.69 59.90 60.65 60.65 61.38 61.14 59.27 57.49
78.51 78.50 78.23 78.27 76.32 76.36 74.43 73.55 72.82 71.55 70.95 69.77 68.52 68.32 69.34 69.71 63.38 55.77 54.96 56.92 62.38 68.10 68.27 68.37 66.88 56.19 53.56 53.70 55.55 59.86 54.55 55.30 58.63 58.21 57.67 57.61 58.13 58.53 59.52 59.48 60.36 59.79 58.81
77.45 76.96 76.30 76.10 75.37 74.31 72.66 72.60 69.69 70.11 68.26 67.85 67.64 66.96 67.45 70.83 70.63 56.73 52.99 54.24 56.79 63.90 62.93 57.14 52.58 52.23 52.95 53.47 54.25 55.94 53.28 57.48 57.38 56.81 57.01 56.94 56.93 58.66 59.07 57.75 59.33 60.65 60.62
75.86 75.65 75.40 73.76 72.30 71.70 70.65 70.62 69.06 68.03 68.24 68.54 68.22 68.73 69.96 69.94 67.59 65.17 62.99 59.42 56.45 60.39 56.49 57.05 57.06 57.41 57.81 58.52 57.05 54.92 56.84 58.48 58.43 58.42 57.23 57.35 58.30 56.97 55.90 56.17 53.75 53.03 50.92
74.75 72.77 71.52 70.76 69.24 62.67 57.59 56.22 67.73 60.82 61.80 68.80 68.79 69.28 68.23 67.24 66.39 61.55 61.07 62.84 62.45 60.60 61.86 62.99 59.04 59.23 59.34 58.44 58.78 59.82 58.82 58.65 57.31 57.17 57.52 56.60 55.22 54.72 53.93 54.37 52.58 50.55 49.80
71.18 71.04 69.46 68.10 66.27 63.30 61.92 57.92 45.96 46.40 44.95 45.43 48.79 61.70 55.45 51.20 46.51 45.41 44.20 45.14 47.65 51.64 59.19 64.22 62.75 61.97 59.99 58.01 59.08 58.82 58.97 57.86 56.60 56.77 57.34 55.45 53.99 53.19 52.23 52.17 51.41 51.75 50.16
69.83 69.86 69.37 68.35 68.55 67.07 65.49 63.17 58.42 50.99 44.97 43.23 43.90 47.62 50.16 46.88 43.70 43.11 43.03 44.18 46.02 50.49 62.24 61.31 60.19 59.86 59.49 59.76 59.47 57.57 55.20 55.57 57.06 57.07 56.37 55.41 53.77 52.87 51.24 50.64 50.60 50.49 50.30
71.05 61.86 69.12 69.11 68.82 68.72 67.18 65.53 62.07 59.65 59.58 57.12 46.42 48.07 42.56 42.27 42.19 42.37 43.12 47.34 56.14 53.88 58.35 58.52 59.16 60.63 60.65 60.05 57.41 57.12 57.12 56.49 56.25 55.44 53.70 52.63 52.38 52.07 50.58 50.04 50.64 49.84 49.18
70.38 69.66 68.37 68.35 67.79 66.34 66.93 65.97 64.39 63.59 61.74 57.21 53.85 50.24 45.72 42.79 42.80 43.56 43.83 56.61 58.18 59.49 58.56 59.36 58.73 58.39 58.01 57.85 57.57 57.09 56.03 54.96 52.40 52.03 51.59 51.64 52.21 50.39 49.95 50.25 49.74 47.67 47.96
67.78 63.02 65.43 66.51 65.20 65.72 65.29 64.55 64.50 64.02 61.40 58.79 57.90 56.11 54.50 52.22 54.00 54.62 54.79 57.03 59.61 58.32 57.58 56.76 56.90 57.28 57.08 56.65 56.32 55.45 54.07 53.24 52.86 53.02 52.57 51.69 51.69 50.85 49.19 49.18 49.07 48.91 49.00
65.19 64.71 61.00 65.41 64.85 64.55 64.88 64.88 64.56 63.25 62.13 61.25 60.76 58.51 51.56 57.48 58.00 58.42 58.45 59.07 58.52 59.09 58.53 57.65 57.31 57.17 57.01 56.11 55.17 52.64 51.50 51.84 52.42 51.52 50.69 50.40 50.81 49.22 50.72 49.63 49.50 49.53 48.86
65.23 63.67 64.55 64.48 64.74 65.67 65.56 65.75 65.11 63.04 62.89 61.86 60.48 55.97 47.54 58.32 59.67 60.59 59.42 59.86 59.04 59.34 58.93 58.37 56.90 56.91 55.80 53.41 51.97 51.49 51.19 51.42 51.67 50.53 49.93 49.87 49.89 49.78 49.80 48.99 49.58 49.56 48.71
64.90 63.87 63.66 63.92 63.66 59.86 62.08 59.92 63.05 60.87 57.80 60.22 59.55 57.67 55.95 58.48 59.28 60.32 58.67 58.90 57.18 59.03 59.13 57.51 57.33 56.12 55.38 52.80 52.14 51.98 51.40 50.91 50.40 50.22 49.80 49.41 49.23 50.19 49.48 49.34 49.28 48.60 48.45
64.36 63.96 63.86 63.64 61.34 62.61 62.74 59.89 61.60 56.01 60.11 60.35 58.80 58.45 58.17 59.23 59.14 60.25 59.17 59.88 59.43 56.70 58.45 57.26 56.47 55.12 53.40 52.15 51.70 51.57 51.73 49.85 49.22 48.64 48.01 47.91 48.63 49.50 49.16 49.32 48.94 48.13 49.02
63.59 60.15 62.82 62.02 61.65 60.37 59.86 60.53 61.79 61.94 61.38 60.69 57.41 58.54 57.42 59.43 57.54 57.34 59.63 59.44 59.05 58.55 57.66 56.85 56.04 55.26 53.33 52.54 52.00 45.32 36.73 34.00 44.32 36.60 46.80 47.42 47.99 50.12 49.45 47.59 48.79 47.95 49.43
61.34 60.95 60.68 61.34 59.51 60.66 61.50 60.76 61.24 61.40 58.69 60.71 58.92 58.76 58.76 58.75 56.64 59.15 59.25 58.62 58.04 57.77 57.61 56.68 55.63 55.05 53.16 51.35 50.67 37.58 31.49 33.04 39.66 33.92 41.09 44.55 46.76 49.48 47.78 47.33 49.06 47.57 48.46

GFSGL_sfc_wetblb_033.txt.gz
Wetbulb
75.44 75.33 75.60 76.01 76.22 75.43 74.88 74.20 73.51 72.57 72.29 71.99 72.83 72.25 71.18 70.64 69.83 68.64 67.07 66.69 67.39 65.63 66.40 64.81 65.28 64.44 63.29 63.05 64.17 62.81 61.67 61.17 58.54 58.68 60.77 62.26 63.45 63.32 64.70 65.35 65.57 64.13 63.57
76.03 76.27 75.85 76.00 76.67 76.32 75.37 74.60 74.62 72.93 72.81 72.44 72.02 71.90 71.03 70.56 69.69 68.97 67.66 67.39 66.47 66.06 65.29 64.64 64.06 65.54 62.99 63.58 62.83 62.58 62.32 62.36 60.53 58.23 60.17 61.09 61.62 62.33 63.23 63.54 65.17 66.27 63.73
76.10 76.30 76.42 76.01 75.85 76.56 75.97 75.21 74.84 74.26 73.12 72.22 71.72 71.05 70.93 70.63 69.96 69.41 68.22 66.27 66.95 66.79 66.68 65.52 64.64 64.53 64.16 64.40 64.40 63.07 63.26 63.36 62.01 60.16 59.50 61.30 61.43 61.40 61.22 62.70 62.77 63.10 64.68
76.11 76.10 75.85 76.05 76.22 76.34 76.76 75.35 74.92 75.35 73.70 71.84 71.50 71.01 70.68 70.54 69.90 69.57 68.56 67.35 66.55 66.44 67.17 66.86 65.62 65.12 64.26 64.25 63.29 63.14 63.13 61.99 61.37 60.01 59.14 59.26 59.69 59.97 60.39 58.07 57.84 59.54 60.60
75.19 75.58 75.52 76.20 76.70 76.66 76.37 76.14 74.74 75.13 74.67 72.32 71.17 71.12 70.81 70.42 69.88 68.89 68.53 67.71 66.97 66.23 66.97 67.90 67.31 67.56 67.85 65.78 64.28 62.81 62.59 61.07 59.42 58.36 57.56 56.89 57.06 57.60 57.29 57.68 57.55 58.09 59.06
74.04 74.76 75.49 75.44 76.24 76.08 75.99 75.77 75.47 74.56 75.17 73.19 71.22 70.68 69.99 70.79 66.24 67.09 68.63 68.30 67.59 67.01 66.20 66.45 65.98 68.37 67.80 66.65 65.68 65.08 63.10 59.79 57.95 57.91 57.24 57.14 57.45 59.09 60.23 58.41 57.66 55.67 54.53
71.81 73.69 74.53 75.06 75.47 75.74 75.94 75.47 75.35 74.69 75.20 73.38 71.74 70.61 69.01 69.16 64.29 65.01 67.03 68.18 67.68 67.17 66.76 66.60 66.87 66.91 64.99 63.54 63.57 63.49 63.29 62.94 62.14 59.27 57.60 57.42 57.70 59.01 59.87 58.95 58.45 58.06 57.25
71.89 72.48 74.06 74.42 75.34 75.94 75.74 75.38 75.33 75.32 74.02 72.66 71.20 70.32 68.80 68.65 63.13 61.68 64.58 67.34 66.23 66.44 67.09 66.45 66.03 65.54 65.24 63.40 62.71 61.18 61.71 62.14 61.81 62.16 60.67 60.39 59.72 60.72 60.10 59.61 58.22 56.08 55.25
71.43 72.01 73.65 74.51 74.98 75.76 75.45 75.53 75.42 74.76 73.72 71.83 70.19 69.10 68.12 67.76 61.98 60.15 61.48 65.32 64.80 64.80 66.32 67.53 67.19 65.26 63.83 62.66 62.49 61.11 60.30 60.92 62.53 61.68 61.61 61.53 61.09 61.12 61.27 56.50 54.42 51.82 51.40
71.47 72.94 73.85 74.72 75.37 75.73 75.89 75.29 74.56 73.69 72.26 70.74 69.59 69.09 66.35 68.16 60.08 58.81 60.35 64.99 64.14 64.37 65.14 66.23 63.16 64.31 60.73 59.90 61.67 59.85 59.03 59.43 59.96 60.45 60.36 59.08 58.94 58.09 59.84 56.90 56.95 52.27 52.84
73.93 75.33 75.67 76.18 76.45 76.37 75.37 74.89 74.41 72.08 70.81 69.57 68.68 68.58 68.75 68.07 64.52 56.78 56.76 64.92 64.35 64.11 65.01 65.39 65.71 59.56 57.17 56.08 57.93 60.31 59.86 58.90 58.08 55.62 55.24 55.35 55.25 55.14 56.58 57.79 57.91 55.94 53.64
75.42 76.34 76.28 76.38 76.25 74.97 73.58 72.99 72.59 71.46 69.73 68.31 67.22 66.14 66.93 67.81 63.15 55.83 55.29 58.62 63.41 65.86 65.21 64.94 63.48 58.03 54.27 53.90 56.38 57.90 55.72 54.92 54.40 53.80 53.91 53.21 52.67 53.69 55.64 55.93 56.76 57.16 57.10
75.88 75.54 75.59 74.63 74.29 72.73 71.31 70.21 69.40 68.81 67.93 66.01 66.23 65.50 65.79 67.60 67.53 57.09 54.12 54.85 57.65 64.05 64.10 59.12 55.27 53.72 52.62 53.86 55.24 56.48 54.95 52.69 52.47 52.69 52.07 52.41 52.55 54.36 54.44 51.74 51.68 50.00 49.33
73.97 73.23 72.19 71.80 71.02 70.86 69.65 69.24 68.47 67.67 67.17 66.63 66.49 65.58 64.82 65.31 64.04 59.98 58.37 56.68 56.72 57.51 56.14 54.57 55.49 55.75 55.15 56.12 54.13 53.56 52.59 52.60 52.78 52.63 53.07 52.36 51.84 49.93 49.14 49.46 47.29 46.48 44.41
72.60 70.68 69.51 68.09 63.55 58.63 55.20 61.28 65.39 59.74 62.75 67.25 67.04 66.85 65.00 64.43 63.25 59.38 58.53 59.76 59.40 58.09 56.95 55.82 54.09 53.63 53.05 52.85 53.35 52.81 54.11 53.97 54.13 54.42 54.04 50.92 48.58 48.62 48.19 47.38 45.78 43.95 42.27
68.84 68.59 65.68 64.32 62.90 60.39 58.05 53.21 45.86 46.59 45.44 46.61 50.72 57.77 53.78 54.37 50.44 49.66 49.86 50.50 52.42 53.15 56.28 57.31 54.42 54.62 54.74 55.08 54.71 54.71 56.68 56.90 55.57 55.09 52.99 49.55 47.70 47.80 45.96 46.09 44.96 43.32 43.58
68.27 66.70 65.43 63.68 63.64 61.77 59.80 57.95 53.85 50.47 45.68 43.66 44.47 46.73 49.41 46.89 44.94 43.78 43.29 44.73 47.13 50.29 55.09 55.97 55.75 55.03 54.97 55.23 55.92 56.18 53.99 54.24 53.73 51.88 48.71 48.42 47.46 45.89 46.13 44.16 43.42 43.67 43.32
67.49 61.98 67.35 65.90 65.26 63.64 61.15 59.03 57.13 56.06 54.60 52.14 44.65 44.83 42.49 42.43 42.68 42.69 43.89 48.32 50.57 49.94 51.91 52.05 51.81 52.50 54.13 53.60 51.83 50.93 49.28 49.13 47.66 44.96 44.27 44.18 44.01 44.77 43.59 42.96 43.22 41.79 41.98
67.46 67.35 66.95 66.47 65.87 63.56 63.27 59.82 58.69 58.35 54.07 49.61 47.77 46.34 42.73 42.27 42.75 43.70 44.64 51.66 51.71 51.59 50.84 51.06 49.66 49.72 50.08 49.90 49.72 48.76 47.44 45.50 43.88 43.35 42.95 43.79 45.13 42.60 41.83 42.62 42.66 44.53 44.52
63.58 62.96 63.70 65.04 64.51 64.46 62.92 60.20 59.56 57.11 53.29 51.69 50.76 49.27 47.98 47.28 47.99 47.77 47.52 48.69 50.73 49.63 48.73 49.07 49.24 48.79 49.04 48.60 47.34 46.15 45.34 44.76 44.40 44.96 44.38 43.86 42.75 41.94 41.80 42.79 42.14 41.89 41.91
61.36 60.30 60.85 60.38 60.24 60.61 60.43 61.06 61.62 57.70 55.33 54.30 53.42 51.73 47.83 50.97 49.98 49.38 49.34 50.45 50.95 51.08 49.72 49.14 48.91 48.43 48.23 47.51 46.49 43.94 42.95 43.35 43.33 42.37 41.83 41.96 42.23 42.09 43.06 41.90 42.34 42.97 41.92
60.47 59.35 59.72 60.15 60.45 60.24 60.53 60.03 61.42 59.43 57.50 56.43 55.22 51.66 45.83 52.04 52.72 52.55 53.05 53.43 52.61 51.39 51.12 49.81 48.81 48.59 45.94 44.28 42.94 42.42 42.55 43.06 42.44 41.67 41.83 41.96 41.98 42.83 42.61 42.40 43.02 42.09 41.86
61.67 61.14 60.74 59.87 60.05 59.08 59.77 58.89 57.73 56.75 57.67 56.96 56.77 53.39 50.49 52.29 53.03 54.05 55.22 55.12 54.77 54.05 51.32 50.27 49.51 47.58 45.55 43.56 42.80 43.44 42.51 42.39 42.30 42.46 41.55 41.57 41.88 42.49 42.67 42.19 42.37 40.81 41.00
61.92 61.35 61.16 59.85 59.25 58.32 57.76 58.25 59.47 55.12 57.26 56.86 55.04 53.82 53.08 53.61 53.69 53.83 53.29 53.53 52.70 52.20 51.83 49.26 48.57 47.42 44.65 42.92 42.00 42.70 43.25 41.36 41.06 39.72 39.29 39.44 40.31 41.83 43.24 42.41 41.25 41.39 41.19
61.83 61.76 61.46 58.87 57.06 57.07 57.25 58.21 57.10 57.73 56.88 55.93 54.57 54.48 54.10 54.84 54.11 55.52 54.26 53.31 52.82 51.36 50.62 49.49 48.10 46.54 45.03 43.15 41.02 37.77 35.44 34.39 37.18 36.58 38.92 38.35 38.83 40.90 42.24 39.80 40.22 41.17 41.68
57.89 59.62 59.11 59.45 59.01 57.82 55.93 56.90 57.44 56.35 56.76 57.37 55.21 54.74 54.60 55.58 54.13 54.52 55.21 53.02 52.33 52.33 50.72 49.75 48.93 47.75 45.72 43.90 41.01 35.97 31.78 33.37 35.71 34.39 35.17 36.09 37.78 39.77 41.47 40.49 41.22 41.48 41.39

GFSGL_sfc_wetblb_036.txt.gz
Wetbulb
72.86 73.14 72.73 72.34 72.14 73.08 73.93 73.62 72.21 71.79 70.73 69.59 71.52 71.20 70.42 69.01 68.25 66.67 65.49 65.92 64.58 64.53 65.07 63.99 63.24 63.15 62.67 61.46 62.42 61.23 60.49 58.95 56.49 57.73 59.22 60.46 61.91 62.52 63.08 64.29 63.62 63.02 63.16
73.26 73.27 73.39 73.27 73.27 72.31 72.56 73.82 73.58 71.98 71.51 70.71 70.64 71.69 70.74 69.85 68.52 67.59 65.76 66.35 65.78 64.35 64.23 63.98 63.48 65.00 62.33 61.16 61.80 60.81 60.35 60.65 59.16 57.45 58.09 59.48 60.62 61.07 61.09 61.41 62.54 65.49 63.55
73.57 73.31 73.65 73.77 73.88 73.47 73.16 73.11 74.13 73.14 71.38 70.95 70.79 71.15 70.66 70.26 68.86 68.25 67.20 65.87 65.43 65.87 65.05 63.98 63.81 62.86 61.60 61.27 61.48 60.81 61.54 62.08 60.54 58.83 58.32 59.66 60.16 60.20 59.98 61.01 61.50 60.76 62.29
73.82 73.58 73.19 73.81 74.50 74.49 74.38 73.77 73.58 73.86 72.02 71.01 70.88 70.99 70.72 70.35 69.66 68.57 67.83 66.43 65.98 65.81 65.74 65.38 65.30 64.38 62.74 63.23 63.72 62.39 61.81 61.09 60.22 59.35 58.67 58.31 58.57 59.10 59.29 57.37 57.68 58.18 58.51
73.95 73.75 73.59 74.23 74.86 74.99 75.13 75.05 74.25 73.53 73.41 71.88 70.74 70.13 70.09 69.90 69.93 68.81 68.34 67.04 66.06 65.14 65.49 66.42 66.95 66.65 66.08 64.81 64.75 62.56 61.55 60.83 60.20 58.32 57.02 56.10 55.98 56.27 56.09 57.50 58.39 59.02 59.30
73.64 73.94 74.57 74.83 74.83 74.68 75.10 75.42 74.47 73.98 73.68 71.81 70.76 69.99 69.08 70.26 66.72 66.41 68.51 67.89 66.89 65.95 65.10 65.07 66.78 67.60 66.75 65.58 65.41 64.52 64.08 61.79 59.75 58.00 57.57 55.64 55.92 56.56 57.45 57.89 57.88 57.41 55.76
73.36 74.12 74.36 74.71 74.73 74.78 74.90 75.10 74.68 73.70 74.00 71.66 70.16 70.00 69.69 69.93 64.37 64.96 66.90 68.27 67.08 66.70 65.43 64.71 65.62 66.91 66.38 66.42 64.65 63.69 63.34 62.88 61.83 58.86 57.05 56.83 56.47 57.07 57.47 55.86 56.40 56.06 55.49
73.05 73.41 74.25 74.54 74.38 74.88 75.05 74.79 74.80 74.19 73.39 72.17 70.37 70.20 69.85 70.00 63.09 62.77 65.45 68.76 67.10 66.20 65.96 65.35 66.01 65.96 64.82 64.46 63.87 63.18 62.56 62.02 62.15 62.16 59.97 59.79 59.14 59.30 58.55 58.31 57.51 56.20 54.82
70.75 72.38 73.44 74.48 74.03 74.58 74.48 74.63 74.74 74.69 73.60 73.22 71.41 70.59 69.90 69.99 60.95 60.91 63.33 67.62 64.71 64.65 65.46 66.18 66.65 64.81 62.66 61.96 62.85 62.09 61.68 61.33 62.42 60.83 60.71 60.60 60.42 60.57 60.80 58.24 57.82 52.21 51.55
70.04 70.44 72.94 74.15 74.04 74.26 74.63 74.67 74.93 74.91 73.76 72.71 71.49 71.23 68.01 69.35 60.12 58.27 60.75 64.46 64.88 65.21 63.52 65.80 62.67 64.72 59.73 59.29 64.17 62.78 61.74 61.53 60.20 60.51 60.59 59.10 59.36 59.28 59.71 57.80 55.84 52.29 51.57
70.53 70.97 71.34 73.41 73.73 74.75 75.03 75.25 74.99 74.39 72.40 71.70 70.48 69.94 68.47 66.77 63.74 57.48 56.97 64.61 64.87 64.35 64.28 64.18 65.03 58.25 56.39 55.85 58.33 62.76 61.10 59.28 60.20 56.39 55.24 54.96 54.61 53.86 54.47 54.65 55.38 54.71 51.70
69.77 70.38 71.22 72.90 73.76 74.62 75.05 75.15 74.17 73.04 71.20 69.90 67.23 66.26 67.12 67.01 60.69 55.48 55.06 58.99 61.76 64.19 63.73 64.89 64.56 56.94 54.22 53.67 55.83 58.02 56.84 56.84 55.82 54.14 52.17 51.89 51.53 52.42 51.92 52.65 52.01 54.04 57.42
70.45 71.78 72.04 73.27 74.43 75.28 74.77 73.95 72.86 71.59 69.22 67.59 66.96 66.14 65.92 67.19 64.93 55.92 53.82 55.38 57.96 64.46 65.61 60.96 55.12 52.04 51.32 54.40 54.34 55.43 55.26 54.67 52.99 50.69 50.18 50.28 51.38 51.49 50.92 49.13 49.34 47.80 47.20
71.94 74.04 74.65 74.57 74.00 74.37 74.16 72.95 71.21 69.53 67.97 67.03 66.10 66.05 65.53 65.53 65.35 61.41 58.16 56.70 56.37 58.71 57.50 57.68 56.86 56.74 54.38 55.33 55.69 55.23 54.99 53.56 51.87 50.53 50.47 51.59 51.41 48.59 47.42 47.55 45.53 44.46 42.48
73.70 73.56 72.81 71.34 71.25 65.73 60.18 65.17 68.68 64.46 65.94 67.01 66.72 66.13 65.11 65.15 64.26 59.45 57.80 59.71 59.83 56.96 57.48 56.85 55.30 53.09 52.99 52.65 52.93 53.28 51.94 51.39 51.53 51.42 51.50 51.27 48.31 47.01 46.71 45.42 44.15 42.71 40.79
70.55 68.11 66.01 64.54 62.95 61.28 59.67 55.53 48.85 49.79 51.32 49.32 54.04 60.21 57.80 55.81 50.41 48.42 46.60 47.51 48.60 49.69 56.76 55.21 53.29 52.81 52.82 52.54 51.88 51.63 51.71 53.22 51.60 51.78 51.84 49.38 46.35 46.16 45.05 44.27 43.02 40.96 40.28
66.73 65.35 63.65 62.71 61.96 60.74 59.69 58.20 55.39 50.43 45.15 45.29 44.87 47.51 51.14 49.14 47.15 45.70 45.33 45.99 47.33 51.62 55.29 54.95 55.27 54.29 53.79 53.79 53.13 52.53 52.82 53.81 52.38 50.02 47.41 46.75 46.16 43.94 43.59 42.47 40.89 40.68 40.97
65.22 59.84 64.41 63.06 61.73 60.97 59.84 58.64 59.75 58.96 55.66 51.17 45.12 45.24 44.31 44.34 43.68 42.93 43.79 46.94 50.39 50.55 52.22 52.24 51.44 51.20 51.66 51.75 50.61 48.86 48.40 46.21 44.21 43.45 44.77 43.14 42.13 42.59 41.93 40.39 40.31 39.68 39.23
66.31 65.33 64.86 63.94 63.05 60.82 60.10 58.76 57.72 56.35 53.27 49.65 49.06 46.31 43.11 41.80 41.99 42.90 46.24 52.05 51.43 50.26 49.19 48.12 48.70 48.85 48.54 47.95 47.21 46.57 46.01 44.69 43.65 42.20 41.01 41.88 42.34 40.94 39.52 39.85 40.69 42.42 42.10
65.07 62.04 64.62 64.07 62.74 61.19 60.17 59.24 56.72 54.10 52.62 52.65 53.00 49.83 46.01 47.63 48.83 48.64 48.65 48.47 49.64 47.83 47.79 47.51 47.29 47.52 47.39 46.86 45.44 44.61 43.93 42.94 41.96 41.84 42.53 41.67 40.48 39.42 39.77 40.45 39.79 39.44 40.19
62.23 63.48 61.49 63.96 63.04 61.32 59.64 58.61 56.66 54.14 52.31 51.94 52.07 49.99 46.64 51.70 49.61 49.01 47.00 47.55 49.10 47.72 47.98 47.87 47.02 47.12 46.62 45.32 43.96 42.39 41.30 41.06 41.30 40.68 39.80 39.43 39.56 40.24 40.58 39.79 40.08 40.79 39.72
61.13 60.27 60.00 60.65 61.13 60.89 59.64 59.21 57.16 54.96 54.05 53.72 52.08 49.32 43.68 49.87 49.38 48.65 48.09 49.75 50.46 49.40 49.19 48.52 47.45 46.73 46.31 46.05 43.66 41.85 41.45 41.30 40.32 39.94 39.77 39.78 40.12 40.75 40.94 40.22 40.51 40.09 38.82
60.99 60.56 60.31 59.71 59.16 57.56 57.72 58.37 57.87 56.86 55.62 54.81 53.76 51.51 48.76 50.18 50.95 50.42 50.90 51.84 50.71 49.46 48.65 48.25 47.10 44.50 43.09 42.03 41.57 41.93 41.41 40.43 40.77 40.98 40.26 39.81 39.21 39.24 40.40 40.19 39.78 38.94 38.38
59.32 59.46 59.25 59.55 59.07 59.07 58.60 58.37 57.95 55.58 57.42 56.53 54.64 52.67 52.23 52.18 52.08 52.97 52.84 52.82 51.83 50.29 48.69 48.20 47.45 46.04 42.46 40.75 40.17 41.35 41.65 40.73 39.77 39.72 38.99 37.82 37.83 38.33 39.19 39.52 37.84 38.70 39.02
59.79 60.61 59.38 58.61 58.62 58.19 58.47 58.28 55.96 57.07 57.60 56.92 55.72 54.69 53.00 51.68 52.07 52.16 52.04 53.15 52.54 50.45 48.38 47.37 46.70 45.44 43.15 41.45 41.16 41.07 37.65 34.08 36.63 35.82 37.47 36.98 36.29 38.38 39.04 38.75 37.56 39.10 39.16
60.36 60.33 60.95 60.56 59.03 57.03 56.20 56.36 55.11 54.88 54.49 54.89 55.41 54.53 53.67 52.79 52.48 52.63 52.24 52.19 51.15 50.69 49.22 47.29 45.95 44.69 43.19 41.89 40.86 37.29 32.56 32.95 36.07 34.47 34.77 34.52 35.81 37.41 38.66 39.69 38.56 39.18 39.65

GFSGL_sfc_wetblb_039.txt.gz
Wetbulb
71.05 71.40 71.47 71.69 72.24 72.53 72.06 71.16 70.33 69.49 68.74 69.39 70.10 70.24 69.53 68.01 66.73 65.83 64.43 64.05 63.47 63.43 63.44 62.90 62.31 61.85 61.59 60.81 61.38 59.56 58.91 56.63 55.31 57.16 57.93 59.41 60.50 60.98 62.17 62.22 64.37 62.31 61.83
71.34 71.42 70.99 71.11 71.14 71.99 72.39 72.70 71.79 70.20 69.32 68.90 69.86 69.82 69.45 68.65 67.74 66.41 65.21 65.59 63.79 62.70 63.08 63.28 62.91 63.67 61.59 61.20 60.92 59.91 59.08 59.19 58.28 56.55 57.23 58.59 59.64 60.30 60.31 60.46 61.48 63.51 63.32
71.04 71.58 71.38 70.98 70.89 70.89 71.53 72.54 72.89 72.11 70.81 69.78 69.22 70.00 69.55 69.25 67.78 67.46 66.52 65.84 65.10 64.48 63.50 63.46 63.33 62.84 61.66 60.74 60.49 60.36 60.34 60.86 59.44 58.18 58.39 58.68 59.35 59.25 59.18 59.61 60.28 59.01 60.91
71.01 71.14 71.19 71.39 71.35 71.06 71.00 71.38 72.56 72.89 71.14 70.68 69.44 69.61 70.34 69.92 69.05 68.42 67.46 66.19 65.39 65.26 65.01 64.42 63.46 63.21 62.33 62.76 61.30 62.26 61.43 61.88 59.53 58.93 57.85 58.11 58.17 58.29 58.50 57.55 57.11 57.53 58.36
70.91 71.06 71.01 71.99 72.29 72.14 71.64 71.20 71.45 72.21 72.46 71.30 70.39 69.85 70.32 70.09 69.92 68.86 68.14 67.15 65.87 65.25 65.06 65.30 64.55 65.01 65.74 64.33 63.45 63.06 62.01 61.68 60.92 59.07 58.03 56.73 56.23 55.93 55.65 56.52 55.97 57.09 58.08
71.18 71.11 71.87 71.76 72.46 72.68 72.60 72.19 71.82 71.56 71.91 71.41 70.25 70.08 69.79 70.02 66.83 66.12 68.29 67.69 66.70 66.06 65.21 65.08 65.48 66.78 66.09 64.68 64.50 64.37 64.13 61.53 60.98 58.82 57.43 57.27 58.02 57.29 56.49 56.59 56.01 54.93 53.89
71.43 71.72 72.19 72.16 72.13 72.78 73.25 73.06 72.83 72.16 72.02 71.23 70.86 69.99 69.44 69.82 64.08 64.52 66.55 68.54 67.41 66.10 65.24 64.62 64.56 66.35 65.61 65.23 64.10 63.68 63.32 63.07 62.71 59.80 58.91 57.51 58.17 58.24 57.92 55.17 55.29 55.03 54.44
71.40 71.95 72.63 72.64 72.28 72.73 73.11 73.20 73.56 73.61 72.61 72.04 70.96 70.48 69.88 69.37 62.85 62.39 65.48 68.73 67.51 66.95 66.77 65.83 64.87 64.13 64.50 64.53 64.82 63.08 62.99 62.02 61.81 61.25 60.84 60.67 60.14 60.54 58.57 57.93 56.49 55.91 56.15
70.80 71.38 72.67 72.97 72.86 73.11 72.88 73.10 73.72 74.28 73.47 73.18 71.55 70.20 69.51 69.40 60.92 60.81 63.68 68.39 66.99 66.83 66.70 65.73 64.95 63.92 62.47 61.75 62.59 61.58 61.05 61.12 62.24 61.19 60.91 60.28 60.16 60.61 60.51 58.52 58.11 55.73 51.71
70.91 71.71 72.75 73.36 73.32 73.30 73.53 73.58 73.98 74.40 73.89 73.66 72.07 70.54 67.91 69.86 60.37 58.32 64.47 68.09 66.42 65.67 64.13 64.01 62.30 63.92 59.06 58.84 62.71 62.10 61.34 61.74 62.01 61.71 61.77 59.13 58.82 58.24 59.75 58.78 56.17 52.51 50.45
70.52 72.00 72.48 73.11 73.46 73.81 73.93 74.20 74.13 74.33 74.09 73.26 72.03 71.30 70.77 70.00 61.96 57.09 60.25 66.77 66.27 65.22 64.59 63.36 64.05 58.82 55.56 54.83 58.94 63.71 62.68 61.46 60.79 60.10 57.25 54.83 54.42 53.25 52.93 53.00 54.05 53.28 50.61
69.73 69.79 70.51 72.19 73.31 73.64 73.55 73.93 74.22 74.29 73.51 72.70 71.67 70.65 69.88 67.98 59.69 56.43 56.93 60.92 61.90 63.59 63.18 63.61 63.63 55.12 53.38 53.02 55.74 58.28 56.81 58.23 57.81 55.24 53.50 52.07 50.72 50.80 51.94 50.87 50.64 53.96 55.73
68.06 68.42 69.28 70.33 72.60 73.49 73.35 73.81 73.91 74.09 73.14 71.67 70.01 67.91 67.57 67.37 64.61 56.63 54.04 56.63 58.49 64.07 64.35 61.46 55.74 51.03 50.30 52.30 54.63 55.72 56.06 56.87 54.48 52.39 50.92 49.54 50.02 51.72 50.12 48.04 48.25 46.68 45.46
65.63 66.29 67.71 68.73 70.09 72.07 73.54 74.16 74.04 73.49 72.08 70.06 68.52 67.16 66.49 65.80 63.99 59.97 58.68 58.30 57.74 60.07 57.67 58.18 57.19 56.63 55.18 56.21 55.40 56.04 57.13 54.72 53.11 51.26 49.52 49.57 50.20 49.68 46.77 46.34 44.75 43.47 41.91
67.74 66.93 68.16 69.35 69.91 57.98 53.45 52.95 64.61 65.28 68.77 68.55 67.48 66.85 65.97 65.54 65.47 59.73 58.08 59.97 61.39 57.35 57.47 58.33 56.57 55.31 54.00 53.39 53.15 55.04 53.16 53.11 51.91 50.00 49.76 49.88 49.66 46.77 45.85 44.75 43.23 41.79 39.90
71.08 70.81 68.59 63.00 62.12 60.61 61.44 60.77 51.72 52.48 54.83 52.30 53.75 59.16 63.89 56.31 52.12 50.48 48.31 47.95 48.85 50.30 58.20 57.37 56.07 52.94 52.94 52.10 51.57 51.31 51.18 53.07 50.49 50.16 50.27 50.10 48.66 45.72 45.11 43.11 42.07 39.70 38.53
65.11 63.86 63.02 62.16 62.64 63.34 64.48 63.09 59.32 56.27 53.20 49.58 47.77 48.13 50.67 51.75 46.68 46.13 46.31 47.95 47.22 51.75 55.76 54.50 53.68 52.48 52.12 51.96 51.68 51.26 51.49 51.86 51.36 50.96 50.20 47.80 46.00 44.77 42.57 41.39 39.63 38.91 38.88
63.98 58.28 63.18 62.86 62.64 62.44 61.71 61.42 61.25 61.16 59.94 57.11 46.48 50.48 48.49 46.50 44.86 44.81 44.14 47.53 54.68 52.26 53.50 53.90 53.86 54.00 53.40 52.44 51.68 51.16 50.40 48.70 47.13 45.58 43.27 42.50 41.60 41.39 41.07 38.85 38.58 38.33 37.54
65.43 64.57 63.58 62.58 61.92 60.73 61.07 60.17 58.80 57.95 56.45 51.76 51.58 48.89 44.78 42.54 42.42 43.10 45.53 56.95 54.73 50.60 49.78 49.24 49.69 49.88 49.92 49.55 47.76 47.06 45.47 44.08 43.34 41.98 40.83 41.32 41.69 40.05 38.33 38.47 39.13 41.57 40.84
63.96 60.31 61.30 61.90 60.83 60.96 60.28 58.80 56.55 55.62 55.26 56.87 57.03 53.53 47.64 49.37 51.17 50.82 50.39 50.96 50.72 49.90 47.66 47.84 47.94 47.81 47.13 46.70 45.66 44.64 43.34 42.25 41.31 40.82 40.53 40.62 39.23 38.68 38.92 38.97 38.44 38.53 38.42
64.32 63.49 61.45 62.23 61.32 60.40 59.60 58.79 57.25 56.23 56.23 56.13 54.84 51.80 47.66 54.28 51.12 49.74 48.30 48.44 48.29 48.64 47.46 47.75 46.87 46.68 45.98 45.10 43.90 43.09 41.73 40.90 40.17 40.47 39.79 38.47 38.48 38.79 39.05 38.65 38.90 38.66 38.12
61.39 62.69 62.98 61.81 61.01 59.71 58.65 56.97 54.81 54.51 54.22 53.40 49.89 47.02 44.34 50.62 51.23 49.68 47.79 49.74 48.04 48.41 48.62 48.08 47.09 46.74 46.27 45.02 43.13 41.15 40.49 40.53 39.95 39.02 38.68 38.73 39.11 39.62 39.59 39.19 38.94 38.24 37.22
59.13 59.24 58.95 58.98 60.01 57.19 58.05 56.69 54.80 53.94 52.99 52.26 51.38 49.66 48.30 50.71 50.07 48.71 47.47 49.10 48.66 47.73 47.38 47.19 46.90 45.73 45.37 45.12 43.00 41.94 41.27 40.40 39.82 39.79 39.16 39.20 38.66 38.46 38.88 38.65 38.31 36.96 37.14
57.86 58.30 58.06 57.39 57.61 58.07 58.41 58.03 56.35 53.08 55.35 54.37 53.14 51.79 50.72 50.64 51.27 50.53 50.15 50.34 49.26 48.27 47.54 47.13 46.18 44.45 42.62 40.90 40.21 40.35 40.63 39.96 39.90 40.22 39.70 38.06 37.38 37.89 37.99 38.15 36.66 37.10 37.84
57.19 56.86 58.33 58.58 58.26 58.50 57.75 57.77 57.60 57.38 56.96 56.07 54.80 53.81 53.16 51.79 51.68 52.14 51.25 51.35 50.16 48.36 47.68 47.11 46.31 45.44 43.35 41.15 39.94 40.57 38.43 34.83 38.27 36.00 36.20 36.09 35.89 36.58 38.16 38.31 37.19 37.60 38.30
58.95 59.18 58.19 58.16 58.24 58.23 57.84 57.49 56.66 56.29 55.93 55.77 54.61 53.11 52.31 51.90 53.10 52.91 51.61 51.41 50.90 49.71 48.90 47.14 46.61 45.42 43.57 41.63 41.21 39.20 33.58 33.47 35.24 34.00 35.54 34.46 34.08 36.28 37.96 38.63 38.44 37.65 38.49

GFSGL_sfc_wetblb_042.txt.gz
Wetbulb
70.76 71.25 71.48 71.48 71.75 71.62 71.18 70.50 70.42 70.67 70.86 71.02 71.79 71.84 71.47 70.07 68.66 67.20 66.65 65.96 65.72 65.68 65.83 64.77 64.75 65.35 64.33 64.17 64.40 63.12 62.22 61.07 60.32 61.70 61.66 63.89 65.17 66.03 66.36 67.01 66.69 67.40 66.98
70.36 71.17 71.35 71.60 71.67 71.20 71.08 71.15 71.26 70.47 70.46 70.65 71.34 71.59 71.36 70.35 69.15 67.98 66.56 66.47 65.71 65.37 65.57 65.24 64.90 64.37 64.82 64.82 64.16 64.05 63.44 62.69 62.00 62.42 62.63 62.87 63.93 64.85 65.38 65.38 65.30 65.52 66.55
70.31 70.57 71.09 71.25 71.40 71.25 71.35 72.07 71.75 71.23 70.42 70.09 70.83 70.89 70.74 70.57 69.58 68.78 68.14 67.28 66.57 66.26 65.97 65.30 65.21 65.08 64.51 64.20 63.69 63.97 63.31 63.29 63.62 62.12 62.85 62.90 63.44 63.49 63.61 63.86 64.55 64.73 63.91
70.16 70.28 70.16 70.76 71.08 71.57 72.06 72.44 72.47 72.10 71.01 70.20 70.18 70.73 70.87 70.74 70.39 69.61 68.64 67.92 67.57 67.19 66.57 65.93 65.53 65.21 65.23 64.77 64.73 64.38 64.75 64.19 63.59 63.03 62.81 62.55 62.79 63.24 62.28 61.77 61.56 62.22 62.25
69.71 69.91 70.32 70.88 71.05 71.33 71.40 72.04 72.54 72.93 72.31 71.28 70.39 70.26 70.53 70.63 70.42 69.85 69.33 68.55 67.74 67.59 67.43 66.78 66.47 66.65 65.96 65.32 65.28 65.04 64.77 64.06 63.54 62.26 60.99 60.73 59.24 60.13 60.66 61.66 60.06 60.27 62.77
69.76 69.44 70.54 71.02 71.20 71.01 70.96 71.08 71.40 72.24 72.83 72.30 71.53 70.74 70.05 70.41 66.86 65.92 68.85 68.97 68.36 67.97 66.80 66.69 67.44 66.73 66.53 64.53 64.38 64.13 65.61 65.06 64.29 63.89 62.11 62.79 62.64 61.43 61.03 58.72 60.40 60.17 58.90
69.73 69.99 70.38 70.86 70.95 71.18 71.43 71.17 70.50 70.53 71.80 72.20 71.94 71.57 70.75 70.76 64.35 64.49 66.63 69.92 68.86 68.36 67.84 66.33 66.37 67.58 66.37 67.29 64.17 63.40 63.51 63.16 64.66 64.97 62.81 62.85 62.61 62.90 61.53 58.42 59.46 60.03 59.39
69.73 69.93 70.58 70.93 70.86 71.47 71.69 71.43 71.18 71.25 70.73 71.01 71.52 71.81 71.53 71.36 63.26 62.58 65.64 70.38 69.15 68.78 67.78 66.71 67.29 66.73 66.64 66.86 67.15 66.37 65.97 65.93 65.43 64.87 64.11 62.81 63.03 62.52 63.01 61.85 61.50 60.87 60.15
69.76 70.19 70.81 71.33 70.96 71.32 71.42 71.83 72.21 72.06 71.71 71.39 71.81 71.69 70.94 71.02 61.35 60.86 63.70 69.81 68.59 67.90 67.63 67.65 67.04 66.91 63.72 62.35 66.01 66.04 65.61 64.67 62.29 61.33 61.47 60.98 60.84 60.95 62.59 62.36 59.88 58.64 56.41
69.92 70.74 71.58 71.92 71.84 71.42 71.76 72.18 72.93 73.16 72.93 73.03 72.29 72.16 68.93 71.26 59.95 58.94 63.52 69.16 68.10 67.80 67.90 66.95 63.06 66.35 59.61 58.96 66.15 65.72 64.57 62.98 63.27 63.41 63.84 61.72 61.38 62.55 60.67 62.30 61.40 58.23 56.80
69.84 71.43 71.85 72.48 72.51 72.54 72.68 72.98 73.05 73.22 73.59 73.44 73.03 73.06 71.70 70.50 68.26 57.20 59.88 69.04 68.55 67.76 66.42 65.56 66.11 58.94 55.95 54.86 59.55 65.92 64.00 63.95 63.04 64.13 63.68 62.61 60.37 60.02 58.84 58.50 60.30 59.00 57.06
69.65 70.81 71.35 72.41 73.15 73.29 73.12 73.19 73.46 73.28 73.03 73.18 72.75 72.03 71.15 71.14 61.73 55.38 58.22 61.30 63.45 66.70 65.58 65.72 64.75 54.86 52.50 52.50 57.40 59.35 57.24 60.22 62.35 61.75 60.29 59.29 58.92 57.41 57.67 57.03 57.45 57.96 58.88
68.58 69.33 71.43 72.83 73.01 73.46 73.29 73.22 73.14 73.55 72.91 72.61 72.40 71.41 70.81 71.03 62.91 55.91 55.75 58.12 60.30 64.82 64.70 62.41 55.95 51.24 50.13 52.50 54.84 55.75 56.65 61.08 60.46 59.25 58.71 57.62 56.05 56.99 56.82 55.71 55.17 54.64 53.88
66.43 67.23 68.16 69.02 70.82 72.73 73.77 73.97 73.62 73.28 73.16 72.70 71.73 70.85 69.41 67.42 65.38 61.36 61.56 61.85 59.03 62.09 59.15 59.67 58.10 56.83 55.95 57.76 56.61 57.30 61.11 60.87 59.77 58.84 57.08 55.98 55.84 55.80 55.47 53.99 53.60 51.75 50.92
66.88 66.52 68.12 68.17 61.96 59.47 57.30 59.92 63.38 59.90 68.21 67.87 67.89 67.42 65.83 64.50 61.28 55.37 57.34 63.09 64.30 61.48 60.03 60.31 58.85 58.44 57.60 58.44 58.44 58.92 58.76 58.99 57.82 56.40 55.43 55.10 55.55 54.97 53.76 52.23 51.26 50.33 49.32
69.07 68.28 65.40 62.56 62.08 63.33 61.35 59.01 50.15 52.14 50.87 51.05 53.23 59.23 61.52 55.95 50.69 51.78 49.60 49.79 49.06 51.05 61.03 60.50 59.35 58.75 58.05 57.01 56.56 55.64 56.72 57.13 57.68 56.55 55.73 55.53 55.65 54.91 53.36 50.48 49.85 48.83 47.71
64.77 63.71 63.05 62.67 64.43 64.23 64.01 61.67 58.99 55.93 49.97 51.24 51.60 52.69 53.59 50.69 53.77 50.15 46.34 47.43 49.97 53.77 61.38 60.41 59.55 57.29 56.45 56.13 56.42 57.00 57.14 57.47 57.12 56.15 55.82 55.57 55.19 52.62 50.68 49.36 48.06 47.26 47.59
63.49 57.58 64.23 64.61 64.07 63.46 62.34 62.16 61.97 60.71 59.19 57.02 47.79 53.59 50.87 50.15 44.71 43.98 45.25 49.60 56.92 57.70 61.05 58.87 57.86 56.69 56.27 56.46 56.34 56.57 56.51 56.00 55.97 55.68 55.24 54.52 52.26 49.98 48.71 47.82 46.82 47.14 47.03
64.69 64.19 64.17 64.41 64.44 62.29 62.89 63.10 62.97 62.22 60.29 54.00 51.30 48.50 47.90 44.17 44.71 46.34 49.60 60.67 59.97 58.28 57.77 57.53 57.65 57.14 57.21 57.40 57.29 56.42 55.97 54.92 53.13 51.86 50.33 49.06 48.77 48.87 47.73 46.91 47.19 44.02 45.07
64.82 60.40 61.60 62.70 61.79 61.35 61.24 60.47 58.85 57.90 56.27 56.92 56.09 51.88 50.30 52.36 55.31 58.10 57.44 58.46 57.59 55.74 55.80 55.54 54.64 55.11 55.20 54.68 54.06 52.83 51.03 49.08 49.04 48.78 48.59 48.88 48.35 47.57 47.16 47.10 46.83 47.51 47.38
63.06 62.43 60.29 62.33 61.78 61.30 60.42 59.44 58.52 59.40 59.10 58.60 55.89 54.63 53.05 58.67 57.69 55.61 54.88 56.01 55.26 54.11 52.69 53.32 53.08 53.13 52.73 51.64 51.08 50.10 49.76 49.74 49.08 48.47 48.34 47.69 46.46 46.62 47.52 47.20 47.44 47.22 46.90
63.22 63.06 62.39 61.19 61.32 60.40 59.40 58.98 58.60 58.58 58.42 56.47 53.60 52.40 48.14 55.99 55.05 54.08 54.16 54.24 54.37 54.03 53.88 53.72 52.64 52.52 51.99 51.30 50.54 50.29 49.44 48.87 48.01 47.82 47.42 46.50 46.60 47.46 47.46 47.34 47.31 46.68 46.32
61.76 61.87 61.68 61.45 60.95 57.16 58.20 57.23 56.53 57.03 56.91 56.56 54.89 53.40 54.90 55.50 55.10 54.01 53.52 53.60 52.71 52.50 52.13 52.88 52.57 51.93 51.41 51.06 50.57 50.00 48.84 48.16 48.34 47.75 46.54 46.45 46.73 47.14 47.07 46.86 46.59 46.31 46.53
61.18 60.96 60.63 60.53 60.54 60.25 59.35 57.40 56.39 53.12 56.17 55.66 54.77 54.16 53.74 55.08 55.06 53.96 52.95 53.46 52.66 52.37 52.27 52.62 52.78 52.60 51.60 50.76 49.73 48.57 49.10 48.61 47.58 47.41 47.80 47.20 46.37 44.11 46.46 46.35 45.55 45.32 46.70
59.11 59.50 59.99 60.42 60.29 59.84 59.58 58.85 57.94 57.26 56.79 55.98 54.63 53.71 52.52 52.95 53.65 53.79 53.09 53.70 53.27 52.54 52.03 52.21 52.31 52.02 51.32 50.68 49.29 48.35 43.52 35.20 45.60 42.06 46.46 45.99 45.30 45.78 46.29 46.53 45.85 46.16 46.41
59.80 58.60 59.52 60.20 59.97 59.59 58.90 58.02 56.91 57.48 57.41 56.04 55.68 55.52 55.16 54.49 54.19 55.73 53.02 52.27 53.55 52.82 52.62 52.57 52.52 51.79 50.45 49.59 48.42 42.82 33.70 33.88 40.32 36.50 44.38 44.29 43.45 43.54 45.28 46.77 46.54 46.22 46.12

GFSGL_sfc_wetblb_045.txt.gz
Wetbulb
74.21 74.72 74.86 75.00 75.46 75.91 75.74 76.11 76.27 76.91 77.06 76.86 76.79 76.78 76.52 76.17 76.17 75.13 74.62 73.65 71.76 71.69 70.80 70.38 70.03 70.64 68.48 68.97 68.92 68.50 67.43 66.79 64.51 66.48 67.67 69.12 69.56 70.12 70.08 71.02 70.99 70.99 69.65
74.10 74.62 74.65 75.44 75.58 75.43 75.61 75.93 76.48 76.21 76.93 76.92 76.96 76.53 76.33 76.13 75.94 74.92 73.93 73.27 72.08 71.20 70.88 70.27 69.54 69.01 69.46 70.04 68.59 69.49 68.38 68.57 66.43 66.40 67.76 67.51 68.66 70.35 70.44 70.13 69.28 67.97 68.73
73.97 74.23 74.60 74.77 74.80 74.90 75.31 76.03 76.29 76.24 76.47 76.31 76.53 76.33 75.83 75.81 75.46 75.17 74.58 73.60 72.47 72.05 71.51 70.77 70.13 69.63 68.83 68.99 68.89 68.22 68.38 68.65 68.13 66.49 65.88 67.90 68.10 68.49 68.57 69.14 68.65 68.47 68.22
73.48 73.61 73.58 73.90 74.57 74.83 75.37 75.77 76.13 76.18 75.94 76.17 76.24 76.43 76.60 76.29 75.59 75.01 74.42 73.97 73.06 72.55 72.11 71.74 71.11 70.22 69.63 69.51 68.73 68.93 68.92 68.06 68.28 66.93 66.57 66.45 67.20 67.77 67.30 65.90 65.88 67.37 66.77
73.25 73.13 73.31 74.72 75.33 75.50 75.48 75.79 76.01 76.19 75.83 76.16 75.70 75.80 76.28 75.97 74.97 75.22 74.56 74.05 73.39 72.58 72.41 72.01 71.89 70.87 68.32 68.28 67.96 68.97 69.68 68.11 67.37 66.56 66.05 65.62 65.55 64.15 64.99 66.94 65.52 65.85 65.89
73.21 72.98 73.92 74.65 75.11 75.03 75.38 75.62 75.82 75.97 76.00 76.12 75.50 75.37 75.30 74.73 68.58 67.77 73.16 74.12 73.60 73.48 72.94 72.49 72.41 68.96 67.65 65.17 65.41 66.34 69.20 69.46 68.78 66.75 65.81 65.29 66.63 66.17 65.89 65.95 64.19 63.64 61.51
73.07 73.48 74.14 74.70 74.57 74.88 75.33 75.57 75.24 75.46 76.41 75.81 75.79 75.37 75.02 75.44 64.86 65.19 67.46 75.11 74.53 74.14 74.22 73.84 71.96 70.45 68.53 68.43 64.69 64.04 64.55 64.88 66.89 70.14 67.83 67.66 67.44 67.69 67.49 62.16 65.15 63.52 63.69
73.14 73.72 74.41 74.72 74.19 74.84 74.97 74.70 75.01 75.30 75.34 75.84 75.75 75.92 75.34 75.08 63.72 63.05 66.07 73.81 74.96 75.13 74.54 73.90 72.75 71.20 69.98 69.20 69.17 69.04 68.34 68.68 68.04 68.42 69.78 70.06 69.86 67.10 67.48 67.47 66.77 65.74 65.61
72.82 73.60 74.12 74.27 74.45 74.82 74.48 74.26 74.80 74.79 74.73 74.96 76.00 76.14 75.58 75.53 62.37 61.34 65.08 72.77 74.12 74.71 74.05 73.72 72.81 71.74 67.11 63.62 70.01 70.07 69.55 69.70 65.24 63.13 63.87 62.60 61.78 62.23 64.45 65.19 63.84 61.25 60.65
73.03 73.45 74.47 74.68 74.62 74.49 74.76 74.73 75.58 75.29 74.83 74.32 75.09 76.00 72.41 75.98 62.56 59.82 64.55 72.93 73.15 73.25 73.28 73.46 64.45 68.46 61.75 60.46 67.29 68.92 68.84 68.85 68.39 67.22 66.89 63.33 63.39 64.42 61.74 66.31 65.42 62.56 61.80
74.13 74.80 75.19 75.43 75.19 74.94 75.60 75.90 75.98 75.49 75.41 75.55 75.14 75.53 75.96 74.30 74.13 58.02 59.13 73.01 73.03 71.92 71.15 70.23 69.60 59.76 56.86 56.31 61.60 69.47 67.72 69.05 66.34 67.87 66.88 66.11 66.23 66.53 65.66 65.90 66.12 62.83 59.82
74.88 74.20 75.27 75.85 74.83 74.79 75.51 74.05 75.83 74.38 72.32 75.55 75.82 74.58 74.35 74.72 64.05 56.62 57.34 61.66 67.11 71.13 69.69 69.27 69.04 56.49 54.50 53.77 58.54 61.77 58.83 62.59 67.59 66.67 64.94 65.18 64.67 64.56 64.61 63.24 63.55 63.44 62.70
73.45 74.21 74.97 75.40 75.39 76.31 75.84 75.32 74.15 74.69 72.74 73.31 73.85 73.85 73.06 72.32 72.02 57.40 55.20 56.51 59.39 69.18 70.24 66.34 59.37 52.32 51.74 53.39 57.22 57.02 57.90 67.00 65.63 64.95 64.99 64.52 64.78 63.94 62.91 62.00 62.03 62.12 61.48
73.93 74.41 74.84 74.52 74.80 75.71 75.49 75.36 74.53 74.49 74.73 73.99 74.03 73.18 73.02 71.85 69.27 63.16 59.79 60.25 60.10 63.98 62.40 60.71 57.78 57.74 57.40 58.79 58.32 58.59 65.76 67.25 66.28 64.74 64.10 64.33 62.47 61.15 60.77 60.99 59.63 58.97 57.89
72.98 73.12 73.31 73.81 73.41 70.60 66.28 68.86 75.98 77.07 73.32 75.32 74.76 72.46 66.92 62.45 60.28 57.90 59.83 64.12 65.02 59.69 61.80 62.03 60.74 61.08 61.56 60.68 61.18 61.46 62.65 62.89 63.38 63.75 63.50 61.13 59.91 60.33 60.10 59.82 59.28 58.28 56.43
71.87 70.79 67.69 66.78 67.02 65.15 63.40 60.67 50.69 51.60 52.14 52.14 52.51 60.17 61.56 52.99 48.52 49.97 50.15 49.79 51.60 54.50 62.19 61.96 61.60 62.26 61.09 60.71 60.57 60.26 60.87 61.26 63.70 63.88 62.60 60.71 59.94 59.99 59.47 58.68 58.15 56.94 55.57
68.17 66.25 65.31 65.94 65.35 64.14 65.15 63.78 60.78 57.14 48.52 48.70 50.87 50.87 53.05 53.96 50.51 50.87 51.24 48.88 50.33 55.59 62.94 62.47 62.78 61.50 61.05 61.36 60.27 59.50 59.20 62.31 64.86 63.01 61.65 60.50 60.63 60.65 58.34 57.83 56.40 55.59 53.97
67.45 58.85 67.22 67.56 67.13 66.57 66.59 65.99 65.39 62.11 59.91 59.25 51.74 47.97 48.70 48.70 48.52 46.89 45.98 50.29 56.76 59.51 64.68 62.19 61.64 61.93 61.59 61.51 61.71 62.34 63.25 62.65 62.09 61.79 61.27 61.00 60.86 59.79 57.92 56.21 55.00 54.20 52.30
67.51 67.00 67.13 66.86 66.15 63.84 63.66 62.62 62.99 63.67 64.89 60.52 57.10 52.65 47.68 42.34 42.17 43.44 47.07 61.60 60.75 60.93 61.92 62.34 62.04 62.35 62.82 62.78 61.79 61.34 61.32 61.04 61.29 61.17 61.32 60.78 59.80 58.05 56.20 55.26 53.57 47.51 48.15
64.05 60.13 62.68 64.86 65.43 66.28 66.26 65.90 64.08 62.47 61.41 58.61 58.10 54.58 52.39 54.53 55.83 57.14 61.39 63.07 61.47 61.53 61.89 63.67 63.17 62.59 61.73 61.52 61.16 61.57 61.37 59.70 60.25 60.63 59.47 58.15 56.76 56.25 54.56 52.48 51.71 51.06 50.73
64.25 64.37 61.24 64.61 65.13 65.79 65.49 65.02 63.45 62.44 60.80 59.12 57.52 55.05 49.97 58.34 58.66 60.11 60.58 61.29 60.60 62.71 63.35 61.83 60.73 60.68 61.06 61.60 61.45 60.66 59.87 59.30 58.79 57.74 56.70 56.12 55.19 53.54 52.89 52.42 51.92 51.23 50.96
64.45 64.00 64.13 64.41 64.11 64.12 63.45 62.99 62.44 61.55 60.59 58.09 55.55 55.17 47.61 61.13 61.64 63.35 64.10 63.80 63.28 63.06 62.74 61.99 61.14 60.71 60.21 59.94 59.66 59.10 58.28 57.46 57.11 56.45 55.69 54.87 53.90 52.92 52.50 51.77 51.44 50.93 50.60
66.66 65.59 65.11 64.49 63.33 59.71 63.53 63.97 62.34 62.13 60.73 59.69 57.56 58.69 60.77 62.30 62.56 62.25 62.08 62.56 62.17 61.19 60.59 60.65 60.04 59.20 59.25 59.06 58.94 58.71 57.48 56.67 56.27 55.71 54.29 53.64 52.81 52.59 52.18 51.37 50.43 50.27 50.30
66.53 66.24 65.93 65.07 64.60 64.15 63.54 63.16 61.94 56.30 60.49 60.42 61.28 61.16 61.42 61.11 60.57 60.59 61.34 61.11 60.00 59.53 59.63 59.26 58.98 58.43 58.18 57.75 57.41 57.14 56.32 55.55 55.12 54.67 54.61 53.42 52.54 50.06 51.76 50.93 50.19 50.50 50.57
64.06 64.44 64.73 64.27 63.94 63.22 62.87 62.19 61.63 62.85 61.82 60.75 61.03 60.76 60.59 61.17 60.90 59.95 59.81 59.48 59.23 58.68 58.59 58.80 59.00 58.78 58.00 57.49 56.82 56.34 45.69 37.79 51.93 47.20 54.14 53.74 52.50 52.21 50.80 49.93 50.28 50.22 50.58
62.38 62.78 62.58 61.92 62.60 61.91 60.91 59.15 58.53 58.77 59.22 59.88 60.15 57.87 60.11 60.80 60.37 59.87 58.96 58.66 58.37 57.32 58.48 58.57 59.04 58.74 58.12 57.87 57.02 46.52 33.88 34.56 45.71 39.57 52.68 52.57 51.27 50.46 49.67 49.59 50.36 50.03 50.30

GFSGL_sfc_wetblb_048.txt.gz
Wetbulb
77.67 78.19 78.54 78.40 78.08 78.54 78.35 79.45 79.86 80.16 80.57 79.06 79.23 77.75 77.42 78.27 78.97 78.68 78.45 77.85 76.49 75.66 74.83 73.87 73.67 74.13 69.89 69.83 69.96 69.39 68.77 68.24 65.37 67.22 69.03 71.24 71.65 71.67 71.14 71.60 71.93 71.51 70.73
77.61 78.46 78.36 78.89 78.88 78.24 78.49 79.28 80.05 79.86 80.68 80.63 79.52 78.94 78.09 77.96 79.16 78.34 77.64 77.06 76.32 75.32 74.58 74.03 73.18 71.80 72.21 73.19 70.11 72.58 70.82 71.72 67.37 68.60 70.32 68.79 70.66 72.07 72.15 72.02 70.78 69.89 69.77
77.13 76.28 77.52 78.19 78.51 78.67 79.15 79.26 79.55 79.78 80.12 79.69 80.04 79.84 79.10 78.57 78.65 78.32 78.07 77.41 76.66 76.02 75.26 74.41 73.33 72.75 71.58 71.25 70.91 70.31 69.66 69.41 69.62 67.65 67.36 69.39 69.57 70.61 70.82 71.50 71.08 71.09 69.21
75.69 76.06 77.07 78.13 78.33 78.61 79.05 79.15 79.19 79.83 79.77 79.98 80.18 80.29 79.81 79.36 78.89 78.22 77.68 77.47 77.38 76.41 76.10 75.25 74.33 73.22 72.18 71.80 71.04 71.80 71.48 69.79 70.27 68.37 67.28 67.33 68.63 70.96 69.69 68.18 68.22 69.06 68.56
76.69 76.69 76.93 78.22 79.08 79.26 79.16 79.48 79.67 79.86 79.74 80.01 79.79 80.11 79.90 79.27 77.51 78.65 78.78 78.15 78.08 76.76 76.54 75.67 74.90 73.58 70.08 71.16 70.93 72.21 71.85 69.63 67.43 67.39 67.08 67.09 67.17 67.09 67.53 67.90 67.24 67.63 69.67
77.21 76.61 77.68 78.31 78.99 78.84 79.01 79.23 79.63 79.60 79.80 79.72 79.51 79.61 79.13 77.99 70.52 67.93 75.58 78.16 78.17 77.58 76.91 76.77 76.56 71.81 70.91 66.54 66.42 67.49 69.95 70.54 69.05 67.32 67.24 67.30 70.06 68.44 68.58 67.65 66.97 65.98 64.53
76.77 77.50 77.92 78.39 78.44 78.84 78.71 78.90 79.06 78.98 79.09 79.24 79.24 79.23 78.90 79.29 66.77 65.79 68.55 78.06 77.93 77.99 78.17 77.75 75.26 74.70 72.11 73.28 66.32 64.75 65.80 65.69 67.07 72.09 69.98 70.09 70.01 70.71 70.41 69.15 68.99 66.87 65.97
76.53 77.01 78.03 78.31 78.24 78.67 78.82 78.56 78.99 78.98 78.67 79.04 79.12 79.18 79.18 78.97 66.20 63.57 66.55 76.48 77.74 78.61 78.70 78.45 77.89 77.22 75.98 73.93 72.33 69.62 68.72 69.15 69.54 69.97 71.25 71.60 72.45 72.57 71.95 70.93 69.24 69.48 68.95
76.13 76.52 77.46 78.07 78.07 78.42 78.13 78.18 78.95 78.12 78.03 77.81 78.26 79.18 79.20 78.70 63.33 61.36 65.67 75.54 75.94 77.84 78.84 78.92 78.37 77.77 70.81 65.26 73.04 70.83 68.34 69.07 66.59 63.85 64.09 66.04 64.28 64.53 67.17 68.90 66.18 66.01 63.32
76.16 76.83 77.97 78.48 78.28 78.06 78.31 78.30 78.70 78.39 76.88 76.86 76.87 78.38 73.94 78.45 67.03 59.60 63.76 73.88 73.94 73.77 76.30 76.85 67.36 74.37 64.77 61.77 71.59 70.90 69.26 69.37 70.59 69.61 68.60 64.77 65.26 65.29 62.80 68.66 69.70 65.40 64.12
76.04 76.13 77.88 78.96 78.89 79.03 79.29 78.87 78.45 77.64 77.68 77.44 76.88 78.35 77.86 76.87 76.83 59.84 57.79 70.78 72.04 72.34 74.01 74.56 76.08 62.48 57.64 58.24 63.11 70.33 68.81 70.19 68.38 69.90 68.29 68.41 68.07 67.59 66.90 67.38 68.81 66.85 64.03
77.84 76.29 78.07 78.94 77.05 76.53 78.62 77.47 78.03 77.97 77.17 76.92 76.59 73.72 74.27 75.19 66.52 63.07 55.85 61.99 68.79 74.13 74.32 74.86 73.89 57.62 53.77 55.59 59.35 62.39 60.84 64.48 69.33 68.22 68.24 66.55 66.72 66.31 67.26 67.79 68.56 66.82 65.35
76.93 77.69 78.35 78.58 77.09 78.26 78.14 77.53 76.04 77.01 75.54 75.25 74.71 74.26 74.14 74.78 73.20 56.19 55.07 57.48 60.77 69.70 74.24 68.55 56.11 52.51 54.68 56.86 55.55 57.50 60.26 68.50 67.66 67.82 66.74 66.81 66.85 67.20 68.70 66.69 65.89 66.19 65.64
76.41 76.41 76.81 77.06 77.05 77.09 76.69 76.51 75.85 75.56 75.27 74.74 74.30 73.52 72.58 71.72 75.54 75.31 70.03 62.28 58.62 63.23 59.95 59.91 61.15 62.38 61.05 60.43 60.15 61.39 65.69 67.99 67.20 67.77 66.74 67.25 67.70 65.59 63.98 63.58 62.00 61.73 60.21
75.48 75.84 76.06 76.42 76.26 76.72 74.85 73.70 76.63 78.29 73.67 76.00 76.16 75.95 74.91 75.38 74.80 63.93 63.82 63.57 63.91 62.89 63.25 63.44 63.42 64.48 63.76 63.39 63.19 63.45 65.43 66.27 66.61 67.94 66.74 65.90 64.17 63.32 62.42 62.95 61.99 60.99 58.82
75.42 75.44 75.26 75.95 75.97 76.09 73.56 68.98 50.82 48.71 47.54 47.97 52.87 67.49 72.71 57.05 49.60 48.70 49.24 50.51 51.96 52.87 63.69 63.10 63.37 65.59 63.38 62.82 62.36 63.36 64.89 64.61 66.39 66.29 65.82 64.70 63.15 62.20 61.91 62.00 61.41 59.65 58.92
74.80 73.83 73.04 71.15 72.00 72.31 73.01 73.66 69.51 58.12 49.24 46.16 45.07 46.89 50.15 49.97 46.89 47.25 47.61 48.88 50.69 53.23 64.93 66.26 66.01 65.15 65.40 64.82 63.43 62.98 62.25 64.41 67.85 66.05 65.47 64.07 62.70 62.48 61.15 60.79 60.15 59.59 58.05
71.19 60.86 72.22 70.85 72.25 72.94 73.00 72.29 70.21 68.54 66.55 64.72 50.47 49.39 45.04 44.35 44.17 43.99 45.98 51.34 58.76 59.34 66.79 66.75 66.47 65.17 63.66 62.88 62.67 63.02 62.95 65.55 66.01 65.40 64.65 63.60 62.37 62.22 61.08 60.40 59.79 58.50 57.03
69.79 69.78 69.80 69.75 70.34 67.99 70.25 69.69 68.35 66.60 65.57 63.32 61.86 54.93 49.21 41.92 41.94 44.17 48.70 65.63 63.93 64.57 66.28 64.19 63.13 62.27 62.95 63.17 64.87 65.68 65.90 65.59 65.03 64.67 63.49 62.69 62.74 62.69 61.17 60.23 58.68 50.23 52.03
67.33 61.89 65.93 67.88 66.13 65.17 65.66 65.87 65.55 65.84 65.43 63.72 63.67 65.13 57.11 56.26 57.80 56.96 61.34 62.83 62.55 63.35 65.53 65.13 64.54 64.08 63.23 64.56 65.90 66.13 65.22 63.76 63.74 63.09 63.09 63.37 62.99 61.82 59.85 58.78 57.00 54.09 52.62
67.80 66.43 63.64 67.92 67.05 66.47 66.26 65.69 66.26 67.62 68.68 65.92 64.63 60.07 51.58 63.35 61.55 60.62 63.17 63.16 62.63 63.42 63.75 63.56 63.62 64.84 65.49 64.98 64.42 63.34 63.33 63.40 63.73 63.70 63.37 62.54 61.35 59.31 58.77 56.78 54.68 53.95 53.36
68.33 67.75 68.04 68.03 68.25 67.67 67.15 67.23 66.45 65.38 63.38 62.27 60.66 56.00 46.89 62.43 64.05 64.11 63.39 62.88 62.97 64.38 65.85 66.36 66.51 66.56 65.30 64.57 64.39 64.33 63.70 63.20 63.26 62.51 61.55 60.53 59.63 58.29 56.27 54.74 54.10 53.26 52.90
68.52 68.26 67.88 67.48 66.99 62.24 66.02 65.25 63.73 63.56 63.54 64.43 62.65 60.63 58.69 61.65 61.52 62.09 63.91 65.84 66.39 66.62 66.12 65.16 64.22 63.97 64.57 64.46 64.27 63.63 62.44 61.77 61.82 61.36 59.99 59.14 57.88 55.84 54.97 54.14 53.19 52.67 52.60
68.13 67.73 67.55 67.41 67.32 67.06 65.96 65.75 64.57 58.28 62.43 61.70 61.18 62.28 65.37 66.28 65.60 65.26 64.96 64.25 62.62 62.60 62.86 62.95 62.64 61.77 61.70 61.61 61.85 62.00 62.05 61.57 61.24 60.32 59.63 57.31 55.81 53.25 54.71 53.94 52.89 52.80 52.87
66.93 66.84 65.62 64.59 64.04 64.06 64.45 64.67 64.70 62.23 61.34 62.25 62.96 63.84 64.75 64.80 64.37 64.34 64.27 63.79 63.06 62.30 61.47 61.28 60.73 60.40 60.49 59.89 59.67 59.56 46.85 41.80 55.36 50.74 57.34 56.79 55.92 55.29 54.43 53.38 52.75 52.82 52.70
64.56 64.27 64.58 63.77 63.77 63.51 63.18 61.95 61.38 62.58 62.80 61.34 62.40 63.08 63.19 63.96 63.66 63.10 62.76 62.24 61.73 61.22 60.90 60.90 60.66 60.14 59.47 58.91 58.24 45.47 34.93 36.84 49.81 41.71 55.44 55.72 54.91 54.34 53.61 53.03 52.35 52.19 52.51

GFSGL_sfc_wetblb_051.txt.gz
Wetbulb
79.78 79.90 80.01 79.96 80.24 80.49 79.51 80.04 80.12 81.53 81.61 80.44 81.17 79.87 79.59 79.66 80.45 80.80 80.26 79.83 79.17 78.58 77.89 77.83 76.43 77.46 70.64 70.72 70.90 70.50 69.53 69.25 66.63 68.40 70.04 73.60 74.72 72.92 72.19 72.34 71.81 72.74 70.74
79.36 79.68 79.82 80.35 80.41 79.97 80.01 79.95 81.14 80.45 81.67 81.84 80.68 80.96 79.64 79.55 80.21 80.37 79.13 77.80 78.78 78.05 77.21 77.01 76.05 73.79 75.60 75.47 71.20 74.99 71.59 73.58 68.95 72.69 73.28 70.65 72.34 74.04 74.45 74.26 71.77 70.42 71.46
78.64 78.82 79.34 79.76 79.91 79.72 80.00 80.66 80.75 81.25 81.15 80.83 81.25 80.71 80.13 79.57 79.57 80.66 80.33 79.67 79.09 78.85 78.19 77.12 75.83 75.92 75.54 71.54 72.33 71.48 70.58 71.62 71.43 68.64 68.88 70.00 71.82 71.37 72.02 73.74 73.76 73.14 70.97
77.41 78.08 78.57 79.48 79.78 79.79 80.17 80.75 80.80 81.36 81.01 80.79 81.04 81.01 80.93 80.44 79.70 79.76 80.32 79.97 79.62 78.71 78.93 78.20 76.95 75.97 75.48 74.85 74.37 73.07 74.17 71.20 71.07 69.07 68.64 68.98 70.30 72.79 71.30 68.82 69.16 70.43 69.72
77.97 78.10 78.38 79.67 80.64 80.51 80.38 80.29 81.02 81.03 81.02 81.38 81.05 81.02 81.13 80.64 79.35 79.41 79.26 79.88 79.79 79.20 79.12 78.78 77.88 76.04 72.03 73.35 72.77 73.05 72.40 71.65 69.56 68.50 68.03 68.51 67.84 68.58 68.89 69.53 68.40 69.10 71.58
78.38 77.96 79.39 79.87 80.29 80.44 80.46 80.51 80.72 80.81 80.76 80.96 80.85 80.73 80.46 79.75 71.57 68.74 76.04 78.71 79.81 79.31 78.46 79.15 78.77 73.17 72.13 67.89 67.50 67.52 71.46 72.16 70.44 68.40 67.97 67.94 69.58 71.49 70.52 68.59 68.15 67.36 65.01
77.43 79.27 79.36 79.93 79.87 80.43 80.59 80.62 80.38 80.41 80.79 80.30 80.55 80.62 80.45 80.74 67.76 66.04 68.92 78.75 79.04 79.41 78.89 79.05 78.34 76.55 73.27 75.29 67.27 66.33 65.75 66.47 68.17 71.31 69.65 70.37 72.83 72.61 72.75 73.00 70.88 69.12 67.19
78.51 77.97 79.51 79.56 79.71 80.32 80.57 80.38 80.66 80.62 80.38 80.27 80.18 80.66 80.57 80.61 66.86 63.58 66.38 77.42 78.10 78.77 78.51 77.87 78.35 77.32 76.48 74.67 74.77 71.96 71.06 70.82 70.35 69.85 69.47 71.05 72.82 74.06 75.09 73.46 73.04 71.93 70.36
77.73 77.84 78.64 79.57 79.57 80.03 79.82 80.07 80.44 80.21 80.29 80.21 80.65 80.75 80.34 80.52 64.64 62.70 66.05 76.60 76.53 77.26 78.00 78.13 76.93 77.10 72.86 66.25 75.20 74.09 71.71 70.40 66.37 64.23 64.20 65.31 66.05 66.14 70.29 72.91 69.24 66.51 65.56
77.57 78.32 79.05 80.11 79.92 79.48 79.89 80.43 80.63 80.80 80.08 78.99 79.60 80.50 76.27 80.35 65.10 60.99 65.59 76.15 75.73 75.92 76.51 77.24 68.04 74.32 66.19 62.47 73.68 74.57 72.44 69.82 68.67 66.91 66.55 64.51 65.05 66.93 64.64 71.23 70.93 65.99 65.43
77.80 78.81 79.76 79.97 80.06 80.37 80.83 80.80 80.72 80.18 78.99 79.39 79.30 80.10 80.32 78.82 76.56 60.59 60.20 74.38 74.75 75.26 75.46 75.35 76.49 63.13 60.84 58.56 63.19 73.33 70.40 68.48 66.63 67.24 67.69 67.76 67.22 68.26 67.92 68.07 70.40 69.69 65.64
79.65 79.04 79.57 80.11 79.39 78.88 80.86 80.94 80.75 80.05 79.40 79.25 79.19 78.70 79.18 80.07 67.49 63.18 57.39 60.30 67.00 76.28 76.38 75.92 75.48 59.71 58.58 56.17 59.82 62.89 61.34 64.93 68.32 69.07 67.36 66.56 66.27 67.18 67.55 68.23 69.10 70.22 69.88
80.17 79.69 80.03 80.68 80.32 80.10 80.01 80.37 78.50 79.47 77.02 77.11 76.11 76.29 75.93 77.47 78.53 62.05 57.87 57.43 59.96 73.66 75.99 71.32 60.60 55.31 54.25 56.51 59.38 59.53 60.80 68.53 69.88 67.27 65.92 65.51 67.15 68.14 69.07 68.75 69.94 70.08 68.19
80.02 79.77 80.05 80.15 79.69 80.17 78.71 78.45 77.30 76.73 76.35 75.71 75.51 75.31 75.81 76.10 76.34 76.98 69.93 67.00 61.25 67.22 63.40 69.91 63.83 59.97 59.35 64.08 61.47 62.46 69.07 68.51 68.01 68.54 67.85 68.81 68.08 67.58 66.20 67.21 64.61 63.79 62.41
78.32 77.68 79.05 78.13 78.17 78.74 77.13 70.96 76.82 77.55 70.98 76.52 76.31 76.46 75.74 75.52 74.56 68.39 70.47 72.97 74.75 68.57 65.75 65.16 63.27 63.79 63.41 63.43 63.71 65.23 68.08 68.08 67.04 68.38 67.94 67.20 65.51 66.46 65.76 65.53 63.84 62.21 60.12
76.70 76.55 75.74 75.54 77.18 76.87 74.92 69.41 48.88 48.84 46.59 45.90 47.75 63.76 68.80 55.87 51.55 53.37 52.28 51.01 51.92 52.28 63.59 63.53 62.12 62.80 63.26 63.28 64.01 64.21 67.27 66.22 67.71 67.31 65.70 64.81 65.54 65.12 64.75 62.94 62.87 62.07 60.01
77.07 77.75 75.95 73.62 76.67 76.32 76.46 75.25 72.97 59.18 47.93 45.37 44.48 45.03 45.93 46.14 45.39 47.02 47.38 46.84 47.57 55.90 63.85 62.80 62.76 63.24 62.84 63.70 63.73 64.17 65.40 66.43 67.90 66.13 64.01 64.36 66.10 64.50 61.50 62.19 61.97 61.10 59.35
75.88 63.29 76.30 76.06 75.90 75.53 75.15 75.40 74.20 73.49 71.49 67.27 51.44 51.52 43.93 44.09 43.94 43.76 45.75 51.82 59.60 60.89 63.72 63.24 62.61 63.71 64.94 64.10 63.86 64.20 65.06 65.98 66.18 64.51 65.46 64.69 63.64 62.98 62.69 62.21 61.00 60.30 59.41
73.66 73.70 74.49 74.66 74.73 72.88 74.45 73.79 72.88 71.72 70.14 67.67 65.12 56.75 51.54 43.38 43.58 45.39 48.65 64.14 62.59 63.03 66.62 64.53 64.70 64.54 64.19 63.68 63.47 63.20 63.33 63.62 64.13 65.15 64.78 64.16 64.09 63.32 62.66 61.97 60.85 52.77 55.45
69.22 63.15 66.70 70.19 70.83 71.44 71.68 70.65 69.83 69.23 68.40 68.14 67.34 67.00 64.25 61.79 64.33 61.52 63.50 65.86 65.06 65.48 66.33 66.22 65.44 65.04 63.23 63.28 63.20 64.01 63.65 64.66 65.36 65.14 65.21 65.11 64.22 63.26 62.13 61.22 60.34 57.89 56.57
69.48 69.35 65.14 70.29 70.21 69.89 69.45 69.10 68.80 68.93 67.65 67.55 67.69 62.07 52.24 65.20 64.07 63.33 64.72 65.09 64.69 65.98 66.48 66.70 67.38 66.32 63.52 63.65 64.48 64.86 64.86 65.06 65.73 65.35 64.38 63.94 63.98 62.12 62.03 60.99 59.42 58.12 55.20
70.02 70.02 70.32 69.80 69.73 69.11 68.71 68.12 67.68 67.00 66.39 65.21 63.42 59.57 47.20 63.10 63.72 63.25 63.48 64.85 66.18 67.21 67.51 67.48 66.58 64.86 64.36 64.65 65.53 65.79 65.15 64.56 65.03 64.61 64.35 63.63 63.03 61.90 60.48 59.11 57.49 55.63 54.76
69.13 68.85 68.34 67.23 67.45 63.85 67.42 67.51 67.17 67.38 67.10 65.46 65.17 63.86 64.12 65.35 65.66 66.01 66.29 66.10 65.84 66.37 66.29 67.58 67.17 65.87 67.01 66.70 66.60 66.12 64.77 64.48 64.45 65.22 63.46 62.26 61.02 60.04 59.08 57.34 55.54 54.61 53.97
66.75 67.25 66.32 64.98 63.28 65.32 65.62 66.17 65.13 60.83 66.05 65.96 65.39 65.36 65.75 66.09 65.50 66.08 67.46 67.74 67.05 67.08 66.99 66.78 66.05 65.80 65.91 65.32 65.34 65.39 65.11 65.06 64.48 63.45 63.39 61.28 60.03 57.17 57.70 56.04 55.04 54.67 53.92
65.41 65.08 65.22 63.63 63.68 64.26 65.01 64.16 64.47 64.06 64.45 64.20 63.50 65.67 64.92 65.24 65.42 65.27 65.77 66.00 65.43 64.99 64.64 64.46 64.22 63.90 63.78 63.33 63.28 62.40 45.65 39.83 59.90 54.21 62.02 61.37 59.99 59.18 56.30 55.53 54.98 54.05 54.06
62.76 62.90 63.57 63.50 62.86 62.48 61.50 61.10 60.36 59.31 59.12 59.69 60.45 62.55 62.82 61.38 64.05 64.27 64.61 64.48 63.63 63.28 62.92 62.40 62.23 62.11 61.69 61.08 60.70 44.27 34.85 39.63 52.05 42.52 58.17 58.63 57.34 56.52 55.50 55.41 54.73 53.36 53.69

GFSGL_sfc_wetblb_054.txt.gz
Wetbulb
77.56 77.94 77.71 77.90 78.28 77.32 76.11 77.11 76.58 77.58 77.80 78.70 80.34 78.33 77.89 77.88 78.03 78.36 77.94 77.53 77.23 76.86 76.20 76.04 74.72 74.49 74.17 72.21 71.69 71.82 70.37 69.87 66.74 68.42 71.10 72.65 71.53 70.25 69.63 71.59 71.45 70.27 67.51
77.74 78.03 77.88 78.24 78.55 78.12 77.05 77.19 77.73 77.83 79.65 78.42 79.12 79.15 77.75 77.39 77.75 77.93 77.17 76.50 77.48 76.70 76.04 75.83 75.49 74.40 74.02 73.97 73.26 70.48 70.05 71.21 69.23 68.37 71.09 70.93 70.71 71.08 71.64 71.22 70.60 70.04 69.52
77.59 78.07 77.87 77.83 78.19 78.20 78.26 77.52 78.09 78.14 77.94 79.41 79.35 78.03 77.63 77.26 77.09 77.66 77.89 77.81 77.00 77.45 77.06 75.90 74.47 74.48 73.18 71.96 71.30 71.24 70.93 71.92 72.63 69.07 69.06 71.10 71.12 71.57 70.47 70.97 71.37 70.83 71.21
76.97 77.67 77.50 77.84 78.08 78.48 78.59 78.57 78.16 78.09 78.69 78.05 78.86 78.88 78.16 77.82 77.44 77.36 77.79 77.70 77.66 77.08 77.56 77.03 75.74 74.32 73.17 73.40 71.27 70.19 70.83 70.07 69.29 69.30 67.98 67.55 70.07 70.12 69.84 68.74 68.29 69.85 69.14
75.96 76.84 77.18 78.01 78.65 78.65 78.58 78.58 78.81 78.69 78.29 79.16 78.79 78.60 78.81 78.40 78.05 77.20 77.33 77.81 77.61 77.29 77.01 77.54 76.65 75.28 72.22 72.38 72.69 71.30 69.19 69.36 68.68 67.18 66.74 67.16 67.15 68.77 67.09 68.36 67.22 68.67 68.67
76.14 75.92 77.46 77.93 78.20 78.39 78.47 78.47 78.58 78.80 78.73 78.73 78.68 78.73 78.30 78.71 72.11 70.02 75.29 76.83 77.66 77.28 76.75 76.50 76.88 73.48 72.09 68.85 68.88 68.94 70.74 68.56 68.14 67.30 66.76 65.51 66.30 67.68 68.73 67.37 67.35 66.54 64.28
76.57 77.16 77.33 77.82 77.73 78.05 78.67 78.63 78.43 78.20 78.63 78.36 78.68 78.68 78.39 78.71 68.72 67.28 69.33 77.08 76.58 77.00 76.91 76.62 76.14 76.79 72.53 73.54 67.82 66.89 66.84 66.16 67.73 69.29 67.06 66.47 66.98 68.13 68.77 68.47 67.43 66.03 65.61
77.13 77.44 78.04 78.15 77.78 78.42 78.51 78.59 78.54 78.57 78.31 78.34 78.39 78.81 78.59 78.67 68.57 65.47 66.87 75.55 76.54 76.61 76.42 76.80 76.61 75.92 75.86 74.18 73.24 70.49 70.05 69.64 67.56 69.50 69.42 68.53 69.62 70.05 69.54 68.82 68.15 67.48 68.15
76.78 77.55 77.27 77.93 78.20 78.17 78.01 78.41 78.85 78.57 78.57 78.37 78.95 78.65 78.51 78.44 66.25 64.72 65.64 73.87 74.94 75.37 76.68 76.83 76.91 76.46 72.11 66.57 73.40 72.44 71.25 70.00 66.64 65.37 65.19 64.27 65.84 66.26 67.41 68.60 67.16 64.94 64.28
76.78 77.03 78.20 78.07 78.01 78.04 78.22 78.58 79.17 79.15 78.63 79.12 78.56 78.88 75.28 78.54 67.92 62.59 65.62 76.30 74.54 74.50 75.46 75.93 67.97 74.11 67.07 62.92 72.48 72.78 71.29 71.34 69.58 67.12 65.51 65.69 65.93 66.40 64.93 68.67 66.72 64.46 63.61
77.69 78.05 77.97 77.84 78.08 78.60 78.94 79.19 79.21 78.95 78.67 78.45 78.36 78.82 79.05 77.79 77.63 60.60 59.84 76.52 75.94 75.19 74.83 74.55 75.55 63.73 60.00 58.48 62.41 74.24 72.28 72.77 68.46 67.32 66.96 67.14 66.67 66.00 66.60 67.34 67.59 66.62 64.47
79.48 78.07 77.81 78.82 77.61 78.69 78.82 78.97 79.28 78.94 78.14 78.00 77.95 77.72 78.45 79.11 68.40 62.18 58.59 60.84 68.91 74.89 75.06 75.92 75.36 61.63 57.65 57.64 59.55 66.02 63.83 65.33 68.18 66.64 65.85 65.62 65.46 65.42 66.60 66.87 67.41 68.04 67.16
79.14 78.75 78.40 78.59 78.76 77.82 78.62 78.35 78.38 78.72 77.93 77.39 76.63 77.28 76.93 77.93 78.71 62.53 58.21 57.96 59.79 68.78 74.27 70.58 59.75 57.08 52.86 56.90 57.26 59.13 60.42 69.60 67.43 66.01 65.76 65.99 66.78 67.12 67.75 66.53 67.03 66.56 65.94
80.93 79.24 79.38 78.79 78.31 78.59 78.62 78.78 78.40 77.87 77.34 76.68 76.29 75.79 76.41 77.16 76.88 78.32 71.54 65.25 60.43 64.56 67.28 70.40 63.10 60.86 59.14 63.11 61.10 60.84 69.98 70.30 68.40 67.18 66.78 67.16 67.48 66.67 66.62 66.46 64.81 65.01 62.56
79.69 79.26 79.02 78.72 77.87 78.68 72.46 66.20 75.80 74.24 68.90 77.24 76.58 76.98 75.98 75.61 75.16 68.07 71.25 73.39 73.01 69.32 71.01 74.05 68.43 67.02 67.22 66.12 64.15 64.58 67.57 67.72 66.82 66.27 66.43 66.55 66.80 66.76 65.19 65.19 64.43 62.50 59.53
77.61 77.89 77.29 77.06 77.99 77.73 68.53 66.25 49.08 48.11 45.82 45.72 50.27 68.77 67.85 54.85 52.45 50.82 51.18 55.61 51.90 55.17 68.70 67.43 65.39 65.19 64.26 63.36 63.54 63.70 65.30 65.03 65.69 65.17 66.43 66.28 65.74 63.93 63.61 63.72 62.39 60.26 58.51
77.80 77.10 76.31 73.89 76.42 76.30 73.78 70.77 65.14 56.06 46.97 45.02 44.65 48.46 50.62 47.10 45.92 45.20 45.02 45.38 47.74 58.61 65.69 63.96 62.68 62.47 62.68 62.86 63.22 63.20 63.76 65.21 66.42 66.32 65.12 64.30 64.05 63.71 62.30 61.75 60.13 59.41 58.95
77.83 63.48 76.49 75.61 76.63 76.74 76.51 75.33 72.75 70.00 69.70 63.56 49.91 49.82 44.06 44.29 45.20 44.84 46.65 53.92 63.16 62.92 64.31 63.64 63.43 63.43 63.49 63.56 63.14 62.39 63.07 63.87 64.75 64.10 63.68 63.81 63.71 62.96 61.08 59.64 59.32 59.17 58.42
76.44 76.76 78.30 77.18 78.34 75.28 76.55 74.44 74.16 73.01 68.56 65.37 63.62 55.54 50.11 44.11 44.47 46.47 48.28 64.83 64.50 64.69 65.30 64.89 66.10 66.21 66.29 66.47 65.53 65.43 65.18 64.47 64.20 63.63 63.63 63.73 64.11 62.60 60.09 60.29 59.80 56.35 57.49
70.89 65.02 69.64 74.43 74.65 73.38 72.03 72.31 71.10 70.50 69.42 68.16 67.96 64.99 63.44 62.35 64.32 63.68 66.05 64.85 64.32 64.69 65.54 64.56 65.01 65.10 64.62 64.73 64.60 65.07 64.62 64.09 64.20 64.05 63.63 63.02 62.44 61.45 60.50 60.10 57.39 55.26 56.65
70.30 71.27 66.26 72.26 71.65 71.16 70.76 69.42 68.95 69.17 68.38 68.20 67.18 59.60 49.15 66.72 65.13 63.81 64.48 65.49 65.06 65.38 65.13 67.36 66.40 66.28 66.58 65.93 65.49 65.18 64.01 63.54 63.54 64.37 63.99 62.18 61.47 60.91 60.75 60.48 59.36 57.01 55.80
70.31 70.54 70.64 70.04 69.88 69.77 69.38 69.36 69.09 67.86 67.21 65.87 64.35 60.12 49.00 65.36 64.39 63.35 64.30 65.73 66.19 67.85 67.82 68.10 66.81 67.20 66.21 65.36 65.51 65.97 65.27 65.08 64.80 63.74 61.64 61.80 62.46 62.09 61.39 59.70 58.65 56.54 53.81
69.66 68.84 67.84 67.49 67.87 64.37 66.93 67.16 67.14 65.71 65.13 65.29 64.05 63.27 63.77 64.69 65.00 64.37 64.61 65.79 67.51 67.41 68.08 67.98 67.90 66.69 66.34 66.36 64.94 65.76 65.07 64.90 65.49 65.28 63.49 62.80 62.12 61.61 60.09 58.75 56.81 54.85 53.24
65.54 64.55 64.43 65.05 64.48 64.78 65.55 64.88 64.69 60.16 64.22 64.72 65.17 65.09 65.03 65.02 65.58 66.41 66.28 66.97 66.52 66.52 67.46 68.22 67.92 66.57 67.01 67.05 67.36 66.90 66.40 66.48 65.92 65.44 65.38 62.85 61.65 57.30 59.19 57.61 55.29 54.53 53.79
64.55 63.06 61.66 61.73 63.04 62.60 62.06 63.51 63.18 63.55 63.30 63.48 63.36 62.66 66.48 66.31 65.93 66.63 67.97 66.43 65.96 65.90 66.40 66.85 66.33 66.51 66.99 67.02 66.45 59.85 43.63 42.27 62.17 56.59 64.13 63.14 61.85 60.60 58.58 56.28 54.99 54.01 53.79
59.68 62.20 62.09 60.35 59.50 59.71 60.47 59.71 59.19 57.09 57.05 58.34 57.11 58.85 60.61 61.44 60.97 62.93 64.28 64.82 64.96 64.63 64.77 64.81 64.28 64.48 65.22 64.35 55.19 40.93 34.96 35.89 46.82 42.36 62.11 61.80 60.72 59.28 57.23 56.92 56.48 54.24 53.91

GFSGL_sfc_wetblb_057.txt.gz
Wetbulb
73.95 73.55 74.36 75.07 74.60 73.11 73.65 73.11 71.81 71.33 72.69 75.80 75.67 75.25 75.21 75.18 75.29 74.84 73.14 73.94 74.16 73.77 72.76 72.24 71.48 70.77 68.13 67.92 66.57 66.06 64.99 63.72 60.97 62.25 64.61 66.02 64.87 66.97 66.49 64.94 66.88 67.14 64.81
74.01 74.36 73.92 74.78 75.75 74.35 72.77 72.89 73.05 72.43 73.14 73.40 76.15 76.00 75.59 75.34 74.72 74.64 74.47 74.84 74.01 73.78 73.43 71.77 72.25 72.34 69.37 69.15 68.66 64.61 64.70 65.21 62.93 60.79 65.17 67.06 64.92 65.58 65.28 66.27 68.04 69.17 67.76
73.84 74.21 74.99 74.75 74.93 75.48 74.84 73.72 73.58 73.72 73.99 74.69 73.78 75.69 75.51 75.25 75.02 74.67 75.03 74.87 73.75 74.13 74.44 73.66 72.04 72.44 70.57 70.19 68.27 67.75 66.04 65.64 65.80 63.08 63.71 66.26 66.79 66.60 66.76 67.07 67.39 67.03 68.27
73.75 74.52 74.32 75.18 75.20 75.53 76.07 75.55 74.00 74.69 74.40 75.42 75.78 74.65 75.57 75.40 75.10 75.29 75.39 74.95 74.82 74.22 75.02 74.95 73.83 72.75 72.04 70.91 69.29 68.17 66.67 65.92 65.60 65.61 63.67 64.43 66.11 67.04 65.68 65.03 66.00 68.22 67.90
73.94 74.33 74.62 75.36 75.79 75.84 75.71 76.08 75.97 74.45 75.52 74.93 74.97 76.02 75.77 75.78 75.69 74.85 74.86 75.13 75.17 75.20 74.95 75.10 75.24 74.09 71.77 71.35 71.54 69.98 67.06 65.58 65.44 65.58 63.46 63.49 63.57 65.57 66.20 66.46 65.54 66.42 67.31
71.88 73.96 74.89 75.65 75.76 75.79 75.98 76.00 76.23 75.87 74.81 75.23 75.64 74.84 75.89 76.43 70.96 69.42 73.63 75.00 75.13 75.18 74.90 75.08 75.36 72.93 71.78 68.57 68.44 68.91 69.36 66.65 64.48 65.80 64.93 63.77 62.64 64.41 65.17 65.75 66.43 64.66 63.29
72.30 72.63 74.25 75.17 75.32 75.70 76.17 76.17 76.01 76.01 76.40 75.62 75.31 76.08 75.80 76.25 68.38 67.38 69.30 75.10 74.70 75.19 75.22 75.28 75.04 75.46 72.10 73.75 68.04 67.04 66.97 66.28 66.76 66.08 65.63 64.13 63.89 65.75 66.12 65.54 65.30 64.43 63.47
72.06 72.87 73.30 74.58 75.25 75.46 75.68 75.66 75.82 76.13 76.02 75.99 75.90 75.96 76.35 76.50 68.11 65.63 67.37 74.71 75.11 74.77 75.31 75.73 75.38 75.32 74.72 73.68 73.28 70.83 70.36 70.25 68.32 67.53 67.34 66.84 67.20 67.95 67.81 67.76 66.41 65.52 65.62
72.93 73.02 73.71 74.80 74.99 75.25 75.13 75.54 76.05 75.96 76.05 75.88 76.29 76.05 76.10 76.58 65.72 64.72 65.52 73.55 74.69 74.82 75.12 75.07 75.38 75.55 71.04 65.97 73.30 72.39 71.26 71.01 67.38 64.73 66.02 64.96 65.23 65.61 67.56 67.05 65.60 64.13 62.83
72.89 73.74 75.23 75.16 75.33 75.03 75.73 75.68 76.60 76.55 76.10 76.49 76.12 76.58 73.51 76.40 66.88 62.64 64.99 74.72 73.51 73.62 74.58 74.69 67.57 71.92 65.55 62.60 71.77 73.03 71.36 71.49 70.00 65.34 66.68 64.09 64.51 65.67 64.58 66.28 65.30 63.75 63.91
73.17 73.53 74.60 75.52 75.46 76.10 75.91 76.51 76.55 76.61 76.54 76.21 76.12 76.49 76.78 75.54 75.60 61.77 60.51 74.86 75.52 74.81 74.13 73.80 74.01 63.04 60.68 58.96 61.86 74.02 72.61 72.75 70.03 68.34 66.82 66.97 67.13 66.72 66.07 65.89 65.37 64.96 63.99
74.09 74.05 73.85 74.25 75.36 76.27 76.19 76.24 76.49 76.44 76.02 75.87 75.74 75.97 76.87 76.99 67.40 63.51 58.90 61.25 70.38 75.21 74.87 74.87 73.22 61.49 57.63 57.87 60.19 64.54 64.00 64.53 72.89 69.70 67.33 66.74 66.72 66.38 66.88 66.97 67.49 68.23 67.71
74.62 73.72 74.02 74.32 74.84 74.12 75.59 75.84 75.89 76.22 76.09 75.68 75.60 75.35 75.76 76.37 76.61 61.70 57.55 58.36 60.39 70.92 75.87 71.97 65.76 58.98 57.71 55.69 56.01 57.41 58.30 68.14 71.70 70.11 68.21 67.37 67.26 68.03 67.44 66.65 66.80 67.33 66.10
72.30 74.73 74.24 74.15 74.57 73.83 75.56 76.33 76.22 76.11 76.00 75.57 75.25 75.13 75.20 74.98 75.97 76.01 68.48 62.74 59.22 62.27 65.44 68.65 63.97 61.88 59.19 61.82 60.35 58.62 62.90 67.17 69.54 69.79 68.68 68.70 67.58 66.46 65.74 66.15 65.02 64.11 60.99
70.88 75.46 75.37 75.13 73.72 74.15 62.33 59.63 72.96 69.93 69.31 75.90 75.86 74.95 74.50 73.88 74.04 67.45 69.75 68.73 69.12 66.16 67.24 69.38 66.19 66.01 66.01 66.17 64.90 63.27 64.34 66.80 68.79 69.02 67.05 66.28 66.10 65.40 65.38 65.56 64.63 61.51 57.79
71.14 73.10 74.72 74.28 74.63 70.09 62.54 59.54 47.73 46.88 45.34 45.03 55.00 69.27 61.64 55.85 49.22 48.67 51.21 53.93 55.38 53.75 66.83 68.00 67.46 66.53 65.24 64.70 63.97 63.79 64.15 64.90 65.06 64.52 65.26 65.44 65.24 64.79 64.27 64.27 63.71 60.98 58.28
74.53 71.63 73.55 72.03 74.08 69.42 66.95 64.99 62.57 54.47 47.22 44.68 44.32 45.77 53.75 49.76 45.95 47.04 47.40 48.13 51.21 57.92 65.36 64.38 63.63 63.25 62.68 62.87 63.07 63.25 63.23 64.70 65.79 64.95 64.65 64.52 64.11 63.73 62.76 61.74 60.71 59.38 57.83
73.91 66.93 72.48 72.09 72.13 72.35 69.51 67.11 65.12 63.97 62.60 59.10 49.56 47.89 45.05 46.32 47.40 46.86 48.31 55.74 63.21 62.10 64.07 63.21 62.32 61.56 61.74 62.28 62.28 61.83 61.85 62.98 63.73 63.43 63.97 63.91 63.66 62.90 62.06 60.85 59.92 58.18 55.32
73.43 74.16 72.81 72.19 72.66 72.75 71.67 68.55 67.35 67.61 61.42 58.10 56.57 53.33 47.44 44.50 46.13 47.40 48.85 62.09 61.29 61.01 61.01 60.99 61.39 61.09 61.09 61.41 60.91 60.19 60.98 61.27 61.40 62.36 62.91 62.62 62.40 62.07 60.66 59.76 57.97 55.02 54.12
69.67 64.68 67.64 70.90 70.84 72.16 72.57 71.48 67.29 64.75 62.85 61.58 61.57 59.52 58.52 55.48 59.84 62.64 61.37 61.69 61.65 61.90 61.67 61.65 61.99 61.67 61.33 61.95 62.90 60.85 61.82 62.10 62.36 60.49 61.26 61.76 62.59 61.16 59.86 58.38 56.90 55.34 54.38
69.69 68.15 65.19 68.18 67.78 68.40 68.31 67.88 67.54 66.73 65.90 62.57 59.66 55.54 53.20 61.99 60.16 60.80 61.27 61.21 60.88 60.96 61.97 62.69 61.74 61.98 61.59 61.47 61.15 63.00 61.65 61.65 62.90 61.11 60.99 60.91 61.07 57.57 57.72 57.52 55.26 54.71 53.97
69.47 69.03 68.17 67.83 67.46 66.46 66.46 67.33 66.19 64.37 62.84 61.09 58.85 56.45 48.13 61.40 61.20 60.96 60.98 61.62 62.49 62.99 64.58 64.42 62.85 62.78 62.66 62.60 62.13 60.96 60.64 61.03 62.46 61.59 60.71 59.93 57.97 57.72 57.15 56.03 53.81 52.18 51.14
67.90 68.56 66.93 66.18 66.04 63.29 63.98 63.89 63.54 62.30 61.69 60.12 59.27 59.09 60.30 60.82 60.75 60.75 61.87 61.73 63.51 63.62 64.41 63.99 63.16 62.46 62.84 62.70 62.88 63.14 62.06 61.63 61.58 61.77 59.84 60.18 59.67 59.22 57.24 55.54 55.02 51.16 49.48
64.33 63.61 61.98 62.07 62.30 63.47 62.86 62.74 62.59 58.65 62.01 61.69 60.49 61.01 62.32 63.20 63.16 62.40 62.72 63.60 63.25 63.45 63.90 64.09 63.79 63.07 62.65 62.52 62.53 63.20 63.19 62.50 62.31 61.87 61.80 60.58 59.43 55.33 54.80 53.18 52.94 52.23 49.57
61.22 60.68 61.11 60.86 60.42 60.05 58.51 57.74 57.81 57.69 56.98 56.73 57.07 58.17 58.54 59.74 61.09 61.94 62.77 63.99 63.86 63.44 64.31 64.42 64.90 64.13 63.80 61.23 54.28 51.17 41.82 40.03 58.25 55.25 60.55 60.46 59.21 57.24 55.45 53.03 49.68 48.94 48.02
59.39 58.75 58.54 58.52 57.64 56.96 55.46 53.62 52.93 53.02 53.34 53.91 54.21 54.19 54.88 54.68 54.80 54.41 53.68 54.43 51.67 50.48 50.25 51.58 55.88 55.78 53.74 50.29 48.77 40.03 34.58 35.63 43.50 42.17 58.15 57.38 56.67 55.41 53.88 51.35 50.02 48.31 48.04

GFSGL_sfc_wetblb_060.txt.gz
Wetbulb
70.90 71.98 71.98 71.47 70.75 71.55 72.29 70.18 69.86 69.62 70.97 71.15 72.88 73.29 73.14 74.28 73.58 72.60 72.12 73.45 72.57 72.52 72.46 71.16 70.35 69.87 68.87 66.60 64.85 64.16 62.19 61.49 59.74 60.11 63.07 64.19 64.64 65.73 65.73 66.82 64.40 63.15 63.36
71.28 71.40 71.88 72.26 72.23 70.82 70.68 72.74 71.40 69.84 69.79 71.15 74.10 73.42 73.29 73.68 74.51 73.82 72.48 73.14 73.62 72.39 72.89 72.14 71.74 71.43 69.21 67.93 66.23 65.22 63.44 62.67 60.96 59.07 60.22 65.20 63.24 64.60 65.37 65.30 63.97 65.02 63.38
71.63 71.62 71.65 72.51 73.16 72.94 71.73 71.44 72.64 71.75 70.75 70.84 73.55 74.46 73.89 73.83 73.57 74.52 74.15 73.38 72.82 73.43 73.33 72.78 72.16 71.24 70.77 70.16 67.26 66.69 65.27 63.67 62.76 61.12 60.45 64.21 64.61 64.87 63.81 63.88 64.14 64.78 66.56
72.08 72.22 71.84 72.08 73.43 74.38 73.93 72.71 71.66 72.74 72.03 71.33 71.89 73.96 74.80 74.41 74.31 73.87 73.84 74.10 73.67 73.51 73.40 73.57 73.17 71.68 71.53 70.98 69.61 68.32 67.08 65.02 63.27 63.57 62.09 63.24 64.49 65.51 64.37 63.51 63.57 65.46 65.93
71.87 72.08 72.27 73.00 72.89 73.77 74.66 74.28 73.46 72.02 72.61 72.83 72.35 72.61 74.33 74.75 74.89 74.03 73.82 73.39 73.31 73.65 73.79 73.65 74.02 73.61 71.43 71.19 71.29 70.11 68.61 65.31 64.49 63.90 62.33 62.44 62.86 63.99 64.39 64.20 63.97 64.82 66.52
71.37 71.72 72.40 72.78 73.88 73.45 73.88 74.48 74.76 73.66 72.76 72.90 72.68 73.05 73.51 74.62 70.16 68.77 72.91 73.81 73.58 72.94 72.69 73.36 73.61 72.28 71.47 68.51 68.21 68.79 70.15 68.19 66.01 64.41 64.81 62.72 64.80 65.02 64.76 65.72 64.92 62.15 62.42
71.01 71.51 72.28 73.02 73.29 74.13 74.45 74.43 74.41 74.48 73.86 72.91 73.51 73.22 72.84 74.60 67.26 66.84 68.70 73.87 73.42 73.50 73.41 73.53 73.68 74.56 71.64 73.85 68.70 66.54 66.75 66.33 67.96 68.14 64.17 64.93 64.99 65.63 65.76 64.77 65.60 64.19 64.52
69.56 71.83 72.57 73.14 73.49 74.09 74.33 74.21 74.48 74.82 74.60 74.26 73.13 73.78 74.43 74.07 66.33 64.91 66.87 73.23 74.09 73.74 73.96 74.03 73.79 73.88 73.93 73.09 73.59 72.62 70.40 70.85 68.94 68.45 69.23 68.20 67.25 67.39 66.24 66.25 66.02 65.45 64.99
69.26 69.67 71.94 73.43 73.69 74.05 74.13 74.48 74.83 74.87 74.82 75.05 75.25 74.61 73.75 74.26 65.00 63.45 64.97 72.37 73.51 73.97 74.39 74.36 74.21 74.30 70.22 66.18 72.49 72.66 72.76 71.83 69.08 64.87 65.59 66.19 64.43 63.78 65.89 67.26 65.62 64.65 62.40
69.81 70.54 71.40 72.42 73.73 73.92 74.40 74.45 75.35 75.36 75.12 75.53 75.11 75.58 72.25 75.05 65.67 62.10 64.85 73.96 73.46 73.73 74.38 74.92 67.41 71.30 65.47 63.24 71.32 73.19 72.27 72.60 72.30 71.52 67.61 65.85 64.25 65.76 64.00 67.87 67.39 64.86 63.57
70.93 71.44 72.02 72.48 72.67 74.11 74.60 74.86 74.69 75.08 75.02 74.76 74.92 75.27 75.36 74.28 74.36 60.67 60.33 74.33 74.78 74.41 74.10 73.93 74.47 63.54 59.94 59.18 61.43 73.84 72.83 73.26 72.68 72.09 71.45 69.29 69.09 67.46 67.12 68.06 68.58 66.92 64.21
72.23 71.89 72.71 72.79 73.58 74.17 74.10 74.38 74.81 74.70 74.51 74.51 74.33 74.71 75.49 75.63 65.92 60.88 59.04 61.50 70.09 74.80 74.48 75.05 74.35 61.94 57.15 56.89 59.47 63.51 62.11 62.02 72.28 73.07 71.39 69.67 68.00 67.39 67.25 67.30 67.59 67.07 66.98
70.52 71.13 71.86 72.71 73.83 74.33 73.99 73.67 74.11 74.55 74.50 74.48 74.45 74.30 74.68 75.70 75.88 60.70 57.80 58.46 60.19 70.27 75.80 72.37 64.60 58.70 56.19 56.85 55.63 56.79 59.16 66.21 67.68 69.10 70.80 71.32 69.78 68.65 68.54 67.84 66.80 66.51 66.96
68.91 70.10 71.58 71.51 71.81 71.66 74.90 74.82 74.60 74.53 74.53 74.41 74.49 74.39 74.88 75.07 75.30 74.02 67.45 63.39 60.21 63.71 66.42 69.95 63.23 63.19 59.43 63.35 62.68 60.31 62.41 64.67 66.28 67.50 68.67 70.79 70.03 68.15 66.73 66.00 65.37 65.62 63.42
70.94 69.52 71.17 72.09 70.54 71.77 68.29 67.16 73.56 74.16 71.47 74.91 75.00 75.18 74.60 74.26 73.60 69.39 69.46 69.74 69.46 67.02 68.29 67.81 66.79 67.11 67.38 67.07 66.21 65.46 64.94 64.23 65.66 67.56 67.45 65.84 65.12 64.96 64.92 65.01 63.92 62.92 60.10
71.12 71.83 70.86 71.96 71.52 69.19 62.95 58.09 47.77 46.81 46.29 47.10 51.99 66.20 69.01 56.29 54.89 53.63 50.73 53.26 53.99 52.72 67.34 68.42 68.88 68.38 66.75 65.84 64.94 64.21 64.21 64.23 64.94 64.76 65.05 64.85 64.01 64.00 63.40 63.47 63.06 60.81 59.40
68.69 70.22 71.74 69.26 72.58 67.81 65.39 64.76 62.72 55.24 46.36 43.64 43.46 50.54 53.99 54.15 46.19 45.83 45.83 46.37 47.46 56.53 67.04 66.97 66.23 65.32 64.23 63.33 63.49 63.31 62.70 63.70 64.18 64.01 64.26 64.13 63.81 63.31 62.90 62.54 61.03 60.05 58.41
68.83 63.19 69.30 71.87 71.79 70.05 68.22 67.14 65.87 63.97 64.01 61.38 50.53 47.06 44.00 44.56 44.92 46.19 47.83 56.14 65.12 62.34 63.47 63.85 62.79 62.54 62.50 61.23 60.95 62.68 62.30 61.11 61.07 63.76 63.49 63.31 63.31 62.88 61.77 61.01 60.57 58.83 56.05
68.83 68.33 70.02 72.73 71.55 70.90 69.81 67.32 66.31 63.88 60.93 58.80 57.85 53.21 46.97 44.74 46.19 48.91 50.36 63.10 62.52 61.66 61.25 60.81 60.58 60.08 59.54 59.56 59.20 58.82 58.67 59.34 60.17 62.54 63.13 63.31 63.08 61.99 61.25 60.74 58.31 53.72 53.66
68.81 65.00 64.02 69.48 71.27 71.04 69.69 67.16 66.34 62.12 60.01 59.51 60.11 59.28 58.98 58.77 61.79 60.76 60.64 60.60 60.68 60.45 60.08 60.02 60.04 60.02 60.02 60.45 62.67 59.97 60.23 60.75 61.29 60.19 62.22 62.74 62.57 60.88 59.50 58.33 57.16 55.97 54.78
68.61 68.45 65.01 66.26 67.30 71.68 70.15 68.21 65.22 63.57 62.06 61.85 60.93 59.74 52.72 62.04 61.83 61.54 61.69 61.15 60.42 60.22 60.42 60.54 60.26 60.06 59.76 59.74 60.72 60.69 61.13 61.82 61.74 61.19 61.77 59.87 60.17 57.97 57.95 56.59 55.22 54.37 52.58
68.51 68.75 66.56 67.07 67.66 67.97 67.28 66.65 65.52 64.19 62.57 60.88 59.04 55.66 47.83 61.27 61.64 61.43 60.74 60.48 60.72 60.95 61.64 61.68 60.68 60.86 60.97 60.81 60.93 60.22 59.46 59.54 59.88 59.58 59.40 59.20 58.68 56.85 56.13 55.10 53.92 52.50 50.51
68.36 68.00 65.29 64.63 65.50 63.36 63.98 63.86 63.16 62.02 61.09 60.41 60.17 59.13 59.72 59.72 59.72 60.06 60.01 60.71 60.99 61.49 62.36 62.32 61.53 61.28 61.08 61.19 61.01 60.74 59.96 59.82 60.62 61.18 60.38 59.00 57.41 56.68 55.80 54.39 52.62 50.71 49.21
64.83 64.59 63.00 62.31 62.11 61.78 60.32 59.21 58.42 55.25 59.07 59.37 59.13 59.27 59.86 59.70 59.40 59.31 60.05 61.13 61.95 62.47 62.91 62.80 62.49 61.85 61.52 61.29 61.40 62.00 62.06 61.89 61.12 61.20 60.22 59.09 58.15 55.29 56.12 54.78 52.73 51.88 51.55
62.74 62.62 61.73 60.12 59.02 57.98 57.28 56.50 56.17 56.09 55.57 55.21 55.27 55.97 56.17 55.47 54.30 53.22 51.94 51.77 52.28 52.87 51.35 54.47 58.20 62.49 60.44 58.46 56.52 55.75 46.37 41.91 57.74 54.15 60.45 60.39 59.17 58.25 56.71 55.52 53.44 50.54 49.22
58.75 58.48 57.88 56.79 55.24 54.02 53.39 52.75 52.41 52.21 51.53 50.84 50.54 50.39 50.67 50.19 48.69 47.84 47.62 46.26 45.39 44.65 44.15 42.50 41.40 43.45 45.40 42.74 41.37 35.82 32.18 32.94 44.12 40.58 58.31 58.59 58.89 57.18 55.04 53.20 52.66 51.47 51.04

GFSGL_sfc_wetblb_063.txt.gz
Wetbulb
70.27 70.78 70.56 70.36 70.69 70.38 69.46 69.29 69.34 68.67 68.38 69.45 71.38 71.79 72.25 73.23 72.98 72.10 71.77 72.40 71.44 71.25 71.47 70.40 69.56 68.68 68.51 66.93 64.60 63.32 61.37 59.98 58.01 59.32 61.14 62.84 63.59 64.31 65.38 66.54 65.90 63.89 63.20
69.95 70.41 70.22 70.16 70.34 71.04 71.54 69.54 69.44 69.13 69.83 69.99 70.12 71.54 71.96 72.68 73.29 72.56 71.81 72.34 72.26 71.64 71.83 71.19 70.93 71.11 68.55 67.81 66.14 64.34 62.96 61.54 60.32 59.21 59.46 62.01 62.56 63.52 64.65 64.48 65.87 65.34 63.40
69.21 69.77 70.31 70.07 69.75 69.27 69.86 71.82 71.02 69.54 69.24 68.49 71.20 71.87 71.84 72.09 72.61 73.24 72.72 72.20 71.91 72.26 72.31 71.84 72.10 70.49 70.28 69.61 67.54 66.59 64.52 63.70 61.87 60.17 62.61 60.71 63.19 63.13 63.15 63.35 63.54 63.98 64.13
69.40 69.36 69.39 70.19 70.59 70.88 70.29 69.68 70.91 72.00 70.93 69.46 69.40 71.01 72.76 72.87 72.94 73.02 73.42 72.68 72.11 72.28 72.62 72.83 72.66 71.71 71.56 71.18 69.96 68.94 67.65 64.86 62.46 62.05 63.09 62.63 62.10 63.56 63.43 62.44 62.34 63.04 64.15
69.43 69.37 69.39 70.15 71.06 71.45 71.55 71.40 70.54 70.78 71.92 71.60 70.96 70.32 72.26 73.28 73.63 73.07 73.04 73.11 72.95 72.53 72.63 72.62 72.75 72.76 71.23 70.83 71.59 70.64 68.85 66.58 66.63 64.22 64.59 61.44 62.44 62.17 62.84 63.85 63.82 64.83 64.63
69.77 69.58 70.27 70.29 70.73 71.40 72.33 72.41 71.91 70.89 70.61 71.42 71.16 71.08 70.71 72.62 68.83 68.32 72.11 72.69 72.38 72.39 72.27 72.74 72.97 71.74 71.08 68.30 67.82 68.71 70.52 69.03 67.98 66.97 66.61 65.79 65.35 64.41 65.26 64.92 63.10 62.61 60.99
69.79 70.26 70.62 70.92 70.71 70.86 72.16 73.12 73.14 72.27 71.54 70.47 71.00 71.30 71.08 71.77 66.22 66.08 68.31 73.34 72.62 72.14 71.94 72.17 72.04 73.05 70.48 72.77 68.97 66.51 66.76 66.24 68.27 71.35 68.39 67.39 67.11 66.97 65.91 64.36 64.84 64.04 63.62
69.35 70.13 70.82 71.02 71.30 72.04 71.72 71.91 72.64 73.53 72.99 72.23 71.49 71.61 71.52 71.92 65.49 64.55 66.40 72.06 72.87 72.95 72.86 72.86 72.54 72.63 72.54 72.12 72.35 72.33 70.69 70.57 69.57 69.15 70.49 71.59 72.17 70.83 67.69 66.21 65.73 66.11 65.99
68.56 69.51 70.42 71.29 71.25 71.50 72.31 72.50 72.91 72.98 73.49 73.73 73.14 72.34 72.26 72.73 63.28 62.88 64.94 71.66 72.53 72.78 73.25 73.23 73.08 72.81 69.29 65.53 71.70 72.09 72.28 72.77 69.31 65.69 65.69 66.01 65.50 65.31 65.96 66.73 64.64 64.08 63.35
67.95 69.73 70.70 71.11 71.46 71.77 72.17 72.96 73.50 73.78 73.48 74.00 74.04 74.19 70.52 72.81 64.40 61.47 63.57 71.96 71.89 72.49 73.26 73.68 67.00 70.55 64.90 62.93 70.75 72.32 72.02 72.95 73.27 72.86 70.60 67.20 65.07 67.84 64.95 67.54 67.74 64.98 64.51
67.56 67.95 68.89 71.64 71.94 72.62 73.08 73.57 73.65 73.68 74.00 73.85 73.87 74.50 74.52 73.04 72.92 60.27 59.85 72.57 73.08 73.01 72.97 73.33 73.92 63.59 60.35 59.65 61.32 72.85 72.43 73.13 72.77 72.66 73.17 73.18 71.75 70.60 70.02 68.94 67.63 67.04 65.86
69.62 68.94 69.49 69.81 71.59 72.95 72.75 73.36 73.58 73.70 73.52 73.43 73.35 73.66 74.53 74.85 65.23 61.05 58.81 60.33 68.76 73.89 73.56 74.43 73.78 62.32 58.31 57.26 58.97 62.66 62.10 61.85 70.63 71.42 72.12 72.30 70.88 69.93 69.93 69.14 68.60 67.92 68.60
69.44 70.00 70.23 70.48 70.95 71.37 71.92 72.46 72.83 73.16 72.93 72.99 73.13 72.95 73.32 74.42 74.54 60.33 57.79 57.97 59.54 69.09 75.02 71.62 64.34 58.15 55.07 57.51 56.44 57.90 58.69 65.79 67.08 67.49 68.14 69.23 70.58 72.50 70.54 67.99 67.58 66.22 66.29
69.58 68.50 69.93 69.94 70.35 71.62 72.39 72.50 72.61 72.83 72.82 72.88 73.04 72.99 73.39 73.69 74.11 72.98 67.24 64.63 60.24 63.71 65.34 69.34 65.38 64.13 61.59 64.71 62.96 60.08 63.62 65.27 65.97 66.54 67.20 67.76 69.57 68.37 66.56 66.92 65.13 64.34 62.25
68.97 69.72 69.63 70.40 69.52 69.95 70.47 68.37 72.26 73.13 70.45 73.20 73.48 73.75 73.43 73.21 73.54 68.69 69.43 72.01 71.31 67.94 67.96 69.80 67.33 68.05 67.69 67.51 66.76 66.36 66.06 65.52 64.61 65.29 66.58 66.56 65.84 64.59 64.05 64.55 64.37 62.21 60.77
67.14 67.47 67.74 68.58 69.88 70.07 67.24 61.91 48.14 48.16 47.64 47.27 49.45 62.25 72.66 62.74 58.69 55.25 53.62 53.62 54.52 52.53 66.26 68.94 69.95 69.59 69.05 67.65 66.58 65.68 64.75 64.00 64.52 64.75 64.91 64.55 63.48 63.48 62.21 61.85 60.68 61.22 61.06
65.42 65.85 67.13 66.42 68.64 68.98 65.88 65.52 65.05 54.89 45.81 44.37 43.83 46.37 47.27 57.61 50.54 49.63 49.09 48.00 46.73 54.89 69.28 69.43 69.93 68.35 66.58 66.04 65.50 63.32 63.42 62.45 63.99 64.16 64.05 63.74 63.10 62.92 61.77 61.69 60.60 60.28 58.97
64.99 59.78 65.52 66.93 67.92 69.43 68.57 67.04 66.47 65.25 64.86 63.52 49.09 46.73 44.55 46.55 45.64 45.46 44.92 51.44 59.40 60.08 66.24 66.92 66.56 65.50 64.07 62.78 61.69 61.69 60.77 62.80 61.45 63.18 63.32 63.76 63.48 62.74 61.67 60.58 59.90 58.42 56.55
65.28 65.52 66.59 66.97 68.51 68.48 69.95 67.65 66.65 65.52 64.66 61.53 58.25 52.53 45.90 43.10 44.74 46.73 49.27 66.91 66.36 64.77 63.03 62.76 62.71 61.65 60.54 59.98 59.84 59.46 59.37 58.87 59.28 60.06 62.59 63.10 63.10 62.33 61.31 60.98 59.08 53.89 52.76
64.99 62.30 61.94 65.43 66.25 68.62 69.95 68.33 66.04 64.21 63.14 61.95 62.29 61.31 58.57 58.97 62.74 62.42 62.38 62.95 64.37 63.76 62.17 61.20 60.10 59.53 59.01 58.83 58.73 58.15 58.05 59.34 60.95 59.46 62.21 62.94 62.72 62.42 61.23 60.28 57.93 55.19 53.64
65.39 65.59 64.25 65.25 64.73 67.20 69.48 67.92 66.79 64.30 62.90 61.61 61.06 59.88 53.07 62.89 61.04 61.94 62.23 62.43 62.30 61.93 61.45 60.31 59.90 59.71 59.37 59.39 61.82 61.36 60.86 60.75 61.47 59.17 59.32 62.37 61.44 60.60 60.22 59.46 57.16 54.77 52.94
65.59 66.03 66.43 65.80 65.19 65.93 69.19 67.53 65.34 63.97 62.67 61.17 60.38 57.32 47.46 62.33 62.48 62.07 62.40 62.38 62.19 62.09 61.94 60.45 59.85 59.49 59.37 59.42 59.19 59.23 59.41 60.86 61.42 60.93 58.33 58.95 60.02 58.47 56.84 55.58 54.84 53.44 51.55
64.75 65.87 66.43 64.86 64.42 61.03 64.10 63.81 62.88 62.14 60.96 60.88 60.44 59.41 59.76 61.35 61.75 61.55 61.65 61.80 61.43 60.58 60.65 60.97 60.17 59.77 59.99 60.15 60.13 59.93 58.89 58.59 59.23 59.45 59.01 58.49 57.85 56.84 55.40 54.20 53.98 51.72 49.60
65.04 66.26 63.49 62.85 61.50 62.17 61.85 60.51 59.73 56.40 60.46 60.65 60.74 60.82 60.44 59.61 59.28 58.27 58.25 59.53 60.17 60.01 59.49 60.38 60.53 60.16 60.49 60.23 60.15 60.31 60.41 60.21 60.11 60.13 60.24 59.13 57.91 54.21 55.00 53.81 52.92 51.79 50.37
66.06 63.05 60.78 59.10 58.10 57.22 57.12 57.41 57.12 57.08 56.54 55.94 54.73 54.54 53.96 52.43 50.58 50.29 50.08 49.53 48.85 47.84 45.28 44.48 46.00 50.90 50.18 49.34 49.64 51.47 41.59 37.94 54.19 52.35 59.39 59.17 58.57 56.90 55.66 55.59 54.26 52.40 51.04
58.10 57.70 57.08 57.00 56.60 55.64 54.08 52.53 51.41 50.54 49.99 49.88 49.43 49.35 48.71 47.85 47.33 47.03 46.23 45.30 44.49 43.26 41.92 40.79 40.22 41.00 41.28 40.05 37.84 34.41 31.81 33.13 47.24 44.54 58.28 59.40 58.53 57.32 55.78 56.37 56.23 54.75 53.19

GFSGL_sfc_wetblb_066.txt.gz
Wetbulb
69.39 69.74 70.06 70.21 70.35 70.47 69.52 69.32 69.18 69.38 69.27 69.98 71.82 72.47 72.78 73.64 74.01 73.54 73.74 73.70 72.78 72.93 73.05 72.48 72.23 71.84 71.27 71.03 69.07 67.35 65.65 63.98 62.96 66.55 64.92 67.57 68.62 69.10 69.69 70.16 69.17 68.49 68.30
69.64 69.88 69.91 70.45 70.74 70.05 69.99 69.95 69.96 69.00 69.29 69.97 70.72 71.99 72.58 73.41 74.08 73.49 73.25 73.78 73.16 72.96 72.68 72.84 72.70 72.31 71.97 71.98 70.68 69.89 68.00 66.28 65.03 64.75 67.18 65.74 67.73 69.39 69.14 68.82 68.37 68.28 67.75
69.85 70.02 70.05 70.08 70.12 70.04 70.27 70.23 70.07 70.29 70.27 70.46 70.18 70.41 71.36 72.50 73.35 74.03 73.86 73.67 73.34 73.45 73.77 73.28 73.37 73.06 72.84 72.60 71.59 70.86 69.66 68.63 66.24 64.79 65.88 66.19 66.77 67.62 67.56 67.83 68.24 68.81 68.65
69.24 69.80 69.76 69.89 70.17 70.35 71.01 71.53 70.56 70.25 69.87 69.79 70.79 71.58 71.83 72.55 73.10 73.37 73.98 73.62 73.38 73.31 73.66 73.70 73.58 73.18 73.03 73.33 72.79 72.32 71.93 69.62 68.30 66.80 67.26 67.27 67.55 68.52 67.01 66.75 66.68 67.06 67.11
68.62 68.95 69.39 70.06 70.38 70.34 70.20 70.52 72.01 71.99 71.00 70.72 70.24 70.33 71.09 72.10 72.80 73.22 73.82 73.98 73.66 73.33 73.57 73.68 74.21 73.60 71.43 71.98 73.31 73.10 72.58 71.05 70.52 68.37 68.44 68.85 67.20 67.85 66.88 69.43 66.27 67.53 67.92
68.43 68.21 69.34 70.06 70.54 70.46 70.57 70.34 70.06 70.55 71.85 72.07 71.44 71.19 70.64 71.17 67.90 67.05 71.46 73.31 74.01 73.92 73.49 73.75 74.24 71.83 71.40 68.33 67.96 68.43 71.66 71.76 70.93 70.42 70.05 68.83 69.50 70.29 70.28 67.91 67.36 65.16 64.20
68.88 68.99 69.40 69.47 69.86 70.49 71.14 71.21 70.99 70.28 70.52 70.86 71.54 71.57 71.23 71.29 65.02 65.28 67.36 73.21 73.21 73.40 73.69 73.90 73.69 74.13 71.65 74.20 69.39 66.50 66.90 66.28 68.17 72.93 71.90 71.82 71.29 72.09 71.94 70.16 68.32 66.60 66.22
68.88 69.10 69.54 69.75 69.69 70.39 71.09 71.51 71.91 72.01 71.18 70.54 70.87 71.50 71.56 71.88 64.26 63.82 65.66 72.11 73.29 73.36 73.48 73.34 73.29 73.46 73.58 73.25 73.73 73.46 73.13 72.67 70.83 70.64 72.08 73.08 73.86 74.43 74.20 71.97 69.74 68.23 67.78
68.84 69.27 69.96 70.32 70.42 70.62 70.57 71.14 72.39 73.14 72.77 72.32 72.15 71.53 71.36 71.87 63.00 62.51 64.47 70.97 71.70 72.75 73.56 74.06 73.98 73.78 69.40 65.09 73.03 73.08 73.59 74.05 69.81 65.67 65.99 66.37 65.52 65.12 66.50 70.30 68.32 67.66 65.86
68.88 69.78 70.89 71.21 71.17 71.29 71.54 71.41 72.21 72.85 73.19 73.98 73.71 73.66 69.94 72.55 64.05 60.76 63.55 72.07 71.74 72.00 73.21 73.82 66.17 71.39 65.02 62.75 71.84 73.24 72.48 73.35 74.53 74.92 72.03 68.18 66.27 68.74 65.37 67.64 69.70 67.68 66.89
69.20 69.96 70.67 71.43 71.35 71.72 72.12 72.87 73.04 73.02 73.15 73.31 73.74 74.33 74.58 72.46 72.67 60.20 58.88 71.55 72.39 72.51 72.69 73.31 74.38 63.15 60.20 59.46 60.94 73.94 72.86 73.67 73.20 73.64 73.90 74.11 73.39 72.35 72.34 73.67 72.02 68.59 67.28
68.61 69.49 70.13 70.91 71.43 71.98 72.20 72.45 73.24 73.25 73.02 73.17 73.40 73.78 74.70 75.42 64.76 61.49 58.01 59.79 68.13 73.21 73.41 74.40 74.33 61.41 58.03 57.85 59.03 62.69 62.61 63.05 72.13 71.84 71.91 71.87 72.07 72.50 73.37 73.20 72.08 69.97 69.42
68.30 68.21 68.86 70.04 71.78 72.42 72.23 72.55 72.59 73.37 72.94 72.89 73.03 73.23 73.80 75.16 75.51 60.20 57.30 57.65 58.83 69.80 74.70 71.60 65.13 57.85 56.58 57.97 57.28 59.11 58.13 66.80 67.98 68.79 69.09 69.90 71.12 72.32 73.40 72.41 69.40 67.23 66.19
70.25 70.94 71.18 70.90 70.33 71.23 72.57 73.16 73.01 72.90 72.87 72.98 73.13 73.08 73.63 74.35 74.87 75.43 69.64 65.20 59.65 62.61 64.48 69.39 66.06 65.03 62.74 66.12 66.12 60.71 64.00 66.89 68.34 68.75 68.86 70.44 70.39 70.86 69.11 68.70 65.53 63.72 62.73
69.27 70.14 71.22 71.83 71.06 72.04 72.16 70.78 72.91 74.03 71.06 73.24 73.29 73.69 73.55 73.44 73.97 68.94 69.61 73.21 73.03 68.76 68.48 71.88 68.61 69.18 69.70 69.34 69.00 68.07 66.10 66.28 66.64 66.98 67.50 67.98 68.30 66.92 65.76 65.92 64.54 63.27 62.03
67.20 67.82 67.78 70.11 71.39 71.89 70.57 66.83 48.95 50.05 48.24 48.24 50.60 62.57 73.99 62.95 59.12 53.86 53.31 53.50 54.58 53.13 66.50 70.81 70.56 70.17 70.15 69.81 68.77 67.71 67.32 65.92 66.87 67.30 67.39 67.33 65.63 65.72 64.02 63.59 64.32 63.51 61.78
65.55 66.81 67.33 66.11 69.37 70.22 70.12 68.48 67.19 59.07 46.61 45.70 46.61 46.61 46.43 55.65 51.68 51.86 50.96 46.97 48.06 53.68 70.08 70.42 71.08 71.23 71.01 70.17 69.29 67.32 65.51 66.69 67.87 67.06 67.46 66.90 65.80 65.07 63.31 63.71 63.55 61.83 60.20
64.33 55.43 64.94 67.42 68.36 69.15 70.09 69.73 68.86 68.07 66.74 67.03 47.88 48.96 47.88 45.70 46.25 46.06 45.88 51.32 61.41 58.35 69.61 71.48 71.37 70.83 69.22 68.54 67.16 65.65 66.25 65.93 66.67 66.84 66.64 65.24 64.66 64.36 63.96 62.61 61.76 60.72 59.22
63.26 64.91 66.28 67.33 68.09 66.52 69.06 69.73 69.26 68.61 68.14 67.10 62.69 53.72 46.99 42.80 43.89 43.34 44.80 72.07 71.23 68.43 67.80 67.80 68.75 68.32 67.23 66.15 66.35 66.49 65.66 64.37 65.51 65.56 64.57 64.93 64.48 64.22 63.29 62.44 60.94 55.28 55.36
62.88 59.27 59.67 65.75 67.08 67.62 68.54 68.96 68.26 68.21 67.60 65.82 64.43 65.87 59.47 56.94 64.11 64.45 63.93 66.70 69.04 68.45 66.45 66.45 65.41 66.52 66.39 65.65 65.04 64.76 63.85 61.96 63.08 64.41 65.16 64.49 64.34 63.82 63.25 62.00 60.83 57.55 58.78
60.34 63.20 61.87 65.49 66.88 67.19 68.02 68.76 68.77 67.68 67.19 66.43 66.05 62.74 54.22 65.69 65.95 66.20 66.55 65.08 65.87 65.78 65.00 64.11 62.66 62.62 63.12 63.98 64.02 63.31 63.26 63.31 63.74 62.71 63.81 63.32 63.45 62.73 62.90 62.12 60.24 60.85 59.97
57.73 60.37 62.42 63.95 66.61 67.31 67.93 68.50 69.03 67.81 67.22 65.64 62.77 58.53 48.60 64.81 65.28 63.47 64.60 64.72 64.18 64.12 64.01 63.19 62.62 62.73 63.77 64.41 64.63 64.19 62.51 63.03 62.82 62.86 63.31 62.97 62.79 62.05 61.26 60.09 59.17 60.16 59.40
56.97 59.00 61.47 62.72 64.96 63.23 66.11 67.42 67.88 67.08 65.68 63.78 62.76 60.72 61.51 63.59 64.43 63.14 62.95 63.25 63.34 63.31 63.66 63.47 63.06 62.56 64.15 64.52 64.74 64.77 63.86 63.42 63.65 63.68 63.64 62.08 61.55 61.71 61.98 60.76 59.89 59.30 58.81
56.31 58.42 60.90 63.55 64.43 65.52 65.99 64.87 64.12 58.10 62.62 62.80 62.19 61.78 62.26 63.11 63.12 62.32 60.93 61.37 60.54 58.53 59.59 60.87 63.31 64.23 64.15 64.24 64.39 64.36 64.42 64.34 64.24 64.24 64.62 64.01 63.31 58.75 62.00 61.48 61.04 59.86 59.35
59.91 60.65 61.97 63.90 63.18 63.05 60.51 60.71 59.96 59.91 58.72 58.19 57.33 55.86 55.11 55.10 55.40 53.99 52.95 52.60 50.58 50.86 48.80 47.57 47.60 48.58 50.54 51.02 52.08 53.28 43.48 34.59 56.88 53.94 64.38 64.32 63.90 63.01 61.84 60.95 60.43 59.82 58.76
51.96 54.35 55.02 54.84 54.10 53.08 52.59 51.47 50.71 50.75 49.82 50.16 49.82 48.97 48.79 48.33 49.53 49.46 48.37 46.67 45.58 44.89 43.65 42.63 43.27 45.52 45.66 44.70 42.13 36.18 32.41 32.89 48.13 40.63 63.10 64.42 63.94 63.44 62.32 61.01 60.48 59.76 59.38

GFSGL_sfc_wetblb_069.txt.gz
Wetbulb
73.60 73.92 74.17 74.39 74.17 74.60 74.15 74.50 75.42 75.33 75.27 75.03 75.56 75.78 75.86 76.14 76.67 76.90 76.87 76.98 76.69 77.10 77.52 76.82 76.70 77.36 75.66 75.30 75.03 73.94 72.65 71.25 68.71 69.68 71.28 72.33 72.72 73.10 73.81 74.51 74.12 73.78 72.94
73.56 74.06 74.05 74.63 74.93 73.82 74.44 74.12 74.68 74.70 75.21 75.19 75.33 75.20 75.50 75.83 76.40 76.34 75.83 76.19 76.38 76.38 76.80 77.12 76.74 76.32 76.57 76.78 75.76 75.81 74.95 74.59 71.24 72.15 73.37 72.32 73.45 73.74 74.38 73.49 72.94 72.57 73.15
73.15 72.98 73.71 74.25 73.97 74.57 74.89 75.18 74.89 74.92 75.29 74.87 75.00 74.99 75.65 75.50 75.89 76.37 76.53 76.31 76.79 76.90 77.18 77.03 76.92 77.08 76.58 76.36 76.37 75.48 75.10 75.35 74.54 72.35 72.38 74.01 74.35 74.00 74.04 74.31 73.32 74.39 73.12
72.72 72.91 73.37 74.11 74.47 74.53 75.23 75.45 74.84 75.41 75.19 74.90 75.38 75.54 75.28 75.19 75.26 75.15 75.59 76.09 76.51 76.74 77.09 77.29 77.04 76.90 76.76 77.05 76.77 76.69 76.39 75.36 75.17 73.57 72.62 72.42 72.93 75.07 73.73 71.59 71.66 73.77 73.47
73.16 73.12 73.60 74.52 75.03 75.32 75.34 75.27 74.86 75.02 75.24 75.92 75.38 75.13 75.26 75.06 74.32 75.45 75.35 75.58 76.20 76.42 77.06 77.18 77.40 76.13 72.57 73.82 76.46 77.81 77.44 75.52 74.64 73.50 72.93 72.98 72.87 73.22 73.54 73.97 72.71 73.28 74.46
73.16 72.99 74.41 74.73 74.84 74.85 75.23 75.31 75.21 75.00 74.66 75.27 75.03 74.68 74.50 74.09 68.07 67.04 72.74 75.00 75.66 76.00 75.64 76.73 77.40 74.03 73.35 68.82 68.38 69.07 73.99 77.01 75.31 73.98 73.47 73.03 75.80 75.14 75.08 74.50 74.12 72.57 71.45
72.77 73.40 74.15 74.70 74.46 74.62 75.08 75.06 75.28 75.40 75.30 75.12 74.90 74.86 74.82 75.49 66.03 65.20 67.14 74.53 75.59 76.34 76.91 76.73 75.48 75.19 74.33 77.06 70.83 66.95 67.58 66.53 68.64 75.86 75.55 75.58 76.09 76.65 77.73 76.28 74.29 72.70 71.33
72.72 73.14 73.87 74.37 74.22 74.88 74.69 74.53 74.79 74.17 74.67 75.13 75.04 75.51 75.27 75.50 65.23 63.84 65.52 73.81 75.68 76.66 76.92 76.92 76.97 77.01 77.29 76.36 76.01 75.56 76.00 76.31 75.44 73.91 75.16 75.93 76.86 77.86 78.14 77.31 74.35 72.86 72.47
72.60 72.99 73.52 73.78 73.96 74.43 74.41 74.63 74.98 74.60 74.63 74.48 74.76 75.33 75.70 75.69 63.43 62.54 65.19 73.10 73.38 75.65 76.44 77.22 77.22 77.14 71.45 65.79 75.09 75.24 76.02 76.34 72.13 66.68 67.31 66.95 66.28 65.54 67.61 71.98 70.35 71.10 69.89
73.10 73.49 74.17 74.35 74.17 74.11 74.50 74.89 75.56 75.77 75.10 74.74 74.50 75.01 71.50 75.45 65.46 60.89 64.37 73.44 74.33 73.77 76.32 77.10 67.30 73.11 66.08 62.91 74.39 74.97 74.94 75.62 76.81 77.62 77.73 72.99 69.90 72.41 65.84 70.46 72.08 69.72 69.52
73.40 73.74 74.49 74.74 74.77 75.26 75.32 75.82 75.70 75.40 75.91 75.65 76.01 76.48 76.07 74.74 74.79 60.42 58.79 73.94 74.01 74.34 74.57 75.15 76.00 62.93 61.23 59.84 61.80 76.12 75.58 75.81 75.02 77.02 76.90 76.71 76.71 75.88 76.16 77.44 75.94 73.67 70.06
74.79 74.29 74.85 75.22 74.23 74.21 75.87 75.38 75.77 75.71 75.23 75.34 75.54 75.35 76.06 77.34 66.34 62.40 58.14 60.24 69.79 75.27 75.56 76.44 76.67 61.49 57.53 57.53 60.91 64.43 62.98 65.11 74.78 74.66 74.75 74.21 74.62 74.93 75.25 75.87 76.19 74.50 72.14
73.87 74.55 74.92 75.71 75.34 75.92 75.64 75.34 74.50 75.32 74.34 74.35 74.18 74.32 75.02 76.57 77.43 61.28 57.53 57.47 59.38 71.97 76.33 72.71 64.99 58.42 56.63 60.16 57.90 59.82 59.48 69.49 71.93 72.04 72.24 73.42 74.77 75.12 74.68 73.35 70.17 68.95 69.24
73.14 73.32 73.74 73.71 73.88 75.09 74.61 74.57 74.18 74.00 74.01 74.07 74.27 74.49 75.34 76.23 76.99 77.70 73.98 68.70 60.11 64.62 66.80 72.55 70.95 67.40 65.57 68.64 68.98 65.77 69.24 72.75 73.74 73.28 73.48 73.99 74.67 72.86 71.26 70.78 67.67 66.24 65.51
73.83 73.31 72.52 72.41 72.69 74.00 74.86 74.44 74.48 76.31 72.97 74.86 75.26 75.70 75.59 75.70 76.31 70.91 72.33 77.01 76.48 71.41 71.16 74.35 73.74 72.02 72.00 71.53 72.32 73.61 72.82 70.67 69.00 69.99 70.91 72.27 70.79 70.40 69.17 68.78 66.86 65.22 66.03
70.84 72.02 71.86 74.78 74.62 73.97 73.20 72.56 52.40 53.26 50.46 49.74 51.91 63.62 76.09 64.59 57.55 55.18 52.46 53.54 54.63 53.91 70.37 73.83 72.34 71.73 71.39 71.77 71.95 72.27 72.22 68.52 69.74 69.92 69.99 70.17 69.86 69.19 66.97 67.48 66.64 66.79 65.01
66.00 68.71 68.52 69.65 73.27 74.25 73.88 72.73 72.63 64.15 49.38 48.65 48.29 48.29 48.83 55.64 50.46 49.38 49.38 48.29 49.19 54.27 72.55 73.13 73.27 72.77 72.47 72.50 72.63 72.47 70.28 70.59 71.90 69.70 69.95 70.04 69.22 67.90 65.78 65.36 66.08 66.57 64.83
65.00 56.49 68.97 70.71 71.76 72.72 73.12 73.60 73.54 72.38 72.72 73.97 52.43 53.49 47.33 45.75 47.20 46.66 45.39 52.60 64.26 59.84 71.52 73.12 73.74 74.06 73.78 73.81 73.19 71.68 70.53 69.71 68.34 69.33 70.17 68.37 67.38 67.31 64.97 64.33 64.00 64.35 62.18
61.32 63.43 65.69 67.41 70.10 68.88 72.36 72.80 72.50 72.11 72.91 73.38 72.71 56.88 50.03 44.12 43.94 43.57 44.46 72.43 74.09 75.14 73.14 73.32 74.31 74.07 74.18 73.66 72.51 70.48 68.70 67.51 69.55 71.22 70.22 67.04 67.21 66.97 65.49 66.05 63.97 57.52 59.59
60.04 58.17 59.46 63.85 66.25 68.93 70.65 71.60 71.42 71.42 70.95 71.35 73.08 72.94 68.97 57.56 66.26 65.90 61.04 66.06 74.38 76.58 76.67 74.47 71.97 71.66 70.99 70.39 68.68 68.52 68.54 66.91 68.86 68.94 67.61 67.76 67.76 66.26 65.41 64.86 63.72 63.69 62.17
58.23 59.86 59.01 63.00 64.53 66.45 68.39 70.06 70.95 71.37 70.31 69.53 71.12 70.96 57.49 68.70 72.40 72.10 70.86 69.68 72.91 75.62 75.44 74.48 72.76 71.26 69.41 69.34 69.77 70.13 69.87 67.93 67.78 67.23 67.42 66.87 67.24 65.05 65.71 65.28 65.45 64.40 63.90
57.04 58.90 60.44 61.21 63.27 64.55 66.63 68.38 70.21 70.71 70.01 68.67 69.00 67.07 48.11 64.12 70.02 71.37 71.49 72.56 73.95 73.85 72.62 70.27 67.94 67.19 66.42 66.32 66.52 67.18 68.20 67.94 67.72 67.29 65.56 66.60 66.53 65.40 64.96 63.90 64.25 65.02 64.05
55.44 56.14 58.06 60.22 62.36 61.50 64.87 66.84 67.58 69.94 70.00 70.03 68.71 65.81 60.56 63.18 67.23 70.89 71.91 72.19 70.85 70.35 69.62 67.01 65.62 65.35 66.08 66.59 67.50 68.08 68.11 67.12 67.28 66.63 63.77 64.16 64.35 64.40 63.88 63.07 62.18 62.50 64.66
55.98 56.22 56.38 60.02 61.53 63.83 65.15 65.91 66.65 61.99 68.33 68.96 68.77 67.13 63.90 64.82 66.23 66.44 67.55 68.34 67.58 67.51 68.92 68.66 68.40 68.07 67.44 68.03 67.78 67.70 68.58 68.28 68.20 67.29 66.87 65.50 63.50 60.69 63.39 63.11 62.20 62.16 64.88
51.29 54.00 59.35 59.63 62.12 62.61 65.05 65.10 66.23 67.39 66.48 65.03 64.62 61.87 59.34 59.13 58.48 58.39 58.97 62.91 62.69 60.96 59.86 61.51 63.30 64.85 64.73 63.96 64.68 65.93 44.22 35.76 61.13 52.72 67.32 66.38 65.81 65.95 65.59 65.54 64.98 64.69 64.25
46.38 46.56 47.52 49.62 53.02 54.14 55.03 52.72 51.44 52.12 51.23 50.25 50.21 49.85 50.09 52.02 50.79 50.82 50.18 51.34 51.55 50.40 50.86 51.54 50.96 52.19 53.26 52.51 46.83 37.13 31.86 33.13 51.59 40.13 64.79 66.16 65.98 66.00 65.78 65.62 65.61 65.31 65.08

GFSGL_sfc_wetblb_072.txt.gz
Wetbulb
76.00 76.57 77.24 76.21 76.35 76.51 75.85 76.44 77.06 77.48 77.51 77.57 76.96 76.58 76.08 76.76 77.87 78.16 78.11 77.56 77.63 78.46 78.69 78.43 78.45 79.14 76.20 75.21 75.77 75.41 73.96 73.41 71.01 71.86 72.41 75.16 76.48 75.53 75.75 76.30 75.81 75.78 74.98
76.59 77.48 76.63 77.19 77.69 75.78 76.17 76.61 77.24 77.20 77.94 77.75 77.78 77.34 76.86 76.65 77.75 77.91 77.55 76.79 77.35 77.53 78.15 78.65 78.34 78.27 78.96 79.01 76.80 78.06 76.75 77.33 74.17 75.29 75.97 74.52 77.80 79.23 77.97 76.55 75.44 75.31 75.59
75.91 75.26 75.97 76.20 76.31 76.94 77.02 77.14 77.11 77.39 77.47 77.65 77.69 77.17 76.99 76.26 76.47 77.31 77.51 77.30 77.18 77.66 78.44 78.47 78.62 78.85 78.64 78.26 78.28 77.00 76.41 76.12 76.61 74.82 74.14 74.54 74.57 75.51 76.38 78.84 78.49 78.77 76.79
74.64 74.76 76.31 76.98 77.47 76.76 77.93 78.29 77.22 78.12 77.42 77.47 77.87 77.58 77.28 76.96 76.22 76.08 76.40 77.17 77.27 77.34 78.22 78.68 78.93 78.88 78.73 78.81 78.73 78.70 78.39 77.28 77.24 75.34 74.39 74.15 74.81 77.59 76.42 74.70 74.91 76.48 76.24
75.89 74.91 76.45 78.08 78.16 78.74 78.67 78.40 78.05 77.57 77.36 77.82 77.57 77.46 77.40 77.00 75.77 76.48 75.87 75.65 76.48 76.95 77.59 77.99 78.44 77.29 73.19 74.45 77.80 80.05 80.71 77.32 75.43 74.41 73.59 73.48 73.25 73.60 75.28 75.48 75.01 75.74 77.57
76.84 76.19 77.59 78.18 78.49 78.32 78.60 78.51 78.29 77.74 77.81 77.74 77.31 77.33 76.90 76.12 68.58 67.12 72.75 75.30 75.73 76.63 76.28 77.50 78.04 75.04 74.30 69.48 68.93 69.04 73.01 77.65 78.97 75.90 74.28 73.73 77.78 77.26 76.19 75.30 75.03 75.05 74.34
77.31 77.21 77.78 78.28 78.23 78.54 78.09 78.34 78.46 78.04 77.87 77.76 77.21 77.36 77.23 77.77 66.21 65.11 67.41 75.27 75.53 76.96 78.04 77.76 76.14 74.98 74.31 77.18 71.04 67.72 68.37 67.14 68.35 75.37 75.90 76.31 76.82 77.69 78.65 78.19 78.73 76.48 75.56
77.15 77.26 77.75 78.12 77.89 78.06 78.37 78.29 78.89 78.08 78.43 78.40 77.27 77.93 77.46 77.69 65.80 63.97 65.63 75.29 76.80 77.56 78.12 78.68 78.84 78.43 78.59 77.68 77.40 76.77 77.11 77.34 77.00 75.67 76.28 76.66 77.14 78.73 79.30 78.87 77.05 76.79 76.15
76.63 77.05 77.73 78.00 77.92 77.73 77.53 77.89 77.76 77.73 77.72 77.61 77.74 78.37 78.29 78.27 63.82 63.07 66.63 75.00 74.77 76.81 77.33 78.49 79.06 79.11 72.63 66.79 76.27 76.62 76.99 77.10 72.08 66.15 66.89 67.17 66.95 66.63 68.94 73.74 72.23 73.78 72.41
76.45 76.93 77.97 78.05 78.28 77.84 78.26 78.30 78.32 77.30 76.53 76.46 76.65 77.85 73.53 78.54 66.29 60.83 66.30 75.07 75.58 74.57 77.93 79.24 68.25 73.86 66.47 63.36 76.02 76.11 76.24 75.82 76.51 77.59 78.92 74.43 69.31 75.43 66.27 75.33 75.73 73.34 73.20
75.92 75.91 77.32 77.66 78.46 78.68 78.82 78.63 78.74 77.78 77.94 78.20 77.92 78.37 78.37 76.58 76.94 59.73 58.84 75.55 74.58 74.62 74.63 75.05 76.33 63.73 62.19 60.93 61.72 77.75 75.87 76.17 75.50 78.34 78.32 78.40 79.45 79.30 78.78 79.38 79.10 75.90 73.26
77.21 76.10 77.32 77.85 76.38 76.23 78.34 77.67 77.62 78.00 77.57 78.02 77.41 76.83 77.29 78.43 67.21 62.09 57.78 60.88 70.11 76.10 76.32 76.59 77.35 61.09 57.96 58.37 61.88 65.03 62.34 64.94 75.86 75.96 76.50 75.90 75.49 76.75 77.50 77.85 75.99 75.68 74.83
76.74 77.02 77.00 76.84 76.49 78.25 77.65 76.96 76.06 77.05 76.10 75.96 75.72 75.94 76.33 77.47 78.70 61.59 56.85 57.55 60.22 71.41 76.97 73.02 63.34 58.22 54.80 59.52 57.40 60.13 60.20 74.52 75.19 74.68 74.81 76.17 77.01 78.29 78.00 74.61 73.03 73.84 70.75
75.54 76.06 76.34 76.24 75.92 76.58 76.66 76.70 76.26 75.88 75.50 75.44 75.59 75.51 76.34 77.05 77.68 78.94 75.62 68.89 60.69 66.32 68.70 73.67 72.01 67.58 63.64 68.55 72.44 69.15 74.43 76.61 76.49 75.54 76.00 77.45 78.41 75.43 73.73 73.69 70.74 71.17 66.90
75.14 75.35 75.68 76.03 75.74 76.28 76.89 76.57 76.27 78.13 74.84 76.14 76.15 76.66 76.42 76.60 77.32 71.77 73.30 79.06 78.23 72.70 73.10 76.56 76.32 75.68 75.44 75.81 76.25 77.36 77.79 77.85 75.56 75.68 75.79 75.01 74.01 73.51 72.00 72.83 70.38 69.80 67.83
74.79 74.23 74.04 74.50 75.03 75.28 75.47 75.31 56.23 56.37 53.81 53.81 53.99 65.94 77.05 65.61 59.07 55.67 57.23 56.17 52.54 54.72 73.57 76.25 75.46 74.66 73.81 73.76 74.05 74.34 75.23 73.67 75.18 74.69 73.92 73.23 72.42 72.48 71.97 71.41 70.46 69.15 68.58
72.01 73.87 74.78 73.47 75.23 74.68 75.27 76.27 75.43 66.44 52.36 51.82 52.54 52.00 53.27 55.49 52.90 49.46 47.28 47.83 50.73 57.64 75.44 75.99 75.43 74.14 75.10 76.23 76.32 76.00 74.73 75.41 75.48 73.47 72.15 72.01 72.71 72.57 69.40 70.96 69.34 68.93 68.42
68.46 56.93 73.22 73.57 73.70 74.14 71.83 73.53 75.65 72.37 73.36 74.66 57.27 57.06 49.49 48.19 48.19 48.92 47.65 53.56 70.33 62.97 74.26 74.59 75.16 75.37 75.92 77.61 77.44 76.47 75.84 75.19 73.44 73.44 73.14 72.44 72.15 71.40 69.90 69.55 68.39 68.50 66.77
65.55 65.96 66.27 69.26 72.91 69.47 69.95 68.23 70.80 73.12 72.89 74.21 75.48 58.10 54.84 45.83 44.20 43.84 44.38 72.72 76.37 76.98 77.02 76.65 77.39 77.51 77.57 77.52 77.51 76.85 76.05 72.92 71.02 70.61 70.39 69.99 70.74 72.63 69.70 68.50 66.87 59.82 62.78
63.78 59.37 60.89 69.18 65.19 68.80 69.84 70.46 71.11 71.80 72.94 73.79 73.80 73.89 71.22 64.79 70.95 71.17 65.56 68.23 74.52 76.69 77.68 77.77 77.66 77.40 77.30 77.10 76.82 75.82 74.06 70.61 69.64 70.16 71.07 70.82 71.89 71.61 69.62 68.11 66.85 66.74 64.81
61.12 61.88 59.55 62.97 65.00 66.19 67.57 68.98 71.01 71.07 70.75 71.93 72.85 72.28 55.91 74.99 74.76 75.12 76.07 73.89 73.92 75.96 77.27 78.38 78.61 77.42 77.36 76.86 75.26 72.81 70.75 68.88 69.75 70.58 71.55 72.51 72.20 70.28 69.94 69.78 67.44 66.58 66.33
60.10 60.73 61.62 62.33 63.19 64.11 65.46 66.63 67.29 68.02 69.49 69.86 69.98 69.38 53.27 71.59 73.18 74.94 75.59 75.76 76.89 76.84 77.37 78.28 78.09 77.56 76.99 76.06 75.64 74.70 72.60 71.79 71.44 72.13 72.83 72.02 70.53 69.91 68.99 67.97 67.53 66.48 65.87
58.85 60.09 60.93 61.47 62.08 60.14 63.06 65.10 65.61 66.24 67.14 69.09 69.77 69.66 70.15 70.19 71.39 73.09 74.68 75.53 76.30 75.88 76.34 75.37 75.35 75.61 75.16 73.65 73.20 72.68 71.61 71.12 71.06 71.01 70.98 70.10 69.63 69.23 67.46 66.20 66.91 64.93 64.38
55.30 56.50 58.12 61.31 62.15 62.84 63.52 64.63 66.19 60.61 65.99 67.41 69.34 69.49 69.76 70.53 70.62 71.49 71.62 72.55 73.09 72.73 73.89 73.34 73.50 73.47 72.61 72.36 72.42 72.20 72.08 72.01 71.98 71.55 70.97 68.55 68.44 65.82 66.69 66.01 66.27 65.18 65.47
49.24 49.91 50.59 52.97 54.43 61.45 64.75 64.75 65.82 67.02 67.42 64.93 65.65 65.71 63.83 63.86 64.71 64.21 65.63 66.40 68.92 69.61 67.50 67.53 68.74 70.17 68.57 69.02 70.65 70.68 43.60 34.86 60.88 49.63 68.90 67.20 66.91 66.22 65.85 65.63 65.12 64.16 63.94
45.59 45.13 44.88 45.01 45.41 46.02 48.05 50.67 51.78 52.31 53.65 51.13 51.71 51.92 51.93 52.24 52.14 51.47 52.87 50.85 55.55 52.01 59.14 57.09 53.30 59.67 59.71 58.58 50.95 38.83 32.63 33.46 54.35 42.39 65.20 67.18 66.15 66.98 66.64 66.02 66.60 65.84 65.76

GFSGL_sfc_wetblb_075.txt.gz
Wetbulb
77.21 77.25 77.21 77.41 77.21 78.02 77.70 78.91 79.09 79.87 80.23 79.48 78.59 77.51 77.19 77.38 78.69 80.27 80.12 79.27 79.23 79.67 78.85 78.81 78.91 80.75 76.21 75.33 75.48 75.32 74.48 73.54 71.06 72.75 74.11 76.74 81.05 79.66 77.82 78.24 77.22 78.55 76.31
77.25 77.58 77.34 78.19 78.05 77.73 77.75 77.99 79.30 79.26 80.30 80.20 79.68 78.99 78.05 77.47 79.28 78.98 77.17 77.49 77.25 77.31 77.82 79.57 78.42 77.32 80.51 80.53 76.94 79.22 76.59 77.95 74.20 75.55 76.26 75.55 78.16 79.88 80.58 81.24 78.17 77.19 77.61
76.88 76.67 77.64 77.87 78.11 77.85 78.33 78.57 78.79 79.51 79.92 79.42 79.74 79.69 79.04 77.99 78.31 78.94 79.25 78.20 77.09 77.59 78.40 79.20 78.98 79.81 80.36 78.56 80.36 78.10 76.59 77.29 76.99 75.23 74.93 75.97 76.22 76.57 77.63 79.65 80.00 78.94 78.02
75.61 75.78 77.03 77.93 78.29 78.18 78.86 79.01 79.23 79.95 79.79 79.70 80.35 80.32 79.77 79.03 78.28 77.51 78.05 78.94 78.99 77.76 78.64 79.10 79.10 79.59 80.13 80.73 79.81 80.71 79.37 78.10 76.62 75.10 74.88 75.26 76.00 78.99 77.75 75.99 76.19 76.78 76.92
76.94 76.49 77.13 78.57 79.05 79.05 78.68 79.25 79.68 79.89 79.80 80.41 80.25 80.09 79.67 78.66 77.16 78.05 77.95 78.31 79.04 78.57 78.53 78.72 79.18 78.01 73.65 75.16 77.55 79.53 80.59 78.11 75.56 74.89 74.41 74.01 73.56 74.15 75.63 76.19 75.70 76.22 77.63
77.54 76.56 77.62 78.65 79.05 78.85 78.85 79.14 79.56 79.72 79.90 80.09 79.92 79.92 79.23 77.15 69.77 67.87 74.90 77.04 77.89 78.21 77.99 79.27 79.90 75.94 74.26 69.61 69.18 69.38 73.70 78.26 78.77 75.53 74.66 74.12 76.70 76.17 76.26 75.07 75.55 74.57 74.17
78.60 77.67 77.92 78.87 78.71 78.98 79.11 79.58 79.52 79.69 79.91 79.72 79.82 79.91 79.73 80.04 66.36 65.55 67.90 77.13 77.52 77.85 78.44 78.71 77.91 75.11 75.13 79.11 71.54 68.51 69.16 67.49 68.99 76.45 76.31 76.41 76.53 78.00 78.33 77.29 77.69 77.75 76.25
77.87 78.81 78.18 78.82 78.83 79.34 79.71 79.49 79.83 79.90 79.50 79.64 79.89 80.05 79.97 79.55 66.21 63.84 65.95 76.69 76.83 77.67 78.62 79.34 79.23 78.32 77.94 78.22 79.40 79.00 78.44 78.72 77.65 75.12 76.95 77.38 78.49 79.46 80.23 78.48 78.78 77.82 77.67
78.10 78.47 78.56 78.79 78.91 79.34 79.10 79.58 79.83 79.94 79.94 79.83 80.43 80.17 80.17 80.04 64.51 62.76 66.68 76.02 76.02 77.52 78.65 79.05 78.92 78.79 72.97 67.62 77.29 76.69 76.98 77.42 72.34 65.49 66.30 66.62 66.62 66.16 69.26 75.35 74.44 74.61 74.03
77.72 78.55 79.59 79.30 79.37 79.37 79.75 79.81 80.08 80.21 79.69 78.29 79.05 80.34 75.89 80.54 66.78 61.59 66.29 75.70 76.00 75.27 77.86 78.85 68.95 74.43 67.65 64.32 77.09 77.78 76.66 77.67 78.25 78.44 79.15 75.10 67.98 73.50 66.07 74.42 76.82 75.37 76.15
77.97 79.09 80.13 80.06 80.00 80.40 80.65 80.62 80.59 79.80 78.63 79.57 79.65 80.45 80.75 78.91 79.09 60.77 59.47 77.04 75.51 75.14 74.93 74.95 76.18 64.30 62.48 61.53 62.30 77.91 76.97 77.64 76.36 78.45 78.21 78.31 79.39 79.87 80.54 77.20 80.48 78.80 75.92
79.26 79.03 79.24 80.11 78.92 78.91 80.40 80.51 80.37 80.19 79.49 79.83 79.25 79.05 78.21 80.46 68.63 61.14 58.05 61.32 70.85 76.27 75.46 74.04 74.91 60.78 58.30 59.17 62.19 64.91 63.12 65.63 75.38 75.23 75.51 76.17 76.49 77.78 78.43 80.12 79.52 78.47 76.12
79.35 78.91 79.38 79.66 79.48 79.58 79.52 79.68 78.29 79.58 76.82 76.60 76.46 75.89 75.68 76.66 78.61 62.05 57.34 57.88 60.51 71.99 76.59 70.85 62.63 57.93 55.03 58.04 57.18 60.43 60.66 73.97 74.72 75.24 75.64 76.00 77.35 77.97 79.91 76.70 76.74 75.47 73.75
78.81 78.94 79.22 78.58 78.48 78.83 78.08 77.98 76.88 76.44 76.24 75.68 75.56 75.38 75.52 75.81 76.48 78.53 73.78 67.21 61.16 66.95 69.10 73.51 71.24 66.18 61.11 68.11 72.10 67.14 73.82 76.59 76.58 76.80 76.58 77.26 78.29 80.28 78.27 74.76 71.11 72.39 69.38
76.18 76.69 77.86 77.16 77.09 77.83 78.11 77.21 76.92 78.01 74.08 76.41 75.40 75.96 75.76 76.19 76.62 71.88 72.87 77.58 76.48 72.42 73.41 76.20 75.42 75.25 75.96 76.97 77.72 78.28 78.68 78.05 76.79 77.14 77.09 77.10 78.01 79.45 75.67 73.24 71.10 71.62 69.12
74.33 75.08 75.65 76.14 76.52 76.53 76.32 75.08 56.04 59.92 54.26 54.26 54.75 66.63 76.78 60.01 55.80 55.40 55.15 52.99 56.26 57.26 73.09 75.53 75.94 76.40 76.78 76.84 76.83 75.92 77.42 75.49 77.92 78.70 78.06 77.54 75.92 74.66 72.44 71.53 71.63 71.57 71.51
67.53 70.83 76.05 73.71 76.47 75.95 76.51 75.97 74.60 66.24 54.63 55.35 54.81 54.26 52.61 53.45 52.81 53.17 50.27 49.91 53.90 59.59 76.42 76.85 76.21 76.40 77.03 76.04 75.69 75.45 75.24 76.34 79.45 78.01 76.73 76.09 74.66 73.83 70.58 71.11 71.37 71.24 70.56
63.54 59.77 68.88 74.13 75.81 75.67 75.96 76.34 76.26 75.76 75.13 74.69 59.80 61.52 52.36 49.73 50.46 49.19 49.73 54.81 73.86 68.74 75.99 76.43 76.40 77.26 76.75 76.10 76.82 77.32 77.99 77.73 77.84 76.97 76.04 75.06 73.84 72.93 70.68 70.95 71.31 71.07 70.02
64.14 62.24 64.23 68.46 68.72 69.16 76.49 76.61 76.49 75.53 74.69 73.32 73.18 60.27 54.02 47.17 46.83 46.83 46.83 72.83 75.39 76.46 76.86 76.56 77.18 77.15 77.41 77.66 77.97 78.66 78.11 77.76 77.56 76.28 75.05 74.72 73.64 72.97 72.06 71.27 70.67 63.39 64.92
62.79 61.42 61.44 67.16 68.18 71.54 73.00 71.11 70.98 71.33 70.41 70.92 70.93 74.44 68.82 66.13 70.61 73.34 71.09 72.65 74.48 75.69 76.28 76.23 76.91 77.79 78.21 78.44 77.84 78.71 78.74 77.07 75.80 74.44 73.99 72.69 71.37 70.92 70.57 69.28 71.40 70.16 68.54
64.56 65.21 62.64 64.03 65.66 67.88 68.18 68.94 70.47 69.27 71.18 72.11 69.31 67.69 55.83 73.10 73.66 73.81 75.12 74.48 74.93 75.56 76.74 76.76 77.39 77.38 79.39 78.79 78.46 77.44 76.58 76.96 76.16 74.73 72.78 71.34 70.59 70.11 70.95 71.98 71.34 69.60 69.03
59.77 60.54 62.97 63.87 61.78 62.50 63.71 65.35 68.81 69.68 69.52 70.04 70.85 69.91 54.44 72.48 73.75 72.41 72.48 74.23 76.57 77.43 77.14 77.77 77.67 77.90 78.30 76.42 76.44 76.36 75.43 75.09 74.41 73.65 72.46 72.21 72.01 71.40 70.67 70.28 70.54 69.98 68.64
59.52 59.61 60.76 62.02 62.78 60.65 63.81 65.29 65.99 66.91 67.52 69.07 70.02 70.51 71.39 70.63 70.73 69.48 70.98 73.12 75.33 76.16 77.02 78.28 77.99 77.51 78.64 78.25 77.52 77.00 76.00 75.13 75.17 74.48 73.25 72.56 71.90 70.60 70.01 69.63 70.28 68.93 68.26
54.66 55.21 56.76 58.92 60.69 62.00 64.04 64.75 64.98 60.44 65.50 66.49 68.00 68.75 70.59 71.45 71.61 72.12 71.77 71.20 72.35 73.99 75.47 75.94 75.96 75.83 76.44 76.59 75.92 75.64 74.99 74.54 74.66 73.59 73.36 72.38 71.50 69.81 69.98 68.97 69.30 68.19 66.93
47.15 47.05 47.14 47.66 50.93 52.71 56.85 57.91 57.70 58.53 60.87 60.11 59.60 59.78 60.75 62.42 62.86 61.71 61.64 60.34 60.36 58.26 54.46 57.98 58.18 61.34 64.26 58.03 57.87 57.70 45.13 33.01 56.12 48.05 70.56 72.12 71.27 70.67 68.91 68.87 68.04 66.15 66.04
43.73 43.42 42.82 42.94 42.92 42.99 43.60 44.10 44.44 45.48 45.62 46.35 46.26 46.33 46.88 48.23 48.94 49.11 49.32 49.30 49.29 47.82 46.73 45.60 46.24 45.09 49.03 52.56 43.24 37.00 32.48 32.46 49.40 37.40 63.65 70.13 69.06 68.29 67.24 66.35 65.83 65.25 65.76

GFSGL_sfc_wetblb_078.txt.gz
Wetbulb
75.50 74.45 74.19 73.98 74.31 74.34 75.66 76.19 77.09 77.62 79.72 79.53 79.47 78.57 78.17 77.94 79.14 78.91 78.07 77.91 77.16 77.55 77.42 78.19 77.07 78.02 76.74 76.43 77.38 76.97 75.08 74.32 71.14 72.31 74.93 75.78 77.75 76.64 76.42 76.31 76.89 76.06 75.61
76.02 75.28 74.45 74.64 74.31 73.95 73.10 77.05 77.48 78.63 80.37 81.05 78.89 79.51 77.89 77.56 77.94 78.05 77.20 75.72 77.29 77.03 77.74 77.66 77.98 77.80 78.37 78.49 76.83 76.63 75.91 76.64 74.43 72.07 74.15 74.26 74.90 75.62 76.66 78.87 77.79 77.18 76.08
76.43 75.69 75.14 74.98 74.87 74.23 73.51 75.34 77.45 76.47 77.55 78.32 79.19 77.77 78.20 77.19 76.99 77.79 77.77 76.83 76.87 77.04 77.39 78.03 77.65 78.27 78.03 78.07 78.56 77.38 77.30 77.13 76.14 74.23 73.85 76.24 74.84 74.37 74.07 75.82 77.02 76.67 78.00
76.41 75.91 75.00 74.89 75.36 75.28 75.78 74.67 75.42 77.50 76.95 77.70 77.62 78.25 78.21 77.83 77.25 76.56 77.42 77.41 77.36 77.03 77.59 77.31 78.08 77.84 77.69 78.58 78.37 78.22 77.98 77.31 76.34 75.27 74.17 73.78 74.35 75.42 77.03 74.61 73.33 74.88 75.53
75.41 75.41 75.51 76.00 75.89 76.44 76.50 76.66 76.23 76.20 77.01 77.65 77.74 78.01 78.36 78.21 77.48 76.75 76.36 76.88 77.05 77.16 77.64 77.34 77.42 77.39 74.53 75.60 77.93 78.32 77.89 77.31 76.06 75.01 74.37 73.87 72.59 73.93 73.14 74.49 72.97 73.22 74.51
75.28 75.14 75.74 76.20 76.44 76.33 76.46 76.77 76.70 76.44 77.08 77.58 77.48 77.75 77.86 78.01 71.11 68.75 74.25 75.17 76.74 76.34 75.97 76.78 77.65 74.64 73.68 70.14 69.05 69.16 72.97 75.56 74.63 74.49 73.67 72.53 73.27 74.59 74.59 73.13 73.56 72.40 72.55
76.48 75.92 75.95 76.39 76.55 76.36 77.02 76.62 76.57 76.42 76.86 77.32 77.37 77.55 77.59 78.01 68.28 66.50 68.81 75.46 75.14 75.54 76.63 76.35 76.62 76.59 73.55 76.70 70.80 68.24 68.18 67.55 69.20 73.77 72.95 73.04 73.14 74.24 75.21 74.76 74.86 75.30 74.32
76.54 77.07 76.59 76.18 76.36 77.12 76.74 76.59 76.52 77.02 76.84 76.71 77.14 77.65 77.74 78.09 68.35 64.74 66.36 74.14 75.49 76.03 76.24 75.78 75.97 75.77 75.80 76.70 77.46 76.75 75.74 75.30 73.61 71.81 72.56 74.21 75.58 76.73 76.87 76.52 76.31 75.77 76.23
76.10 76.85 77.13 76.33 76.53 76.85 76.56 76.49 76.80 76.84 76.97 77.05 77.26 77.60 77.67 77.62 65.94 64.67 65.36 72.63 73.73 74.79 75.30 75.53 76.18 76.93 72.20 68.09 73.50 73.29 73.33 73.92 71.89 66.15 68.09 68.91 69.39 68.77 70.54 72.95 71.16 72.12 72.58
75.90 77.21 78.32 77.22 76.94 76.80 77.13 76.97 77.44 77.63 77.28 77.54 77.56 78.03 74.91 78.21 67.25 62.78 65.05 74.92 73.91 74.05 75.28 75.72 68.28 72.75 67.28 64.79 73.77 74.99 74.34 75.12 76.20 76.45 76.78 74.07 67.01 70.33 64.94 70.79 72.96 72.73 74.15
78.08 77.37 78.15 78.73 77.09 77.62 78.05 78.00 78.00 77.83 77.69 77.65 77.61 78.11 78.99 77.73 77.46 61.38 59.33 74.98 74.74 74.50 74.36 74.44 75.60 65.30 62.03 61.20 62.20 75.08 74.38 75.18 74.98 76.39 76.89 76.71 76.99 77.72 78.99 76.41 75.82 76.57 75.42
78.82 77.69 77.87 78.14 78.17 78.15 78.08 78.35 78.26 77.89 77.45 77.09 77.14 77.46 78.28 79.11 68.79 62.78 58.40 61.28 70.11 74.89 74.30 74.78 74.37 62.39 58.41 59.34 61.36 64.32 64.04 64.59 75.02 74.80 74.13 74.00 74.59 76.72 78.10 79.27 78.63 79.06 76.65
77.84 77.97 77.66 78.48 78.71 77.95 77.71 77.65 77.62 77.93 77.20 76.51 76.70 76.54 76.83 78.18 78.85 62.51 58.44 58.16 60.63 72.33 75.80 71.03 62.34 60.05 56.25 56.79 56.83 60.27 60.10 70.25 72.50 73.09 73.64 74.43 76.08 77.85 78.98 78.27 76.13 75.40 72.91
78.15 78.29 78.26 77.98 77.74 78.09 78.11 77.83 77.79 77.41 77.05 76.53 75.83 76.05 76.63 76.44 76.85 78.12 70.63 65.16 60.99 64.86 67.83 72.25 70.26 66.03 60.47 66.30 70.31 63.19 69.17 73.91 74.33 74.70 74.89 76.08 78.17 77.56 78.08 76.49 74.42 71.70 70.44
74.90 78.12 77.98 77.98 76.76 77.64 77.27 77.78 77.83 78.31 76.43 76.61 76.52 76.09 75.94 75.46 75.37 70.54 72.25 74.16 72.92 69.52 71.41 74.42 74.19 73.91 73.11 73.62 75.73 77.10 74.96 74.71 74.76 75.77 75.88 76.12 76.78 76.94 77.52 73.80 72.91 70.45 67.67
67.50 69.85 75.72 76.26 76.50 76.47 76.56 75.65 56.11 62.38 56.95 57.03 61.36 69.26 69.53 58.52 50.73 49.71 49.35 58.69 58.99 57.59 71.01 74.34 74.61 74.54 74.50 74.34 74.51 75.39 76.71 75.40 77.34 76.54 76.39 76.69 76.34 76.70 76.51 73.56 70.74 69.85 68.38
62.00 62.18 65.20 67.10 74.48 75.63 75.84 75.14 74.11 65.91 52.91 50.37 52.91 56.53 62.27 57.32 50.01 49.10 49.46 51.09 53.81 58.48 74.95 74.80 75.34 75.69 76.05 76.44 76.64 77.56 76.42 76.17 76.44 76.29 77.25 76.84 75.35 74.56 72.50 71.70 70.84 69.84 69.00
61.72 57.20 61.24 63.47 67.27 70.77 75.81 75.81 75.78 73.84 72.36 72.32 56.71 57.21 50.71 52.91 50.55 50.73 50.19 57.04 71.17 69.83 76.51 76.46 76.54 77.22 77.17 77.58 77.30 76.66 76.06 76.28 76.62 76.65 76.75 76.99 75.96 74.19 72.40 71.37 70.59 70.03 69.54
60.85 61.32 61.32 61.82 65.17 64.37 72.51 75.72 76.26 75.65 75.44 75.15 75.58 61.10 51.15 47.65 46.73 46.92 49.64 75.53 75.47 75.84 76.44 75.75 75.73 76.20 76.88 78.00 77.08 76.43 75.99 76.44 77.23 77.40 77.06 76.46 75.34 73.89 72.47 71.72 70.99 63.91 65.12
59.57 60.91 60.35 62.78 63.60 64.72 67.73 70.95 72.09 74.66 71.26 75.96 75.17 75.04 69.96 63.64 69.15 70.70 68.81 72.40 74.44 74.84 75.46 76.03 76.93 77.20 76.96 76.92 77.42 76.95 77.01 77.60 78.42 78.18 77.19 75.79 74.70 74.22 72.37 71.60 70.82 69.63 68.11
58.56 61.41 62.20 64.27 62.99 65.11 65.68 65.26 67.52 69.26 71.20 70.40 72.75 72.66 63.85 72.06 72.01 73.06 74.20 72.96 73.13 73.36 75.55 75.86 76.11 76.57 77.59 79.67 79.33 76.27 76.22 77.31 77.84 76.88 75.65 74.03 72.71 71.72 71.79 70.59 69.78 69.70 69.18
57.35 61.35 63.23 62.42 62.13 62.59 62.19 64.61 64.44 67.24 67.70 69.45 70.87 68.95 52.80 70.65 68.59 73.19 69.81 72.55 76.04 76.77 76.98 77.54 76.86 77.11 77.51 77.82 77.16 77.29 77.15 76.79 76.52 76.04 74.75 73.82 72.23 71.49 71.04 70.41 70.56 70.63 68.84
56.44 56.30 57.27 60.86 60.30 60.24 63.20 64.28 62.62 62.46 62.50 65.54 64.57 65.48 66.55 66.79 68.14 67.55 67.11 71.51 70.60 66.11 65.94 65.60 62.51 63.04 63.53 68.28 67.62 71.31 72.97 73.14 75.93 76.04 74.31 72.85 71.99 71.76 71.41 70.19 69.84 68.47 67.02
48.72 48.51 50.23 52.75 50.95 52.01 52.70 54.77 54.26 53.22 55.96 56.80 55.75 57.36 57.81 58.51 58.56 59.08 58.53 60.19 57.17 58.13 54.65 54.28 52.73 51.30 53.24 50.20 49.84 49.98 49.45 46.22 53.02 65.72 74.17 73.79 73.02 70.18 71.95 70.82 69.15 68.25 67.02
44.81 44.90 44.17 43.69 43.63 45.07 45.26 45.60 46.45 48.04 47.93 47.84 47.22 48.16 49.87 51.50 50.53 50.24 50.69 51.18 51.14 48.95 47.59 47.18 44.90 44.62 45.33 44.13 43.14 42.74 36.57 32.77 41.97 41.79 62.15 70.30 71.96 70.98 69.44 68.36 68.99 68.19 68.33
42.13 41.81 41.60 41.55 40.92 41.03 41.29 41.01 41.05 41.37 41.66 41.84 41.91 42.12 43.03 43.99 44.32 44.08 43.63 43.97 44.33 43.44 43.77 42.99 41.93 40.38 40.51 40.06 37.77 35.79 32.80 32.91 38.03 34.34 49.66 62.13 66.44 67.72 68.62 67.55 67.59 67.32 67.02

GFSGL_sfc_wetblb_081.txt.gz
Wetbulb
70.91 71.70 69.94 69.76 72.37 72.11 71.41 69.77 73.10 72.66 74.74 75.08 74.67 74.42 74.44 74.34 74.73 74.09 72.86 73.36 73.84 73.36 73.12 73.27 73.50 72.79 72.33 71.54 72.58 72.56 71.97 69.23 66.13 67.75 70.12 72.49 71.75 70.96 71.99 72.65 73.36 72.73 72.45
71.55 71.64 71.49 69.89 70.94 72.14 70.87 70.72 73.32 72.20 73.07 74.64 74.94 74.96 74.28 73.42 73.64 74.00 73.55 73.38 72.77 73.33 73.69 72.96 72.94 75.20 73.33 72.14 72.26 71.62 72.12 71.64 70.52 67.31 69.42 70.82 71.69 73.07 73.26 73.22 75.11 76.97 73.55
72.47 71.43 71.69 71.03 69.67 70.77 70.93 70.11 72.17 74.53 74.49 75.49 74.36 74.14 73.37 73.30 73.07 73.70 74.10 73.43 72.74 73.55 74.26 74.07 74.07 73.45 73.49 74.39 73.89 73.34 73.41 74.15 73.26 71.76 71.32 72.52 72.65 71.71 70.92 71.75 72.96 73.91 75.48
72.87 72.25 71.41 71.18 71.44 70.25 70.60 69.97 71.66 73.52 73.33 74.34 74.95 74.02 74.68 73.67 73.42 73.35 74.52 74.13 73.30 73.47 74.22 73.52 73.82 74.26 73.82 73.77 74.71 74.22 74.18 73.64 73.04 72.09 71.67 71.37 71.29 72.28 72.60 70.40 70.08 70.97 71.32
73.16 72.74 72.29 72.07 71.88 72.13 71.21 70.85 69.47 73.45 73.52 73.57 73.93 74.51 74.88 75.04 75.14 73.29 73.12 74.01 73.84 73.61 73.91 74.27 74.12 74.50 73.79 73.77 75.20 74.64 74.94 73.89 73.40 72.53 71.60 70.87 70.19 69.25 69.63 70.94 69.27 69.73 71.19
73.30 73.11 73.20 73.09 72.67 72.41 72.36 72.29 70.87 70.32 73.09 73.96 74.14 74.25 74.34 76.10 71.05 69.42 72.53 72.97 74.06 74.02 73.52 73.64 74.56 73.07 72.23 69.93 68.91 69.53 73.82 73.64 71.71 70.99 70.13 69.54 69.19 69.36 71.02 69.86 70.27 69.84 69.03
73.18 73.55 73.61 73.20 72.81 72.71 73.27 73.01 73.15 71.82 71.53 72.81 74.02 74.70 74.61 75.23 68.43 67.71 69.39 73.71 72.53 73.49 73.60 73.31 73.33 74.95 71.98 73.84 70.61 67.81 67.57 66.83 68.66 72.06 69.43 69.59 69.04 70.16 70.49 70.46 70.99 71.06 71.40
72.21 72.85 73.50 73.82 73.14 73.27 73.14 73.30 73.54 74.07 73.06 73.05 73.79 74.64 74.76 75.47 68.26 66.06 67.39 71.75 72.69 72.54 72.89 73.71 73.84 73.64 72.31 71.71 72.16 72.22 72.35 71.86 70.14 69.38 69.72 71.59 72.03 72.43 72.86 73.35 72.49 72.49 73.12
72.65 72.64 73.42 73.53 73.62 73.69 72.81 73.13 73.85 73.83 74.18 73.57 74.16 74.84 74.89 75.03 65.96 65.34 65.05 67.60 70.87 72.04 72.92 72.92 72.84 72.81 69.71 66.89 70.51 70.20 69.71 70.37 71.03 66.62 66.93 66.57 67.31 67.60 70.28 72.82 71.23 68.54 69.55
69.85 74.26 74.12 73.97 73.80 73.82 74.34 73.73 74.47 74.42 73.91 74.66 74.58 74.74 72.31 74.97 66.71 63.30 65.01 73.05 69.68 70.28 71.71 72.35 66.98 71.30 66.16 64.46 71.14 71.20 71.12 72.43 72.17 72.92 72.53 67.95 65.59 67.75 66.32 70.16 73.01 68.89 70.76
65.38 67.00 75.48 74.63 74.02 74.60 74.70 74.97 74.64 74.47 74.46 73.89 74.14 74.76 75.07 74.31 74.77 62.88 60.31 73.69 73.64 71.73 71.21 71.30 72.64 63.99 60.62 59.30 61.20 71.74 71.22 71.76 70.83 72.01 72.88 73.61 74.09 74.16 74.71 69.03 69.64 71.51 71.16
63.04 64.66 73.72 75.27 74.61 75.07 74.75 75.16 74.90 74.62 74.08 73.83 73.97 74.20 75.13 75.88 67.50 64.03 59.42 61.09 69.66 73.15 72.14 72.95 72.37 62.61 59.61 59.34 60.77 63.35 63.01 63.61 71.15 72.06 71.74 71.15 71.22 72.14 73.48 75.90 75.42 74.65 75.41
61.83 64.30 72.20 75.32 75.05 74.90 74.73 74.79 74.71 74.75 74.46 73.87 73.92 73.94 74.54 75.89 76.63 63.13 59.70 58.22 60.17 71.27 74.25 71.02 65.42 60.80 57.79 56.44 56.35 59.68 59.49 64.77 68.70 69.83 70.28 70.87 72.00 73.44 74.02 73.92 72.88 71.65 70.83
60.86 62.89 73.58 74.83 75.01 74.99 75.73 75.57 75.45 74.97 74.61 74.43 74.15 73.94 74.56 74.79 75.56 76.83 70.50 65.29 60.52 63.67 66.95 69.53 64.55 64.39 64.28 67.59 65.10 61.05 61.81 66.36 68.00 68.95 70.09 71.71 72.91 73.55 74.01 73.60 70.87 70.12 68.42
60.43 62.47 68.24 74.22 73.52 75.22 75.48 75.52 75.45 76.17 74.62 74.97 74.98 74.94 74.10 74.28 74.71 70.38 72.26 73.59 72.08 68.27 68.52 71.27 71.48 71.11 71.33 71.77 71.24 71.82 67.66 68.09 70.11 71.45 72.08 72.75 74.09 74.37 73.56 73.42 72.67 69.01 68.27
58.91 61.31 60.41 65.13 69.40 74.33 74.09 72.65 56.98 61.14 58.85 58.79 60.95 70.56 74.96 63.68 62.05 59.22 57.04 60.29 60.75 57.20 67.50 71.04 70.82 71.42 71.31 71.45 70.91 70.16 73.16 70.63 71.74 72.35 73.28 73.65 73.45 73.09 72.71 71.39 69.24 69.67 68.42
58.14 59.22 60.65 60.92 65.43 67.12 72.93 73.61 73.03 65.40 54.83 51.38 52.11 58.46 57.46 60.36 49.57 49.93 49.39 51.33 52.11 59.03 69.94 70.58 71.52 72.11 72.26 72.24 72.17 71.86 71.57 73.29 74.47 74.47 73.80 73.23 73.26 73.53 72.22 70.87 70.26 69.67 69.33
58.41 56.36 59.46 60.51 61.74 64.10 65.56 70.45 73.63 72.52 70.04 69.05 53.74 53.56 49.21 50.11 49.03 47.76 49.21 54.99 61.48 63.86 71.78 71.65 72.01 72.87 73.14 73.22 73.63 73.35 73.20 73.20 72.93 72.44 72.49 72.78 73.48 72.22 71.02 70.03 69.92 69.96 69.98
56.94 58.51 59.35 60.31 62.21 61.85 65.55 68.67 72.86 73.02 71.16 71.50 65.07 54.26 51.56 51.02 50.84 50.48 49.03 71.46 71.09 71.10 72.68 73.45 73.73 74.35 74.32 73.56 74.01 73.79 73.60 72.88 72.86 73.21 73.80 74.29 74.29 72.47 70.91 70.55 70.75 63.17 65.66
55.23 57.39 58.53 60.79 62.31 62.71 63.95 65.07 66.15 69.26 70.58 71.34 70.75 68.18 62.09 60.59 65.33 65.80 66.07 67.95 70.24 71.93 73.01 73.33 72.95 72.85 72.84 72.76 74.33 74.04 73.04 72.32 72.64 73.25 74.50 74.86 73.98 72.22 71.16 70.98 71.36 70.98 69.26
52.23 55.92 59.06 61.41 60.99 61.91 62.19 62.91 63.39 65.10 67.14 67.48 67.39 68.18 55.73 67.16 67.25 68.67 68.63 68.11 69.30 71.18 71.11 71.49 71.98 71.88 71.87 73.97 74.34 74.58 74.28 74.15 74.79 74.39 73.45 72.92 72.22 71.25 71.52 72.06 71.23 70.62 68.42
50.72 52.32 55.13 57.68 60.71 61.70 61.51 60.11 58.97 61.36 62.90 62.91 64.95 60.54 54.96 65.42 64.64 66.29 64.46 61.95 62.15 60.84 59.85 56.64 55.74 54.38 54.08 53.70 54.70 60.90 70.01 71.69 72.59 73.46 72.66 71.33 70.21 69.51 69.49 70.19 69.92 69.78 69.15
47.73 48.10 49.34 50.49 52.25 53.46 54.76 54.68 52.98 53.25 53.16 53.81 56.54 56.55 54.90 54.47 53.85 53.93 54.29 53.85 51.82 51.69 51.34 50.68 50.01 48.64 49.76 47.18 47.66 48.44 47.73 47.96 49.51 55.68 69.43 70.86 69.67 69.35 69.03 68.47 69.44 69.01 67.79
44.50 44.34 44.16 44.77 46.25 48.04 49.20 48.30 49.02 47.20 48.56 47.77 47.07 48.29 49.03 49.37 49.60 48.52 49.28 48.34 47.74 46.32 46.13 45.54 45.65 46.13 44.25 45.38 43.97 44.04 42.88 40.87 43.58 52.98 55.44 63.72 70.65 67.57 69.91 68.76 68.88 68.49 66.71
41.72 41.70 41.46 41.23 41.81 42.04 42.49 42.17 43.44 43.35 43.70 43.77 43.37 43.42 43.51 44.05 44.20 43.81 44.32 44.33 43.60 43.32 41.66 41.10 40.23 40.80 41.29 41.63 39.46 39.49 36.07 32.88 42.33 39.01 54.20 59.28 63.00 65.24 69.77 70.17 69.52 68.67 66.68
40.34 40.03 39.62 39.58 39.24 39.76 39.50 39.24 39.78 39.80 39.83 40.37 40.39 40.63 41.04 40.79 40.60 41.12 41.24 41.32 41.37 40.63 39.79 39.32 38.22 36.78 37.24 37.02 35.48 34.37 32.57 33.28 39.43 37.94 50.31 59.39 60.64 61.36 60.66 65.07 65.69 64.80 65.27

GFSGL_sfc_wetblb_084.txt.gz
Wetbulb
70.06 69.13 68.51 68.88 70.16 70.39 69.55 69.84 71.87 69.72 70.88 72.21 71.91 73.88 73.41 73.04 72.34 71.96 72.25 71.74 71.89 71.46 71.19 71.39 71.78 72.02 71.22 70.93 70.22 70.89 69.92 67.95 65.67 66.93 68.25 71.15 70.53 70.67 72.59 72.59 72.82 72.43 72.94
70.62 70.07 68.59 68.36 69.36 71.04 70.84 69.11 70.11 71.09 73.10 73.05 72.49 73.59 73.52 72.81 72.64 72.13 71.61 72.46 72.04 72.18 72.35 71.60 71.66 73.17 72.15 71.63 70.54 70.32 70.26 70.24 69.75 67.34 68.18 70.07 70.70 72.01 72.34 72.24 72.92 74.90 74.27
70.59 70.15 69.87 67.86 68.10 69.90 71.32 70.44 68.46 70.56 71.36 73.38 73.08 72.70 73.12 73.00 72.38 72.74 72.76 72.29 71.58 71.53 72.25 72.29 72.27 72.09 71.66 72.50 72.43 72.06 71.66 72.73 71.28 69.82 70.34 70.85 71.43 71.26 70.69 71.00 71.46 72.09 72.60
70.54 69.99 69.91 69.54 67.95 68.16 70.99 69.91 70.61 70.87 71.39 72.34 73.04 72.85 72.97 72.80 72.50 72.05 72.25 72.06 71.92 71.88 72.34 72.99 73.09 72.72 72.15 71.86 71.85 72.25 72.79 72.14 71.68 70.90 70.41 70.95 70.63 71.82 70.90 69.70 69.19 69.70 70.35
70.13 69.88 69.69 70.74 70.25 68.33 68.52 70.59 69.37 71.10 72.13 73.17 73.56 73.06 73.12 72.95 73.10 71.56 72.14 72.14 71.66 71.66 72.18 72.74 72.81 72.61 71.63 71.62 72.90 72.45 72.62 72.30 71.90 71.25 71.20 70.19 69.71 68.92 67.95 68.77 68.49 68.49 70.74
70.84 70.30 70.02 70.69 70.54 70.15 68.44 68.59 69.15 68.56 71.80 71.48 72.82 73.48 73.00 74.22 69.09 68.34 70.93 71.70 72.71 72.34 71.75 72.18 72.89 72.07 71.37 68.94 68.89 68.96 72.26 72.62 71.98 70.98 70.16 69.96 70.22 67.48 68.06 68.45 67.79 68.22 67.84
70.69 71.80 71.56 70.41 70.60 70.32 70.76 69.29 68.88 68.57 67.69 71.48 71.68 72.42 72.96 74.07 67.34 67.10 68.75 72.41 71.66 72.39 72.50 72.42 72.28 74.24 71.44 72.98 69.43 67.12 66.70 66.74 69.33 72.00 69.17 69.65 68.44 68.98 68.26 67.88 68.13 68.56 68.85
68.02 69.36 71.89 71.79 70.70 70.56 70.82 70.75 70.17 70.24 68.65 67.89 72.03 72.47 72.38 72.88 66.36 65.69 67.38 72.17 72.55 71.84 72.45 72.96 72.42 72.36 71.15 71.17 71.00 70.86 71.11 71.29 69.56 68.51 68.75 70.60 70.70 71.07 70.21 71.01 69.56 69.88 71.11
68.42 67.21 67.48 72.19 71.56 71.26 71.12 71.26 71.51 71.31 71.24 70.02 69.52 71.44 72.74 73.27 64.44 64.33 65.74 71.45 72.08 71.75 72.13 71.59 72.49 72.65 68.91 65.74 70.86 70.68 70.76 70.97 69.11 65.62 65.72 65.49 65.40 65.40 67.50 70.27 70.21 68.92 68.31
63.40 64.79 66.83 66.38 72.50 72.15 72.07 72.06 72.61 72.58 72.66 72.88 72.02 71.96 69.60 72.94 65.05 63.01 65.12 73.32 70.61 70.23 70.80 71.59 65.69 69.72 64.63 62.69 70.18 70.55 69.34 70.39 70.07 70.48 70.92 67.32 64.93 67.41 65.24 68.11 70.55 69.64 68.18
62.37 63.97 66.56 66.40 69.97 73.42 73.10 72.92 72.74 72.84 72.67 72.79 72.89 72.92 73.19 72.87 73.17 61.59 60.69 73.27 73.52 72.26 70.85 71.03 71.23 63.09 60.49 59.22 61.35 71.44 70.54 71.48 70.06 68.98 70.45 71.22 72.03 72.91 73.07 69.89 69.73 71.17 68.24
61.04 63.05 64.48 66.24 69.50 74.08 73.34 73.21 72.44 72.73 72.56 72.24 72.17 72.87 73.74 73.93 65.91 62.47 59.69 61.55 69.36 73.39 72.72 72.28 71.58 60.83 57.83 57.08 58.24 61.88 61.53 61.94 67.12 69.55 70.19 71.30 71.71 72.01 72.42 72.39 72.32 70.36 72.60
59.83 61.33 63.99 65.18 69.11 73.50 73.15 73.12 73.12 72.98 72.83 72.38 72.26 71.98 72.61 73.91 74.35 61.59 59.18 58.97 60.94 71.21 74.39 70.82 63.88 58.89 56.30 57.86 58.07 59.31 58.58 62.80 65.87 66.83 68.65 70.04 71.50 72.19 71.78 71.92 71.48 73.22 72.31
58.45 60.27 62.53 61.20 70.26 72.88 73.53 73.87 73.69 73.27 72.79 72.72 72.50 72.33 72.85 73.32 74.11 74.85 69.05 64.77 60.64 63.80 67.55 70.53 67.52 63.69 61.88 64.25 63.91 59.98 61.17 63.49 65.21 66.47 67.64 69.23 69.70 70.59 71.04 73.29 72.14 70.17 69.49
57.38 59.62 60.85 61.41 64.46 71.96 73.44 73.77 74.03 74.72 72.98 73.38 73.51 73.53 73.04 72.95 73.42 69.29 70.84 73.43 72.10 67.82 68.46 70.83 69.36 66.30 68.42 68.33 68.56 68.67 67.68 65.37 65.49 66.96 67.41 68.36 69.73 70.86 72.24 72.95 71.86 69.80 69.76
55.90 58.04 59.77 60.82 61.56 65.11 71.72 71.04 57.36 59.66 58.23 57.58 59.82 69.33 73.96 65.73 60.77 58.29 56.94 55.55 57.36 54.10 65.84 70.96 69.85 70.80 70.74 71.14 71.17 71.46 70.49 68.83 69.36 69.52 69.55 70.54 71.06 72.04 72.06 70.64 71.11 70.78 70.44
53.93 56.52 58.93 59.61 61.58 62.27 63.21 67.16 71.54 65.35 55.91 53.92 52.29 54.83 55.89 64.44 53.92 51.38 52.47 53.56 49.21 55.19 71.85 70.09 70.89 70.82 70.90 71.25 71.13 71.01 70.44 70.70 71.67 70.83 70.97 71.76 71.99 72.06 69.49 70.30 70.51 70.28 69.92
52.24 53.54 56.78 58.43 59.86 62.21 63.18 64.02 66.71 71.43 70.16 69.24 56.46 55.01 51.02 49.39 49.21 51.20 46.85 53.18 60.10 58.75 70.62 71.33 70.36 71.15 71.22 71.19 71.28 71.57 71.64 70.93 71.65 72.78 72.76 73.03 72.76 72.60 71.00 71.14 70.46 70.07 69.53
51.00 53.37 55.88 57.81 59.87 60.48 62.20 62.85 65.04 69.53 71.16 70.72 63.85 54.28 49.57 46.49 46.49 46.13 46.49 66.94 66.83 65.83 68.11 70.83 70.88 70.50 71.44 71.98 72.46 72.85 72.84 72.88 72.75 72.35 72.24 71.75 72.17 71.95 71.86 71.79 70.50 61.71 63.71
50.20 52.78 54.81 56.76 59.19 59.61 61.91 62.20 61.92 63.45 68.20 69.44 68.88 67.66 60.16 60.00 64.33 65.43 65.59 66.68 68.79 68.20 69.26 70.55 71.11 71.16 71.00 70.84 71.54 72.71 72.53 71.07 71.45 71.97 72.13 72.78 73.17 73.22 72.42 71.27 69.60 68.81 68.63
49.30 50.40 55.27 57.46 58.83 60.10 58.04 56.32 56.84 60.45 64.08 64.75 61.02 62.56 55.01 67.05 67.34 66.61 65.62 63.55 62.22 57.65 56.86 58.36 55.76 54.83 54.38 54.03 55.64 58.89 68.45 71.72 71.70 71.99 72.33 73.50 73.17 71.57 71.59 70.41 69.67 69.08 69.98
46.02 46.78 50.08 50.82 53.45 54.90 53.63 53.12 53.32 53.10 54.68 57.40 55.88 54.42 49.86 60.79 59.53 58.73 56.40 53.27 52.59 52.59 51.81 52.63 51.44 50.76 50.49 50.22 51.18 52.76 53.93 54.34 55.30 57.04 60.47 70.59 71.33 70.57 69.87 69.51 68.67 68.13 68.56
44.27 44.50 44.81 47.45 48.97 49.98 49.93 49.92 48.78 49.90 49.84 50.29 52.12 51.79 51.64 50.67 50.95 51.10 49.89 48.25 47.91 47.18 47.91 49.80 47.25 46.12 46.21 46.93 47.00 47.54 48.66 49.19 49.09 51.57 56.37 59.23 68.79 69.21 68.45 67.75 67.38 66.95 67.18
43.00 42.75 42.89 43.61 43.89 44.63 45.94 46.46 45.59 45.01 46.67 47.05 47.92 48.55 47.65 47.27 46.40 47.02 45.50 44.89 43.63 43.94 45.12 44.56 45.01 43.57 43.15 43.81 43.22 42.84 41.41 40.87 46.16 52.30 54.45 58.80 62.61 62.63 67.90 67.61 67.57 68.04 66.89
40.71 40.57 40.15 40.17 40.39 40.49 41.52 41.86 42.30 43.22 42.68 42.55 43.55 44.29 44.83 44.85 44.47 44.74 44.36 43.81 42.62 41.20 40.33 39.02 38.80 39.24 38.43 38.44 39.22 38.64 36.28 34.31 42.68 40.20 53.85 58.81 61.52 61.73 62.07 63.33 67.28 67.79 67.05
39.73 39.52 39.18 39.08 38.87 39.04 38.62 38.86 38.80 39.91 40.11 40.16 40.03 40.40 40.57 40.32 40.47 40.53 40.91 40.81 40.14 39.68 39.27 38.89 37.70 36.99 36.66 36.42 35.00 33.70 31.70 32.28 38.97 37.22 50.85 53.39 55.38 54.22 53.24 57.37 58.75 60.32 62.74

GFSGL_sfc_wetblb_087.txt.gz
Wetbulb
69.03 69.41 69.18 69.03 69.23 68.24 68.26 68.99 70.42 70.33 69.88 69.94 70.62 72.73 72.25 71.77 71.95 71.34 71.00 70.92 70.96 70.73 70.29 70.27 69.97 70.37 70.58 70.56 69.72 69.70 68.76 66.97 65.44 67.16 66.93 70.08 70.46 71.11 72.17 72.66 73.01 72.44 73.15
68.98 68.65 68.22 68.19 68.20 69.53 68.75 68.39 68.89 70.51 70.02 70.25 70.63 70.80 72.51 72.42 71.90 71.13 71.13 72.13 70.78 70.43 70.74 70.14 70.36 71.69 70.47 70.43 70.22 69.49 69.18 69.21 68.43 67.50 68.29 69.84 70.25 71.33 71.94 71.41 71.67 73.26 71.90
69.44 68.85 67.98 67.46 67.61 68.03 69.65 69.35 67.82 69.48 70.25 71.50 71.25 70.84 71.80 72.24 71.80 71.90 71.17 70.97 71.09 71.17 71.57 71.42 71.32 70.76 70.10 70.31 70.74 70.70 70.75 71.46 70.12 68.65 69.15 69.87 70.50 70.98 71.10 71.03 70.91 70.04 71.77
69.29 69.36 68.48 67.77 67.51 67.87 68.53 69.99 70.16 68.53 69.43 70.31 72.20 71.94 71.65 72.24 72.31 71.90 71.97 71.43 71.05 71.26 71.20 71.36 71.65 71.53 71.31 71.02 70.75 70.69 70.69 70.27 70.18 69.80 69.44 69.71 69.85 70.76 69.84 69.33 67.88 68.60 69.52
68.70 68.98 69.13 69.26 68.32 67.95 67.87 68.79 69.76 70.08 69.97 70.03 70.81 71.95 71.84 71.83 72.29 71.22 71.45 71.71 71.09 70.69 70.93 71.22 71.62 72.20 71.26 70.97 72.20 71.03 70.56 70.18 70.16 69.94 69.26 69.06 69.69 68.85 68.40 67.98 67.46 67.86 69.19
69.54 68.99 69.44 69.44 69.27 67.64 66.88 67.44 69.08 69.04 70.09 70.61 70.98 70.98 71.73 72.78 68.16 67.33 70.59 70.90 70.78 70.66 70.17 70.42 71.54 71.29 70.49 68.24 67.75 68.04 69.94 70.42 69.82 69.44 69.58 69.67 69.91 68.16 67.08 67.17 66.51 66.76 66.22
69.68 69.71 70.19 68.78 69.16 69.26 68.04 66.58 67.02 68.47 68.46 69.30 70.62 71.67 71.66 72.04 66.37 66.00 67.80 71.62 70.83 70.87 70.71 70.78 70.93 72.88 70.57 72.12 68.92 66.74 66.54 66.18 68.74 71.39 69.26 69.14 68.24 68.37 67.41 66.54 66.38 66.83 66.85
69.91 70.58 70.70 70.04 69.30 69.56 69.53 68.22 66.80 67.57 67.84 67.31 68.56 70.57 71.58 72.58 65.67 64.32 66.43 70.80 70.97 70.95 71.18 71.17 71.22 71.13 70.70 71.01 70.84 70.17 70.21 70.26 68.78 68.19 68.85 70.25 69.72 70.46 69.07 69.07 68.11 68.18 69.33
67.35 66.29 67.14 67.57 69.55 70.30 69.40 69.39 69.68 68.25 67.75 67.70 67.19 66.85 69.85 70.98 63.50 63.87 64.81 70.39 71.25 71.79 71.90 71.33 71.77 71.73 68.08 65.00 69.89 69.96 69.82 70.39 68.42 64.98 65.43 64.92 64.69 64.58 66.25 68.20 67.36 67.77 67.02
60.75 62.92 65.37 66.54 66.10 67.95 70.87 69.99 70.34 70.49 69.67 69.87 68.73 67.83 66.38 69.75 63.13 61.45 64.06 71.77 71.17 71.25 71.75 71.47 65.27 69.56 64.20 61.82 68.87 70.16 68.99 70.06 69.15 68.51 68.33 66.13 64.24 66.56 64.14 67.37 68.56 67.66 66.75
59.38 61.22 62.97 65.19 66.85 66.62 67.53 71.62 71.16 70.50 70.72 70.54 70.45 70.25 69.14 68.91 70.29 60.57 59.98 71.65 72.07 71.45 71.12 71.25 70.82 62.56 59.55 58.33 60.02 70.81 69.57 69.78 68.08 68.42 68.56 68.74 69.44 70.63 71.58 69.17 68.88 69.80 68.61
58.36 59.75 60.93 63.08 65.45 68.39 67.46 70.17 72.00 70.69 70.57 70.70 70.93 71.37 71.82 71.60 63.15 60.71 58.70 60.99 68.05 72.22 72.00 72.47 71.40 60.12 57.53 57.10 57.62 61.03 60.56 61.96 66.22 66.24 67.14 68.55 69.37 70.50 71.72 72.18 71.72 70.55 72.02
56.76 58.89 59.46 62.22 63.63 65.35 66.62 69.15 71.74 71.13 70.86 70.81 70.89 70.90 71.52 72.86 72.67 60.67 57.82 57.78 60.51 69.62 73.56 70.28 63.49 58.02 55.48 56.12 56.61 59.03 58.86 62.86 65.16 64.79 66.35 67.83 69.18 70.57 70.46 70.11 70.88 71.56 71.90
54.12 55.99 58.45 61.08 60.88 62.85 67.07 71.54 71.87 71.76 70.77 71.00 71.17 70.85 71.38 71.92 72.79 73.78 67.53 63.44 59.71 63.07 66.47 69.73 66.77 63.57 61.79 64.19 63.50 60.98 62.51 64.70 66.14 66.70 66.96 67.56 67.30 67.82 68.47 69.42 69.98 70.10 70.64
53.20 55.36 57.05 59.82 60.36 61.87 64.64 70.86 72.38 73.09 71.41 71.36 71.73 72.25 71.25 71.44 72.16 68.14 69.31 71.44 70.47 66.69 67.43 70.29 71.14 67.07 67.50 67.93 67.32 67.48 66.33 64.02 64.05 65.25 65.45 66.15 66.49 67.03 67.93 69.60 70.33 69.56 70.60
51.41 53.35 54.19 57.04 59.76 61.65 63.18 64.70 59.66 58.16 55.85 54.58 54.94 67.23 72.54 64.29 59.35 54.22 54.22 53.85 55.30 53.49 65.59 70.89 70.96 71.10 71.03 70.25 70.30 69.87 69.19 68.04 68.20 68.13 67.89 68.31 68.34 68.54 68.95 69.49 70.44 70.78 70.94
49.32 51.19 52.69 54.93 58.04 60.11 62.42 63.27 64.01 65.12 52.95 50.95 52.04 53.13 54.22 60.54 52.95 51.14 51.68 50.05 48.23 53.49 71.58 70.66 71.36 71.32 70.97 71.11 71.09 71.04 71.06 71.38 71.12 70.32 69.42 69.04 69.22 69.62 68.83 69.99 71.07 70.39 70.55
48.37 49.62 51.21 53.96 56.21 58.84 60.97 62.80 64.51 65.82 68.15 70.55 57.66 54.22 51.50 50.95 48.05 48.05 46.06 52.02 57.24 59.39 70.26 71.78 71.07 71.47 71.38 71.05 71.20 71.18 71.09 70.68 69.58 70.41 70.14 69.71 70.23 70.39 70.21 70.35 70.46 71.66 71.23
47.51 48.83 50.54 52.17 54.37 57.08 59.93 61.28 62.59 63.91 65.76 69.17 67.56 57.30 50.77 49.14 49.87 45.52 48.23 68.45 69.48 67.30 67.02 69.26 71.22 72.08 71.47 71.13 71.02 71.02 71.24 71.36 70.57 70.78 71.36 71.75 71.93 71.73 71.39 71.50 71.21 62.56 64.19
48.33 50.38 52.19 54.79 55.69 58.20 60.28 58.82 58.72 61.01 62.73 65.24 69.29 68.49 60.68 58.47 61.72 62.61 61.30 64.38 67.91 67.52 66.94 67.57 69.33 70.03 70.35 70.66 71.05 71.45 71.52 71.25 71.18 71.75 71.86 72.04 72.18 72.20 71.97 71.49 70.78 68.40 68.34
46.84 47.54 50.93 53.77 55.41 56.39 55.51 54.65 55.15 55.67 58.64 58.70 58.16 56.09 54.94 65.60 66.68 66.87 66.34 60.64 58.56 57.50 57.86 57.40 56.29 54.74 54.04 54.57 57.81 61.66 67.95 71.28 70.03 70.33 70.42 70.69 71.80 72.00 72.31 71.09 69.78 68.61 68.11
45.03 45.77 46.25 49.57 52.31 53.00 51.53 52.12 51.61 52.08 51.85 53.55 53.87 53.05 47.15 56.82 56.13 53.89 52.22 51.04 51.97 50.42 50.90 50.23 48.59 48.43 48.63 48.30 49.02 51.09 54.07 56.03 58.16 60.31 62.12 64.80 69.35 70.73 70.01 69.62 69.24 68.20 67.50
43.33 43.56 42.96 46.06 47.74 48.25 49.00 48.08 47.87 47.99 48.95 49.53 49.67 49.53 49.69 49.02 49.17 48.68 48.10 47.40 47.11 46.66 47.76 47.20 46.48 45.80 47.02 46.12 46.95 46.52 46.99 46.97 50.09 50.90 56.94 61.63 66.27 68.40 68.13 68.79 68.54 67.23 66.39
42.45 42.43 42.82 43.24 43.40 43.88 44.21 44.66 45.17 43.58 44.65 45.60 45.29 44.88 45.80 46.86 46.07 45.30 44.74 44.23 44.26 45.17 46.91 45.67 43.02 42.49 42.73 42.71 43.20 42.76 40.81 39.83 43.79 49.02 51.56 57.80 62.89 62.40 66.39 67.77 67.91 67.32 66.82
40.54 40.42 40.41 40.33 40.20 40.30 40.84 40.73 41.22 41.84 41.73 41.38 41.80 42.73 42.32 41.80 42.14 42.48 42.17 42.04 41.49 42.55 40.76 40.84 41.57 40.78 40.34 39.68 39.44 38.02 35.13 33.35 42.32 40.03 51.19 55.84 57.53 57.72 58.69 59.98 61.14 62.10 64.43
39.48 39.44 39.07 39.13 38.98 38.98 38.60 38.32 38.40 38.98 39.32 39.16 39.21 39.39 39.71 39.71 40.29 40.29 40.22 39.52 39.12 38.93 38.73 38.65 38.31 37.79 37.50 36.93 35.59 33.83 32.06 32.50 39.47 38.37 48.90 51.19 50.58 50.54 52.83 54.61 55.78 57.23 56.92

GFSGL_sfc_wetblb_090.txt.gz
Wetbulb
69.38 69.62 69.50 68.69 68.18 67.97 68.72 70.35 71.58 72.24 71.88 71.84 72.63 73.18 73.16 73.49 73.73 72.72 72.99 73.00 72.61 72.92 72.79 72.63 72.66 72.94 73.16 73.14 72.89 72.44 71.75 70.01 69.24 71.09 70.58 73.62 74.89 75.58 76.53 76.79 76.05 76.24 74.29
69.23 69.85 69.57 69.78 69.50 68.69 68.30 69.16 70.47 71.34 71.98 72.05 71.91 72.65 73.63 73.39 73.66 73.22 72.77 73.66 72.78 72.55 72.69 72.77 72.60 72.65 73.31 73.68 73.09 73.15 72.45 72.28 71.21 71.36 72.97 73.64 74.34 75.66 75.79 75.79 75.58 74.73 74.32
69.16 69.13 69.18 68.72 68.74 69.54 69.42 69.06 69.38 70.35 71.03 71.75 72.00 71.88 72.33 73.39 73.53 73.51 73.27 73.30 73.27 73.07 73.05 72.95 73.48 73.55 73.05 73.03 73.06 73.09 73.53 73.81 73.13 72.01 72.44 73.85 74.12 74.63 75.47 75.81 75.23 74.60 74.07
69.23 68.62 68.30 68.17 68.12 68.79 69.85 70.06 69.34 69.88 70.39 70.90 72.33 72.56 72.62 73.15 73.57 73.73 73.40 72.99 72.97 72.94 73.28 73.40 73.51 73.46 73.40 73.78 73.65 73.78 73.70 73.23 73.35 72.71 72.77 73.03 73.66 74.81 73.81 72.77 72.75 73.83 72.63
68.94 69.29 68.67 68.84 68.84 68.86 68.72 69.30 70.49 70.02 69.98 70.63 71.06 72.77 73.34 73.16 73.19 73.36 73.45 73.37 73.18 72.97 73.33 73.33 73.54 73.26 71.09 71.88 73.96 74.72 74.23 73.33 73.05 72.57 72.78 72.95 73.60 73.05 73.18 72.82 71.29 71.69 73.04
69.07 68.89 69.96 69.78 69.54 68.37 68.42 68.53 69.55 70.29 70.37 70.09 70.11 71.01 72.20 73.04 68.12 67.59 71.64 73.12 73.33 73.29 72.81 73.04 73.57 71.61 71.31 68.11 67.64 68.14 72.00 74.03 73.14 72.75 73.23 72.60 73.55 72.96 72.90 71.47 71.19 71.20 70.73
68.36 69.83 69.65 69.81 69.79 69.36 68.42 67.99 68.06 69.17 70.14 70.06 70.40 70.81 70.88 71.98 65.43 65.50 67.79 73.00 72.60 72.74 72.72 72.83 72.40 73.01 71.36 73.79 69.76 66.79 66.83 65.91 68.22 74.27 73.30 73.42 73.02 73.89 73.05 72.18 71.48 71.24 71.38
64.48 68.96 70.46 70.35 69.79 69.72 69.53 67.78 67.50 68.01 68.95 69.16 69.77 70.71 71.12 71.61 64.46 63.99 66.12 72.05 72.61 72.81 72.77 73.06 72.86 73.32 73.25 73.20 73.54 73.51 73.57 73.77 72.33 70.74 72.24 73.29 73.89 74.22 73.51 73.52 72.99 72.45 72.63
58.52 60.97 63.54 66.81 69.75 70.01 69.65 69.77 69.12 68.04 67.59 68.70 69.01 69.51 70.26 70.58 62.60 62.91 65.01 71.48 71.88 72.43 72.86 73.06 73.11 73.26 68.75 64.81 72.57 72.69 72.97 73.07 68.92 64.96 65.79 65.56 65.03 64.58 67.47 72.10 70.94 70.27 70.63
57.43 58.77 61.19 63.35 65.60 67.71 70.44 70.16 70.51 70.31 69.35 68.88 68.62 68.92 66.07 70.15 62.72 61.12 64.01 71.90 71.60 72.08 73.43 73.77 65.52 71.16 64.43 62.11 71.60 72.73 71.95 72.74 73.42 73.27 72.72 68.16 65.65 68.86 63.77 69.68 71.83 70.73 71.62
57.39 58.90 60.22 62.17 64.22 66.83 67.53 68.18 70.91 70.90 70.75 70.66 69.89 69.86 69.13 66.87 67.82 58.75 59.20 71.97 71.60 71.17 71.70 71.94 73.00 62.18 59.71 57.92 60.66 73.04 71.58 72.55 71.53 72.22 72.22 72.24 72.51 72.77 72.89 71.45 71.84 72.20 72.55
57.33 57.79 58.69 60.50 63.71 65.60 66.74 67.44 68.02 71.13 70.95 70.33 70.33 70.60 71.17 70.23 61.71 59.94 57.20 59.94 67.03 71.08 70.86 72.21 72.45 59.93 57.37 56.87 58.29 61.46 61.05 62.27 70.73 70.55 70.61 70.38 71.12 71.66 72.63 73.77 74.94 73.48 74.47
56.19 56.59 57.51 59.18 61.99 63.49 63.49 65.23 66.22 69.17 70.75 70.46 69.92 70.32 70.76 72.30 71.88 58.80 56.87 57.05 59.35 69.74 73.09 69.62 64.42 58.68 56.69 57.69 56.85 59.05 58.36 65.59 67.99 68.65 69.10 70.14 71.19 72.23 73.79 73.90 74.47 75.07 74.80
54.31 54.57 56.23 57.39 58.39 61.61 63.40 64.58 65.77 67.80 70.39 70.87 70.37 70.22 71.41 72.20 72.95 73.29 66.74 62.02 59.19 62.67 65.97 69.73 67.54 65.58 62.63 66.14 65.34 63.28 65.54 67.62 68.24 68.92 69.78 70.97 72.11 71.08 71.73 72.48 72.51 73.15 71.90
53.06 53.78 55.42 55.91 56.63 59.37 61.52 62.98 64.18 65.94 69.25 71.23 71.40 71.79 71.60 71.10 71.98 68.44 68.90 70.59 70.19 66.59 67.52 70.45 71.29 71.34 71.65 71.68 71.22 71.19 70.64 69.52 68.07 69.31 69.51 70.15 69.65 70.55 71.31 72.79 72.80 72.78 71.36
51.66 53.15 53.30 53.48 55.21 57.99 60.08 61.30 57.56 53.77 52.70 51.43 55.24 65.06 72.03 63.57 58.14 52.52 52.34 53.06 54.88 52.88 66.62 70.55 70.52 71.05 70.57 70.75 70.97 71.72 71.61 69.94 70.86 71.03 70.41 70.42 70.22 70.39 70.88 72.32 72.56 72.72 70.86
51.09 51.50 51.89 51.46 54.05 56.15 58.05 60.26 60.12 61.79 54.51 52.16 49.98 52.34 53.43 61.72 52.34 50.89 50.53 49.98 50.71 53.43 71.04 70.64 70.98 71.48 70.99 71.17 71.54 71.46 71.84 72.91 73.44 71.83 71.45 71.46 71.33 71.50 70.05 71.40 71.41 71.30 71.20
50.45 49.36 50.36 51.77 52.92 54.87 56.49 58.46 60.92 60.96 61.73 64.52 58.24 52.34 51.25 49.98 47.81 50.34 49.44 51.43 58.96 55.86 70.93 72.19 71.78 71.98 72.20 71.92 72.32 72.23 72.97 73.57 73.18 72.80 72.44 71.84 71.40 70.59 69.92 69.17 71.00 72.21 72.89
49.59 49.38 50.02 51.35 53.29 53.92 55.91 58.67 61.28 60.59 60.52 62.05 64.82 60.51 52.88 49.26 49.44 51.79 50.34 69.19 69.98 67.93 67.62 70.96 72.82 73.82 72.93 73.16 73.51 73.42 73.47 73.28 72.94 72.61 72.35 71.83 71.49 70.58 70.57 71.86 72.98 64.48 67.75
48.46 49.16 49.98 51.30 54.49 57.79 58.91 57.95 57.69 57.69 58.14 60.52 62.89 63.76 63.34 58.22 61.30 59.95 59.42 64.81 69.08 71.02 71.09 70.52 71.62 72.35 73.37 73.90 73.48 73.35 73.11 72.38 72.52 72.44 72.54 73.20 72.51 72.30 72.51 73.32 73.14 72.59 70.60
46.62 47.15 48.64 50.39 53.39 55.59 55.49 55.05 54.65 54.75 55.31 56.07 56.59 55.07 46.50 56.15 66.03 66.76 65.85 65.15 65.56 64.74 62.37 62.07 58.64 57.03 55.08 54.49 55.85 58.33 61.34 64.72 67.32 70.03 71.12 72.20 73.37 72.27 72.47 72.66 73.48 73.45 72.65
44.15 45.33 46.28 47.37 50.34 52.23 51.84 51.75 51.03 51.09 51.98 51.91 51.84 51.90 45.23 54.78 55.18 55.38 53.80 52.56 53.34 53.08 52.90 52.23 53.30 52.81 52.67 51.90 52.17 53.61 53.77 54.15 54.75 54.99 57.89 61.84 63.91 68.25 71.49 71.91 71.41 70.75 71.44
43.39 43.99 44.89 45.82 47.26 48.11 49.47 48.41 47.19 47.10 48.16 48.38 48.09 48.45 48.61 47.80 47.16 47.01 47.21 47.97 48.13 50.08 49.11 49.33 48.76 46.96 48.36 48.40 46.96 47.52 48.38 49.29 49.34 51.37 55.27 58.90 61.83 64.20 66.98 69.06 69.04 68.04 68.52
42.60 42.97 43.49 43.90 44.01 44.81 45.25 44.82 44.75 43.28 43.98 44.46 44.69 43.91 44.13 45.01 44.47 44.07 44.27 44.27 45.17 46.43 46.42 46.58 48.09 48.66 47.12 47.67 46.53 46.28 44.81 42.65 47.10 50.39 53.84 59.20 60.12 58.38 61.72 63.21 64.37 67.43 69.40
41.14 40.98 41.01 40.93 41.06 41.32 41.99 41.46 41.56 41.24 41.14 40.83 40.70 41.65 42.55 42.52 42.09 41.52 41.01 40.90 41.22 41.73 41.62 40.44 42.07 41.64 41.25 41.83 41.44 40.40 35.53 33.82 43.30 42.40 55.81 56.41 56.05 57.16 58.63 59.31 59.37 60.82 60.81
39.78 39.68 39.46 39.63 39.23 39.26 39.16 38.65 38.55 38.81 38.65 38.58 38.78 38.99 39.32 39.16 39.67 39.67 39.88 39.76 40.09 38.75 38.89 38.73 39.00 39.21 38.61 37.82 36.73 34.93 34.40 34.86 39.21 36.19 50.73 53.12 53.82 53.18 55.02 53.88 55.69 55.02 56.05

GFSGL_sfc_wetblb_093.txt.gz
Wetbulb
72.99 73.82 74.09 73.32 73.35 73.81 73.48 74.89 75.81 76.59 76.94 77.00 77.34 77.40 77.26 77.26 77.75 77.58 76.90 76.62 76.63 76.67 76.63 76.34 76.26 77.29 76.00 76.14 76.75 76.60 75.65 74.90 72.33 73.68 76.11 77.45 78.55 78.58 79.25 79.92 78.73 78.07 76.63
73.05 73.69 73.35 73.74 73.49 73.02 73.13 73.53 75.08 75.69 76.86 77.00 77.08 76.86 76.84 77.06 77.64 76.95 76.57 76.19 75.85 75.83 76.20 76.56 76.10 75.77 76.65 77.18 76.05 76.59 76.10 76.92 74.91 74.25 76.19 75.87 77.28 78.90 79.30 79.16 78.15 77.15 77.72
72.20 71.56 72.67 72.99 72.90 73.26 73.35 73.71 74.01 74.64 75.70 76.42 76.74 76.56 76.57 76.59 76.92 77.26 77.14 76.81 76.64 76.59 76.36 76.31 76.20 76.45 76.42 76.40 76.86 76.26 75.98 76.27 76.37 74.92 74.29 75.86 76.69 77.70 77.54 78.35 77.94 78.01 76.52
72.33 71.21 71.98 72.76 73.52 73.34 74.31 74.44 73.86 74.14 74.45 75.03 75.75 76.00 76.53 76.89 76.87 76.90 76.80 77.03 76.95 76.63 76.91 76.74 76.43 76.33 76.42 76.83 76.34 76.84 77.03 76.50 76.34 75.30 74.41 74.34 75.26 77.22 77.12 74.91 73.25 75.05 75.34
72.52 72.22 72.33 73.37 73.81 73.77 73.89 74.27 74.49 74.27 74.12 74.97 75.03 75.23 75.89 76.08 76.10 76.89 76.89 76.73 76.74 76.78 76.89 77.02 76.69 75.64 72.64 73.40 75.28 76.16 76.76 75.39 74.20 73.66 73.17 73.31 73.33 73.48 74.37 74.27 73.15 74.18 76.06
70.99 71.70 72.86 73.30 73.31 72.97 73.23 73.23 73.59 73.98 74.13 74.17 74.31 74.42 74.56 74.32 68.25 68.17 74.04 76.69 77.17 76.80 76.39 76.84 77.23 73.46 72.87 68.39 68.03 68.45 72.51 75.82 74.94 73.33 72.59 73.07 75.31 75.03 74.36 73.78 73.85 72.91 71.12
63.36 66.69 71.95 72.86 72.87 73.08 73.06 72.98 73.04 72.99 73.68 73.68 73.74 73.83 74.55 75.56 65.41 66.31 68.43 76.58 76.79 76.89 76.88 76.78 76.35 75.90 73.60 76.51 70.06 66.82 67.27 66.30 68.39 75.64 74.59 74.72 75.56 76.03 76.22 75.50 75.58 74.70 73.75
60.20 61.21 62.75 65.33 71.92 73.21 73.11 72.89 73.01 72.77 72.84 73.83 73.53 73.83 74.32 74.56 64.68 64.20 66.38 75.25 76.92 76.92 77.01 76.87 76.73 76.96 76.67 76.48 76.59 76.22 76.43 76.62 76.09 74.19 75.27 76.13 76.92 77.59 77.35 76.84 76.00 75.59 75.53
58.53 59.43 61.08 62.57 64.21 66.51 72.00 72.72 72.86 72.28 72.45 72.41 73.03 73.73 73.78 74.61 62.83 62.47 65.71 73.24 74.33 76.41 76.59 76.92 77.06 77.09 71.60 66.44 75.40 75.46 75.89 75.73 71.22 66.97 66.88 66.68 66.49 65.80 68.71 74.58 73.60 73.23 72.13
58.44 59.23 60.85 62.35 62.70 63.94 66.04 68.10 70.98 72.67 71.43 71.73 71.85 73.16 69.79 74.36 64.67 60.56 64.42 72.41 72.83 72.59 75.69 77.30 66.92 73.22 66.41 62.66 74.40 75.23 74.31 74.62 75.29 75.90 76.31 72.17 67.71 72.24 64.41 72.91 74.83 72.82 72.58
58.65 59.26 60.02 61.73 61.87 63.65 65.40 67.13 67.92 70.19 72.01 72.84 72.59 73.13 73.29 72.51 73.04 59.61 58.62 73.05 72.62 72.61 72.12 72.58 73.52 63.07 61.34 59.11 62.38 76.41 74.68 75.03 73.48 75.89 75.71 75.46 75.86 76.11 76.18 75.89 76.19 75.03 73.26
58.00 58.39 59.34 60.00 61.37 63.80 64.12 63.66 65.28 68.73 69.33 69.64 72.29 72.34 73.09 74.05 64.62 61.23 57.19 59.40 68.07 73.40 73.74 73.87 74.09 60.18 57.56 57.38 60.32 64.51 63.14 64.41 74.55 74.24 73.98 73.39 73.88 74.57 75.65 76.67 77.79 77.13 77.13
58.91 56.91 57.57 58.69 60.28 62.14 62.05 62.42 63.76 66.28 68.87 69.05 69.78 70.29 71.43 73.82 74.03 59.24 56.41 56.49 58.74 70.10 73.84 70.58 63.10 57.05 55.77 58.65 57.52 60.29 59.59 71.10 73.15 73.21 72.73 73.01 74.44 75.71 77.60 77.09 77.54 78.36 78.26
58.42 58.25 56.67 57.34 57.63 58.38 60.17 62.20 63.56 64.03 66.37 67.82 68.79 70.18 71.08 72.85 73.96 74.54 70.05 66.15 58.80 63.14 65.98 70.83 69.05 66.33 64.77 68.69 69.34 65.18 70.76 74.18 74.01 73.70 73.50 74.57 75.86 76.04 75.52 76.01 75.26 75.46 75.14
57.20 57.84 57.61 56.02 57.15 57.43 58.57 59.04 60.78 63.44 63.72 65.64 67.92 71.28 71.61 71.92 73.76 68.92 70.35 73.71 71.92 68.79 69.72 72.99 73.10 73.06 72.81 72.77 73.57 74.92 75.23 75.06 73.76 74.28 74.47 74.32 74.68 75.23 75.22 75.86 75.33 75.23 74.07
55.15 56.56 56.65 56.02 56.10 56.43 57.62 57.89 55.00 52.82 52.48 51.22 50.13 54.49 67.26 63.50 57.98 54.66 53.75 53.75 53.94 53.94 67.88 72.18 72.86 72.69 71.63 71.87 72.17 72.29 73.58 72.96 74.80 74.69 74.65 74.71 74.63 74.88 75.24 75.49 75.33 74.87 73.86
53.14 54.40 56.00 54.53 55.25 54.45 55.51 56.06 56.95 58.29 52.12 51.03 48.50 48.32 47.77 54.00 52.12 49.77 49.58 49.95 50.31 54.48 71.12 72.38 72.93 72.43 72.12 72.02 72.35 72.07 72.83 74.38 76.52 74.69 74.79 75.31 75.51 75.29 74.37 74.12 73.55 72.96 73.02
53.12 50.62 53.62 54.50 54.96 54.80 54.55 55.87 57.66 58.69 60.40 62.85 57.38 56.11 53.21 46.32 47.95 50.31 50.49 53.57 61.20 56.61 70.40 71.82 73.03 72.83 73.15 72.79 72.51 72.23 72.99 73.48 74.90 75.14 75.35 75.97 75.83 74.68 73.04 72.52 72.18 71.50 71.22
51.82 51.50 54.18 54.40 54.78 54.28 55.35 56.90 57.66 59.92 60.62 59.99 62.11 59.75 55.13 50.85 47.77 48.50 50.49 67.08 69.39 70.11 67.47 70.20 72.31 73.62 74.17 74.58 74.56 73.58 73.39 73.84 74.48 74.83 75.89 75.83 75.22 74.03 72.44 72.19 72.01 63.35 67.48
50.07 50.25 50.75 52.40 53.15 53.80 56.01 57.60 58.29 58.13 58.28 57.75 59.50 60.33 56.17 55.61 63.47 65.01 60.48 64.82 68.62 71.85 73.00 70.52 71.12 72.59 73.93 74.57 74.59 73.78 73.75 73.01 74.67 75.02 75.16 75.54 75.67 74.48 72.73 73.38 73.11 73.05 72.76
48.80 51.20 50.20 50.49 52.10 53.31 54.72 55.63 56.33 56.26 55.83 56.46 57.04 55.84 45.78 51.25 57.56 64.69 67.15 66.14 67.74 70.32 66.34 63.07 62.71 62.21 61.58 61.33 63.46 65.27 65.74 66.10 64.51 64.51 65.86 68.69 71.62 73.14 73.82 74.06 73.80 73.95 73.96
49.69 50.04 50.54 50.26 50.88 50.74 52.45 53.67 53.32 53.53 52.59 52.67 53.26 52.66 45.40 54.55 53.84 55.53 54.77 54.19 53.47 53.48 55.33 56.05 55.73 54.91 54.21 56.25 57.78 59.10 59.81 59.19 58.00 57.68 59.58 61.17 63.53 65.76 67.63 69.72 71.91 72.28 73.65
48.13 48.78 49.60 50.14 49.76 49.07 50.06 51.37 50.19 50.16 49.28 49.19 48.90 48.28 48.79 48.49 49.10 48.54 49.66 51.31 51.06 50.46 51.23 52.50 52.68 51.56 52.93 52.52 52.05 53.02 55.67 55.34 56.44 56.72 59.03 60.28 61.84 63.85 65.15 66.41 69.39 70.08 71.71
46.49 46.67 46.86 47.43 47.47 47.06 47.58 47.16 46.67 44.56 45.27 45.57 45.71 45.22 44.76 44.62 44.11 43.95 45.03 45.71 44.25 44.65 46.53 48.55 47.79 49.14 50.11 50.02 50.51 50.02 50.84 51.87 55.95 56.87 57.18 60.13 60.67 59.95 63.56 63.15 63.11 64.95 68.06
41.90 42.59 43.52 44.00 43.79 44.03 44.71 43.95 43.16 43.03 42.79 42.16 42.08 42.44 42.62 42.79 41.99 41.46 41.51 41.57 41.63 42.04 41.68 42.97 43.43 42.59 43.22 42.58 42.66 43.74 38.09 36.17 46.78 42.51 57.97 58.44 59.00 60.46 61.66 62.60 62.24 63.63 63.89
40.01 40.24 40.49 40.77 40.77 40.78 41.29 40.78 39.92 39.75 39.86 39.17 39.75 40.02 39.94 39.71 39.93 40.14 40.63 39.97 39.47 39.17 39.09 39.48 39.84 39.57 39.66 37.99 36.41 34.27 32.14 32.35 42.21 36.90 56.40 57.05 56.96 57.97 59.19 58.71 58.84 58.19 59.00

GFSGL_sfc_wetblb_096.txt.gz
Wetbulb
75.77 76.27 76.44 76.20 76.84 76.93 76.02 76.36 76.90 78.17 78.33 78.27 78.74 78.59 78.11 77.79 78.25 78.63 77.80 76.96 77.46 77.05 77.31 77.20 77.11 78.09 75.93 75.35 75.81 75.74 75.02 74.67 72.44 73.22 75.72 77.97 78.88 78.84 79.51 80.19 78.85 78.35 75.93
75.77 75.63 75.95 75.75 76.57 76.11 76.01 76.20 76.74 77.16 78.40 78.19 78.18 78.88 78.56 78.43 78.76 77.91 76.20 76.44 76.81 76.52 77.05 77.17 76.83 76.10 77.83 78.07 75.87 77.06 76.59 76.71 74.40 74.59 77.70 76.14 78.31 79.15 79.35 79.36 77.71 76.77 77.98
75.14 74.89 75.05 74.96 75.23 75.50 76.08 76.64 76.43 76.48 77.05 77.35 77.69 77.84 78.18 78.51 78.46 78.82 77.68 77.00 77.00 77.06 77.40 77.27 76.71 76.80 77.01 76.34 77.03 76.20 75.95 76.13 76.49 74.57 74.48 76.06 76.67 77.16 78.16 79.23 78.30 78.01 75.71
73.36 74.32 74.43 74.87 75.27 75.36 76.39 76.88 76.79 76.79 76.54 76.53 77.11 77.45 77.94 78.30 78.27 78.17 78.24 78.06 77.89 77.09 78.02 78.02 77.32 76.07 76.85 77.34 77.19 77.77 77.61 76.86 77.64 75.28 74.85 74.60 74.63 77.86 76.68 74.61 73.24 74.37 74.62
73.54 73.15 73.99 75.41 74.60 75.22 75.77 75.85 76.74 76.89 76.75 76.79 76.33 76.27 76.94 76.88 76.96 78.18 78.05 77.86 78.28 78.10 78.21 78.40 77.87 75.57 72.42 73.16 75.31 77.88 77.97 75.83 74.74 73.83 73.09 72.80 72.60 73.34 74.72 74.12 72.98 73.67 76.62
68.92 72.30 74.31 74.43 75.27 75.26 75.88 76.27 76.36 76.48 76.78 76.78 76.44 75.85 75.47 74.64 68.77 68.08 74.34 77.57 78.02 77.94 77.40 78.38 78.53 74.39 73.88 69.43 68.95 69.01 72.30 76.23 75.62 73.12 71.36 71.94 76.85 75.35 74.84 73.42 73.69 72.99 71.92
63.06 66.25 69.52 71.44 73.02 74.20 75.14 75.39 75.67 75.87 76.33 76.21 76.45 76.38 76.00 75.94 65.92 65.69 68.88 76.39 76.85 77.57 77.96 77.85 77.53 76.71 75.37 77.99 70.59 67.62 67.82 66.79 68.23 75.71 75.13 75.19 75.81 76.25 77.02 76.56 77.46 75.73 74.69
61.57 61.83 64.08 67.26 67.42 70.03 73.77 74.64 75.47 75.39 75.37 75.59 75.74 76.37 76.16 76.41 65.62 63.52 66.43 75.69 77.13 78.23 78.05 77.83 78.33 78.27 77.65 77.28 77.66 77.35 77.10 77.09 76.51 75.50 76.09 76.41 77.64 77.80 78.06 78.64 78.07 77.62 77.45
62.46 60.95 61.52 63.12 63.57 65.19 68.02 70.71 71.09 75.10 75.06 75.32 75.55 75.95 76.20 76.44 63.38 62.83 66.45 73.97 73.47 76.88 77.86 78.90 79.12 78.95 72.59 66.78 77.00 76.57 76.66 76.19 71.78 66.97 67.57 67.09 66.37 66.10 69.91 75.93 74.24 72.98 71.35
63.29 62.65 61.71 61.81 62.63 62.83 64.41 65.91 69.47 70.34 73.29 74.07 74.25 75.58 71.74 76.15 65.88 60.71 64.99 74.03 74.33 72.14 75.76 78.54 68.13 74.65 67.25 64.06 76.68 76.73 75.58 75.69 75.23 75.76 76.49 73.43 69.77 74.15 65.51 74.37 75.45 73.02 71.95
63.24 64.04 63.91 62.20 61.65 62.44 64.56 65.79 65.23 67.51 70.29 71.35 72.14 74.67 75.15 74.28 75.15 60.01 58.81 74.07 73.95 73.87 73.05 72.17 73.14 63.55 62.45 60.83 62.18 77.98 76.23 75.87 74.07 75.42 75.93 75.83 76.43 76.43 76.74 77.20 78.32 75.64 73.22
60.40 62.44 63.81 63.98 62.68 62.21 63.75 64.38 64.85 65.62 66.25 71.16 69.91 70.03 73.05 75.32 67.27 63.88 57.79 59.13 69.54 74.61 75.41 75.00 75.47 60.32 57.62 58.90 61.98 65.39 62.86 65.12 74.86 71.96 72.14 72.93 73.45 73.51 74.22 76.49 80.66 80.09 78.74
57.67 59.39 62.26 63.74 63.21 63.41 62.20 61.61 63.86 65.48 65.74 66.32 69.97 69.86 69.91 71.61 74.77 61.70 58.44 57.29 58.81 69.33 74.83 71.77 62.36 56.88 54.01 57.93 57.80 60.65 60.45 72.86 72.81 71.32 71.48 72.80 73.76 74.35 78.93 79.48 80.48 81.77 81.35
55.87 57.67 60.18 61.68 62.20 62.50 62.11 61.00 59.14 60.24 63.39 65.56 65.98 68.75 70.07 71.17 72.97 74.13 74.77 67.42 59.95 64.99 66.21 70.54 69.49 66.51 63.42 68.24 69.76 66.05 71.85 73.68 73.15 72.84 73.32 74.43 75.09 74.36 74.01 75.77 75.41 76.03 75.94
55.28 56.51 58.75 60.06 61.38 62.01 62.24 60.32 58.12 59.58 58.47 61.53 63.05 66.25 66.34 67.45 71.27 61.03 60.05 72.67 76.89 70.58 69.91 73.56 73.49 73.39 73.88 74.43 74.40 74.82 75.12 75.03 73.58 74.66 74.87 74.80 74.69 74.33 73.92 75.10 75.34 75.32 74.50
54.04 55.35 56.82 58.49 59.56 60.46 60.73 61.03 52.92 51.85 50.72 48.73 47.62 53.69 63.26 57.80 52.91 51.43 50.16 51.61 53.24 54.69 70.38 72.09 73.74 74.57 74.81 75.09 74.85 74.50 74.86 73.05 75.35 75.49 75.26 74.89 74.46 73.90 73.22 74.00 74.91 74.86 74.19
53.61 54.84 56.71 55.89 58.00 59.11 59.65 59.81 59.16 58.49 50.19 48.74 48.60 48.17 46.90 49.35 47.81 46.54 45.81 46.72 48.35 53.79 71.33 73.37 73.08 74.50 75.18 75.92 75.29 73.40 73.44 75.03 77.20 75.38 74.63 74.51 74.44 73.57 72.65 73.76 74.54 75.05 74.92
54.24 51.11 54.85 56.48 56.92 58.22 59.02 59.62 59.77 59.40 58.22 60.44 54.75 52.42 52.66 47.44 45.45 45.45 44.72 48.35 61.46 57.35 71.22 72.70 73.82 74.51 75.32 74.54 73.75 73.66 74.33 73.99 75.45 75.96 74.63 74.53 74.45 74.16 74.13 74.45 74.86 75.14 75.69
53.86 54.19 55.04 55.64 56.92 57.05 58.26 58.49 58.91 59.76 60.07 61.37 60.48 57.02 57.46 50.11 47.62 46.36 45.09 59.05 66.98 70.51 67.77 70.05 73.26 74.41 75.97 77.20 76.25 75.49 75.47 75.02 74.54 74.84 74.73 75.46 76.45 76.19 75.40 75.40 75.73 66.40 69.47
51.88 52.30 52.99 54.20 54.54 56.64 57.45 58.00 58.63 59.59 60.31 60.58 60.33 59.37 60.83 57.69 58.51 60.66 61.27 60.36 65.58 71.38 71.58 70.66 71.52 72.88 74.05 75.36 75.89 76.97 76.49 74.88 75.60 74.49 74.26 76.21 77.52 77.49 75.61 75.84 75.42 74.90 75.31
49.72 51.52 52.59 52.69 54.67 55.92 56.82 57.42 58.24 58.55 58.89 59.07 59.49 57.66 45.27 54.33 54.48 57.69 60.12 62.12 65.50 66.94 68.43 72.47 71.00 67.19 63.95 63.73 64.61 66.76 70.12 73.47 74.04 74.85 75.08 72.85 74.00 73.72 74.82 74.45 73.62 73.92 74.16
47.48 49.00 50.74 52.74 55.31 55.84 56.52 56.20 55.42 56.71 57.27 56.50 57.67 57.08 46.08 53.47 54.26 53.55 54.69 53.80 54.34 55.49 56.65 58.68 57.61 57.13 57.13 57.80 59.76 60.42 61.39 61.84 62.32 62.66 63.88 64.72 64.99 65.97 67.44 68.54 68.95 70.66 72.18
47.90 48.30 49.84 51.93 53.12 53.18 53.93 52.63 52.75 53.61 55.18 55.23 54.19 53.15 50.89 49.84 49.68 48.92 49.38 50.36 51.85 52.13 53.28 53.59 54.27 53.62 53.40 55.05 54.50 54.01 55.59 56.61 57.91 59.07 60.04 61.96 63.34 64.46 66.65 67.80 68.94 70.40 71.94
46.30 46.78 46.85 48.14 50.11 51.68 52.91 50.98 50.71 47.71 49.09 50.54 50.22 49.64 47.52 46.55 45.54 44.54 44.80 45.95 46.15 46.58 48.29 47.91 47.35 47.75 48.20 48.18 48.75 48.75 46.80 46.36 48.47 56.35 59.33 61.60 63.93 62.78 66.25 66.28 65.23 64.76 66.01
42.96 42.99 43.19 44.05 45.11 46.06 47.20 47.85 48.19 48.60 47.56 46.51 46.37 45.00 44.17 43.74 42.87 42.39 42.60 42.13 43.41 44.13 43.41 43.74 44.63 43.72 42.96 42.27 41.85 40.97 36.79 34.21 48.62 44.53 59.00 60.35 60.71 62.63 64.14 65.17 64.57 65.06 63.55
40.84 40.46 40.30 40.70 40.99 42.03 42.22 43.20 44.09 43.90 43.36 42.56 42.86 42.25 41.55 40.47 40.79 40.71 40.71 40.40 40.48 40.12 39.83 40.07 41.82 42.05 41.60 40.42 37.68 36.85 34.34 33.18 43.78 37.98 55.77 58.36 59.78 59.93 62.39 62.27 61.65 62.53 62.03

GFSGL_sfc_wetblb_099.txt.gz
Wetbulb
77.27 77.75 78.60 77.50 77.88 78.18 77.21 77.02 77.12 78.55 78.26 78.25 78.57 77.97 77.53 77.08 77.63 78.70 78.70 78.42 77.71 78.11 77.70 77.47 77.65 79.82 75.94 74.89 75.19 75.14 74.58 74.54 72.12 73.94 75.08 78.19 81.02 81.40 79.81 81.11 78.87 79.62 73.81
76.37 76.86 77.11 77.60 77.55 77.46 77.40 77.17 77.49 77.99 79.03 78.27 78.68 78.58 78.35 77.92 79.32 77.63 76.66 76.16 76.45 76.23 76.26 77.42 76.61 76.08 79.28 79.93 75.90 79.27 76.65 77.79 73.85 75.83 76.39 75.90 79.81 81.81 82.10 82.05 78.17 77.04 76.62
76.58 76.56 76.91 77.11 76.98 77.08 77.25 77.66 77.78 78.44 78.19 77.72 78.77 78.94 77.78 78.30 78.90 79.10 78.19 76.93 77.05 77.02 76.89 76.66 76.44 77.37 78.19 77.09 78.72 76.91 75.65 76.47 77.27 74.97 74.37 75.42 76.56 77.31 78.87 80.45 81.07 80.10 75.79
72.69 73.41 76.70 76.98 77.28 76.90 77.15 77.95 77.87 78.48 78.10 78.57 79.47 79.39 78.49 78.49 78.02 77.61 78.47 79.04 78.10 77.08 77.48 77.32 77.39 76.96 77.82 79.09 78.19 79.73 78.53 77.20 76.49 74.98 74.57 74.74 74.89 78.65 76.77 74.73 74.27 74.81 73.93
71.25 73.72 73.86 76.47 76.46 76.86 77.04 77.29 77.62 78.42 77.84 78.65 78.36 78.32 77.72 77.44 76.60 78.74 78.80 78.63 79.28 78.83 78.53 78.27 78.08 76.29 73.13 74.45 75.12 78.27 79.80 76.92 74.25 73.78 73.16 72.86 72.21 74.01 74.82 73.92 73.88 73.47 76.09
64.75 67.03 70.64 73.86 75.21 76.14 76.20 77.25 77.35 77.10 78.75 78.90 77.93 77.83 77.28 74.92 68.80 68.04 73.58 77.98 79.00 79.34 78.91 79.45 79.96 74.96 73.61 69.63 69.29 69.12 72.79 76.30 77.91 72.83 71.09 71.50 77.20 74.97 73.96 73.16 73.56 72.04 71.31
62.93 62.14 64.78 67.13 68.84 73.21 75.35 76.08 76.55 76.93 76.82 77.72 78.19 77.86 77.90 78.37 67.83 64.93 68.01 76.50 77.72 79.10 79.35 79.93 77.86 76.14 75.44 78.39 70.92 68.48 68.98 67.13 68.24 76.14 76.03 76.34 76.58 78.26 78.57 78.47 76.72 76.66 74.65
63.77 62.94 62.21 63.96 65.27 67.26 69.00 74.80 75.47 76.68 76.56 77.09 76.25 77.44 77.99 77.98 66.73 64.61 65.71 75.41 77.25 78.36 78.75 79.57 79.34 79.52 79.61 78.94 78.97 78.08 77.87 77.71 76.77 74.48 75.49 76.87 77.98 78.93 79.04 78.35 79.53 79.88 78.18
65.21 65.08 64.58 63.50 63.87 64.57 66.56 67.60 70.55 74.17 74.31 76.03 76.30 76.99 76.96 78.28 65.05 63.11 66.47 74.68 74.48 76.12 78.03 78.88 79.47 79.82 73.82 68.06 77.95 78.57 78.81 78.48 72.30 68.44 70.10 69.48 68.46 67.69 70.83 75.71 73.37 72.50 71.42
63.70 64.87 65.99 65.81 62.80 63.13 63.86 64.45 66.17 68.70 71.95 72.32 74.10 76.20 72.62 76.89 68.15 61.12 65.09 74.94 75.04 74.58 76.49 77.03 68.69 73.67 67.97 64.56 77.53 78.20 77.33 77.93 78.06 77.14 78.02 73.20 69.46 73.75 66.35 74.17 74.98 72.44 71.98
61.53 61.90 63.67 66.16 66.09 64.46 64.07 65.12 65.49 65.64 67.62 69.07 70.33 72.54 75.08 75.25 75.45 60.85 59.11 75.47 74.92 74.54 74.68 75.24 75.00 64.04 62.53 61.75 61.67 78.32 76.74 77.53 76.36 77.63 76.68 75.85 75.33 76.71 77.95 78.15 78.25 75.83 73.68
60.18 60.23 61.18 62.81 64.84 65.45 65.46 65.00 64.26 65.81 65.87 67.66 67.16 69.77 71.75 74.82 67.72 66.04 57.62 59.17 69.63 75.01 75.43 75.64 76.21 59.84 57.69 59.26 62.39 66.28 64.36 66.69 75.85 74.74 73.74 72.49 72.52 73.27 74.58 76.85 79.97 79.71 78.87
58.11 58.63 59.61 61.43 62.47 64.41 65.26 64.85 63.24 64.56 63.83 66.48 67.20 67.41 70.21 74.46 73.58 62.44 58.70 57.58 59.04 68.95 75.35 72.22 60.81 57.32 55.63 57.61 56.40 59.14 60.67 71.97 73.65 73.39 73.24 73.22 73.48 73.93 76.92 78.57 81.20 83.14 82.18
57.00 57.50 58.39 59.09 60.85 62.44 62.75 63.77 63.58 62.01 61.04 61.17 63.19 64.30 68.68 69.35 72.37 73.05 72.89 72.65 62.54 64.81 66.01 71.08 69.31 65.76 60.30 63.85 68.66 65.28 69.93 73.57 74.02 74.30 74.56 75.21 74.97 74.24 74.56 75.81 74.97 74.88 75.12
56.33 56.45 57.19 57.99 59.29 60.94 62.68 62.53 63.68 65.27 61.02 61.21 60.50 60.38 61.73 64.31 68.17 56.38 55.72 62.31 64.64 63.66 58.87 68.19 73.12 73.82 73.46 74.10 75.40 76.33 76.80 75.40 74.25 74.63 74.87 74.87 74.59 75.05 75.19 76.02 75.24 74.69 74.05
54.89 55.58 55.73 56.35 57.59 59.21 60.21 61.20 54.00 53.35 50.33 48.77 48.41 53.80 61.30 55.14 51.93 51.26 48.34 47.07 46.53 48.70 62.55 66.91 70.48 72.86 74.15 74.84 75.28 75.04 75.24 73.96 76.30 76.32 75.53 75.16 74.70 75.33 75.52 76.13 75.78 74.52 73.71
54.68 55.55 55.61 54.66 56.10 57.13 58.89 58.95 59.14 58.69 49.74 47.10 45.96 46.27 45.22 50.33 46.71 45.26 43.99 44.53 45.06 47.98 62.74 67.97 69.89 72.08 73.14 75.09 74.62 74.41 74.81 77.04 77.96 76.34 76.04 76.08 76.19 76.46 74.56 74.79 74.91 74.35 73.90
55.09 52.34 55.21 54.75 55.41 56.24 58.17 58.92 59.48 59.32 59.44 61.23 52.13 50.81 47.52 44.35 43.99 43.81 44.53 45.63 61.82 57.12 61.73 66.60 68.57 72.59 73.21 74.50 75.45 76.13 76.34 76.73 76.05 75.71 76.60 76.40 76.01 74.97 74.08 73.90 73.99 73.82 74.01
53.72 53.57 54.26 55.37 56.27 55.71 57.18 57.79 58.63 59.56 59.30 59.24 61.15 56.27 54.74 49.15 48.03 47.87 45.77 58.77 62.05 62.81 66.04 67.12 70.96 74.76 74.35 74.24 75.21 76.86 77.19 76.61 75.32 74.22 75.28 76.11 76.36 75.48 74.14 74.35 74.20 64.59 68.55
51.08 51.35 51.68 53.40 54.10 54.40 56.18 56.44 57.01 58.08 58.75 59.20 59.65 61.21 63.25 60.81 61.05 60.86 62.37 61.98 62.23 61.90 63.54 67.88 71.37 72.12 72.55 71.68 72.86 74.67 76.50 75.39 74.52 74.27 74.76 75.47 76.44 76.56 74.94 74.89 74.82 75.31 75.29
49.87 49.25 49.73 50.16 51.18 53.57 54.71 54.65 55.71 57.28 57.66 58.70 59.79 59.07 44.63 60.58 58.60 58.51 59.22 58.55 58.34 57.64 57.74 59.47 62.02 67.79 67.69 68.06 67.45 65.48 67.95 69.30 71.04 71.96 73.08 74.25 75.14 75.15 76.03 75.81 75.79 76.11 75.53
47.76 47.61 48.00 48.26 50.06 52.27 53.36 54.78 56.22 56.81 57.27 58.02 58.82 58.95 44.89 58.86 58.78 56.79 55.50 55.48 54.85 55.38 54.74 54.66 56.88 59.11 58.57 60.15 61.65 60.96 61.64 63.30 64.27 64.10 63.33 64.04 65.55 67.11 69.61 71.13 71.61 70.02 70.76
46.23 46.33 46.44 48.16 49.11 49.42 50.95 52.44 53.35 54.57 55.37 56.40 57.91 58.70 58.74 58.36 56.50 53.90 51.76 51.03 50.24 49.84 50.50 50.95 52.21 53.93 54.80 54.76 55.62 56.10 56.90 58.16 59.90 59.53 60.81 60.95 62.26 63.72 65.15 66.07 66.80 67.54 68.44
44.21 44.61 44.62 45.23 46.46 46.95 48.39 49.70 49.56 49.80 50.93 51.79 53.79 53.65 53.30 52.33 51.13 49.61 47.83 47.38 46.68 46.84 47.07 47.45 47.99 47.68 47.88 48.96 49.19 50.21 50.58 51.30 52.45 53.78 57.98 59.32 60.95 62.06 64.51 65.56 65.83 65.79 65.95
42.06 41.55 41.73 41.62 42.67 44.05 45.23 46.33 48.66 49.45 48.78 49.23 48.80 49.43 49.74 48.42 46.86 45.72 44.99 44.29 43.67 43.66 42.91 44.23 44.47 44.06 43.87 43.74 44.64 45.14 40.05 32.31 45.47 45.52 55.70 59.68 60.65 62.40 63.90 65.62 65.18 65.29 65.39
40.53 40.43 40.27 40.56 40.05 40.26 41.03 41.97 43.06 44.75 45.69 45.71 45.34 45.02 44.79 44.03 43.18 42.66 42.50 42.00 41.55 40.72 40.37 40.23 40.31 40.77 40.62 40.27 39.12 35.59 33.14 33.01 41.65 36.74 54.94 58.04 59.35 60.46 60.61 62.97 61.54 61.23 61.96

GFSGL_sfc_wetblb_102.txt.gz
Wetbulb
77.60 77.83 77.72 77.80 78.30 79.03 78.44 79.27 78.75 80.53 73.89 66.84 66.60 70.56 77.97 78.56 78.75 79.09 77.73 77.26 76.36 77.10 78.11 77.26 77.88 78.86 76.99 76.31 76.86 76.36 75.49 75.55 73.15 74.49 75.07 76.13 75.99 77.36 79.20 79.31 79.54 77.63 71.61
73.63 76.74 77.21 78.46 78.42 77.91 78.14 78.49 79.23 79.08 80.24 75.39 72.61 76.19 76.25 78.21 77.84 78.04 76.72 76.96 76.36 76.70 77.53 77.19 77.19 76.54 77.93 77.74 76.42 75.57 75.42 76.25 73.77 71.89 74.57 74.70 76.93 77.95 80.06 78.55 79.09 76.96 75.51
74.75 74.56 76.40 77.34 76.85 78.34 78.44 78.81 78.70 79.08 79.39 79.71 80.19 78.66 78.44 77.08 77.42 77.90 77.61 77.53 77.32 77.21 77.62 77.05 76.97 77.24 77.19 76.52 77.65 76.51 76.42 77.15 76.93 75.44 74.84 75.08 75.29 77.12 76.67 77.96 78.13 78.32 74.70
70.89 71.02 73.76 76.34 77.10 77.50 78.55 78.33 78.86 79.01 78.31 78.77 79.35 79.12 78.71 78.27 77.59 77.17 76.79 77.12 77.32 77.16 77.88 77.85 77.54 77.31 77.07 77.63 77.26 76.91 76.52 76.05 75.42 74.99 73.67 74.04 75.73 76.17 77.09 73.16 71.32 74.27 74.64
67.60 67.76 68.82 70.71 74.76 76.75 77.74 77.29 77.75 78.33 78.16 78.29 78.37 78.58 78.73 77.85 76.58 77.26 77.77 77.34 76.36 76.87 77.43 78.05 78.05 77.02 74.67 75.30 75.82 76.42 76.26 76.16 74.87 73.61 72.77 72.33 71.70 73.10 72.05 72.67 72.87 73.73 72.60
64.29 63.48 67.07 68.58 68.90 69.35 73.11 75.40 77.27 77.25 77.80 78.41 77.49 77.22 76.90 76.02 69.31 68.06 74.80 76.46 77.28 76.56 75.88 77.50 78.77 76.38 73.69 69.76 69.14 68.82 71.64 74.52 74.46 74.66 71.94 70.85 73.20 74.57 73.80 73.50 72.88 70.92 70.13
63.45 63.37 63.86 66.37 67.33 67.56 68.94 69.70 74.09 75.57 76.27 77.01 76.94 77.00 76.88 77.37 68.71 65.72 66.76 74.66 76.13 77.04 77.24 76.94 76.51 75.93 73.80 76.29 69.14 67.54 68.07 67.19 68.86 72.85 72.62 73.36 73.08 74.02 75.05 74.96 74.56 74.42 72.84
64.56 63.77 64.19 64.52 64.46 65.21 66.13 66.26 68.16 70.59 74.33 75.08 76.30 76.62 76.31 76.67 67.63 65.59 66.41 74.16 75.29 76.18 76.13 76.91 77.83 76.91 76.66 76.80 77.43 76.67 75.28 75.22 73.50 71.42 71.99 72.38 73.36 74.46 75.72 75.34 74.84 75.47 76.26
64.06 65.23 66.26 65.97 64.33 63.76 64.53 65.36 65.75 67.25 68.93 72.62 74.59 75.04 75.95 76.01 67.45 62.54 65.68 74.51 74.55 74.54 74.50 76.08 76.40 76.30 72.68 68.60 75.51 75.87 76.53 77.05 72.86 69.19 69.52 68.86 68.77 68.83 71.44 75.30 72.93 71.30 69.56
61.90 62.52 63.20 65.47 66.79 65.30 64.49 65.12 66.78 66.52 67.74 68.83 69.91 73.58 71.65 75.22 67.67 63.54 64.42 74.02 74.44 74.55 75.25 75.25 67.79 71.59 66.85 65.10 74.25 75.87 74.18 74.78 75.55 76.09 75.46 70.40 68.34 70.74 66.26 72.20 73.58 70.86 70.54
60.41 61.72 62.47 63.06 63.97 66.62 66.97 67.75 65.97 64.90 65.59 67.29 67.49 70.33 71.66 72.57 74.37 62.78 59.60 72.28 74.59 74.44 74.45 74.24 75.01 64.02 61.47 61.12 61.62 74.67 74.33 74.90 74.21 75.34 75.91 75.59 75.27 74.96 75.44 73.99 73.55 72.58 71.55
60.16 59.82 60.92 62.11 61.89 62.20 65.10 67.41 67.18 66.57 65.10 65.75 67.35 67.97 69.80 71.96 66.60 65.63 60.47 58.44 67.55 73.28 73.52 74.34 74.47 59.82 56.46 54.98 57.75 62.15 62.53 65.71 74.43 74.16 73.77 73.14 72.67 72.30 72.60 73.45 75.96 76.10 75.98
58.67 58.73 59.44 60.50 61.22 62.18 62.98 64.74 65.44 66.23 65.12 63.87 62.49 64.53 66.65 70.66 71.71 63.41 57.66 56.44 57.96 63.80 70.28 68.01 59.29 58.20 57.46 60.64 57.96 58.17 59.25 68.02 70.45 71.64 71.67 72.06 72.64 72.91 72.98 73.13 73.60 78.79 77.51
56.51 57.36 58.44 58.63 58.70 60.24 60.38 61.18 61.73 62.88 63.95 63.52 63.03 61.15 61.36 61.58 66.12 66.86 65.19 64.08 61.94 64.53 64.74 64.42 62.70 60.10 59.93 63.89 65.35 68.25 68.44 69.02 70.42 70.68 70.80 71.85 73.13 73.28 72.75 72.70 70.63 70.52 75.44
55.35 55.86 56.42 57.18 57.98 58.32 59.51 60.02 61.11 62.98 61.99 63.10 63.35 61.98 60.12 59.46 60.98 54.14 57.03 60.58 60.84 59.01 56.06 61.73 64.72 67.60 71.07 72.71 72.81 73.01 72.91 72.06 70.46 71.43 71.68 72.15 72.84 73.44 72.95 73.02 71.62 71.61 71.66
53.19 54.19 55.37 55.73 56.37 56.83 57.05 57.98 55.61 51.44 50.94 48.79 48.59 55.51 60.55 53.73 49.45 47.80 46.06 44.37 45.64 46.35 55.29 59.42 63.27 67.00 68.94 71.10 71.88 73.30 73.80 72.19 73.97 73.50 72.93 72.74 72.31 72.52 72.66 73.08 73.13 72.20 71.27
51.96 53.32 54.89 55.01 56.23 56.30 56.66 57.07 56.59 58.40 51.04 47.41 45.76 45.98 45.94 50.53 47.57 44.35 43.65 44.37 43.81 46.55 55.01 60.75 64.54 66.95 68.28 70.02 71.48 72.56 72.33 73.40 74.81 74.77 73.97 74.00 73.29 72.99 71.56 71.96 72.21 72.33 71.68
51.25 50.77 53.56 54.91 55.06 56.16 55.88 55.90 55.97 56.04 57.93 59.27 53.13 48.94 46.24 45.00 44.45 43.43 43.65 44.39 58.03 57.43 58.52 62.72 65.47 66.77 68.18 69.44 70.67 72.13 72.73 72.50 73.33 70.92 70.29 73.00 73.13 73.58 73.07 72.58 72.69 72.48 71.90
49.75 50.44 51.46 52.52 53.71 53.54 54.12 55.17 56.50 56.88 57.36 58.45 60.11 56.48 51.70 46.62 43.05 43.21 43.71 57.29 60.14 61.16 61.08 61.99 63.87 65.28 67.76 69.72 71.66 72.24 73.04 72.31 70.97 71.72 71.88 72.46 70.45 73.19 72.17 72.39 72.29 63.58 66.18
49.12 50.08 49.54 49.25 50.66 52.05 53.08 53.96 54.84 54.95 56.60 57.36 58.13 58.68 60.43 58.20 58.88 61.43 63.17 61.97 62.38 60.71 59.46 59.61 60.64 60.66 61.91 63.75 69.79 72.03 71.92 71.54 70.84 69.14 68.08 69.06 71.06 73.30 72.94 72.68 72.56 71.95 72.18
47.78 47.44 48.38 48.30 48.40 50.34 51.10 52.47 53.01 54.10 54.77 55.24 56.12 57.66 47.81 59.41 60.55 61.04 60.97 60.41 58.69 56.95 56.08 55.38 55.72 56.48 58.73 60.15 61.40 64.85 66.18 67.92 67.83 67.87 68.34 66.52 68.46 70.54 71.79 72.01 71.99 72.07 71.86
46.08 46.08 46.66 46.27 46.86 47.78 49.73 51.22 50.80 51.95 53.07 53.86 54.88 56.62 46.01 56.69 58.87 59.96 59.99 56.72 55.26 54.46 54.03 53.02 52.93 53.85 55.36 56.06 57.28 57.44 58.55 60.76 62.65 64.12 64.50 64.86 64.75 65.02 65.75 66.09 67.74 70.92 69.23
45.01 44.70 44.75 45.08 45.29 46.56 46.86 48.85 49.53 50.17 50.41 51.95 54.02 54.34 55.29 55.92 54.61 53.51 53.10 52.17 51.26 50.61 50.41 50.04 50.08 50.09 51.07 51.16 52.38 53.55 53.45 54.55 55.94 55.47 57.26 60.55 61.82 63.24 64.03 64.44 65.12 66.00 66.74
43.69 42.49 42.24 42.74 43.12 43.34 43.90 44.88 47.40 45.70 48.17 49.95 50.60 51.37 51.41 52.02 52.06 51.60 50.32 49.78 48.61 47.29 47.50 46.88 46.63 47.06 46.25 46.84 48.06 47.91 48.77 48.45 46.77 50.80 54.70 57.16 59.44 60.44 62.51 63.46 64.18 65.57 65.63
43.42 41.38 40.57 40.20 40.70 40.91 41.53 41.71 42.52 44.02 44.98 45.97 47.68 49.26 49.73 48.62 48.15 48.27 47.54 46.59 45.39 44.60 43.76 43.75 43.77 43.61 42.88 42.39 42.29 41.95 39.62 32.41 37.97 41.63 50.02 56.38 58.22 60.53 61.98 63.30 64.80 64.67 64.70
43.28 42.63 40.48 39.76 39.50 39.47 39.47 39.45 39.47 40.14 40.98 42.14 43.54 44.92 45.75 45.94 45.54 44.86 44.05 43.37 43.00 42.35 41.56 40.85 40.10 39.87 39.93 40.57 39.56 36.50 32.65 31.57 37.12 35.21 44.53 57.34 59.09 58.49 57.73 60.28 60.17 60.49 60.32

GFSGL_sfc_wetblb_105.txt.gz
Wetbulb
66.40 69.87 73.16 73.61 73.80 74.04 73.62 72.66 72.50 72.06 71.31 68.77 69.36 68.02 70.26 73.57 73.86 73.43 72.92 72.43 72.52 72.66 72.77 72.43 72.23 73.29 72.42 72.34 73.00 71.90 71.32 71.16 67.31 68.60 71.05 70.98 71.82 72.01 73.64 76.52 75.92 75.38 71.38
66.69 69.26 72.58 73.11 73.73 73.82 73.79 74.19 73.12 71.52 71.30 69.99 67.42 67.75 70.05 73.28 73.50 72.95 72.00 72.92 72.47 71.59 72.48 72.79 71.94 74.35 71.69 73.05 71.82 71.59 70.76 70.98 69.46 67.35 70.17 72.01 73.07 72.65 72.78 75.46 75.43 77.29 72.56
69.38 69.34 71.22 72.56 73.49 73.28 74.10 74.44 74.17 73.82 72.57 70.51 69.80 71.50 72.68 73.30 73.53 74.11 74.10 73.16 72.85 73.02 73.04 72.96 72.23 72.11 71.65 72.27 71.90 71.69 71.97 73.27 72.19 70.98 70.42 71.83 71.71 72.40 73.36 72.25 70.25 72.04 71.77
68.23 68.10 68.53 68.59 71.13 72.52 73.72 74.53 74.79 74.52 73.92 73.99 73.69 74.07 73.14 73.97 73.71 73.59 73.89 73.68 73.48 73.37 73.66 73.65 73.67 73.12 72.62 72.50 72.72 71.58 71.81 71.52 71.03 70.64 70.39 70.28 71.27 72.11 70.67 68.38 68.53 70.87 69.58
65.37 66.24 67.22 67.96 68.50 69.47 71.57 72.66 73.54 74.08 74.37 74.34 74.24 74.78 74.86 74.69 74.82 73.84 73.65 73.52 72.95 72.63 72.99 74.09 74.56 74.30 73.54 73.37 73.59 72.55 72.37 71.76 71.96 71.02 69.17 67.57 67.00 68.92 69.24 70.03 68.83 69.47 68.80
63.45 64.49 66.41 67.67 67.69 67.76 68.41 67.99 71.91 72.62 72.88 73.53 73.73 73.07 72.83 75.42 70.37 68.35 72.23 73.07 73.62 72.24 71.89 72.84 73.99 74.47 73.42 70.47 69.75 69.91 71.27 69.32 67.96 69.01 69.11 68.17 67.58 69.19 69.89 69.37 70.21 69.09 67.83
62.21 63.28 64.19 65.02 65.46 66.16 67.60 67.65 67.92 68.01 71.17 71.77 72.45 73.26 73.32 73.94 69.04 66.42 66.39 70.55 72.71 73.45 73.29 73.22 73.47 74.64 71.80 73.28 70.07 66.76 66.41 66.58 67.90 67.60 66.43 67.40 68.23 69.44 69.18 69.11 69.14 69.54 69.54
62.07 62.97 62.22 62.12 62.73 64.70 65.11 65.60 66.66 67.63 68.30 69.09 71.39 72.49 72.86 73.58 68.09 65.42 65.68 67.94 69.84 70.70 71.90 72.62 72.91 72.18 72.31 73.02 73.97 73.55 71.78 70.86 69.63 68.72 69.05 70.01 69.40 70.27 70.06 70.48 70.61 70.79 71.77
58.78 59.10 59.73 61.08 62.77 61.56 61.12 63.11 64.69 65.80 66.75 67.81 68.87 68.17 69.79 72.35 66.89 63.37 65.05 68.84 70.27 70.98 71.34 71.79 72.59 72.35 70.30 68.36 71.96 71.68 72.64 74.14 72.13 67.51 67.33 67.36 67.46 67.88 69.37 72.31 71.19 69.09 69.84
56.20 57.05 58.80 59.53 59.56 59.26 61.27 62.01 62.22 63.31 64.75 66.59 66.50 66.84 66.62 69.09 65.97 62.54 63.27 69.79 71.49 70.22 71.99 72.02 66.65 69.11 65.25 64.46 70.83 71.73 71.69 73.02 72.51 73.36 70.97 68.15 66.95 69.19 66.19 69.49 71.05 69.16 69.64
55.66 56.01 57.26 57.59 57.58 57.48 58.84 62.55 63.36 62.22 62.21 62.60 64.35 65.45 67.18 67.28 67.55 63.16 60.28 66.83 70.49 71.13 70.99 72.00 72.34 62.23 57.91 57.07 57.91 68.62 69.98 69.63 70.87 71.94 73.00 73.28 73.10 72.63 71.77 70.60 70.86 72.06 70.73
54.70 54.64 55.15 56.24 57.25 57.76 56.74 58.41 60.66 63.32 62.74 62.05 62.18 63.49 66.26 67.45 63.71 62.23 57.10 56.56 60.51 66.60 69.41 71.55 70.58 56.88 54.57 55.47 59.19 59.74 59.29 61.53 67.17 68.21 70.75 71.26 71.80 72.24 72.63 72.18 72.45 71.69 72.47
51.53 51.99 52.84 54.66 55.53 56.50 56.46 56.48 56.20 58.52 60.54 61.56 59.24 57.33 58.70 59.33 60.13 57.57 56.02 57.97 58.85 63.07 65.29 62.36 57.65 55.98 56.26 61.32 58.37 58.49 59.06 62.10 63.55 65.14 67.05 68.66 70.35 71.97 72.30 69.84 69.25 69.45 72.55
50.09 50.34 51.03 51.11 51.95 52.54 54.09 55.03 55.15 55.72 56.76 58.97 58.96 57.03 57.29 57.48 57.41 62.54 60.34 61.07 59.30 62.49 62.02 61.37 59.79 58.44 57.82 60.64 61.77 66.78 68.98 69.93 68.85 67.82 67.84 69.15 70.39 70.37 70.54 71.23 70.63 70.72 69.80
49.23 49.98 50.06 51.12 50.62 51.02 51.68 52.88 53.85 54.47 54.94 56.48 57.07 58.18 57.19 55.80 56.78 56.23 53.82 56.09 57.26 57.06 54.21 59.64 60.56 61.42 62.51 64.65 67.23 69.97 71.52 71.17 69.55 69.03 69.43 69.57 69.81 69.73 69.72 70.94 71.05 70.88 69.44
47.53 49.00 50.07 50.81 51.76 51.59 51.07 50.92 51.35 49.51 48.00 46.80 46.08 48.95 56.16 53.55 51.06 48.72 45.74 44.05 46.23 47.50 54.83 55.68 57.49 58.98 61.10 63.27 65.32 67.29 69.36 69.91 71.11 70.87 69.94 69.78 69.61 69.70 70.19 71.02 71.58 70.60 69.58
45.05 46.36 47.97 49.12 50.85 50.15 50.52 50.60 49.83 51.42 49.72 47.79 47.45 44.99 44.21 47.03 46.33 45.74 42.77 42.06 43.67 45.65 51.67 55.39 56.53 59.26 62.40 64.60 66.12 67.00 67.49 69.22 70.85 71.02 71.11 71.12 71.48 71.44 69.68 70.08 70.17 70.09 69.90
44.99 48.03 46.76 47.16 47.74 48.56 49.22 49.23 49.95 50.09 50.60 52.44 51.16 49.42 48.79 45.56 43.92 43.88 41.39 45.11 54.03 48.87 52.72 56.00 58.33 62.29 62.05 63.14 65.20 66.13 67.19 68.25 69.52 70.77 70.62 69.99 68.35 67.13 66.55 66.90 66.27 64.66 66.80
44.99 46.18 45.92 46.60 46.30 47.35 47.87 48.71 49.36 50.08 50.78 51.53 52.77 52.39 51.31 47.86 43.89 41.57 42.01 52.38 55.78 55.73 58.22 58.16 58.74 59.36 59.73 60.11 59.99 62.38 64.58 66.75 68.93 69.94 69.65 69.92 69.02 66.86 66.12 66.23 65.39 59.29 61.30
44.63 49.08 47.87 44.55 45.14 45.73 46.75 46.95 47.72 48.47 49.34 50.07 51.11 51.97 52.21 52.12 52.77 54.39 51.59 53.47 55.94 57.56 55.58 55.10 55.58 56.10 55.15 55.03 56.12 58.98 59.87 63.50 65.44 66.72 69.07 69.77 68.87 68.05 66.79 65.53 64.66 63.82 64.10
42.33 42.47 46.37 43.11 43.48 44.43 45.73 46.20 47.06 47.92 48.10 48.91 50.13 51.68 47.45 48.74 52.34 54.05 56.92 57.56 54.76 53.19 52.18 53.46 52.87 52.54 52.44 52.86 53.67 55.02 56.78 58.21 59.71 62.02 63.85 65.50 67.13 65.88 65.81 67.34 67.67 67.74 67.63
41.53 41.21 41.33 41.20 42.26 42.97 43.80 44.90 45.39 45.87 46.85 47.42 48.34 49.89 46.46 50.08 52.14 50.85 50.32 50.37 50.04 49.07 49.23 48.33 48.07 49.88 50.32 50.53 50.89 50.49 50.96 52.96 55.32 57.87 58.05 59.83 62.04 63.49 64.60 65.34 66.11 66.29 67.26
39.88 39.16 38.74 39.12 40.24 41.65 41.04 42.39 42.89 43.49 44.42 46.13 47.05 47.39 49.21 49.70 50.39 49.61 50.16 48.46 47.41 46.47 46.16 45.67 46.45 47.23 47.82 48.46 48.05 47.66 48.15 48.78 50.68 51.91 52.28 54.66 56.88 58.93 61.20 62.03 63.33 63.87 64.75
39.07 38.28 37.78 37.56 38.24 38.55 38.90 39.43 40.74 40.84 41.66 42.31 44.07 45.63 46.79 48.10 47.61 48.80 47.01 47.74 46.80 45.93 44.29 44.90 44.80 44.50 44.66 44.75 44.81 44.80 44.99 45.60 45.30 43.77 45.93 49.53 53.38 55.42 59.05 60.54 61.46 62.46 63.50
39.43 38.83 37.57 36.40 36.39 36.57 37.11 37.70 38.65 39.28 39.54 39.93 40.58 40.98 42.51 44.27 45.44 46.09 45.62 45.00 44.26 43.72 43.28 42.34 42.30 41.90 41.34 41.21 40.92 41.65 39.05 33.75 36.11 36.44 41.09 46.09 50.58 54.76 57.34 59.91 61.19 63.09 63.81
40.28 41.10 38.07 39.74 38.71 36.95 36.33 37.00 37.18 37.28 37.46 38.61 39.31 39.85 41.10 41.30 42.41 43.34 43.56 43.12 42.17 41.24 41.40 41.13 40.22 39.65 39.07 38.53 38.32 36.29 33.21 31.72 34.23 33.48 38.31 45.57 50.25 55.54 58.31 58.66 60.23 59.99 59.92

GFSGL_sfc_wetblb_108.txt.gz
Wetbulb
66.29 67.70 69.17 71.27 72.75 72.33 71.83 72.00 71.62 70.83 70.06 68.20 70.81 69.95 71.35 72.42 72.79 71.78 70.77 72.14 70.85 71.06 71.26 71.03 70.40 71.83 71.66 70.36 71.15 70.22 69.10 69.22 66.24 67.60 69.36 70.35 71.72 72.28 73.12 72.94 75.09 74.97 71.52
68.05 68.69 69.66 70.89 72.12 72.36 72.40 71.83 71.46 70.64 70.21 68.16 68.71 67.04 68.14 70.79 72.07 72.00 71.68 72.17 70.68 70.75 70.89 71.11 71.26 72.39 70.88 71.13 71.15 70.92 70.61 70.38 69.38 67.66 69.35 70.24 71.13 71.42 71.62 71.92 71.49 73.42 71.85
68.75 68.48 69.14 69.61 71.34 72.37 71.86 72.57 71.56 70.66 70.37 69.11 67.78 66.74 66.90 70.31 72.28 72.54 71.85 70.96 71.68 71.45 70.95 70.98 71.43 70.89 69.95 70.06 70.54 69.74 69.78 71.12 70.79 69.54 68.81 70.52 70.38 71.24 70.74 69.14 69.17 70.35 70.40
67.58 68.12 67.96 67.87 68.62 69.88 70.93 71.58 72.36 72.12 70.38 70.26 68.61 68.63 69.79 71.63 72.40 72.51 72.87 72.73 72.22 72.14 72.26 72.43 72.37 71.84 70.33 70.11 70.55 70.59 69.93 69.69 69.64 69.52 69.45 69.36 69.43 69.29 69.17 67.89 68.21 68.80 68.98
65.61 66.50 67.44 67.51 68.03 68.48 68.39 68.53 71.53 72.16 72.99 72.61 71.46 71.78 72.38 72.11 73.34 72.08 71.99 71.96 71.95 71.94 72.23 72.45 72.95 72.97 71.54 71.17 73.08 71.66 71.27 70.32 69.49 69.47 68.50 67.31 67.36 67.00 67.33 68.61 67.04 68.03 68.99
64.04 65.35 65.98 65.98 66.34 67.22 67.49 68.21 68.33 68.71 71.07 71.35 72.00 72.65 72.61 74.95 69.83 68.17 71.55 71.92 71.96 71.94 71.15 71.17 71.47 72.12 71.74 69.72 68.58 69.04 70.50 70.08 68.74 67.07 66.04 65.61 65.35 66.08 67.70 67.79 67.20 66.30 66.06
61.49 61.52 62.89 64.20 63.70 64.59 66.14 66.77 67.15 67.04 68.01 68.55 69.81 70.88 71.76 72.63 68.22 66.23 66.60 68.70 70.89 71.69 71.70 71.19 71.72 73.34 70.98 72.11 69.48 67.59 66.24 66.01 67.39 67.71 65.77 65.24 65.11 66.67 66.80 66.22 66.20 66.64 67.00
58.56 58.64 60.41 62.27 62.90 63.31 64.17 63.90 65.20 66.75 67.28 67.71 67.62 67.78 68.35 71.05 64.88 64.17 65.31 67.89 68.21 68.67 69.60 71.13 71.91 71.97 71.29 70.84 71.18 71.34 72.14 71.94 68.70 67.75 68.01 69.17 68.13 68.83 67.63 67.71 67.54 68.30 69.63
56.43 56.47 57.81 58.91 58.77 60.38 61.46 62.95 63.92 64.67 65.60 66.07 67.38 67.65 67.63 68.28 63.20 62.48 64.38 68.42 69.43 69.71 70.40 70.52 70.93 71.09 68.53 66.49 70.81 70.78 70.85 71.49 70.48 65.51 65.57 65.26 65.17 65.23 66.92 69.49 68.82 67.90 67.94
53.57 54.51 55.38 55.97 56.60 56.70 57.67 60.62 62.29 61.83 62.29 64.18 65.94 66.42 64.76 67.65 63.56 61.21 63.02 68.01 68.57 70.06 70.70 71.24 65.27 66.35 59.91 58.90 66.91 70.08 69.90 70.51 70.80 71.73 72.23 68.63 66.24 68.11 64.72 69.16 70.25 68.12 67.63
53.13 53.63 54.06 53.98 54.07 54.99 55.51 56.77 58.03 59.99 62.11 61.77 61.68 62.70 65.82 66.19 66.75 60.84 60.30 67.11 67.78 68.73 69.75 70.61 69.52 57.54 55.59 55.77 56.48 63.20 64.95 65.83 65.81 66.88 68.45 70.64 71.73 71.51 71.01 69.64 69.63 70.15 69.10
50.82 51.13 51.33 51.72 54.00 55.19 54.02 55.08 55.44 55.81 57.72 59.28 60.08 60.26 60.47 60.55 58.72 55.97 55.77 57.22 60.75 64.89 64.98 66.22 64.22 55.04 53.23 54.50 58.47 60.95 58.49 59.27 64.31 65.53 66.30 67.18 68.44 69.96 71.85 72.61 72.40 71.21 72.16
49.05 48.84 49.34 50.32 50.84 51.32 50.94 52.26 52.91 53.59 54.05 55.04 57.99 58.42 57.33 58.45 59.10 56.03 55.34 56.44 57.64 61.18 62.99 61.66 56.15 53.88 53.14 56.46 57.86 59.00 58.97 63.53 64.25 64.38 67.14 67.90 68.85 69.65 70.02 69.88 70.56 71.73 72.02
46.96 47.46 48.59 48.93 49.89 49.93 50.11 50.88 50.45 50.62 51.03 52.45 52.78 53.74 56.67 56.75 57.50 57.53 59.62 57.69 57.16 58.13 59.92 60.05 58.78 56.81 55.82 57.81 58.68 63.10 65.62 66.98 67.52 67.29 68.03 68.79 69.46 68.93 68.63 69.45 69.39 70.10 69.20
46.18 47.02 47.14 48.61 48.16 49.20 49.62 49.02 49.66 50.05 50.04 49.40 49.35 51.14 53.89 54.31 56.45 53.88 54.74 56.09 54.59 53.12 53.78 55.55 56.62 56.97 57.55 58.54 61.05 64.20 66.01 68.14 69.12 69.59 69.14 68.70 68.84 69.03 68.98 69.55 68.92 68.90 68.28
43.55 44.47 45.05 45.56 46.82 48.10 48.24 48.89 49.08 47.33 47.07 45.24 43.94 45.67 50.20 49.07 47.38 45.64 44.71 43.94 43.27 46.87 54.91 54.49 54.89 54.91 55.52 57.95 60.73 63.01 64.98 65.79 67.47 68.91 69.43 69.54 69.09 69.14 69.19 69.78 69.04 69.08 68.62
41.94 42.88 43.62 44.97 45.68 45.45 45.99 45.92 45.95 48.34 47.83 46.46 45.33 45.50 44.42 44.29 43.56 42.79 41.56 41.45 42.67 46.34 52.73 52.68 53.81 54.65 57.26 62.01 60.95 61.96 63.18 64.99 66.31 67.45 68.12 69.18 69.90 69.99 68.82 69.32 69.57 69.57 69.31
42.70 46.11 42.71 43.06 43.34 43.93 44.35 44.88 45.83 45.70 46.09 47.86 48.48 47.35 46.61 44.39 43.66 42.38 39.83 42.05 47.52 46.91 52.58 52.84 53.95 57.66 56.94 57.44 57.58 56.50 57.47 58.34 61.02 62.98 65.38 67.88 69.00 69.18 68.60 68.15 68.84 68.48 67.65
42.99 42.95 43.39 42.96 42.78 44.10 43.17 43.36 44.45 45.36 45.71 46.53 48.38 47.86 48.42 45.57 45.50 42.64 40.97 46.60 49.59 51.94 53.75 54.53 56.10 54.99 54.17 55.12 54.73 54.45 55.82 57.26 56.36 59.12 61.93 64.47 66.44 67.70 67.92 67.92 67.56 60.12 61.44
41.19 46.20 45.39 41.03 41.19 41.67 42.53 43.30 43.35 43.77 44.16 45.06 45.92 47.43 49.09 48.27 48.96 50.48 51.94 52.99 52.13 53.27 54.07 53.67 52.86 53.19 53.26 52.64 51.92 52.52 52.41 52.87 54.70 55.55 56.96 59.72 62.72 64.79 65.49 67.49 67.17 65.73 64.83
40.02 40.19 44.95 40.12 40.37 40.99 41.75 41.78 41.95 42.44 42.82 43.28 44.16 46.26 44.93 45.64 47.62 48.88 51.08 49.67 51.53 51.90 51.53 51.21 50.78 49.20 50.19 50.35 49.99 49.78 51.09 51.33 51.44 52.63 53.69 55.27 58.28 58.12 61.08 63.08 65.39 65.91 66.57
38.74 37.88 37.76 37.19 38.20 38.62 38.97 39.64 39.67 40.15 40.58 41.01 42.09 43.80 43.46 46.05 46.85 48.57 49.05 48.28 48.85 50.28 50.15 49.46 48.58 48.45 48.65 48.17 47.28 47.95 47.43 47.72 48.56 49.73 50.55 51.47 51.67 52.83 55.68 58.66 60.48 62.90 64.16
38.29 37.26 36.73 36.32 36.98 39.18 37.24 37.55 37.61 38.29 38.71 39.59 40.00 40.41 41.42 43.82 46.46 47.41 48.82 49.37 47.68 46.24 47.82 47.00 46.46 46.44 46.52 45.98 46.00 45.58 44.46 45.29 46.28 46.75 46.17 46.35 46.53 48.11 51.37 54.11 56.86 58.67 60.45
38.40 37.21 36.67 36.05 35.94 35.87 35.61 35.68 36.33 37.54 37.38 37.44 37.97 39.56 40.05 40.82 40.88 42.55 44.52 47.10 46.51 45.33 43.39 45.01 45.08 44.51 44.21 43.99 43.71 43.21 42.64 42.75 43.28 41.64 40.71 40.72 41.98 44.40 47.95 51.19 54.80 57.68 59.62
37.71 37.55 36.67 35.76 35.62 34.95 34.44 36.43 37.58 37.04 37.04 37.09 37.22 38.09 38.75 39.65 39.82 40.26 42.06 44.06 44.49 43.77 43.31 41.80 43.18 42.82 41.35 39.54 39.21 38.17 37.43 33.92 35.20 35.98 37.04 38.30 39.55 42.41 45.36 47.93 51.26 55.24 58.38
37.78 38.26 37.89 36.36 35.82 35.49 37.59 35.45 36.32 36.12 36.17 36.41 36.66 36.61 36.82 37.72 38.92 39.81 40.79 41.98 42.44 42.24 42.19 42.15 41.39 40.09 37.54 37.35 37.06 35.10 32.17 30.81 33.25 32.87 34.97 36.71 39.24 42.84 47.03 49.75 52.36 55.14 57.82

GFSGL_sfc_wetblb_111.txt.gz
Wetbulb
67.98 68.25 68.47 69.71 70.94 69.92 68.75 69.08 69.73 69.95 70.04 70.69 70.69 71.50 71.84 71.67 71.48 71.05 70.07 70.12 70.09 69.63 70.48 70.21 69.99 70.06 70.94 69.73 70.44 69.50 68.94 68.29 66.70 67.94 68.18 69.77 70.27 70.69 71.02 71.22 71.70 71.10 70.16
67.67 67.91 68.45 68.70 69.44 70.53 71.06 72.07 71.56 70.18 70.06 69.02 68.69 69.08 70.11 70.50 71.49 71.73 70.76 71.45 70.69 69.50 69.76 69.49 69.68 71.47 69.61 69.67 70.18 69.41 69.47 69.21 68.32 66.12 68.09 69.03 70.16 70.50 70.49 69.07 69.82 71.48 69.05
68.59 68.07 67.39 67.78 69.20 70.68 71.33 71.97 71.42 70.44 69.80 69.07 66.79 68.40 67.79 68.65 70.46 71.44 71.33 71.01 70.30 70.44 70.54 69.36 70.06 70.13 69.23 68.58 68.67 69.02 68.85 69.83 69.33 68.39 67.73 69.22 69.95 69.92 69.24 68.98 68.78 68.52 70.66
67.60 67.62 67.44 67.64 68.88 68.93 70.01 70.39 71.06 70.71 69.77 69.73 67.98 66.66 67.27 66.73 69.49 71.60 72.01 71.49 71.14 71.39 71.43 71.15 71.36 71.26 70.66 69.80 69.40 69.45 69.59 68.82 68.52 67.98 67.94 68.32 68.34 67.83 68.29 67.01 66.90 66.57 67.92
66.26 67.04 67.08 67.17 67.91 67.55 67.60 67.60 68.84 70.08 71.11 70.77 70.07 68.97 68.71 69.48 70.76 70.90 71.29 71.23 71.15 71.25 71.70 71.91 71.85 72.03 70.72 70.17 71.47 71.11 70.27 69.48 68.93 68.09 67.55 66.36 65.96 65.40 64.68 66.48 66.25 66.12 67.10
64.77 64.72 65.66 64.55 66.79 66.94 66.96 66.96 67.08 67.87 68.63 69.56 70.64 71.71 71.03 73.18 68.66 67.10 70.51 71.02 71.16 70.83 70.57 70.96 71.31 70.84 70.44 68.54 67.93 67.89 70.31 70.06 68.56 67.40 66.48 65.58 65.05 64.90 65.67 66.37 65.33 64.60 64.02
59.98 60.48 61.67 62.80 62.93 64.76 65.55 65.57 65.90 66.33 67.60 68.16 68.12 68.23 68.39 69.60 63.13 63.59 66.05 69.38 70.35 70.43 70.51 70.74 71.09 72.95 70.12 71.23 69.22 66.46 66.52 65.58 67.88 69.00 66.77 65.92 65.06 65.95 66.05 65.23 65.18 65.29 65.28
55.74 56.04 56.80 58.20 60.42 62.52 62.81 62.36 63.13 64.45 64.42 65.59 66.83 67.44 67.12 68.79 62.27 62.06 64.15 67.08 68.21 68.41 68.52 69.31 70.03 70.76 70.98 70.67 70.63 70.02 70.05 70.61 69.69 67.67 67.45 68.50 67.56 68.31 67.23 67.36 67.01 66.52 67.51
54.75 54.17 54.54 55.38 56.24 57.22 58.43 61.68 62.70 63.01 63.41 64.02 65.28 65.91 66.18 67.26 62.81 60.82 63.67 67.71 68.36 68.34 69.31 69.80 69.87 69.85 65.78 63.27 68.52 69.22 69.77 70.36 68.91 65.41 64.51 64.23 64.05 64.08 65.74 67.78 67.03 66.37 67.96
52.83 52.71 53.16 54.61 54.95 55.41 55.39 57.03 59.63 61.38 62.52 63.29 63.55 64.76 63.87 66.78 63.33 61.72 62.97 68.00 66.98 68.02 68.95 69.54 61.12 62.98 57.13 57.47 64.92 66.79 67.17 68.65 68.62 67.42 68.15 68.15 67.04 67.69 64.03 68.08 69.05 68.09 67.87
50.65 51.10 51.12 51.02 51.83 52.37 52.60 53.52 54.76 55.75 57.71 59.35 61.95 62.27 63.03 63.76 64.33 56.83 57.19 66.42 66.14 67.46 68.23 68.79 67.75 58.26 56.10 54.83 55.74 64.46 65.62 66.77 66.67 67.17 67.46 67.30 68.28 69.71 70.72 68.79 69.16 69.83 69.02
49.79 49.53 49.57 49.65 51.06 51.35 50.28 51.21 51.98 52.68 53.62 54.09 56.52 57.02 59.05 59.30 58.19 55.46 55.01 57.55 60.48 61.81 61.60 64.37 63.19 53.73 52.10 52.48 54.88 58.39 58.20 58.90 64.43 65.77 66.96 66.46 66.88 67.85 69.41 71.09 71.87 70.44 71.81
47.60 47.93 48.39 49.14 49.69 49.86 48.94 48.92 49.17 49.40 50.48 51.27 52.06 52.25 53.59 57.42 57.82 55.01 54.81 56.88 57.60 58.58 59.86 59.83 54.92 52.86 52.79 55.41 56.88 56.64 57.03 61.49 63.64 64.34 65.14 66.25 67.70 68.85 68.84 68.24 68.97 71.26 71.73
45.13 45.43 46.83 46.50 47.31 48.05 48.65 48.86 48.12 48.04 47.90 48.41 49.22 49.42 50.61 53.08 54.44 55.61 55.83 56.49 55.95 56.45 56.97 56.07 56.75 55.27 54.83 56.00 57.12 60.28 62.60 63.57 64.04 65.15 66.17 67.99 69.16 68.18 67.44 68.17 67.61 68.25 67.36
43.72 44.15 44.07 45.09 45.26 45.75 46.49 46.95 47.28 46.67 46.07 45.98 46.92 47.07 47.82 49.44 51.64 47.75 45.42 48.72 52.17 51.67 52.32 55.27 55.29 55.17 55.23 55.63 57.47 60.20 62.29 63.42 64.00 65.74 66.83 67.62 68.15 68.63 68.77 69.23 68.36 67.90 66.64
41.68 42.11 42.45 42.96 43.71 44.34 44.24 44.39 46.53 46.29 45.42 43.66 43.01 44.46 47.94 47.14 44.36 43.06 41.84 41.21 42.09 46.68 52.53 53.49 53.38 54.38 54.39 55.45 57.47 59.30 60.48 61.42 61.66 61.18 62.94 64.58 65.77 67.44 68.30 68.86 69.20 68.02 67.41
40.76 41.12 41.62 42.68 42.42 42.32 42.58 42.34 42.72 44.42 45.83 45.38 43.71 44.11 43.19 43.36 42.98 42.47 40.54 39.95 43.42 46.93 49.77 50.44 51.18 53.32 54.39 56.53 56.77 55.74 54.40 55.42 55.89 58.01 60.11 59.78 62.07 65.10 66.67 68.18 68.50 68.41 67.95
40.48 45.40 41.22 41.37 41.12 41.30 41.43 41.65 42.03 41.68 42.60 44.50 45.07 44.63 44.37 43.15 43.22 41.63 40.23 45.07 48.71 46.99 47.08 49.75 51.55 53.00 55.40 54.76 52.69 52.19 52.63 53.16 54.10 54.84 54.51 57.66 59.96 61.18 62.80 64.85 66.23 66.50 66.50
41.03 40.92 40.78 40.05 40.11 41.40 40.78 41.34 41.54 41.42 41.48 41.79 43.15 43.67 44.66 43.94 42.91 43.47 41.75 46.70 48.99 50.44 51.04 51.78 52.27 55.53 55.35 53.70 52.08 52.68 53.05 52.45 52.65 53.46 53.88 53.72 54.48 56.53 58.83 60.67 62.63 58.40 60.54
39.83 45.31 43.52 38.88 38.78 38.84 39.33 39.44 39.27 39.05 39.53 40.06 41.08 41.83 43.85 43.65 43.94 45.70 47.25 49.17 51.02 52.73 53.09 53.40 52.53 51.88 51.54 50.64 51.64 51.15 50.62 50.12 50.48 50.87 51.11 51.95 52.86 53.27 54.26 56.01 56.51 58.15 60.75
38.80 38.60 43.22 37.39 36.92 37.17 37.51 37.48 37.11 37.37 37.36 37.67 38.31 40.70 41.41 40.17 41.47 43.25 45.57 47.08 49.01 51.31 51.38 50.67 50.34 50.06 49.90 50.13 47.96 49.50 49.52 49.13 49.14 48.85 48.53 49.60 51.07 51.30 51.96 51.29 52.00 54.91 57.53
37.84 37.02 36.45 35.76 36.27 36.75 36.98 36.65 36.28 36.43 36.80 36.80 37.11 38.47 39.64 39.55 39.70 40.33 42.51 45.08 49.10 50.24 49.61 47.49 46.90 47.52 45.90 47.87 47.87 47.54 47.08 46.93 47.04 47.01 46.74 46.83 47.18 47.34 48.53 49.18 49.77 51.02 54.19
37.64 36.70 35.94 35.55 35.92 38.02 35.84 35.69 35.36 35.43 35.91 36.86 36.39 36.43 36.90 37.03 37.90 38.69 40.18 41.21 42.44 44.56 48.08 46.97 46.20 45.23 44.76 45.08 46.26 45.91 45.26 45.03 45.43 45.32 44.24 43.46 43.57 44.13 44.76 45.38 46.54 47.58 49.72
37.61 36.86 36.23 35.71 35.38 35.07 35.06 34.73 34.90 36.10 36.05 35.91 36.85 36.36 36.16 36.25 37.21 38.50 39.67 40.04 40.87 41.97 44.67 45.77 44.96 44.34 44.33 44.12 43.60 43.67 43.93 43.75 43.39 42.84 42.59 41.24 40.32 40.84 42.71 43.79 45.28 47.11 48.97
36.96 36.39 35.72 35.23 35.01 34.97 34.57 34.45 34.47 34.70 35.04 35.59 36.72 36.92 36.55 36.83 36.48 36.16 37.38 39.17 39.83 40.29 41.31 43.02 44.06 43.57 43.05 42.46 42.16 40.81 38.74 34.48 35.62 36.83 37.89 37.39 37.74 39.21 40.63 42.07 43.50 45.18 47.06
36.77 37.14 36.57 35.97 35.54 34.97 34.52 34.27 34.18 33.82 33.37 35.54 36.29 36.36 35.86 35.81 36.07 36.49 36.69 37.39 38.37 39.40 39.88 41.04 41.89 42.12 42.16 41.47 40.13 37.75 33.86 31.92 33.99 32.56 34.20 35.94 37.20 39.02 40.68 42.06 43.92 45.55 47.62

GFSGL_sfc_wetblb_117.txt.gz
Wetbulb
74.45 75.36 75.26 74.76 74.25 74.63 74.31 74.74 75.29 76.01 76.35 76.40 76.54 76.80 76.89 76.99 77.04 76.96 77.10 76.54 76.04 76.44 76.69 76.89 76.63 77.04 76.46 76.67 77.13 76.81 75.80 75.12 71.26 72.71 75.35 76.43 77.25 77.89 78.34 78.11 76.34 74.84 74.67
74.35 74.68 74.51 74.52 75.16 74.97 74.49 73.81 74.63 74.94 75.92 76.15 76.26 75.98 76.07 76.56 76.73 76.54 75.83 75.61 75.93 75.54 75.72 76.35 76.03 75.39 76.65 77.13 75.82 76.51 76.01 76.71 74.06 73.77 75.68 75.30 76.63 77.77 77.66 77.08 75.74 75.18 76.23
73.10 73.25 72.72 73.16 73.48 74.31 75.26 75.96 75.51 75.68 76.16 75.59 75.32 75.15 75.24 75.79 76.63 76.45 76.67 76.13 75.82 76.08 76.11 75.91 75.86 75.91 76.37 75.89 76.24 75.64 75.85 76.10 76.18 74.61 74.41 76.07 76.50 76.94 76.33 77.22 76.83 77.39 76.04
70.80 69.13 69.99 70.99 71.41 71.20 73.33 75.71 76.31 76.80 76.07 75.41 75.29 74.92 74.46 74.55 75.14 75.58 76.27 76.45 76.27 76.11 76.47 76.05 75.80 75.91 76.17 76.69 76.44 77.02 76.87 76.53 76.91 75.21 74.70 74.41 75.50 76.89 75.83 74.48 74.13 75.93 75.70
68.73 68.61 68.54 69.73 70.40 71.51 71.34 72.84 75.46 76.41 76.23 76.13 75.48 75.12 74.16 73.74 73.73 74.31 74.86 75.30 75.69 75.41 76.14 76.55 76.59 74.93 71.83 72.42 76.71 78.05 76.83 74.33 73.57 73.38 72.81 73.50 73.24 73.94 74.03 74.27 73.73 74.44 76.26
66.02 67.26 67.25 69.29 69.40 68.55 69.41 70.86 72.28 73.57 74.43 74.99 74.77 75.47 75.87 75.05 63.64 65.70 70.70 74.65 75.92 76.22 76.16 76.69 77.28 73.64 73.27 68.08 67.63 67.65 72.02 76.32 76.51 73.54 73.51 73.26 75.00 74.88 73.94 73.42 72.80 71.62 69.65
60.63 62.88 63.90 65.86 67.55 67.71 67.95 67.87 68.75 69.73 72.55 72.73 72.63 72.35 71.81 71.64 62.42 63.64 66.79 76.11 76.59 76.65 76.93 76.96 76.82 75.72 73.70 76.67 70.99 67.13 67.40 65.92 67.88 76.31 75.30 75.48 75.01 75.80 75.86 74.92 75.04 74.41 73.48
57.97 60.14 61.00 61.86 63.94 65.44 66.95 67.34 67.83 68.36 69.39 69.78 70.29 71.32 71.55 69.78 61.22 61.15 63.89 75.22 75.92 75.26 75.53 75.64 75.60 75.82 74.47 72.90 75.63 75.97 76.30 76.61 76.28 75.01 75.87 76.27 76.83 77.28 76.89 76.46 75.82 75.38 75.52
56.14 57.58 58.99 61.72 61.76 60.41 61.08 63.10 66.00 66.61 67.13 67.28 68.88 69.26 70.28 70.16 61.12 61.42 67.00 71.68 73.09 73.32 73.69 73.72 73.74 75.01 60.30 60.26 73.49 74.85 75.41 75.91 70.67 66.53 65.45 64.78 65.14 65.21 67.66 73.49 73.70 73.43 72.65
55.35 55.40 57.37 58.24 58.52 58.50 58.95 58.94 61.48 63.74 64.48 65.51 67.51 68.15 63.17 65.41 56.47 56.71 62.62 67.43 66.69 68.12 70.12 68.10 61.33 62.97 58.34 57.21 67.38 70.87 72.53 73.82 73.97 74.48 75.21 73.03 69.43 74.08 64.84 73.12 74.28 72.63 72.50
55.22 55.19 54.63 55.78 56.00 56.76 57.71 58.98 60.21 61.02 62.20 62.81 63.89 64.59 65.28 62.01 59.03 53.41 53.92 64.55 63.50 63.83 64.25 64.76 66.78 56.51 53.69 53.78 55.20 65.27 65.44 63.96 65.50 68.80 71.15 72.63 73.70 74.27 74.64 75.88 76.79 74.41 72.32
54.01 53.45 53.14 53.41 53.77 54.95 56.81 56.68 57.93 58.49 58.03 58.61 58.76 58.99 58.45 59.95 52.77 52.00 51.30 51.98 55.92 62.35 63.11 63.71 63.71 52.76 51.53 52.33 57.16 55.97 55.67 58.21 66.33 66.71 67.10 67.81 68.72 69.86 71.29 72.97 74.33 74.74 75.02
52.27 52.15 52.90 53.22 53.05 53.51 53.82 54.18 53.69 55.80 56.30 56.50 56.69 56.96 57.22 58.04 57.82 51.98 51.57 52.30 53.72 59.82 61.81 57.72 53.86 51.87 53.23 57.61 56.25 56.13 58.12 67.23 67.21 66.62 66.42 67.44 69.09 69.84 71.70 72.26 73.08 74.47 75.26
51.60 50.99 51.38 51.56 51.52 52.37 51.91 51.64 52.21 53.30 54.04 54.34 54.38 54.49 55.53 56.12 54.16 54.29 55.70 57.68 55.32 56.62 54.62 59.51 57.74 55.84 54.03 57.28 60.81 63.19 65.97 66.31 65.74 65.51 64.24 65.18 66.80 66.52 66.52 68.18 67.95 69.73 69.73
50.07 50.93 50.34 50.27 50.36 50.31 50.12 49.85 51.00 50.16 49.80 51.52 52.57 53.48 53.48 52.87 50.21 45.83 45.97 51.68 52.54 51.60 52.71 60.03 58.73 58.82 59.13 60.37 61.73 63.15 64.15 63.86 61.97 61.88 61.86 62.57 62.07 62.19 62.90 64.37 64.68 65.44 66.89
50.01 49.58 48.97 48.87 48.85 49.24 49.44 48.67 44.87 45.08 43.76 42.35 42.55 45.80 50.50 44.74 42.99 41.96 40.19 40.80 41.65 44.20 54.91 56.14 56.56 57.30 57.29 58.15 59.27 60.70 62.58 62.11 62.01 61.00 61.30 59.82 59.49 60.09 60.15 61.04 62.21 62.36 62.25
49.98 49.46 48.22 48.16 47.90 47.60 48.00 48.26 47.40 46.03 44.32 42.38 41.80 42.07 41.70 40.87 41.15 40.87 40.58 40.99 44.60 47.01 54.53 55.07 55.37 56.30 56.32 57.75 58.82 59.23 59.82 60.87 61.05 60.49 59.77 59.26 59.62 59.70 58.29 58.59 59.42 59.63 59.71
50.44 47.10 48.32 47.99 47.82 47.24 46.97 46.43 47.22 46.31 45.87 46.01 43.33 42.57 41.09 40.20 39.88 40.17 40.76 43.46 50.78 50.67 52.54 52.60 54.82 56.35 55.56 55.13 55.08 55.37 55.00 55.40 56.20 57.44 57.51 57.34 58.13 58.08 57.79 58.14 58.44 58.12 58.04
49.46 48.36 48.20 47.64 46.82 46.32 46.57 46.34 46.22 45.78 45.24 45.04 45.84 43.92 43.46 40.10 40.00 40.25 41.52 48.00 47.81 49.33 51.13 51.81 53.06 54.24 54.83 54.68 54.79 54.30 54.06 54.16 53.30 54.51 56.77 56.34 54.39 52.03 53.18 54.94 56.14 51.62 52.46
48.76 47.18 47.34 46.55 46.08 46.36 46.34 46.05 45.50 45.25 45.05 44.64 44.33 43.80 44.46 44.42 44.89 45.19 45.86 46.11 46.32 46.87 47.79 47.29 47.50 46.92 49.65 52.59 53.12 53.24 53.25 53.48 53.56 53.53 53.63 53.19 53.36 53.13 50.81 50.89 52.74 52.64 52.90
49.03 47.48 45.90 46.51 46.30 46.28 46.36 46.17 45.95 45.74 45.32 45.01 44.62 43.05 38.10 42.77 43.33 43.61 43.67 44.41 44.85 45.26 45.54 45.74 46.05 47.03 47.41 47.26 48.23 47.75 48.32 49.24 50.22 50.26 50.53 51.03 50.26 48.99 49.06 48.67 48.53 48.61 49.99
48.79 47.72 46.72 46.43 46.34 46.03 46.30 46.29 46.04 46.16 46.59 45.78 45.72 44.61 38.74 44.16 43.80 43.57 43.51 43.18 43.08 42.69 43.21 43.71 43.97 44.85 45.52 45.14 45.52 45.50 45.07 45.27 45.76 46.68 46.95 47.52 47.70 47.29 46.83 46.05 45.81 45.88 45.99
48.25 47.43 46.72 46.47 46.63 45.25 45.45 46.24 46.30 46.83 47.01 46.99 46.26 45.04 44.55 44.02 43.75 43.37 42.87 43.12 42.69 41.52 41.21 40.81 40.72 41.58 42.91 42.84 44.28 44.84 43.96 44.17 44.68 44.47 43.12 43.01 43.22 42.60 43.16 43.60 43.25 43.15 43.06
48.55 47.85 47.11 46.72 46.40 46.27 46.34 46.35 46.37 41.98 45.40 46.97 47.01 45.88 45.17 44.50 43.73 43.05 42.92 42.67 41.37 40.36 40.21 39.73 39.96 40.05 40.73 41.56 42.02 42.20 43.95 44.66 44.93 44.76 43.86 42.55 41.66 41.11 41.12 41.00 41.44 42.16 42.72
46.40 46.78 47.41 46.99 46.69 46.38 46.46 46.20 46.50 46.66 46.85 46.76 46.42 46.09 45.84 45.12 44.28 43.55 43.06 42.18 41.00 39.45 39.15 39.43 39.76 39.44 39.46 39.88 40.69 41.10 40.14 33.44 38.13 37.31 39.09 39.26 38.58 38.58 38.93 39.09 39.57 40.42 41.20
45.66 45.69 47.78 47.82 47.38 47.50 47.08 46.43 46.36 46.73 46.64 46.95 46.84 46.66 46.04 45.36 44.74 43.65 42.57 41.52 39.55 38.91 38.58 38.43 38.63 38.29 38.42 39.01 39.68 37.76 33.94 32.31 36.01 33.28 35.80 36.57 36.40 36.90 37.87 38.56 39.17 40.42 41.28

GFSGL_sfc_wetblb_120.txt.gz
Wetbulb
75.86 75.73 76.21 75.83 76.61 77.13 76.02 76.95 77.98 77.69 77.49 77.28 77.56 76.88 76.75 76.94 77.66 78.20 77.01 77.00 77.15 77.17 77.40 77.08 77.15 78.57 75.79 76.17 76.17 75.84 74.83 74.33 71.75 72.61 74.21 76.85 78.18 77.33 78.10 78.92 76.99 76.16 74.87
75.99 76.16 75.46 75.90 75.97 75.57 76.54 77.02 77.68 78.27 78.84 78.13 77.68 77.18 77.06 76.90 77.39 77.16 75.91 75.58 76.10 75.84 76.12 76.46 76.50 75.64 77.25 77.63 75.61 77.13 76.42 76.67 74.31 74.10 76.00 75.28 76.43 78.41 78.88 78.98 77.40 75.34 76.79
76.11 75.39 75.35 75.21 75.43 75.59 75.87 76.04 76.87 77.20 77.85 78.05 78.11 77.83 76.38 76.65 77.14 76.85 76.85 76.40 76.27 75.92 76.08 76.31 76.05 76.72 76.74 76.25 76.84 75.99 75.21 75.94 75.98 74.48 73.87 75.41 75.73 76.89 77.19 77.95 77.66 77.86 75.44
75.24 75.01 75.22 75.36 75.56 75.53 76.67 77.12 77.80 77.47 77.69 78.05 78.09 77.84 77.28 77.15 77.44 77.07 76.97 76.62 76.37 75.82 75.92 76.14 76.24 76.27 76.32 76.39 76.30 76.77 76.53 75.64 75.96 74.19 73.38 73.50 73.95 76.74 77.02 74.48 73.72 74.96 74.65
72.13 72.54 73.01 73.42 74.83 75.01 74.93 76.21 77.47 77.25 76.37 76.75 77.54 77.59 77.12 76.43 76.27 76.95 76.84 76.65 76.29 75.64 75.72 76.34 76.60 75.61 72.52 73.18 75.02 76.65 77.17 75.23 73.19 72.17 71.75 72.16 72.52 74.19 74.55 74.24 73.40 73.13 75.46
70.28 70.40 71.03 71.93 72.32 72.30 72.82 73.34 74.69 76.71 77.13 77.81 77.35 76.95 76.76 76.20 64.59 66.94 71.92 76.43 76.59 76.54 75.94 76.42 77.23 74.62 73.68 69.29 68.75 68.56 71.96 77.25 76.06 74.26 73.18 73.46 75.56 75.38 74.49 73.68 74.09 72.86 71.45
66.73 69.90 69.71 70.65 71.19 71.81 71.63 72.19 71.21 72.60 74.97 75.83 76.26 75.97 75.55 74.35 62.56 63.82 67.44 76.45 76.96 76.98 77.18 76.72 76.09 75.00 74.30 76.65 70.70 68.26 68.27 66.78 67.99 76.58 75.31 75.13 75.52 76.34 77.45 76.27 77.14 75.66 74.82
61.12 62.70 65.19 66.99 68.38 69.27 69.99 70.71 71.24 71.63 71.89 72.63 73.17 73.91 72.57 68.84 61.31 61.90 65.00 76.86 77.21 76.94 76.99 77.02 76.92 76.95 70.12 72.63 76.46 76.72 76.77 77.02 77.26 76.50 77.26 77.09 78.15 78.37 78.03 77.79 77.03 77.23 77.25
58.80 59.20 61.40 62.24 62.87 63.85 65.26 67.98 69.92 70.51 70.80 71.07 71.39 72.35 67.65 65.03 56.73 57.88 65.37 75.18 74.64 74.27 73.00 70.21 73.80 69.37 61.01 60.54 72.59 75.40 76.18 76.58 71.69 67.48 65.86 65.02 65.39 65.24 68.54 74.41 74.04 74.34 72.93
58.96 57.86 59.19 60.77 61.88 60.82 60.82 64.97 67.09 69.08 67.36 70.25 68.54 67.23 63.63 64.05 53.35 53.78 61.51 71.19 70.53 71.31 71.27 70.54 61.09 61.79 56.98 57.02 66.68 70.69 71.54 73.49 71.12 72.22 73.29 73.29 70.35 74.90 66.01 75.89 76.37 73.67 73.77
56.33 57.22 57.73 60.34 59.41 61.01 62.88 64.33 63.67 65.80 67.63 65.20 64.83 65.27 62.14 60.86 57.02 52.41 52.90 65.50 64.94 66.55 65.98 67.31 66.69 55.64 53.62 53.70 54.95 67.35 65.30 63.22 65.30 68.11 70.54 72.07 73.25 74.12 74.17 77.04 77.42 74.50 72.86
55.78 55.47 55.93 56.57 56.85 58.14 60.32 62.02 63.74 64.13 63.49 63.85 64.36 64.08 62.93 61.92 53.68 52.81 52.23 53.29 56.17 64.72 64.64 63.98 63.42 52.93 51.48 53.01 58.16 56.78 56.63 59.18 68.22 68.66 68.81 69.14 70.15 70.73 71.80 73.05 74.21 74.58 74.82
55.22 54.96 55.11 55.49 55.02 56.01 57.14 57.76 57.90 60.70 62.04 62.16 62.69 62.42 62.01 61.69 60.78 53.25 52.63 53.38 55.24 61.03 60.67 57.71 53.72 52.25 53.53 57.45 55.91 56.90 57.57 67.10 67.12 66.70 66.82 67.67 68.06 68.73 70.65 72.10 72.46 74.30 74.76
55.46 55.17 55.76 55.29 55.42 54.87 54.36 54.83 55.98 56.86 56.68 56.57 57.47 59.28 60.11 59.54 56.88 57.27 58.35 59.56 56.81 59.08 58.12 61.96 59.83 56.88 56.10 59.98 61.22 63.22 65.54 65.82 64.98 63.71 64.17 64.82 66.07 65.86 64.93 65.79 65.70 66.32 65.98
54.94 55.38 54.88 54.47 54.28 53.68 52.55 52.11 51.69 49.45 50.24 55.52 55.80 54.56 54.73 53.82 49.40 45.48 46.14 51.82 54.41 53.49 51.59 59.84 59.74 59.69 59.73 60.33 61.14 62.26 62.84 64.39 64.38 63.97 63.36 63.46 63.81 63.93 64.27 65.13 64.29 64.30 63.37
54.64 54.28 53.96 53.53 53.25 53.19 52.13 50.24 44.76 44.55 43.13 42.26 42.00 46.85 50.14 43.26 42.05 41.47 40.65 40.97 41.67 43.82 54.75 57.06 57.57 58.57 58.74 59.02 59.47 60.19 61.73 62.17 63.35 62.94 62.42 62.53 62.04 62.17 62.38 62.50 62.87 62.19 61.45
54.18 53.86 52.56 52.48 52.83 52.03 52.55 51.68 48.18 45.42 43.30 41.62 41.14 41.30 40.89 39.69 40.33 40.06 40.10 40.64 42.69 46.36 55.31 56.09 56.84 57.66 58.35 58.64 58.55 58.17 58.09 59.55 60.72 60.19 60.26 60.72 60.77 61.31 61.03 61.04 61.10 61.06 60.44
54.35 47.82 53.44 52.83 52.31 52.02 51.89 51.72 51.92 51.21 50.48 49.00 42.39 43.11 40.64 40.22 39.95 39.96 40.54 44.11 52.39 52.26 54.13 54.29 54.74 55.39 55.98 56.80 57.22 57.23 57.22 57.34 57.32 57.25 57.32 58.61 59.63 59.27 58.16 58.34 59.10 59.14 58.87
53.09 52.33 52.86 52.32 52.02 51.16 51.60 51.46 50.64 50.78 50.76 50.53 50.94 45.54 45.46 41.81 40.91 40.98 41.46 50.73 50.06 50.19 51.02 51.28 51.77 52.26 52.23 53.34 54.69 55.66 55.48 55.94 55.37 55.43 56.13 56.88 56.03 55.27 55.95 55.91 56.53 51.95 53.21
52.90 49.98 52.38 51.11 50.04 50.92 51.14 50.92 50.70 50.67 50.67 50.13 49.76 47.87 47.95 50.03 49.57 49.59 49.91 49.59 49.60 49.62 49.82 49.63 50.17 50.47 50.57 51.52 51.19 51.06 51.09 50.43 51.44 51.24 51.89 52.03 52.19 52.03 51.77 52.13 52.13 52.39 52.94
52.07 50.36 51.45 51.11 51.01 51.06 51.19 51.22 51.45 51.35 50.98 51.08 50.31 44.98 37.55 46.69 48.42 48.29 48.34 48.44 48.16 47.90 47.71 47.73 47.98 48.61 49.14 49.57 49.48 48.51 47.03 46.21 47.41 48.18 48.22 48.77 49.90 49.15 49.69 49.21 48.73 48.41 48.97
51.97 50.75 49.53 50.06 50.47 50.22 50.35 50.81 50.51 50.70 51.01 51.57 51.50 47.09 40.63 47.13 48.81 48.47 48.15 47.92 48.39 47.83 47.18 46.58 46.01 46.01 46.30 46.57 46.21 44.44 45.29 44.99 45.36 46.03 45.37 45.13 45.07 44.45 44.83 44.86 45.08 45.31 45.72
52.32 51.62 50.43 50.51 50.46 48.64 49.03 50.21 49.93 49.96 50.24 51.20 51.83 50.94 50.32 50.51 49.72 48.92 47.94 48.29 48.05 47.36 47.01 46.33 45.15 44.26 44.13 43.60 43.31 43.06 41.89 42.18 43.48 44.20 43.61 43.73 43.83 43.56 43.19 42.36 42.32 42.21 42.37
52.31 51.75 50.82 50.53 50.31 49.81 49.96 49.91 50.01 44.79 48.41 49.96 50.07 50.01 50.01 50.09 49.46 48.38 48.06 47.99 47.33 47.08 46.61 45.72 44.08 41.99 41.50 41.83 41.82 42.04 42.05 42.65 41.66 40.99 41.08 40.46 40.16 40.76 41.38 41.42 41.22 41.43 41.61
50.79 51.89 51.11 50.24 50.51 49.32 50.15 49.60 50.23 50.33 50.08 50.13 50.04 49.98 50.16 50.12 49.55 49.39 49.03 48.41 47.51 46.66 45.60 44.37 42.69 42.08 40.91 41.02 40.87 40.59 38.34 32.29 37.36 36.36 39.42 39.98 38.98 39.20 39.33 39.27 39.79 40.13 41.03
48.95 48.53 49.79 50.91 50.87 51.07 50.94 50.29 50.12 50.14 50.00 50.26 50.35 50.49 50.36 50.25 50.12 50.00 49.29 48.63 47.77 46.82 45.80 44.86 42.02 41.01 40.50 40.67 40.35 36.65 32.91 31.59 35.59 33.14 36.00 36.81 36.87 37.55 38.36 38.85 39.30 39.79 40.21